# Wetter Temperatur Luftdruck Luftfeuchtigkeit Sichtweite Windgeschwindigkeit Windrichtung Zeit
1 Rain 33 1005 66 10000 4.63 310 04:30 17.01.2021
2 Clouds 33 1006 66 10000 3.6 310 02:51 17.01.2021
3 Clouds 30 1006 79 10000 2.06 310 00:56 17.01.2021
4 Clouds 30 1006 74 10000 2.57 310 00:21 17.01.2021
5 Clouds 29 1005 74 10000 2.57 320 23:52 16.01.2021
6 Clear 27 1005 89 10000 1.03 330 23:22 16.01.2021
7 Clouds 26 1004 94 10000 1.03 310 22:53 16.01.2021
8 Rain 25 1004 89 10000 1.54 310 22:19 16.01.2021
9 Rain 26 1004 89 10000 2.06 310 21:45 16.01.2021
10 Clouds 26 1004 89 10000 2.06 310 21:22 16.01.2021
11 Clouds 26 1004 83 10000 1.03 320 20:47 16.01.2021
12 Clouds 26 1004 89 10000 1.54 350 20:23 16.01.2021
13 Clouds 26 1004 89 10000 1.54 10 19:49 16.01.2021
14 Clouds 26 1004 83 10000 1.54 360 19:29 16.01.2021
15 Clouds 27 1004 83 10000 2.57 10 18:46 16.01.2021
16 Clouds 26 1005 83 10000 2.06 20 18:27 16.01.2021
17 Clouds 26 1005 83 10000 2.57 30 17:50 16.01.2021
18 Clouds 26 1005 89 10000 1.54 30 17:30 16.01.2021
19 Rain 27 1005 83 10000 2.06 350 16:53 16.01.2021
20 Rain 26 1005 89 10000 1.54 20 16:35 16.01.2021
21 Clouds 27 1006 78 10000 1.54 50 15:56 16.01.2021
22 Clouds 27 1006 83 10000 3.09 40 15:37 16.01.2021
23 Clear 27 1005 78 10000 2.57 360 14:31 16.01.2021
24 Clear 27 1005 83 10000 3.6 30 13:52 16.01.2021
25 Clouds 27 1004 83 10000 3.09 10 13:31 16.01.2021
26 Rain 28 1004 74 10000 2.57 30 12:48 16.01.2021
27 Rain 28 1004 79 10000 1.54 220 12:23 16.01.2021
28 Rain 29 1004 74 10000 2.57 280 11:55 16.01.2021
29 Rain 30 1003 74 10000 3.09 310 11:26 16.01.2021
30 Rain 30 1003 74 10000 4.12 250 10:54 16.01.2021
31 Rain 30 1002 74 10000 4.12 300 10:35 16.01.2021
32 Rain 31 1002 70 10000 4.63 290 09:54 16.01.2021
33 Clouds 31 1002 70 10000 4.63 310 09:20 16.01.2021
34 Clouds 31 1002 70 10000 4.63 310 08:19 16.01.2021
35 Clouds 32 1003 70 10000 3.6 320 06:49 16.01.2021
36 Clouds 32 1004 70 10000 2.57 300 04:53 16.01.2021
37 Clouds 31 1005 70 10000 2.57 300 03:18 16.01.2021
38 Clouds 30 1006 74 10000 2.06 290 02:42 16.01.2021
39 Clouds 28 1005 79 10000 1.54 110 00:46 16.01.2021
40 Clouds 28 1005 79 10000 2.06 130 00:23 16.01.2021
41 Clear 26 1004 89 10000 2.06 130 23:37 15.01.2021
42 Clear 25 1004 100 10000 0.51 120 22:39 15.01.2021
43 Clear 25 1004 100 10000 0.51 120 22:21 15.01.2021
44 Rain 25 1004 94 10000 0.51 50 21:42 15.01.2021
45 Clouds 25 1003 94 10000 4.13 121 20:49 15.01.2021
46 Rain 25 1003 94 10000 1.54 240 20:24 15.01.2021
47 Clouds 25 1004 88 10000 3.74 107 19:48 15.01.2021
48 Rain 25 1004 94 10000 2.06 160 19:29 15.01.2021
49 Rain 25 1004 94 10000 2.06 170 18:54 15.01.2021
50 Clouds 25 1004 94 10000 2.06 100 18:21 15.01.2021
51 Clouds 25 1004 100 10000 2.06 70 17:59 15.01.2021
52 Clouds 26 1004 94 10000 1.54 60 17:40 15.01.2021
53 Clouds 25 1004 94 10000 1.54 60 17:21 15.01.2021
54 Clouds 25 1004 94 10000 2.06 50 16:46 15.01.2021
55 Clouds 26 1004 94 10000 0.51 140 16:23 15.01.2021
56 Clear 26 1005 94 10000 3.09 180 15:41 15.01.2021
57 Clear 26 1005 94 10000 3.09 180 15:21 15.01.2021
58 Rain 26 1005 94 10000 3.09 180 14:44 15.01.2021
59 Rain 26 1005 94 10000 3.6 200 14:25 15.01.2021
60 Rain 25 1005 100 10000 3.6 210 13:42 15.01.2021
61 Rain 25 1005 100 10000 3.6 210 13:22 15.01.2021
62 Rain 25 1005 94 10000 3.6 210 12:51 15.01.2021
63 Rain 24 1006 100 9000 3.09 240 12:31 15.01.2021
64 Rain 27 1005 89 4000 8.23 100 11:50 15.01.2021
65 Rain 28 1005 78 10000 8.75 60 11:31 15.01.2021
66 Rain 30 1004 70 10000 2.57 300 10:56 15.01.2021
67 Rain 30 1003 66 10000 1.54 310 10:37 15.01.2021
68 Rain 31 1003 66 10000 1.54 280 09:56 15.01.2021
69 Rain 31 1002 66 10000 3.09 300 09:35 15.01.2021
70 Rain 32 1002 66 10000 3.6 300 08:48 15.01.2021
71 Rain 32 1002 66 10000 2.57 280 08:21 15.01.2021
72 Rain 33 1003 62 10000 1.54 300 07:41 15.01.2021
73 Rain 32 1003 62 10000 1.54 300 07:19 15.01.2021
74 Clouds 31 1005 70 10000 2.06 180 04:35 15.01.2021
75 Clouds 28 1006 94 10000 2.06 260 01:48 15.01.2021
76 Rain 26 1006 94 10000 1.03 20 23:55 14.01.2021
77 Rain 25 1005 94 10000 2.06 110 23:27 14.01.2021
78 Rain 26 1004 94 10000 3.6 140 22:48 14.01.2021
79 Clouds 25 1004 94 10000 3.09 140 22:25 14.01.2021
80 Clear 25 1003 100 10000 3.6 150 21:49 14.01.2021
81 Rain 25 1003 100 10000 2.06 150 21:21 14.01.2021
82 Rain 25 1003 100 10000 1.03 330 20:52 14.01.2021
83 Rain 25 1003 100 10000 3.6 340 20:27 14.01.2021
84 Rain 25 1004 100 10000 3.6 360 19:48 14.01.2021
85 Rain 25 1004 100 10000 2.57 360 19:29 14.01.2021
86 Rain 25 1005 100 10000 3.4 220 18:55 14.01.2021
87 Rain 25 1005 100 10000 0.51 190 18:31 14.01.2021
88 Rain 25 1006 100 10000 1.03 320 17:53 14.01.2021
89 Rain 25 1006 100 10000 2.57 330 17:27 14.01.2021
90 Rain 25 1006 94 9000 3.6 350 16:50 14.01.2021
91 Rain 25 1007 94 10000 1.03 330 16:26 14.01.2021
92 Rain 25 1007 100 10000 3.09 240 15:49 14.01.2021
93 Clouds 25 1008 94 9000 3.6 290 15:25 14.01.2021
94 Rain 25 1008 100 800 6.17 40 14:41 14.01.2021
95 Rain 27 1007 89 5000 4.63 10 14:20 14.01.2021
96 Rain 28 1007 89 2500 3.09 150 13:54 14.01.2021
97 Clouds 29 1006 83 10000 2.06 110 13:23 14.01.2021
98 Rain 29 1006 84 10000 2.57 120 12:56 14.01.2021
99 Rain 29 1006 84 10000 0.51 240 12:21 14.01.2021
100 Rain 29 1006 84 10000 1.54 260 11:53 14.01.2021
101 Rain 30 1005 84 10000 1.54 260 11:25 14.01.2021
102 Rain 30 1005 79 10000 2.06 280 10:57 14.01.2021
103 Rain 30 1005 79 10000 2.57 280 10:38 14.01.2021
104 Rain 30 1005 79 10000 2.57 280 10:18 14.01.2021
105 Rain 30 1004 79 10000 3.6 280 09:42 14.01.2021
106 Rain 30 1004 79 10000 3.6 280 09:20 14.01.2021
107 Rain 31 1003 74 10000 4.12 300 08:30 14.01.2021
108 Rain 31 1004 70 10000 5.14 310 07:53 14.01.2021
109 Rain 32 1004 62 10000 4.12 300 07:30 14.01.2021
110 Rain 31 1005 74 10000 3.09 20 06:33 14.01.2021
111 Rain 33 1006 62 10000 4.12 300 04:56 14.01.2021
112 Clouds 28 1007 83 10000 0.79 178 23:59 13.01.2021
113 Clouds 27 1007 89 10000 0.94 144 23:27 13.01.2021
114 Clouds 26 1006 94 10000 0.94 144 22:48 13.01.2021
115 Clouds 26 1006 94 10000 1.05 133 22:20 13.01.2021
116 Clouds 26 1006 94 10000 1.05 133 21:43 13.01.2021
117 Clouds 26 1006 94 10000 0.96 161 21:22 13.01.2021
118 Clouds 26 1006 94 10000 0.96 161 20:51 13.01.2021
119 Clouds 26 1006 94 10000 0.84 196 20:23 13.01.2021
120 Clouds 26 1006 94 10000 0.84 196 19:48 13.01.2021
121 Rain 26 1006 89 10000 0.82 244 19:24 13.01.2021
122 Rain 26 1006 89 10000 0.69 251 18:46 13.01.2021
123 Rain 27 1006 89 10000 1.12 264 18:25 13.01.2021
124 Rain 27 1006 89 10000 1.12 264 17:42 13.01.2021
125 Clouds 27 1006 89 10000 1.71 304 17:18 13.01.2021
126 Clouds 27 1007 89 10000 1.71 304 16:45 13.01.2021
127 Clouds 28 1007 78 10000 1.93 312 16:21 13.01.2021
128 Clear 28 1008 89 10000 2.57 180 15:41 13.01.2021
129 Clear 28 1008 89 10000 2.57 180 15:20 13.01.2021
130 Clouds 28 1008 89 10000 1.03 160 14:28 13.01.2021
131 Clouds 29 1007 79 10000 2.06 190 13:48 13.01.2021
132 Clouds 29 1007 79 10000 1.03 180 13:25 13.01.2021
133 Clouds 29 1007 84 10000 1.54 270 12:46 13.01.2021
134 Clouds 29 1006 84 10000 1.54 280 12:27 13.01.2021
135 Clouds 29 1006 84 10000 2.06 350 11:52 13.01.2021
136 Clouds 30 1006 84 10000 1.03 340 11:34 13.01.2021
137 Clouds 30 1005 66 10000 1.54 290 10:50 13.01.2021
138 Rain 30 1005 62 10000 2.57 300 10:29 13.01.2021
139 Rain 31 1005 66 10000 3.09 330 09:49 13.01.2021
140 Rain 31 1005 66 10000 4.12 340 09:28 13.01.2021
141 Rain 32 1004 62 10000 4.63 340 08:48 13.01.2021
142 Rain 32 1004 66 10000 4.12 340 08:25 13.01.2021
143 Rain 32 1004 62 10000 4.12 330 07:30 13.01.2021
144 Rain 34 1005 66 10000 4.12 300 06:26 13.01.2021
145 Clouds 34 1006 52 10000 3.6 320 04:19 13.01.2021
146 Clouds 34 1007 55 10000 1.54 180 03:44 13.01.2021
147 Clouds 33 1007 58 10000 1.03 150 03:23 13.01.2021
148 Clear 30 1007 74 10000 0.51 160 00:54 13.01.2021
149 Clear 26 1007 89 10000 1.03 150 23:44 12.01.2021
150 Clouds 25 1006 88 10000 1.54 130 23:20 12.01.2021
151 Clouds 25 1006 88 10000 2.06 70 22:45 12.01.2021
152 Clouds 25 1005 88 10000 1.54 70 22:23 12.01.2021
153 Clouds 25 1005 94 10000 2.57 110 21:49 12.01.2021
154 Clouds 25 1005 94 10000 2.57 110 21:26 12.01.2021
155 Clouds 25 1005 94 10000 2.57 150 20:48 12.01.2021
156 Clouds 25 1005 94 10000 2.57 160 20:27 12.01.2021
157 Clouds 25 1005 94 10000 2.06 90 19:47 12.01.2021
158 Rain 25 1005 88 10000 2.06 100 19:26 12.01.2021
159 Rain 25 1005 94 10000 2.06 70 18:42 12.01.2021
160 Rain 25 1005 94 10000 2.06 70 18:23 12.01.2021
161 Rain 25 1005 83 10000 2.06 250 17:39 12.01.2021
162 Rain 25 1005 83 10000 2.06 250 17:19 12.01.2021
163 Rain 25 1006 78 10000 3.6 270 16:43 12.01.2021
164 Rain 25 1006 88 10000 4.63 250 16:22 12.01.2021
165 Rain 25 1007 88 9000 5.14 220 15:39 12.01.2021
166 Rain 25 1007 88 9000 5.14 220 15:18 12.01.2021
167 Rain 24 1008 94 2500 5.14 150 14:41 12.01.2021
168 Rain 24 1008 94 6000 8.75 110 14:21 12.01.2021
169 Rain 26 1008 78 7000 10.8 110 13:52 12.01.2021
170 Clouds 29 1006 84 10000 1.03 60 12:54 12.01.2021
171 Clouds 29 1005 74 10000 1.54 310 12:22 12.01.2021
172 Clouds 30 1005 74 10000 2.06 250 11:40 12.01.2021
173 Rain 30 1004 66 10000 3.6 260 10:52 12.01.2021
174 Rain 31 1004 66 10000 3.6 260 10:21 12.01.2021
175 Rain 30 1003 66 10000 2.06 190 09:57 12.01.2021
176 Clouds 31 1004 79 10000 2.57 210 09:28 12.01.2021
177 Rain 31 1004 79 10000 5.66 170 08:51 12.01.2021
178 Rain 32 1004 79 10000 5.66 170 08:25 12.01.2021
179 Rain 31 1003 89 1500 4.63 290 07:36 12.01.2021
180 Rain 33 1004 66 10000 6.17 300 06:39 12.01.2021
181 Rain 33 1005 66 10000 4.63 300 05:34 12.01.2021
182 Clouds 33 1007 58 10000 3.6 270 03:27 12.01.2021
183 Clouds 32 1007 66 10000 3.09 260 02:19 12.01.2021
184 Clouds 31 1008 79 10000 2.06 240 01:28 12.01.2021
185 Clouds 27 1007 83 10000 2.06 170 23:57 11.01.2021
186 Clouds 27 1007 78 10000 0.51 100 23:36 11.01.2021
187 Clouds 27 1007 78 10000 0.51 100 23:18 11.01.2021
188 Clouds 25 1006 94 10000 1.03 130 22:44 11.01.2021
189 Clouds 24 1006 94 10000 1.03 130 22:26 11.01.2021
190 Clouds 24 1006 88 10000 1.03 120 21:42 11.01.2021
191 Clouds 24 1006 88 10000 1.03 120 21:23 11.01.2021
192 Clear 24 1006 94 10000 1.03 210 20:47 11.01.2021
193 Clear 24 1005 88 10000 1.03 180 20:28 11.01.2021
194 Clear 25 1006 88 10000 1.03 150 19:57 11.01.2021
195 Clouds 25 1006 94 10000 1.03 130 19:34 11.01.2021
196 Clouds 25 1006 94 10000 1.03 100 18:46 11.01.2021
197 Clouds 25 1006 94 10000 2.06 110 18:28 11.01.2021
198 Clouds 25 1006 94 10000 2.06 90 17:57 11.01.2021
199 Clouds 25 1006 94 10000 1.54 90 17:38 11.01.2021
200 Clouds 25 1006 94 10000 1.54 90 17:20 11.01.2021
201 Clouds 25 1007 100 10000 1.75 246 16:41 11.01.2021
202 Clouds 25 1007 100 10000 2.52 213 16:22 11.01.2021
203 Clear 25 1007 94 10000 2.52 213 15:49 11.01.2021
204 Rain 25 1007 94 10000 3.13 207 15:29 11.01.2021
205 Rain 25 1007 89 10000 1.03 10 14:40 11.01.2021
206 Clear 25 1007 89 10000 1.03 10 14:19 11.01.2021
207 Clouds 25 1007 89 10000 2.57 150 13:43 11.01.2021
208 Clouds 25 1007 89 10000 2.57 150 13:19 11.01.2021
209 Clouds 26 1007 94 10000 3.09 160 12:36 11.01.2021
210 Clouds 26 1006 89 10000 1.54 260 11:58 11.01.2021
211 Clouds 26 1005 89 10000 2.06 260 11:36 11.01.2021
212 Rain 26 1005 94 10000 1.03 310 10:53 11.01.2021
213 Rain 26 1005 89 10000 1.54 360 10:28 11.01.2021
214 Rain 26 1005 89 10000 1.54 280 09:45 11.01.2021
215 Rain 26 1005 89 10000 1.54 280 09:24 11.01.2021
216 Rain 25 1005 88 10000 1.03 110 08:47 11.01.2021
217 Rain 25 1005 94 9000 2.06 220 08:21 11.01.2021
218 Rain 27 1006 89 10000 4.12 300 07:40 11.01.2021
219 Rain 27 1006 89 10000 4.12 300 07:19 11.01.2021
220 Rain 27 1006 94 8000 2.06 200 06:47 11.01.2021
221 Clouds 32 1008 70 10000 0.51 230 01:53 11.01.2021
222 Clouds 29 1008 74 10000 1.03 130 00:40 11.01.2021
223 Clouds 28 1008 78 10000 1.54 170 23:46 10.01.2021
224 Clouds 26 1007 83 10000 1.03 140 22:49 10.01.2021
225 Clouds 25 1007 94 10000 0.51 70 22:28 10.01.2021
226 Clouds 25 1006 89 10000 1.03 80 21:58 10.01.2021
227 Clouds 25 1006 94 10000 1.03 70 21:39 10.01.2021
228 Clouds 25 1006 94 10000 1.03 70 21:18 10.01.2021
229 Clouds 25 1006 94 10000 1.54 70 20:44 10.01.2021
230 Clouds 25 1006 94 10000 1.54 60 20:26 10.01.2021
231 Clouds 25 1006 94 10000 1.54 60 20:26 10.01.2021
232 Clouds 25 1006 94 10000 1.54 70 19:38 10.01.2021
233 Clouds 25 1006 94 10000 1.54 70 19:20 10.01.2021
234 Clouds 25 1006 94 10000 3.09 80 18:44 10.01.2021
235 Clouds 26 1006 94 10000 2.57 70 18:20 10.01.2021
236 Clouds 26 1007 94 10000 2.06 100 17:26 10.01.2021
237 Clouds 26 1007 94 10000 2.06 90 16:50 10.01.2021
238 Clouds 27 1007 94 10000 2.57 90 16:30 10.01.2021
239 Clouds 26 1007 94 10000 0.51 230 15:40 10.01.2021
240 Clouds 26 1007 94 10000 0.51 230 15:22 10.01.2021
241 Clouds 26 1008 94 10000 2.13 279 14:41 10.01.2021
242 Clouds 26 1008 94 10000 2.56 268 14:22 10.01.2021
243 Clouds 26 1007 94 10000 0.51 290 13:43 10.01.2021
244 Clouds 26 1007 94 10000 1.54 260 13:24 10.01.2021
245 Clouds 26 1006 100 10000 1.54 250 12:56 10.01.2021
246 Clouds 26 1006 89 10000 1.54 300 12:38 10.01.2021
247 Rain 26 1006 94 10000 2.57 320 11:56 10.01.2021
248 Clouds 26 1006 89 10000 1.54 310 11:21 10.01.2021
249 Rain 25 1006 94 10000 3.09 280 10:51 10.01.2021
250 Rain 25 1006 94 10000 3.09 280 10:24 10.01.2021
251 Rain 25 1006 94 10000 4.63 290 09:46 10.01.2021
252 Rain 28 1005 89 10000 5.66 180 08:38 10.01.2021
253 Rain 31 1005 74 10000 4.12 270 07:47 10.01.2021
254 Rain 32 1005 70 10000 3.6 270 06:50 10.01.2021
255 Rain 31 1005 74 10000 3.09 270 06:18 10.01.2021
256 Clouds 32 1006 70 10000 5.66 310 05:27 10.01.2021
257 Clouds 31 1008 79 10000 1.54 330 01:58 10.01.2021
258 Clouds 27 1008 83 10000 1.03 150 00:23 10.01.2021
259 Clouds 26 1007 83 10000 1.54 120 23:41 09.01.2021
260 Clouds 26 1007 83 10000 1.54 120 23:20 09.01.2021
261 Clouds 25 1006 88 10000 1.03 70 22:22 09.01.2021
262 Clouds 25 1006 88 10000 2.06 70 21:59 09.01.2021
263 Clouds 25 1006 88 10000 2.06 70 21:59 09.01.2021
264 Clear 25 1006 94 10000 2.06 80 21:39 09.01.2021
265 Clear 25 1006 94 10000 2.06 80 21:21 09.01.2021
266 Clouds 25 1006 94 10000 1.54 80 20:56 09.01.2021
267 Clouds 25 1005 89 10000 2.57 130 20:32 09.01.2021
268 Clouds 25 1005 94 10000 1.03 70 19:40 09.01.2021
269 Clouds 25 1005 94 10000 1.03 70 19:21 09.01.2021
270 Rain 25 1006 94 10000 1.54 70 18:38 09.01.2021
271 Rain 25 1006 94 10000 1.54 70 18:38 09.01.2021
272 Clouds 25 1006 94 10000 1.54 70 18:18 09.01.2021
273 Clouds 26 1006 89 10000 2.06 40 17:41 09.01.2021
274 Clouds 26 1006 89 10000 2.06 40 17:22 09.01.2021
275 Clouds 26 1007 89 10000 1.54 10 16:28 09.01.2021
276 Clouds 26 1007 89 10000 1.54 10 15:41 09.01.2021
277 Clouds 26 1007 89 10000 1.54 10 15:22 09.01.2021
278 Clear 26 1007 89 10000 2.31 50 14:37 09.01.2021
279 Clear 26 1007 89 10000 2.37 91 14:19 09.01.2021
280 Clouds 26 1007 83 10000 1.03 290 13:45 09.01.2021
281 Rain 26 1007 83 10000 2.06 230 13:27 09.01.2021
282 Clouds 27 1006 83 10000 1.54 90 12:29 09.01.2021
283 Clouds 27 1006 78 10000 3.09 130 11:59 09.01.2021
284 Clouds 27 1006 78 10000 5.14 100 11:40 09.01.2021
285 Rain 27 1006 78 10000 5.14 100 11:22 09.01.2021
286 Rain 27 1006 78 10000 5.66 160 10:48 09.01.2021
287 Rain 28 1006 78 10000 5.66 160 10:25 09.01.2021
288 Rain 29 1005 79 10000 3.09 180 09:45 09.01.2021
289 Rain 30 1004 70 10000 2.06 240 09:21 09.01.2021
290 Rain 32 1003 66 10000 3.09 290 08:25 09.01.2021
291 Rain 32 1004 66 10000 4.12 340 06:55 09.01.2021
292 Rain 33 1005 62 10000 4.12 330 06:36 09.01.2021
293 Clouds 33 1006 62 10000 3.09 330 04:40 09.01.2021
294 Clouds 32 1007 70 10000 3.09 30 02:47 09.01.2021
295 Clouds 31 1007 74 10000 3.09 60 02:28 09.01.2021
296 Clouds 30 1007 79 10000 3.09 60 01:35 09.01.2021
297 Clouds 28 1008 78 10000 2.06 50 00:34 09.01.2021
298 Clouds 27 1007 83 10000 1.54 70 23:50 08.01.2021
299 Clear 26 1007 89 10000 1.54 60 22:49 08.01.2021
300 Clear 25 1006 88 10000 2.06 60 21:57 08.01.2021
301 Clear 25 1006 88 10000 1.54 120 21:31 08.01.2021
302 Clouds 26 1005 83 10000 1.54 160 20:41 08.01.2021
303 Rain 26 1005 83 10000 1.54 160 20:21 08.01.2021
304 Rain 26 1006 83 10000 2.57 140 19:38 08.01.2021
305 Rain 26 1006 83 10000 2.57 140 19:19 08.01.2021
306 Clouds 26 1006 89 10000 2.06 130 18:34 08.01.2021
307 Clouds 26 1006 89 10000 2.57 150 17:55 08.01.2021
308 Clouds 27 1006 83 10000 3.09 150 17:30 08.01.2021
309 Clouds 27 1006 83 10000 3.09 190 16:51 08.01.2021
310 Clouds 27 1006 83 10000 3.09 190 16:51 08.01.2021
311 Clear 27 1007 83 10000 2.06 170 15:57 08.01.2021
312 Clear 27 1007 89 10000 2.06 160 15:38 08.01.2021
313 Clouds 27 1007 89 10000 1.54 160 14:41 08.01.2021
314 Clouds 27 1007 89 10000 1.54 160 14:22 08.01.2021
315 Clouds 28 1007 83 10000 2.06 160 13:22 08.01.2021
316 Clouds 27 1007 89 10000 3.09 170 12:53 08.01.2021
317 Clear 27 1006 83 10000 1.03 170 12:23 08.01.2021
318 Clear 27 1006 83 10000 1.03 170 12:23 08.01.2021
319 Clouds 27 1006 83 10000 2.06 140 11:59 08.01.2021
320 Clouds 27 1005 83 10000 1.03 190 11:40 08.01.2021
321 Clouds 28 1005 83 10000 1.03 190 11:20 08.01.2021
322 Clouds 29 1006 78 10000 4.63 200 10:45 08.01.2021
323 Rain 31 1005 70 10000 1.54 320 09:57 08.01.2021
324 Rain 32 1004 62 10000 2.06 340 09:38 08.01.2021
325 Rain 32 1004 62 10000 2.06 340 09:19 08.01.2021
326 Rain 30 1004 79 10000 1.54 80 07:44 08.01.2021
327 Rain 29 1004 78 10000 2.57 110 07:25 08.01.2021
328 Clouds 33 1006 70 10000 3.09 340 04:18 08.01.2021
329 Clear 27 1007 83 10000 2.06 120 23:43 07.01.2021
330 Clear 27 1007 83 10000 2.06 120 23:25 07.01.2021
331 Clear 26 1006 89 10000 2.06 140 22:36 07.01.2021
332 Clear 26 1006 94 10000 2.06 160 21:52 07.01.2021
333 Clear 26 1005 89 10000 1.54 150 21:33 07.01.2021
334 Clouds 26 1005 89 10000 2.06 150 20:56 07.01.2021
335 Clouds 26 1005 94 10000 2.06 140 20:37 07.01.2021
336 Clouds 25 1005 89 10000 1.54 140 19:50 07.01.2021
337 Clouds 25 1005 89 10000 1.54 140 19:50 07.01.2021
338 Clouds 25 1005 89 10000 2.06 170 19:30 07.01.2021
339 Clouds 25 1005 89 10000 1.54 160 18:50 07.01.2021
340 Rain 25 1005 89 10000 0.51 110 18:22 07.01.2021
341 Rain 25 1005 89 10000 0.51 160 17:36 07.01.2021
342 Rain 25 1005 89 10000 0.51 160 17:18 07.01.2021
343 Rain 25 1006 94 10000 1.54 150 16:45 07.01.2021
344 Rain 25 1006 89 10000 2.06 120 16:20 07.01.2021
345 Rain 25 1006 94 10000 3.09 100 15:31 07.01.2021
346 Rain 25 1007 94 10000 2.06 100 14:42 07.01.2021
347 Clear 25 1007 94 10000 2.06 100 14:22 07.01.2021
348 Clear 25 1006 89 10000 2.06 130 13:31 07.01.2021
349 Rain 25 1006 88 10000 2.06 160 12:57 07.01.2021
350 Rain 25 1007 94 3000 3.6 240 12:29 07.01.2021
351 Rain 27 1007 94 8000 5.1 160 11:51 07.01.2021
352 Rain 28 1007 94 8000 5.1 160 11:30 07.01.2021
353 Clouds 31 1004 70 10000 3.6 300 10:47 07.01.2021
354 Clouds 31 1004 70 10000 3.6 310 10:19 07.01.2021
355 Clouds 31 1003 70 10000 3.1 320 09:45 07.01.2021
356 Rain 32 1003 66 10000 3.6 330 09:18 07.01.2021
357 Rain 33 1002 62 10000 3.1 300 08:26 07.01.2021
358 Rain 33 1002 59 10000 3.1 310 07:45 07.01.2021
359 Rain 33 1003 59 10000 2.6 300 06:59 07.01.2021
360 Clouds 32 1006 62 10000 2.6 110 03:35 07.01.2021
361 Clear 27 1007 78 10000 1.5 90 00:27 07.01.2021
362 Clear 25 1007 88 10000 2.1 160 23:36 06.01.2021
363 Clear 24 1006 88 10000 2.1 130 22:37 06.01.2021
364 Clear 24 1005 94 10000 1.5 120 21:42 06.01.2021
365 Clouds 24 1005 94 10000 2.1 110 21:23 06.01.2021
366 Clouds 24 1005 94 10000 2.1 110 20:51 06.01.2021
367 Rain 25 1004 88 10000 2.1 170 20:23 06.01.2021
368 Clouds 25 1003 88 10000 4.1 160 19:49 06.01.2021
369 Clouds 25 1003 88 10000 4.1 160 19:29 06.01.2021
370 Clouds 25 1004 88 10000 3.6 170 18:55 06.01.2021
371 Clouds 25 1003 88 10000 1.5 140 18:36 06.01.2021
372 Rain 25 1003 88 10000 1.5 140 18:18 06.01.2021
373 Rain 25 1004 88 10000 2.6 140 17:41 06.01.2021
374 Rain 25 1004 88 10000 1.5 190 17:21 06.01.2021
375 Rain 25 1005 88 10000 0.5 330 16:39 06.01.2021
376 Rain 25 1004 88 10000 1.5 340 16:18 06.01.2021
377 Rain 24 1005 94 10000 2.1 60 15:49 06.01.2021
378 Rain 24 1006 94 10000 1.5 20 15:24 06.01.2021
379 Rain 24 1007 94 10000 2.6 70 14:41 06.01.2021
380 Rain 24 1007 94 10000 4.6 70 14:19 06.01.2021
381 Rain 24 1007 94 10000 5.7 110 13:40 06.01.2021
382 Rain 24 1008 94 8000 5.1 110 13:18 06.01.2021
383 Rain 24 1008 94 9000 5.7 110 12:45 06.01.2021
384 Rain 24 1009 94 4000 6.2 120 11:50 06.01.2021
385 Rain 24 1008 94 4000 6.2 110 11:24 06.01.2021
386 Rain 25 1007 94 2500 9.3 130 10:46 06.01.2021
387 Clouds 29 1006 83 5000 6.2 140 09:53 06.01.2021
388 Rain 31 1004 70 10000 6.7 280 09:34 06.01.2021
389 Thunderstorm 32 1002 66 10000 6.7 300 08:55 06.01.2021
390 Rain 33 1002 63 10000 6.7 300 08:21 06.01.2021
391 Rain 33 1002 63 10000 6.7 300 07:53 06.01.2021
392 Rain 35 1003 59 10000 6.7 290 06:45 06.01.2021
393 Clouds 34 1004 56 10000 5.7 300 05:32 06.01.2021
394 Clouds 34 1006 52 10000 3.1 270 04:31 06.01.2021
395 Clouds 31 1007 70 10000 3.1 260 02:45 06.01.2021
396 Clouds 32 1007 66 10000 3.1 240 02:22 06.01.2021
397 Rain 30 1007 74 10000 2.6 240 00:22 06.01.2021
398 Rain 28 1006 83 10000 1 230 22:59 05.01.2021
399 Rain 27 1006 83 10000 1 230 22:40 05.01.2021
400 Rain 28 1006 83 10000 1.5 240 22:20 05.01.2021
401 Rain 27 1005 83 10000 1.5 230 21:52 05.01.2021
402 Clouds 28 1005 79 10000 2.1 240 20:41 05.01.2021
403 Clouds 29 1005 79 10000 2.6 260 20:23 05.01.2021
404 Clouds 29 1005 79 10000 3.6 270 19:41 05.01.2021
405 Clouds 29 1005 79 10000 3.1 260 19:21 05.01.2021
406 Clouds 29 1005 79 10000 3.1 260 18:42 05.01.2021
407 Clouds 29 1005 79 10000 2.6 270 18:23 05.01.2021
408 Clouds 29 1005 79 10000 3.1 270 17:49 05.01.2021
409 Rain 29 1006 79 10000 2.1 260 17:26 05.01.2021
410 Rain 29 1006 79 10000 2.6 270 16:52 05.01.2021
411 Rain 29 1006 79 10000 3.6 270 16:21 05.01.2021
412 Rain 29 1006 79 10000 3.1 270 15:50 05.01.2021
413 Clouds 29 1007 79 10000 2.6 270 14:57 05.01.2021
414 Clouds 29 1007 79 10000 2.6 270 14:38 05.01.2021
415 Clouds 29 1007 79 10000 3.1 260 13:49 05.01.2021
416 Rain 29 1007 74 10000 2.6 250 13:26 05.01.2021
417 Clouds 29 1006 74 10000 3.1 260 12:49 05.01.2021
418 Rain 29 1006 74 10000 3.1 280 12:26 05.01.2021
419 Rain 30 1005 74 10000 3.6 270 11:39 05.01.2021
420 Rain 30 1004 74 10000 4.6 290 10:56 05.01.2021
421 Rain 30 1004 74 10000 4.6 290 10:37 05.01.2021
422 Clouds 31 1004 70 10000 4.6 300 09:50 05.01.2021
423 Clouds 31 1004 70 10000 4.6 300 09:30 05.01.2021
424 Clouds 32 1003 66 10000 4.1 310 08:28 05.01.2021
425 Clouds 33 1003 63 10000 4.6 320 07:46 05.01.2021
426 Rain 33 1004 66 10000 5.1 310 04:59 05.01.2021
427 Clouds 30 1007 74 10000 1 260 01:31 05.01.2021
428 Clouds 29 1006 83 10000 2.1 340 00:21 05.01.2021
429 Clouds 27 1006 88 10000 1.5 290 23:38 04.01.2021
430 Clouds 26 1006 88 10000 3.1 300 23:19 04.01.2021
431 Clouds 27 1006 83 10000 2.6 320 22:41 04.01.2021
432 Clouds 25 1006 88 10000 3.6 320 21:56 04.01.2021
433 Rain 25 1004 94 10000 4.1 330 21:37 04.01.2021
434 Rain 25 1004 94 10000 2.6 340 20:53 04.01.2021
435 Rain 25 1004 94 10000 2.6 340 20:32 04.01.2021
436 Rain 25 1006 88 10000 6.7 80 19:55 04.01.2021
437 Clouds 25 1005 88 10000 5.7 90 19:29 04.01.2021
438 Clouds 25 1005 88 10000 5.7 90 18:58 04.01.2021
439 Rain 30 1005 74 10000 2.6 290 18:31 04.01.2021
440 Clouds 29 1005 74 10000 3.6 320 17:45 04.01.2021
441 Clouds 29 1005 74 10000 4.1 290 17:27 04.01.2021
442 Clouds 29 1005 79 10000 5.7 290 16:48 04.01.2021
443 Clouds 29 1005 79 10000 5.7 290 16:28 04.01.2021
444 Clouds 29 1006 79 10000 4.6 290 15:52 04.01.2021
445 Clouds 29 1006 79 10000 4.6 290 15:52 04.01.2021
446 Clouds 29 1006 79 10000 4.1 300 15:34 04.01.2021
447 Clouds 29 1006 79 10000 5.1 300 14:52 04.01.2021
448 Clouds 30 1006 74 10000 5.1 290 13:55 04.01.2021
449 Clouds 30 1006 79 10000 5.1 280 13:35 04.01.2021
450 Clouds 30 1005 74 10000 5.1 280 12:50 04.01.2021
451 Clouds 30 1005 74 10000 5.1 280 12:50 04.01.2021
452 Clouds 30 1005 79 10000 5.7 290 12:25 04.01.2021
453 Clouds 30 1004 79 10000 5.7 280 11:32 04.01.2021
454 Clouds 30 1003 79 10000 6.2 290 10:56 04.01.2021
455 Clouds 31 1003 70 10000 6.7 290 10:38 04.01.2021
456 Clouds 31 1003 70 10000 7.2 290 10:19 04.01.2021
457 Clouds 32 1003 62 10000 7.7 290 09:24 04.01.2021
458 Clouds 33 1003 63 10000 8.2 290 08:50 04.01.2021
459 Clouds 33 1003 63 10000 7.7 290 08:21 04.01.2021
460 Clouds 33 1003 63 10000 8.7 290 07:45 04.01.2021
461 Clouds 33 1004 63 10000 7.7 300 05:35 04.01.2021
462 Clouds 34 1005 63 10000 7.2 290 04:50 04.01.2021
463 Clouds 32 1005 66 10000 6.7 280 01:30 04.01.2021
464 Clouds 30 1005 74 10000 4.6 280 23:55 03.01.2021
465 Clouds 30 1005 79 10000 6.2 280 23:34 03.01.2021
466 Clouds 30 1005 79 10000 5.1 270 22:57 03.01.2021
467 Clouds 29 1004 79 10000 6.2 280 22:39 03.01.2021
468 Clouds 29 1004 83 10000 6.7 280 22:20 03.01.2021
469 Clouds 29 1004 79 10000 6.7 280 21:34 03.01.2021
470 Clouds 29 1003 83 10000 6.7 290 20:56 03.01.2021
471 Clouds 29 1004 83 10000 5.7 290 20:38 03.01.2021
472 Clouds 30 1004 79 10000 6.7 290 19:59 03.01.2021
473 Clouds 30 1004 74 10000 6.7 290 19:37 03.01.2021
474 Clouds 30 1004 74 10000 6.7 300 19:19 03.01.2021
475 Clouds 29 1004 79 10000 6.7 300 18:42 03.01.2021
476 Clouds 30 1004 74 10000 6.7 300 18:21 03.01.2021
477 Clouds 30 1004 79 10000 6.2 300 17:49 03.01.2021
478 Clouds 30 1004 79 10000 6.2 300 17:26 03.01.2021
479 Clouds 30 1005 79 10000 6.7 300 16:44 03.01.2021
480 Clouds 30 1005 74 10000 6.7 300 16:20 03.01.2021
481 Clouds 30 1005 79 10000 6.7 290 15:52 03.01.2021
482 Clouds 30 1005 79 10000 6.7 290 15:34 03.01.2021
483 Clouds 30 1006 79 10000 5.7 290 14:58 03.01.2021
484 Clouds 30 1006 79 10000 6.7 300 14:31 03.01.2021
485 Clouds 30 1005 79 10000 6.7 300 13:47 03.01.2021
486 Clouds 30 1005 79 10000 6.2 300 13:23 03.01.2021
487 Clouds 30 1005 79 10000 6.2 300 13:23 03.01.2021
488 Clouds 30 1005 74 10000 6.7 300 12:50 03.01.2021
489 Clouds 30 1004 79 10000 5.1 300 11:43 03.01.2021
490 Clouds 30 1004 79 10000 5.1 300 11:24 03.01.2021
491 Clouds 30 1003 74 10000 6.7 300 10:52 03.01.2021
492 Clouds 30 1003 74 10000 6.7 300 10:30 03.01.2021
493 Clouds 31 1003 74 10000 5.7 290 09:41 03.01.2021
494 Clouds 31 1003 74 10000 6.7 290 09:22 03.01.2021
495 Clouds 32 1003 70 10000 7.7 300 07:50 03.01.2021
496 Clouds 32 1004 70 10000 7.7 300 05:58 03.01.2021
497 Clouds 32 1006 70 10000 6.7 290 02:28 03.01.2021
498 Clouds 31 1006 74 10000 5.7 290 01:45 03.01.2021
499 Clouds 30 1005 79 10000 4.6 280 00:20 03.01.2021
500 Clouds 29 1005 79 10000 4.1 280 23:30 02.01.2021
501 Clouds 29 1004 79 10000 5.7 280 22:56 02.01.2021
502 Clouds 29 1004 83 10000 5.7 280 22:32 02.01.2021
503 Clouds 29 1003 79 10000 7.2 280 21:52 02.01.2021
504 Clouds 29 1003 79 10000 7.2 280 21:32 02.01.2021
505 Clouds 29 1003 83 10000 5.7 290 20:56 02.01.2021
506 Clouds 29 1003 83 10000 5.7 290 20:38 02.01.2021
507 Clouds 29 1003 83 10000 5.7 290 20:19 02.01.2021
508 Clouds 29 1004 83 10000 6.7 290 19:21 02.01.2021
509 Clouds 29 1004 79 10000 7.2 290 18:58 02.01.2021
510 Clouds 29 1004 79 10000 7.2 290 18:40 02.01.2021
511 Clouds 29 1004 79 10000 7.2 290 18:40 02.01.2021
512 Clouds 29 1004 74 10000 6.7 300 18:20 02.01.2021
513 Clouds 30 1005 74 10000 6.2 290 17:45 02.01.2021
514 Clouds 30 1005 74 10000 6.2 300 17:22 02.01.2021
515 Clouds 30 1005 79 10000 7.7 300 16:24 02.01.2021
516 Clouds 30 1005 79 10000 7.7 300 15:57 02.01.2021
517 Clouds 30 1005 74 10000 6.2 290 15:38 02.01.2021
518 Clouds 30 1006 74 10000 7.2 300 15:20 02.01.2021
519 Clouds 30 1005 79 10000 7.2 300 14:36 02.01.2021
520 Clouds 30 1006 79 10000 6.7 300 13:58 02.01.2021
521 Clouds 30 1006 79 10000 6.2 300 13:32 02.01.2021
522 Clouds 30 1005 79 10000 5.7 300 12:53 02.01.2021
523 Clouds 30 1005 74 10000 5.1 300 12:32 02.01.2021
524 Clouds 30 1004 74 10000 6.2 300 11:45 02.01.2021
525 Clouds 30 1004 79 10000 6.7 290 11:22 02.01.2021
526 Clouds 30 1003 74 10000 5.7 300 10:49 02.01.2021
527 Clouds 31 1003 74 10000 5.7 300 10:28 02.01.2021
528 Rain 32 1003 66 10000 6.2 310 09:52 02.01.2021
529 Clouds 32 1003 70 10000 6.7 300 09:23 02.01.2021
530 Clouds 32 1003 70 10000 7.2 300 08:50 02.01.2021
531 Clouds 32 1003 70 10000 7.2 300 08:28 02.01.2021
532 Clouds 32 1003 70 10000 8.2 300 07:47 02.01.2021
533 Clouds 33 1003 66 10000 7.7 300 07:22 02.01.2021
534 Clouds 32 1003 70 10000 7.7 310 06:42 02.01.2021
535 Clouds 33 1004 66 10000 6.7 310 05:45 02.01.2021
536 Clouds 31 1006 74 10000 5.7 280 00:58 02.01.2021
537 Clouds 30 1006 79 10000 5.1 270 00:37 02.01.2021
538 Clouds 29 1006 83 10000 4.1 280 23:55 01.01.2021
539 Clouds 29 1005 83 10000 4.6 280 23:21 01.01.2021
540 Clouds 29 1005 83 10000 4.1 280 22:47 01.01.2021
541 Clouds 29 1004 83 10000 3.6 270 22:24 01.01.2021
542 Clouds 29 1004 79 10000 3.6 270 21:44 01.01.2021
543 Clouds 29 1004 83 10000 3.6 280 21:22 01.01.2021
544 Clouds 29 1004 83 10000 3.6 280 20:53 01.01.2021
545 Clouds 29 1003 79 10000 4.6 280 20:22 01.01.2021
546 Clouds 29 1003 79 10000 4.6 280 19:59 01.01.2021
547 Clouds 29 1004 79 10000 4.6 290 19:40 01.01.2021
548 Clouds 29 1004 79 10000 3.6 280 19:20 01.01.2021
549 Clouds 28 1004 79 10000 3.6 280 18:41 01.01.2021
550 Clouds 28 1004 79 10000 2.6 280 18:20 01.01.2021
551 Clouds 27 1005 94 10000 2.1 290 17:42 01.01.2021
552 Clouds 27 1005 88 10000 1 280 17:22 01.01.2021
553 Clouds 28 1005 88 10000 2.1 270 16:45 01.01.2021
554 Clouds 28 1006 88 10000 0.5 260 15:57 01.01.2021
555 Clouds 28 1006 79 10000 2.1 270 15:39 01.01.2021
556 Clear 28 1006 94 10000 2.1 270 14:42 01.01.2021
557 Clouds 28 1006 83 10000 2.1 310 14:21 01.01.2021
558 Clouds 28 1006 83 10000 2.93 271 13:37 01.01.2021
559 Clouds 28 1005 88 10000 2.6 260 12:51 01.01.2021
560 Clouds 28 1005 88 10000 2.6 260 12:27 01.01.2021
561 Rain 27 1005 88 10000 3.1 230 11:42 01.01.2021
562 Thunderstorm 28 1005 74 10000 6.2 190 11:19 01.01.2021
563 Thunderstorm 29 1005 74 10000 6.2 190 10:56 01.01.2021
564 Rain 31 1004 70 10000 3.6 270 10:26 01.01.2021
565 Rain 31 1004 70 10000 4.1 280 09:30 01.01.2021
566 Rain 31 1004 70 10000 5.1 290 08:30 01.01.2021
567 Rain 33 1004 63 10000 6.2 300 06:46 01.01.2021
568 Clouds 33 1005 66 10000 5.7 300 04:50 01.01.2021
569 Clouds 31 1007 79 10000 3.1 280 01:43 01.01.2021
570 Rain 30 1007 79 10000 2.6 270 00:32 01.01.2021
571 Rain 29 1006 83 10000 1.5 240 23:41 31.12.2020
572 Rain 29 1006 83 10000 1.5 240 23:21 31.12.2020
573 Rain 28 1005 88 10000 1.5 240 22:42 31.12.2020
574 Rain 28 1005 88 10000 2.6 240 22:24 31.12.2020
575 Clouds 28 1005 88 10000 2.6 250 21:57 31.12.2020
576 Rain 28 1005 88 10000 2.6 250 21:39 31.12.2020
577 Clouds 28 1005 88 10000 2.6 280 21:20 31.12.2020
578 Rain 28 1005 88 10000 3.1 280 20:31 31.12.2020
579 Rain 28 1005 88 10000 2.6 270 19:51 31.12.2020
580 Clouds 28 1005 88 10000 2.6 270 19:33 31.12.2020
581 Clouds 28 1005 88 10000 2.6 280 18:56 31.12.2020
582 Rain 28 1005 88 10000 2.6 300 18:26 31.12.2020
583 Clouds 27 1006 94 10000 2.1 300 17:55 31.12.2020
584 Rain 27 1006 94 10000 2.1 300 17:37 31.12.2020
585 Rain 27 1006 94 10000 0.5 290 17:18 31.12.2020
586 Rain 27 1006 94 10000 1 340 16:38 31.12.2020
587 Clouds 27 1006 94 10000 3.08 245 16:20 31.12.2020
588 Rain 27 1007 94 10000 3.08 245 15:43 31.12.2020
589 Clouds 27 1006 94 10000 0.5 280 15:20 31.12.2020
590 Clouds 27 1006 94 10000 1.5 300 14:42 31.12.2020
591 Rain 27 1006 94 10000 1 240 14:23 31.12.2020
592 Rain 27 1006 94 10000 1 240 13:59 31.12.2020
593 Rain 27 1005 94 10000 1 250 13:37 31.12.2020
594 Rain 27 1005 88 10000 1.5 270 13:19 31.12.2020
595 Clouds 26 1005 94 10000 3.43 264 12:49 31.12.2020
596 Rain 26 1005 94 10000 2.01 193 12:31 31.12.2020
597 Rain 29 1005 79 10000 4.6 270 11:47 31.12.2020
598 Rain 29 1004 74 10000 5.7 270 11:29 31.12.2020
599 Rain 30 1003 74 10000 4.6 280 10:45 31.12.2020
600 Clouds 30 1003 74 10000 6.7 290 10:27 31.12.2020
601 Rain 30 1003 74 10000 7.2 290 09:49 31.12.2020
602 Clouds 31 1003 74 10000 7.2 300 09:24 31.12.2020
603 Clouds 32 1003 66 10000 7.2 300 08:49 31.12.2020
604 Rain 32 1003 66 10000 7.2 300 08:31 31.12.2020
605 Rain 32 1003 70 10000 6.7 310 07:56 31.12.2020
606 Clouds 31 1003 70 10000 7.2 300 07:25 31.12.2020
607 Clouds 32 1005 66 10000 5.7 310 05:30 31.12.2020
608 Rain 31 1006 62 10000 3.6 260 03:37 31.12.2020
609 Rain 31 1006 62 10000 3.1 190 02:38 31.12.2020
610 Clouds 30 1006 66 10000 2.1 250 02:20 31.12.2020
611 Clouds 31 1006 66 10000 1.5 270 01:42 31.12.2020
612 Clouds 29 1006 70 10000 1 250 01:19 31.12.2020
613 Clouds 29 1006 70 10000 1 250 00:41 31.12.2020
614 Clouds 27 1005 83 10000 2.6 200 23:41 30.12.2020
615 Clouds 27 1005 83 10000 1.5 190 23:19 30.12.2020
616 Clouds 26 1005 83 10000 2.6 210 22:43 30.12.2020
617 Rain 26 1005 88 10000 2.6 200 22:23 30.12.2020
618 Clouds 26 1004 94 10000 2.6 190 21:38 30.12.2020
619 Rain 26 1004 88 10000 2.6 200 21:19 30.12.2020
620 Rain 26 1004 88 10000 2.6 190 20:41 30.12.2020
621 Rain 26 1004 83 10000 2.1 190 20:20 30.12.2020
622 Rain 27 1004 83 10000 2.1 210 19:39 30.12.2020
623 Rain 27 1004 83 10000 3.1 220 19:19 30.12.2020
624 Rain 27 1004 83 10000 2.6 230 18:42 30.12.2020
625 Clouds 27 1004 83 10000 1 240 18:23 30.12.2020
626 Clouds 27 1004 83 10000 1 240 17:50 30.12.2020
627 Clouds 27 1005 78 10000 3.1 270 17:31 30.12.2020
628 Clouds 28 1005 78 10000 4.1 290 16:52 30.12.2020
629 Rain 28 1005 78 10000 4.1 290 16:27 30.12.2020
630 Rain 28 1006 78 10000 2.6 260 15:45 30.12.2020
631 Rain 28 1006 78 10000 2.1 260 15:24 30.12.2020
632 Rain 28 1006 78 10000 3.6 240 14:43 30.12.2020
633 Rain 28 1006 78 10000 3.1 260 14:22 30.12.2020
634 Rain 28 1005 78 10000 3.6 250 13:26 30.12.2020
635 Rain 28 1005 78 10000 3.1 260 12:28 30.12.2020
636 Rain 28 1005 78 10000 3.1 260 11:57 30.12.2020
637 Rain 28 1004 70 10000 3.6 270 11:36 30.12.2020
638 Clouds 29 1003 70 10000 4.6 260 11:18 30.12.2020
639 Clouds 29 1003 70 10000 3.6 270 10:40 30.12.2020
640 Rain 29 1003 74 10000 4.1 270 10:21 30.12.2020
641 Rain 29 1003 74 10000 4.6 270 09:48 30.12.2020
642 Rain 29 1003 79 10000 5.1 280 09:25 30.12.2020
643 Clouds 30 1003 70 10000 6.2 290 08:27 30.12.2020
644 Clouds 31 1003 70 10000 7.2 300 07:29 30.12.2020
645 Clouds 31 1004 70 10000 5.7 290 06:51 30.12.2020
646 Clouds 31 1004 70 10000 5.7 290 06:29 30.12.2020
647 Rain 30 1004 70 10000 3.6 280 05:42 30.12.2020
648 Clouds 31 1005 74 10000 3.6 260 05:24 30.12.2020
649 Rain 27 1007 88 10000 3.6 230 03:28 30.12.2020
650 Clouds 26 1007 88 10000 3.1 240 02:39 30.12.2020
651 Rain 25 1007 100 10000 1.5 280 01:56 30.12.2020
652 Rain 25 1007 100 10000 1.5 280 01:32 30.12.2020
653 Rain 25 1007 94 6000 1 310 00:47 30.12.2020
654 Rain 25 1007 94 6000 1 310 00:29 30.12.2020
655 Rain 25 1007 94 4800 3.1 280 23:54 29.12.2020
656 Rain 25 1007 94 4800 3.1 280 23:35 29.12.2020
657 Rain 25 1006 94 8000 3.6 210 22:56 29.12.2020
658 Rain 25 1006 94 8000 3.6 210 22:37 29.12.2020
659 Rain 26 1005 94 10000 5.36 251 22:19 29.12.2020
660 Rain 26 1005 94 10000 1.5 230 21:44 29.12.2020
661 Rain 26 1004 94 10000 3.1 230 21:24 29.12.2020
662 Rain 26 1004 94 10000 4.1 220 20:45 29.12.2020
663 Rain 26 1004 88 600 2.6 230 20:25 29.12.2020
664 Rain 26 1004 94 10000 1.5 230 19:46 29.12.2020
665 Rain 26 1004 94 10000 1.5 230 19:23 29.12.2020
666 Rain 26 1005 94 10000 1.5 290 18:54 29.12.2020
667 Rain 26 1005 88 10000 2.6 280 18:29 29.12.2020
668 Rain 26 1005 88 8000 4.1 280 17:56 29.12.2020
669 Rain 26 1005 88 8000 4.1 280 17:36 29.12.2020
670 Rain 26 1006 88 10000 3.6 340 17:18 29.12.2020
671 Rain 27 1006 83 5000 7.7 290 16:34 29.12.2020
672 Rain 29 1006 79 10000 4.1 330 15:53 29.12.2020
673 Rain 28 1006 83 10000 3.6 330 15:33 29.12.2020
674 Rain 28 1007 83 10000 3.1 330 14:55 29.12.2020
675 Rain 28 1007 83 10000 3.1 330 14:36 29.12.2020
676 Rain 28 1006 83 10000 3.6 320 14:18 29.12.2020
677 Rain 28 1006 88 10000 2.6 280 13:37 29.12.2020
678 Rain 28 1006 74 7000 2.6 270 13:18 29.12.2020
679 Clouds 28 1006 83 10000 3.1 280 12:37 29.12.2020
680 Clouds 28 1005 83 10000 2.6 270 12:19 29.12.2020
681 Clouds 28 1005 79 10000 2.6 290 11:50 29.12.2020
682 Clouds 29 1004 79 10000 2.6 290 11:31 29.12.2020
683 Clouds 29 1004 79 10000 4.6 310 10:22 29.12.2020
684 Clouds 30 1004 74 10000 5.1 310 09:42 29.12.2020
685 Clouds 30 1003 74 10000 4.1 320 09:19 29.12.2020
686 Clouds 30 1003 74 10000 4.1 320 09:19 29.12.2020
687 Clouds 30 1003 74 10000 4.6 310 08:49 29.12.2020
688 Clouds 31 1003 74 10000 3.6 300 07:44 29.12.2020
689 Clouds 30 1004 79 10000 4.1 300 07:26 29.12.2020
690 Rain 29 1004 83 10000 3.6 300 06:19 29.12.2020
691 Rain 25 1007 94 10000 3.6 210 03:18 29.12.2020
692 Rain 25 1007 94 10000 1.5 110 00:44 29.12.2020
693 Rain 25 1006 94 10000 2.9 214 23:41 28.12.2020
694 Rain 25 1006 94 9000 2.6 180 22:58 28.12.2020
695 Rain 25 1006 94 7000 3.6 170 22:24 28.12.2020
696 Rain 25 1005 94 10000 2.6 200 21:44 28.12.2020
697 Rain 25 1005 88 3200 3.1 210 21:24 28.12.2020
698 Rain 25 1005 94 2700 2.6 230 20:40 28.12.2020
699 Rain 27 1005 88 10000 5.7 300 20:22 28.12.2020
700 Rain 27 1005 88 10000 2.1 320 19:46 28.12.2020
701 Rain 27 1005 88 10000 1.5 350 19:23 28.12.2020
702 Rain 27 1005 88 10000 1.5 310 18:51 28.12.2020
703 Rain 27 1005 88 10000 1.5 310 18:28 28.12.2020
704 Rain 27 1006 83 10000 2.6 350 17:45 28.12.2020
705 Rain 27 1006 83 10000 3.6 330 17:25 28.12.2020
706 Rain 28 1006 79 10000 4.1 320 16:45 28.12.2020
707 Rain 28 1007 83 10000 3.6 290 16:24 28.12.2020
708 Rain 28 1007 70 10000 3.6 300 15:50 28.12.2020
709 Rain 28 1007 83 10000 3.6 290 14:58 28.12.2020
710 Rain 29 1007 83 10000 2.1 350 14:23 28.12.2020
711 Clouds 28 1007 88 10000 2.1 310 13:35 28.12.2020
712 Clouds 29 1006 79 10000 2.1 350 12:57 28.12.2020
713 Rain 29 1005 74 10000 2.1 280 12:24 28.12.2020
714 Clouds 29 1005 79 10000 2.6 270 11:47 28.12.2020
715 Clouds 29 1005 79 10000 2.6 270 11:47 28.12.2020
716 Rain 29 1005 70 10000 3.1 290 11:26 28.12.2020
717 Rain 29 1005 70 10000 3.1 290 10:54 28.12.2020
718 Clouds 30 1004 70 10000 3.6 280 10:28 28.12.2020
719 Clouds 30 1004 66 10000 5.1 300 09:52 28.12.2020
720 Clouds 31 1004 66 10000 5.1 300 09:22 28.12.2020
721 Clouds 31 1004 66 10000 5.1 300 08:58 28.12.2020
722 Clouds 31 1004 70 10000 5.1 300 06:52 28.12.2020
723 Rain 30 1005 74 10000 3.6 330 04:56 28.12.2020
724 Rain 32 1007 62 10000 2.6 300 03:26 28.12.2020
725 Clouds 30 1007 79 10000 2.89 259 01:54 28.12.2020
726 Rain 27 1006 88 10000 1.5 80 23:52 27.12.2020
727 Rain 26 1006 88 10000 1.5 80 23:27 27.12.2020
728 Rain 26 1005 94 10000 2.1 90 22:28 27.12.2020
729 Rain 25 1005 88 10000 1.5 60 21:49 27.12.2020
730 Rain 25 1005 94 10000 2.1 70 21:21 27.12.2020
731 Rain 25 1005 88 10000 2.6 120 20:25 27.12.2020
732 Rain 26 1005 83 10000 2.1 120 19:24 27.12.2020
733 Rain 26 1005 88 10000 1.5 150 18:50 27.12.2020
734 Rain 26 1006 88 10000 2.1 140 18:20 27.12.2020
735 Rain 26 1006 88 10000 2.1 140 17:56 27.12.2020
736 Rain 26 1006 94 10000 1 170 17:35 27.12.2020
737 Rain 27 1007 88 10000 1 230 16:56 27.12.2020
738 Rain 27 1008 83 10000 1.5 230 16:22 27.12.2020
739 Rain 28 1007 79 10000 1.5 230 15:31 27.12.2020
740 Rain 27 1007 79 10000 1.5 240 14:50 27.12.2020
741 Clouds 28 1007 79 10000 1.5 260 14:31 27.12.2020
742 Clouds 28 1007 83 10000 2.1 260 13:36 27.12.2020
743 Clouds 28 1007 83 10000 2.1 260 13:36 27.12.2020
744 Clouds 28 1006 83 10000 1.5 280 12:56 27.12.2020
745 Clouds 28 1006 79 10000 2.1 270 12:24 27.12.2020
746 Clouds 28 1005 79 10000 2.1 270 11:42 27.12.2020
747 Clouds 28 1005 74 10000 2.6 280 11:20 27.12.2020
748 Clouds 28 1004 74 10000 2.6 270 10:40 27.12.2020
749 Rain 28 1004 74 10000 2.6 250 10:19 27.12.2020
750 Rain 28 1004 70 10000 2.1 240 09:36 27.12.2020
751 Rain 32 1004 66 10000 5.1 270 08:28 27.12.2020
752 Rain 32 1004 70 10000 6.2 300 07:28 27.12.2020
753 Clouds 32 1006 70 10000 5.1 300 05:56 27.12.2020
754 Clouds 32 1006 59 10000 3.6 290 05:38 27.12.2020
755 Clouds 31 1008 62 10000 2.1 250 03:24 27.12.2020
756 Clouds 30 1009 70 10000 1 120 01:56 27.12.2020
757 Rain 27 1008 83 10000 2.1 110 00:38 27.12.2020
758 Clear 25 1007 94 10000 1.5 130 23:43 26.12.2020
759 Clear 25 1007 94 10000 1.5 120 23:23 26.12.2020
760 Clear 24 1007 100 10000 2.1 120 22:45 26.12.2020
761 Clear 24 1006 94 10000 2.1 140 22:19 26.12.2020
762 Clear 24 1006 94 10000 2.1 140 21:53 26.12.2020
763 Clear 24 1006 94 10000 2.1 140 21:53 26.12.2020
764 Clear 24 1006 94 10000 2.1 150 21:26 26.12.2020
765 Clouds 25 1005 94 10000 1.5 160 20:45 26.12.2020
766 Clouds 25 1005 94 10000 1.5 120 20:24 26.12.2020
767 Clouds 25 1005 94 10000 2.1 160 19:32 26.12.2020
768 Clouds 25 1006 94 10000 1.5 170 18:59 26.12.2020
769 Clouds 25 1006 94 10000 2.1 130 18:34 26.12.2020
770 Clouds 25 1006 94 10000 0.5 30 17:47 26.12.2020
771 Clouds 25 1006 94 10000 2.1 350 17:28 26.12.2020
772 Clouds 25 1007 94 10000 1.5 280 16:40 26.12.2020
773 Clear 25 1007 100 10000 1 330 16:18 26.12.2020
774 Rain 25 1008 94 10000 1 240 15:21 26.12.2020
775 Rain 25 1008 94 10000 1 240 14:41 26.12.2020
776 Rain 25 1008 94 10000 2.1 200 14:20 26.12.2020
777 Rain 24 1008 94 10000 2.1 200 13:38 26.12.2020
778 Rain 24 1008 100 10000 1 150 13:18 26.12.2020
779 Rain 24 1008 94 9000 1.5 150 12:41 26.12.2020
780 Rain 24 1008 94 9000 2.1 190 12:19 26.12.2020
781 Rain 24 1008 94 8000 2.6 210 11:42 26.12.2020
782 Thunderstorm 24 1008 100 3000 2.6 110 11:20 26.12.2020
783 Rain 24 1008 100 1300 3.6 120 10:49 26.12.2020
784 Rain 24 1008 100 1300 3.6 120 10:27 26.12.2020
785 Rain 25 1006 94 3000 2.6 120 09:49 26.12.2020
786 Rain 27 1006 94 5000 3.6 150 09:24 26.12.2020
787 Rain 30 1005 74 10000 5.1 290 08:20 26.12.2020
788 Rain 30 1005 74 10000 5.1 290 07:33 26.12.2020
789 Rain 30 1005 66 10000 5.7 290 06:19 26.12.2020
790 Rain 32 1008 55 10000 2.1 180 02:49 26.12.2020
791 Clear 29 1008 83 10000 2.6 190 00:43 26.12.2020
792 Rain 28 1008 83 10000 2.6 190 23:59 25.12.2020
793 Clear 28 1008 94 10000 1 180 23:39 25.12.2020
794 Rain 27 1008 94 10000 1.5 210 23:20 25.12.2020
795 Clear 26 1007 100 10000 1.5 230 22:37 25.12.2020
796 Rain 26 1007 94 10000 1.5 230 21:50 25.12.2020
797 Rain 26 1006 94 10000 1 210 21:32 25.12.2020
798 Rain 26 1006 94 10000 1.5 230 20:48 25.12.2020
799 Clouds 27 1006 94 10000 1.5 230 20:28 25.12.2020
800 Clouds 26 1006 94 10000 1.5 230 19:44 25.12.2020
801 Rain 26 1006 94 10000 1.5 230 18:58 25.12.2020
802 Clouds 26 1007 94 10000 1 230 18:38 25.12.2020
803 Clouds 27 1007 94 10000 0.5 220 17:35 25.12.2020
804 Clouds 26 1008 94 10000 1 240 16:58 25.12.2020
805 Clouds 27 1008 94 10000 1 260 16:32 25.12.2020
806 Clouds 27 1008 94 10000 1 260 15:57 25.12.2020
807 Clouds 27 1009 94 10000 1.5 260 15:35 25.12.2020
808 Clouds 27 1009 94 10000 0.5 290 14:49 25.12.2020
809 Clouds 27 1009 94 10000 0.5 290 14:28 25.12.2020
810 Rain 27 1008 100 10000 2.98 249 13:44 25.12.2020
811 Rain 27 1008 94 10000 1 80 13:25 25.12.2020
812 Clouds 27 1008 94 10000 1 210 12:35 25.12.2020
813 Rain 28 1007 83 10000 1.5 270 11:54 25.12.2020
814 Rain 28 1007 83 10000 1.5 270 11:29 25.12.2020
815 Rain 29 1006 79 10000 1.5 280 10:53 25.12.2020
816 Rain 29 1006 74 10000 2.6 270 10:23 25.12.2020
817 Rain 29 1006 74 10000 3.1 290 09:32 25.12.2020
818 Rain 30 1006 70 10000 3.6 300 08:47 25.12.2020
819 Rain 30 1005 66 10000 3.6 300 07:57 25.12.2020
820 Rain 30 1006 70 10000 3.6 300 06:44 25.12.2020
821 Rain 30 1009 74 10000 1.5 280 02:51 25.12.2020
822 Clouds 29 1009 79 10000 0.5 50 01:41 25.12.2020
823 Clouds 27 1008 94 10000 1 60 00:18 25.12.2020
824 Clouds 26 1007 94 10000 0.5 140 23:23 24.12.2020
825 Clouds 26 1007 94 10000 0.5 160 22:40 24.12.2020
826 Rain 25 1007 100 10000 1.97 118 22:19 24.12.2020
827 Rain 26 1006 94 10000 1 130 21:32 24.12.2020
828 Rain 26 1007 94 10000 1.5 70 20:20 24.12.2020
829 Thunderstorm 26 1007 94 10000 0.5 50 18:40 24.12.2020
830 Clouds 26 1007 94 10000 1 80 18:18 24.12.2020
831 Clouds 26 1007 94 10000 1.5 90 17:36 24.12.2020
832 Clouds 26 1008 94 10000 1.5 70 16:28 24.12.2020
833 Clouds 26 1008 94 10000 1.5 70 15:59 24.12.2020
834 Clouds 26 1008 94 10000 1.5 70 15:59 24.12.2020
835 Clouds 26 1008 94 10000 1.5 70 15:59 24.12.2020
836 Clouds 26 1009 94 10000 1 70 15:41 24.12.2020
837 Clouds 25 1009 94 10000 1.5 70 15:19 24.12.2020
838 Clear 26 1009 94 10000 1.5 70 14:42 24.12.2020
839 Clear 26 1008 88 10000 1 70 14:23 24.12.2020
840 Clear 26 1008 88 10000 1 70 14:23 24.12.2020
841 Clear 27 1008 88 10000 1 80 13:41 24.12.2020
842 Clear 27 1008 88 10000 1 30 13:21 24.12.2020
843 Clouds 28 1007 83 10000 1.5 10 12:41 24.12.2020
844 Clouds 27 1007 78 10000 2.1 30 12:21 24.12.2020
845 Clouds 28 1007 83 10000 2.1 40 11:39 24.12.2020
846 Clouds 28 1007 83 10000 2.1 30 11:20 24.12.2020
847 Clouds 28 1007 83 10000 2.1 30 11:20 24.12.2020
848 Clouds 28 1006 74 10000 2.6 10 10:51 24.12.2020
849 Clouds 29 1006 74 10000 2.6 10 10:32 24.12.2020
850 Clouds 29 1006 74 10000 2.1 350 09:52 24.12.2020
851 Clouds 29 1006 74 10000 2.1 360 09:24 24.12.2020
852 Clouds 30 1005 70 10000 2.1 10 08:18 24.12.2020
853 Clouds 30 1006 70 10000 2.1 10 07:39 24.12.2020
854 Clouds 30 1006 70 10000 3.1 10 07:18 24.12.2020
855 Clouds 29 1008 74 10000 2.1 20 04:28 24.12.2020
856 Clouds 29 1008 74 10000 3.1 340 01:54 24.12.2020
857 Clouds 29 1008 74 10000 3.6 350 01:32 24.12.2020
858 Clouds 29 1008 79 10000 3.1 360 00:56 24.12.2020
859 Clouds 28 1007 83 10000 2.1 360 00:21 24.12.2020
860 Clouds 28 1007 83 10000 2.6 350 23:44 23.12.2020
861 Clouds 28 1006 88 10000 3.1 350 23:23 23.12.2020
862 Clouds 27 1006 94 10000 2.1 350 22:53 23.12.2020
863 Rain 26 1006 94 10000 2.6 360 22:29 23.12.2020
864 Rain 26 1005 100 10000 0.5 80 21:52 23.12.2020
865 Rain 26 1005 100 10000 0.5 80 21:27 23.12.2020
866 Clouds 25 1005 94 10000 1 40 20:54 23.12.2020
867 Clouds 25 1005 94 10000 1 40 20:36 23.12.2020
868 Clouds 25 1005 94 10000 1 40 20:18 23.12.2020
869 Clouds 25 1005 94 10000 0.5 60 19:39 23.12.2020
870 Clouds 25 1005 94 10000 1.5 60 19:20 23.12.2020
871 Clouds 25 1005 94 10000 2.1 50 18:47 23.12.2020
872 Clouds 25 1005 94 10000 1.5 40 18:22 23.12.2020
873 Clouds 25 1006 88 10000 2.1 60 17:39 23.12.2020
874 Clouds 26 1006 88 10000 2.1 60 17:20 23.12.2020
875 Clouds 26 1006 88 10000 2.1 50 16:47 23.12.2020
876 Clouds 26 1006 88 10000 2.1 50 16:29 23.12.2020
877 Clouds 26 1006 88 10000 2.6 30 15:54 23.12.2020
878 Clouds 26 1006 94 10000 2.1 20 15:29 23.12.2020
879 Clouds 26 1006 94 10000 2.1 20 14:59 23.12.2020
880 Clouds 27 1006 83 10000 1.5 20 14:39 23.12.2020
881 Clouds 27 1006 83 10000 2.6 30 14:20 23.12.2020
882 Clouds 27 1006 83 10000 1 40 13:43 23.12.2020
883 Clouds 27 1005 83 10000 0.5 360 13:19 23.12.2020
884 Clouds 26 1005 83 10000 1 350 12:52 23.12.2020
885 Clouds 27 1005 83 10000 1 350 12:28 23.12.2020
886 Clouds 28 1005 78 10000 2.6 320 11:49 23.12.2020
887 Clouds 28 1004 70 10000 2.1 330 11:20 23.12.2020
888 Clouds 29 1004 70 10000 2.6 340 10:50 23.12.2020
889 Clouds 29 1004 70 10000 2.6 340 10:31 23.12.2020
890 Clouds 30 1004 62 10000 3.6 320 09:36 23.12.2020
891 Clouds 30 1003 66 10000 4.1 340 08:50 23.12.2020
892 Clouds 30 1004 66 10000 4.1 340 08:21 23.12.2020
893 Clouds 30 1004 66 10000 5.1 340 07:37 23.12.2020
894 Clouds 30 1004 66 10000 5.1 340 07:37 23.12.2020
895 Clouds 30 1005 66 10000 5.7 350 06:41 23.12.2020
896 Rain 29 1005 70 10000 4.6 360 05:41 23.12.2020
897 Rain 29 1005 66 10000 3.6 360 05:19 23.12.2020
898 Rain 27 1006 83 10000 4.1 360 01:32 23.12.2020
899 Rain 26 1005 83 10000 3.1 340 00:25 23.12.2020
900 Rain 25 1005 88 10000 3.6 330 23:38 22.12.2020
901 Rain 25 1005 94 10000 3.1 330 23:20 22.12.2020
902 Rain 25 1004 94 10000 4.1 350 22:42 22.12.2020
903 Rain 25 1004 94 10000 4.6 340 22:21 22.12.2020
904 Rain 24 1004 94 8000 5.1 330 21:45 22.12.2020
905 Rain 24 1004 88 5000 6.7 330 21:20 22.12.2020
906 Rain 24 1004 94 7000 7.2 330 20:50 22.12.2020
907 Rain 24 1004 94 4100 5.7 320 20:25 22.12.2020
908 Rain 23 1003 100 1200 4.1 300 19:50 22.12.2020
909 Rain 24 1003 94 4200 9.8 310 19:26 22.12.2020
910 Rain 27 1003 88 5000 2.6 330 18:57 22.12.2020
911 Rain 27 1003 88 5000 2.6 330 18:38 22.12.2020
912 Rain 27 1003 88 10000 4.6 360 18:19 22.12.2020
913 Rain 27 1003 88 10000 2.6 350 17:36 22.12.2020
914 Rain 26 1004 94 10000 2.6 350 17:18 22.12.2020
915 Rain 26 1005 88 10000 2.6 330 16:46 22.12.2020
916 Rain 26 1005 88 10000 4.1 320 16:19 22.12.2020
917 Rain 26 1006 100 8000 8.2 310 15:45 22.12.2020
918 Rain 26 1005 94 1500 9.3 330 15:27 22.12.2020
919 Rain 26 1005 100 8000 6.7 300 14:55 22.12.2020
920 Rain 26 1005 100 8000 6.7 300 14:37 22.12.2020
921 Rain 27 1005 94 1000 9.8 320 14:18 22.12.2020
922 Rain 28 1005 88 10000 5.1 280 13:42 22.12.2020
923 Rain 28 1004 88 10000 6.2 350 13:18 22.12.2020
924 Rain 28 1004 88 9000 6.2 330 12:43 22.12.2020
925 Rain 29 1003 79 10000 7.7 320 12:25 22.12.2020
926 Rain 29 1003 79 10000 7.2 330 11:56 22.12.2020
927 Rain 29 1003 79 10000 7.2 330 11:38 22.12.2020
928 Rain 29 1003 83 10000 6.7 320 11:19 22.12.2020
929 Rain 29 1002 79 10000 6.2 330 10:46 22.12.2020
930 Rain 29 1002 79 10000 6.7 340 10:23 22.12.2020
931 Rain 29 1002 79 10000 6.7 340 09:55 22.12.2020
932 Rain 29 1002 88 10000 6.2 340 09:21 22.12.2020
933 Rain 29 1001 74 9000 5.7 340 08:51 22.12.2020
934 Rain 30 1001 74 9000 5.7 340 08:29 22.12.2020
935 Rain 30 1002 74 10000 8.7 320 07:47 22.12.2020
936 Rain 31 1002 74 10000 7.7 320 06:38 22.12.2020
937 Rain 29 1003 79 10000 7.2 330 05:41 22.12.2020
938 Rain 28 1003 83 10000 6.2 330 03:33 22.12.2020
939 Rain 25 1006 100 6000 7.7 340 00:46 22.12.2020
940 Rain 26 1005 94 1100 5.1 340 23:52 21.12.2020
941 Rain 25 1005 94 1100 5.1 340 23:31 21.12.2020
942 Rain 25 1005 94 8000 5.1 300 22:38 21.12.2020
943 Rain 25 1004 94 5000 8.7 300 22:19 21.12.2020
944 Rain 25 1003 94 10000 4.6 350 21:57 21.12.2020
945 Rain 25 1003 94 10000 4.6 350 21:39 21.12.2020
946 Rain 25 1003 100 8000 4.6 340 21:18 21.12.2020
947 Rain 26 1002 83 10000 5.7 330 20:27 21.12.2020
948 Rain 27 1002 83 10000 5.7 330 19:58 21.12.2020
949 Rain 27 1002 83 10000 7.7 340 19:39 21.12.2020
950 Rain 26 1002 88 10000 5.1 310 19:18 21.12.2020
951 Rain 26 1003 88 9000 4.6 300 18:51 21.12.2020
952 Rain 27 1003 88 9000 4.6 300 18:32 21.12.2020
953 Rain 28 1003 83 10000 5.7 330 17:43 21.12.2020
954 Rain 28 1003 83 10000 5.7 330 17:24 21.12.2020
955 Rain 28 1004 83 10000 4.1 340 16:47 21.12.2020
956 Rain 28 1004 83 10000 4.6 340 16:26 21.12.2020
957 Rain 27 1005 88 10000 3.1 350 15:47 21.12.2020
958 Rain 27 1005 83 10000 3.6 350 15:29 21.12.2020
959 Rain 27 1005 83 10000 5.1 330 14:57 21.12.2020
960 Rain 27 1004 88 10000 3.6 330 14:21 21.12.2020
961 Rain 26 1004 94 10000 2.1 350 13:43 21.12.2020
962 Rain 26 1004 88 10000 3.6 350 13:24 21.12.2020
963 Rain 26 1005 88 10000 3.6 280 12:44 21.12.2020
964 Rain 26 1005 88 10000 3.6 280 12:44 21.12.2020
965 Rain 26 1004 94 10000 5.1 270 12:25 21.12.2020
966 Rain 26 1004 94 10000 2.1 320 11:56 21.12.2020
967 Rain 26 1004 94 10000 2.1 320 11:37 21.12.2020
968 Rain 27 1004 88 10000 3.1 250 11:19 21.12.2020
969 Rain 28 1004 78 10000 8.7 270 10:41 21.12.2020
970 Rain 28 1003 74 10000 4.1 310 10:22 21.12.2020
971 Rain 28 1002 74 10000 4.1 310 09:43 21.12.2020
972 Rain 28 1003 78 10000 7.7 310 09:24 21.12.2020
973 Rain 28 1002 79 10000 7.7 290 08:50 21.12.2020
974 Rain 31 1002 66 10000 7.2 300 07:51 21.12.2020
975 Clouds 32 1003 66 10000 7.7 310 06:43 21.12.2020
976 Rain 31 1004 79 10000 4.6 340 04:46 21.12.2020
977 Rain 30 1005 83 10000 5.1 350 01:25 21.12.2020
978 Rain 29 1005 83 10000 5.1 350 00:31 21.12.2020
979 Rain 29 1005 83 10000 3.1 350 23:34 20.12.2020
980 Rain 28 1005 83 10000 3.1 360 22:59 20.12.2020
981 Rain 28 1005 88 10000 2.6 360 22:40 20.12.2020
982 Rain 28 1005 88 10000 1.5 10 22:21 20.12.2020
983 Rain 28 1005 83 10000 2.1 350 21:39 20.12.2020
984 Rain 28 1005 83 10000 3.1 340 21:20 20.12.2020
985 Rain 28 1004 83 10000 3.6 350 20:50 20.12.2020
986 Rain 28 1005 83 10000 3.6 350 20:23 20.12.2020
987 Rain 28 1005 83 10000 3.6 340 19:46 20.12.2020
988 Rain 28 1005 83 10000 3.6 340 19:27 20.12.2020
989 Rain 28 1005 83 10000 3.1 350 18:57 20.12.2020
990 Rain 28 1005 83 10000 3.1 350 18:38 20.12.2020
991 Rain 28 1005 83 10000 3.6 360 18:19 20.12.2020
992 Rain 28 1005 83 10000 4.1 350 17:43 20.12.2020
993 Rain 28 1006 83 10000 3.6 350 17:22 20.12.2020
994 Rain 28 1006 83 10000 3.6 350 16:44 20.12.2020
995 Rain 27 1006 88 10000 3.6 330 16:25 20.12.2020
996 Rain 28 1006 83 10000 5.7 320 15:45 20.12.2020
997 Rain 28 1007 83 10000 4.6 330 15:24 20.12.2020
998 Rain 27 1006 83 10000 4.1 340 14:49 20.12.2020
999 Rain 27 1006 83 10000 4.1 340 14:30 20.12.2020
1000 Rain 27 1006 88 10000 3.6 350 13:47 20.12.2020
1001 Rain 27 1006 88 10000 4.1 350 13:25 20.12.2020
1002 Rain 26 1006 88 10000 5.7 340 12:57 20.12.2020
1003 Rain 26 1006 88 10000 5.7 340 12:38 20.12.2020
1004 Rain 26 1006 94 10000 3.6 360 12:18 20.12.2020
1005 Rain 26 1005 94 10000 4.6 360 11:42 20.12.2020
1006 Rain 26 1005 88 6000 6.7 350 10:57 20.12.2020
1007 Rain 26 1005 88 6000 6.7 350 10:38 20.12.2020
1008 Rain 27 1005 94 10000 3.1 350 10:19 20.12.2020
1009 Rain 26 1004 94 9000 3.1 360 09:45 20.12.2020
1010 Rain 26 1004 94 9000 3.1 360 09:27 20.12.2020
1011 Rain 27 1005 88 10000 2.6 270 08:52 20.12.2020
1012 Rain 27 1005 88 10000 2.6 270 08:33 20.12.2020
1013 Rain 28 1005 83 10000 3.6 40 07:23 20.12.2020
1014 Rain 28 1005 83 10000 3.6 40 07:23 20.12.2020
1015 Rain 28 1006 88 10000 2.1 20 05:44 20.12.2020
1016 Rain 29 1007 74 10000 5.7 360 01:35 20.12.2020
1017 Rain 29 1007 79 10000 5.1 10 00:32 20.12.2020
1018 Rain 28 1006 83 10000 3.1 10 23:20 19.12.2020
1019 Rain 28 1006 83 10000 3.1 10 22:56 19.12.2020
1020 Rain 28 1006 83 10000 3.6 10 22:37 19.12.2020
1021 Rain 28 1005 83 10000 4.1 10 22:19 19.12.2020
1022 Rain 28 1005 83 10000 4.1 10 21:42 19.12.2020
1023 Rain 28 1004 88 10000 5.7 10 21:23 19.12.2020
1024 Rain 28 1004 83 10000 4.6 10 20:45 19.12.2020
1025 Rain 28 1004 88 10000 4.1 10 20:21 19.12.2020
1026 Rain 27 1004 88 10000 4.1 10 19:53 19.12.2020
1027 Rain 27 1004 88 10000 4.1 10 19:34 19.12.2020
1028 Rain 27 1005 88 10000 4.1 20 18:43 19.12.2020
1029 Rain 28 1005 88 10000 3.6 20 18:25 19.12.2020
1030 Rain 28 1005 83 10000 3.6 30 17:48 19.12.2020
1031 Rain 28 1005 83 10000 3.6 30 17:28 19.12.2020
1032 Rain 28 1006 88 10000 3.6 30 16:55 19.12.2020
1033 Rain 27 1006 88 10000 3.6 30 16:36 19.12.2020
1034 Clouds 27 1006 88 10000 2.6 60 16:18 19.12.2020
1035 Clouds 27 1006 88 10000 2.1 70 15:47 19.12.2020
1036 Clouds 26 1006 94 10000 2.6 60 14:49 19.12.2020
1037 Clouds 26 1006 94 10000 2.1 60 14:24 19.12.2020
1038 Clouds 26 1006 94 10000 2.6 70 13:42 19.12.2020
1039 Clouds 26 1005 94 10000 3.1 50 13:21 19.12.2020
1040 Clouds 26 1005 94 10000 2.6 50 12:55 19.12.2020
1041 Clouds 26 1005 94 10000 2.6 50 12:37 19.12.2020
1042 Clouds 26 1005 94 10000 3.1 50 12:18 19.12.2020
1043 Clouds 26 1005 88 10000 2.6 60 11:41 19.12.2020
1044 Rain 27 1004 88 10000 3.1 40 10:48 19.12.2020
1045 Rain 27 1004 88 10000 3.6 30 10:28 19.12.2020
1046 Rain 27 1004 88 10000 3.6 30 09:59 19.12.2020
1047 Rain 27 1004 88 10000 3.6 40 09:40 19.12.2020
1048 Rain 27 1004 88 10000 4.1 40 08:57 19.12.2020
1049 Rain 28 1004 83 10000 4.1 20 08:18 19.12.2020
1050 Rain 28 1004 83 10000 3.1 10 07:19 19.12.2020
1051 Rain 28 1004 88 10000 3.6 30 06:44 19.12.2020
1052 Rain 28 1005 88 10000 3.6 20 05:21 19.12.2020
1053 Rain 28 1005 88 10000 4.1 360 03:40 19.12.2020
1054 Rain 29 1005 79 10000 5.1 360 00:41 19.12.2020
1055 Rain 29 1005 79 10000 5.1 10 00:21 19.12.2020
1056 Rain 29 1004 79 10000 4.6 360 23:49 18.12.2020
1057 Rain 29 1004 79 10000 4.6 360 23:49 18.12.2020
1058 Rain 28 1003 78 10000 3.1 30 23:25 18.12.2020
1059 Rain 28 1003 83 10000 3.1 360 22:57 18.12.2020
1060 Rain 28 1003 83 10000 3.1 360 22:38 18.12.2020
1061 Rain 27 1003 83 10000 4.1 360 22:19 18.12.2020
1062 Rain 27 1002 88 10000 4.6 350 21:41 18.12.2020
1063 Rain 28 1002 83 10000 6.7 310 21:22 18.12.2020
1064 Rain 28 1001 83 10000 4.6 350 20:25 18.12.2020
1065 Rain 27 1001 88 10000 4.1 350 19:49 18.12.2020
1066 Rain 27 1001 88 10000 3.6 360 19:23 18.12.2020
1067 Rain 27 1001 88 10000 4.1 350 18:46 18.12.2020
1068 Rain 27 1001 88 10000 4.1 350 18:28 18.12.2020
1069 Rain 27 1002 83 10000 4.6 350 17:52 18.12.2020
1070 Rain 27 1002 83 10000 4.6 350 17:20 18.12.2020
1071 Rain 26 1002 88 10000 4.1 350 16:45 18.12.2020
1072 Rain 26 1002 88 10000 3.6 350 16:21 18.12.2020
1073 Rain 26 1003 94 10000 2.6 360 15:54 18.12.2020
1074 Rain 26 1003 94 10000 2.6 360 15:34 18.12.2020
1075 Rain 25 1003 100 10000 0.5 360 14:57 18.12.2020
1076 Rain 26 1003 94 9000 2.1 360 14:26 18.12.2020
1077 Rain 26 1003 94 9000 2.1 360 13:59 18.12.2020
1078 Rain 26 1002 88 5000 2.1 90 13:40 18.12.2020
1079 Rain 27 1002 88 10000 2.1 50 13:21 18.12.2020
1080 Clouds 27 1001 88 10000 2.6 50 12:42 18.12.2020
1081 Rain 27 1001 88 10000 2.6 40 11:29 18.12.2020
1082 Rain 28 1000 83 10000 3.1 20 10:58 18.12.2020
1083 Rain 29 1000 74 10000 3.6 20 10:37 18.12.2020
1084 Rain 29 1000 74 10000 3.6 20 10:19 18.12.2020
1085 Rain 29 1000 74 10000 3.6 10 09:38 18.12.2020
1086 Rain 29 999 74 10000 3.1 360 09:19 18.12.2020
1087 Rain 29 999 79 10000 3.6 20 08:50 18.12.2020
1088 Rain 29 999 79 10000 3.6 360 08:21 18.12.2020
1089 Rain 30 999 74 10000 4.1 30 07:20 18.12.2020
1090 Rain 30 999 74 10000 4.1 30 06:59 18.12.2020
1091 Rain 30 1000 74 8000 0.5 30 05:45 18.12.2020
1092 Rain 31 1000 74 10000 0.5 0 05:26 18.12.2020
1093 Rain 30 1001 74 10000 2.6 80 04:42 18.12.2020
1094 Clouds 27 1003 83 10000 3.6 90 01:47 18.12.2020
1095 Clouds 27 1003 83 10000 3.6 90 01:47 18.12.2020
1096 Clouds 27 1003 83 10000 3.6 90 01:47 18.12.2020
1097 Clouds 27 1003 83 10000 3.6 90 01:47 18.12.2020
1098 Clouds 26 1002 94 10000 4.1 100 00:55 18.12.2020
1099 Clouds 26 1002 94 10000 3.1 120 23:55 17.12.2020
1100 Clouds 25 1002 100 10000 3.1 130 23:25 17.12.2020
1101 Clouds 25 1001 100 10000 2.6 130 22:49 17.12.2020
1102 Rain 25 1001 100 10000 2.6 130 22:28 17.12.2020
1103 Rain 25 1001 94 10000 2.6 120 21:47 17.12.2020
1104 Rain 25 1001 94 10000 2.6 120 21:25 17.12.2020
1105 Rain 25 1001 94 10000 2.6 130 20:56 17.12.2020
1106 Rain 25 1001 100 10000 3.1 150 20:37 17.12.2020
1107 Drizzle 25 1001 100 10000 3.1 150 20:18 17.12.2020
1108 Rain 25 1001 100 10000 3.1 150 19:44 17.12.2020
1109 Rain 25 1001 94 10000 2.6 150 19:23 17.12.2020
1110 Rain 25 1001 100 10000 2.1 150 18:41 17.12.2020
1111 Rain 25 1001 100 10000 2.6 140 18:23 17.12.2020
1112 Rain 25 1002 100 10000 1.5 120 17:53 17.12.2020
1113 Rain 25 1002 100 10000 1.5 120 17:32 17.12.2020
1114 Rain 25 1002 100 10000 2.1 130 16:45 17.12.2020
1115 Rain 25 1002 94 10000 2.1 110 16:26 17.12.2020
1116 Rain 25 1003 94 10000 3.1 140 15:52 17.12.2020
1117 Rain 25 1003 100 10000 3.1 120 15:32 17.12.2020
1118 Rain 25 1003 100 10000 3.1 120 14:55 17.12.2020
1119 Rain 25 1003 94 9000 3.1 120 14:34 17.12.2020
1120 Rain 25 1003 94 9000 3.1 120 13:58 17.12.2020
1121 Rain 25 1003 94 9000 3.1 120 13:58 17.12.2020
1122 Rain 25 1003 94 8000 3.1 110 13:35 17.12.2020
1123 Rain 26 1003 88 10000 7.2 200 12:49 17.12.2020
1124 Rain 27 1002 83 10000 2.1 260 12:26 17.12.2020
1125 Rain 28 1002 83 10000 1.5 270 11:45 17.12.2020
1126 Rain 28 1001 83 10000 2.1 290 11:25 17.12.2020
1127 Rain 28 1001 83 10000 2.6 290 10:56 17.12.2020
1128 Rain 28 1001 83 10000 2.6 290 10:56 17.12.2020
1129 Rain 28 1001 83 10000 2.6 290 10:29 17.12.2020
1130 Clouds 30 1000 74 10000 4.6 300 09:31 17.12.2020
1131 Rain 31 1000 70 10000 1.5 220 08:20 17.12.2020
1132 Clouds 30 1001 66 10000 2.6 220 07:40 17.12.2020
1133 Rain 30 1001 66 10000 2.6 250 07:18 17.12.2020
1134 Rain 30 1001 66 10000 2.6 220 06:42 17.12.2020
1135 Rain 30 1002 66 10000 1.5 190 06:24 17.12.2020
1136 Clouds 25 1004 100 10000 2.6 150 00:55 17.12.2020
1137 Rain 25 1004 94 10000 1.85 159 23:57 16.12.2020
1138 Clouds 25 1002 94 10000 1.5 130 23:22 16.12.2020
1139 Clouds 25 1002 94 10000 1.5 130 23:22 16.12.2020
1140 Clouds 25 1002 94 10000 2.1 100 22:57 16.12.2020
1141 Clouds 25 1002 94 10000 2.1 100 22:36 16.12.2020
1142 Rain 25 1001 94 10000 1.5 130 21:54 16.12.2020
1143 Rain 25 1001 94 10000 1.5 130 21:36 16.12.2020
1144 Drizzle 25 1001 94 10000 2.4 196 20:59 16.12.2020
1145 Rain 25 1001 94 10000 1.5 220 20:41 16.12.2020
1146 Rain 25 1001 94 10000 2.1 220 20:19 16.12.2020
1147 Rain 24 1001 100 10000 0.5 80 19:20 16.12.2020
1148 Rain 24 1002 100 10000 2.6 90 18:57 16.12.2020
1149 Rain 24 1002 100 10000 2.6 90 18:57 16.12.2020
1150 Rain 24 1002 100 10000 2.6 90 18:57 16.12.2020
1151 Rain 24 1002 94 10000 3.6 120 18:31 16.12.2020
1152 Rain 24 1002 94 10000 3.6 110 17:57 16.12.2020
1153 Rain 24 1002 94 10000 3.6 110 17:31 16.12.2020
1154 Rain 24 1004 94 10000 1 190 16:42 16.12.2020
1155 Rain 24 1004 94 10000 0.4 101 16:22 16.12.2020
1156 Rain 24 1004 94 10000 0.4 101 16:22 16.12.2020
1157 Rain 24 1004 94 10000 0.4 101 16:22 16.12.2020
1158 Rain 24 1004 94 10000 2.1 270 15:51 16.12.2020
1159 Rain 24 1004 94 10000 2.1 290 15:30 16.12.2020
1160 Rain 24 1004 94 10000 2.6 270 14:51 16.12.2020
1161 Rain 25 1004 94 10000 2.6 270 14:29 16.12.2020
1162 Rain 24 1004 94 10000 2.6 200 13:50 16.12.2020
1163 Rain 24 1004 94 10000 2.6 200 13:31 16.12.2020
1164 Rain 24 1004 94 10000 1.5 280 12:56 16.12.2020
1165 Rain 24 1004 88 10000 3.1 210 12:37 16.12.2020
1166 Rain 26 1005 94 3000 12.9 150 11:43 16.12.2020
1167 Rain 30 1002 79 10000 3.1 280 11:22 16.12.2020
1168 Rain 30 1002 79 10000 2.6 290 10:50 16.12.2020
1169 Rain 30 1002 79 10000 2.6 290 10:27 16.12.2020
1170 Rain 30 1001 79 10000 3.1 290 09:49 16.12.2020
1171 Rain 30 1001 83 10000 1.5 270 09:18 16.12.2020
1172 Rain 29 1001 74 10000 1.5 280 07:59 16.12.2020
1173 Rain 29 1001 88 10000 0.5 290 07:39 16.12.2020
1174 Rain 29 1002 88 10000 1.5 290 07:19 16.12.2020
1175 Rain 30 1005 79 10000 2.1 310 03:35 16.12.2020
1176 Rain 28 1006 88 10000 1.5 30 01:31 16.12.2020
1177 Clouds 27 1005 88 10000 1.5 130 23:46 15.12.2020
1178 Clouds 25 1004 100 10000 1 140 22:56 15.12.2020
1179 Clouds 25 1004 100 10000 1 140 22:38 15.12.2020
1180 Clouds 25 1004 94 10000 0.35 160 22:18 15.12.2020
1181 Clouds 25 1003 100 10000 1 90 21:40 15.12.2020
1182 Clouds 25 1003 100 10000 1.44 218 21:21 15.12.2020
1183 Clouds 25 1003 100 10000 1 150 20:44 15.12.2020
1184 Clouds 25 1003 100 10000 1.94 236 20:26 15.12.2020
1185 Clouds 25 1003 100 10000 1.94 236 19:52 15.12.2020
1186 Clouds 25 1004 100 10000 1 80 19:26 15.12.2020
1187 Rain 25 1004 94 10000 0.5 130 18:39 15.12.2020
1188 Rain 25 1004 94 10000 1.5 130 18:21 15.12.2020
1189 Rain 25 1005 94 10000 0.86 235 17:45 15.12.2020
1190 Rain 25 1005 100 10000 0.5 90 17:27 15.12.2020
1191 Rain 25 1005 100 10000 1.95 281 16:46 15.12.2020
1192 Clouds 26 1006 94 10000 1 110 16:27 15.12.2020
1193 Clouds 26 1006 94 10000 1.5 200 15:44 15.12.2020
1194 Clear 26 1005 94 10000 2.6 190 15:25 15.12.2020
1195 Clear 26 1005 94 10000 1.5 200 14:43 15.12.2020
1196 Clouds 27 1005 94 10000 1.5 240 14:21 15.12.2020
1197 Clouds 25 1005 94 10000 3.6 280 13:51 15.12.2020
1198 Clouds 25 1005 94 10000 3.6 280 13:32 15.12.2020
1199 Rain 26 1004 94 10000 1 330 12:47 15.12.2020
1200 Rain 26 1004 88 10000 2.1 330 12:20 15.12.2020
1201 Rain 25 1004 88 10000 3.6 290 11:54 15.12.2020
1202 Rain 23 1004 94 9000 1.5 320 11:25 15.12.2020
1203 Thunderstorm 23 1005 94 8000 2.6 10 10:53 15.12.2020
1204 Rain 27 1006 94 900 7.7 130 10:23 15.12.2020
1205 Rain 29 1005 65 5000 5.7 280 09:49 15.12.2020
1206 Rain 29 1005 65 5000 5.7 280 09:31 15.12.2020
1207 Rain 31 1002 66 10000 6.7 300 08:47 15.12.2020
1208 Clouds 31 1003 66 10000 7.2 300 08:25 15.12.2020
1209 Rain 31 1003 66 10000 5.7 310 07:49 15.12.2020
1210 Rain 31 1003 62 10000 3.1 280 07:23 15.12.2020
1211 Rain 31 1003 70 10000 7.7 270 06:27 15.12.2020
1212 Clouds 32 1006 62 10000 2.6 210 02:55 15.12.2020
1213 Clouds 29 1006 83 10000 2.1 230 00:34 15.12.2020
1214 Rain 27 1006 94 10000 1 170 23:26 14.12.2020
1215 Clouds 26 1006 94 10000 1.5 160 22:55 14.12.2020
1216 Rain 25 1006 94 10000 1.5 160 22:32 14.12.2020
1217 Rain 25 1005 94 10000 1 190 21:45 14.12.2020
1218 Clouds 25 1005 94 10000 1 190 21:22 14.12.2020
1219 Clouds 25 1005 94 10000 1 170 20:51 14.12.2020
1220 Clouds 25 1005 94 10000 1 170 20:51 14.12.2020
1221 Clouds 25 1005 94 10000 1 170 20:29 14.12.2020
1222 Clouds 25 1005 94 10000 2.46 151 19:53 14.12.2020
1223 Rain 26 1005 94 10000 3.49 156 19:29 14.12.2020
1224 Rain 26 1005 94 10000 3.5 149 18:44 14.12.2020
1225 Rain 26 1006 94 10000 1 160 18:25 14.12.2020
1226 Rain 26 1006 94 10000 1 160 17:46 14.12.2020
1227 Clouds 26 1006 94 10000 1 140 17:23 14.12.2020
1228 Clouds 26 1006 94 10000 1.5 170 16:50 14.12.2020
1229 Clear 26 1007 94 10000 0.5 250 16:29 14.12.2020
1230 Clear 26 1007 88 10000 1.5 230 15:40 14.12.2020
1231 Clear 26 1007 88 10000 1.5 220 15:20 14.12.2020
1232 Clear 26 1007 88 10000 2.1 230 14:42 14.12.2020
1233 Clear 26 1007 88 10000 1.5 220 14:24 14.12.2020
1234 Clear 26 1007 94 10000 1.5 200 13:43 14.12.2020
1235 Clouds 26 1006 94 10000 1.59 307 13:19 14.12.2020
1236 Clouds 26 1006 94 10000 1.71 233 12:52 14.12.2020
1237 Clouds 26 1006 94 10000 2.1 190 12:24 14.12.2020
1238 Rain 26 1005 94 10000 1.87 299 11:35 14.12.2020
1239 Rain 25 1005 100 10000 1.5 40 10:40 14.12.2020
1240 Rain 25 1005 88 10000 0.5 300 10:21 14.12.2020
1241 Rain 25 1006 100 10000 1.5 190 09:43 14.12.2020
1242 Rain 25 1006 94 7000 3.1 180 08:47 14.12.2020
1243 Rain 25 1006 94 7000 3.1 180 08:29 14.12.2020
1244 Rain 26 1006 88 10000 4.1 220 07:44 14.12.2020
1245 Rain 28 1005 83 10000 2.6 330 06:48 14.12.2020
1246 Rain 28 1005 83 10000 2.6 330 06:48 14.12.2020
1247 Rain 28 1006 88 10000 3.1 330 05:36 14.12.2020
1248 Clouds 30 1007 66 10000 3.6 190 02:26 14.12.2020
1249 Clouds 30 1007 74 10000 1.5 200 00:56 14.12.2020
1250 Clouds 30 1007 74 10000 1.5 200 00:33 14.12.2020
1251 Clouds 30 1007 79 10000 2.1 190 23:57 13.12.2020
1252 Clouds 29 1007 83 10000 3.36 157 23:39 13.12.2020
1253 Clouds 27 1006 94 10000 1.5 180 22:49 13.12.2020
1254 Clouds 27 1005 88 10000 1.5 190 22:20 13.12.2020
1255 Clouds 27 1005 83 10000 2.1 190 21:47 13.12.2020
1256 Clouds 27 1005 83 10000 2.1 190 21:28 13.12.2020
1257 Clouds 27 1005 88 10000 1.5 190 20:40 13.12.2020
1258 Clouds 28 1005 83 10000 1 170 20:21 13.12.2020
1259 Clouds 28 1005 83 10000 1.5 210 19:42 13.12.2020
1260 Rain 28 1006 83 10000 2.1 200 19:20 13.12.2020
1261 Rain 28 1005 83 10000 1.5 190 18:44 13.12.2020
1262 Rain 28 1006 83 10000 2.6 220 18:21 13.12.2020
1263 Rain 28 1006 79 10000 2.1 240 17:47 13.12.2020
1264 Clouds 29 1006 79 10000 2.1 240 17:21 13.12.2020
1265 Clouds 29 1006 79 10000 2.1 240 16:59 13.12.2020
1266 Clouds 29 1007 79 10000 2.1 240 16:39 13.12.2020
1267 Clouds 29 1008 74 10000 2.1 250 16:19 13.12.2020
1268 Clouds 29 1008 74 10000 2.1 250 15:42 13.12.2020
1269 Rain 29 1008 70 10000 2.6 270 15:23 13.12.2020
1270 Clear 29 1008 70 10000 2.6 250 14:44 13.12.2020
1271 Clouds 29 1008 70 10000 2.1 260 14:25 13.12.2020
1272 Clear 29 1008 70 10000 2.1 240 13:44 13.12.2020
1273 Clear 29 1008 70 10000 2.1 240 13:25 13.12.2020
1274 Rain 29 1006 70 10000 2.6 280 12:51 13.12.2020
1275 Clouds 29 1006 66 10000 2.6 290 12:23 13.12.2020
1276 Clouds 29 1005 66 10000 3.1 290 11:43 13.12.2020
1277 Clouds 29 1005 66 10000 3.1 300 10:56 13.12.2020
1278 Clouds 30 1005 66 10000 3.1 320 10:38 13.12.2020
1279 Rain 31 1005 66 10000 4.6 310 09:57 13.12.2020
1280 Clouds 31 1004 66 10000 4.1 300 09:28 13.12.2020
1281 Clouds 33 1004 49 10000 3.1 310 08:35 13.12.2020
1282 Rain 33 1005 55 10000 3.1 260 07:51 13.12.2020
1283 Rain 31 1007 66 10000 1.5 150 05:36 13.12.2020
1284 Rain 26 1009 83 10000 2.6 100 02:42 13.12.2020
1285 Rain 26 1010 83 10000 5.1 10 01:58 13.12.2020
1286 Rain 27 1009 83 10000 3.1 100 00:51 13.12.2020
1287 Thunderstorm 27 1009 83 10000 3.1 100 00:33 13.12.2020
1288 Clouds 27 1008 83 10000 1.5 110 23:33 12.12.2020
1289 Clouds 27 1007 83 10000 2.13 221 22:56 12.12.2020
1290 Rain 27 1007 78 10000 1.5 190 22:25 12.12.2020
1291 Rain 26 1006 83 10000 2.07 248 21:44 12.12.2020
1292 Clouds 26 1006 83 10000 0.5 110 21:18 12.12.2020
1293 Clouds 26 1006 83 10000 1 200 20:41 12.12.2020
1294 Clouds 26 1006 83 10000 3.6 230 20:19 12.12.2020
1295 Rain 26 1006 83 10000 3.6 280 19:46 12.12.2020
1296 Thunderstorm 26 1006 83 10000 4.1 290 19:28 12.12.2020
1297 Thunderstorm 27 1006 83 10000 3.6 350 18:47 12.12.2020
1298 Thunderstorm 27 1006 83 10000 3.6 350 18:29 12.12.2020
1299 Clouds 28 1006 79 10000 2.6 270 17:47 12.12.2020
1300 Clouds 29 1007 79 10000 1 210 17:28 12.12.2020
1301 Clouds 30 1008 74 10000 1.5 230 16:24 12.12.2020
1302 Clouds 30 1008 74 10000 1.5 240 15:52 12.12.2020
1303 Clouds 30 1008 74 10000 1.5 240 15:34 12.12.2020
1304 Clouds 29 1008 74 10000 2.1 250 14:50 12.12.2020
1305 Clouds 30 1008 70 10000 2.1 270 13:58 12.12.2020
1306 Rain 30 1007 74 10000 2.1 290 13:38 12.12.2020
1307 Clouds 30 1007 66 10000 2.6 320 13:19 12.12.2020
1308 Clouds 30 1007 66 10000 2.1 320 12:31 12.12.2020
1309 Clouds 31 1006 62 10000 3.1 300 10:56 12.12.2020
1310 Clouds 32 1005 46 10000 3.1 310 09:50 12.12.2020
1311 Rain 34 1005 44 10000 3.1 300 08:57 12.12.2020
1312 Clouds 31 1009 74 10000 3.1 140 03:33 12.12.2020
1313 Rain 28 1010 78 10000 2.1 140 00:28 12.12.2020
1314 Clouds 27 1008 83 10000 1 120 22:50 11.12.2020
1315 Clouds 28 1007 78 10000 1 200 20:52 11.12.2020
1316 Clouds 28 1007 83 10000 4.26 307 18:56 11.12.2020
1317 Rain 28 1008 78 10000 3.1 210 16:45 11.12.2020
1318 Clouds 30 1009 74 10000 2.1 270 14:24 11.12.2020
1319 Clouds 29 1008 70 10000 2.6 310 13:25 11.12.2020
1320 Clouds 30 1007 66 10000 2.6 300 12:22 11.12.2020
1321 Clouds 30 1007 66 10000 3.1 340 11:52 11.12.2020
1322 Rain 30 1006 66 10000 4.6 350 11:24 11.12.2020
1323 Clouds 31 1005 62 10000 3.6 330 09:58 11.12.2020
1324 Rain 33 1005 52 10000 4.6 330 07:28 11.12.2020
1325 Clouds 33 1007 55 10000 3.1 20 05:20 11.12.2020
1326 Clouds 32 1010 66 10000 1.5 30 02:58 11.12.2020
1327 Clouds 29 1010 79 10000 2.6 110 00:40 11.12.2020
1328 Clouds 29 1009 83 10000 0.71 199 23:26 10.12.2020
1329 Clouds 28 1008 88 10000 1.5 320 21:37 10.12.2020
1330 Rain 28 1008 79 10000 1.5 320 20:51 10.12.2020
1331 Rain 29 1008 74 10000 2.1 310 19:53 10.12.2020
1332 Rain 29 1008 70 10000 2.6 310 19:21 10.12.2020
1333 Rain 29 1008 74 10000 2.6 330 18:45 10.12.2020
1334 Rain 29 1009 70 10000 3.6 330 17:26 10.12.2020
1335 Rain 29 1010 74 10000 2.6 330 15:58 10.12.2020
1336 Rain 29 1010 74 10000 4.1 310 15:19 10.12.2020
1337 Rain 29 1010 74 10000 4.1 300 14:42 10.12.2020
1338 Clouds 30 1010 66 10000 3.1 320 13:26 10.12.2020
1339 Clouds 30 1009 62 10000 3.1 350 11:54 10.12.2020
1340 Clouds 31 1007 66 10000 5.1 350 10:46 10.12.2020
1341 Clear 36 1007 32 10000 4.1 300 08:20 10.12.2020
1342 Clear 35 1007 36 10000 3.1 320 07:26 10.12.2020
1343 Clouds 35 1008 41 10000 4.1 340 05:34 10.12.2020
1344 Clouds 32 1010 55 10000 3.1 360 02:31 10.12.2020
1345 Clouds 31 1010 62 10000 3.6 10 01:25 10.12.2020
1346 Clouds 30 1009 79 10000 2.6 70 23:38 09.12.2020
1347 Clouds 26 1008 94 10000 0.5 350 20:37 09.12.2020
1348 Clouds 27 1007 88 10000 1 350 19:40 09.12.2020
1349 Clouds 27 1008 88 10000 1.5 360 18:36 09.12.2020
1350 Clouds 28 1009 74 10000 2.6 350 16:57 09.12.2020
1351 Clouds 29 1009 74 10000 3.6 350 16:26 09.12.2020
1352 Clouds 29 1009 74 10000 3.1 350 15:44 09.12.2020
1353 Clouds 29 1009 74 10000 3.1 350 15:44 09.12.2020
1354 Clouds 29 1009 70 10000 3.6 350 14:50 09.12.2020
1355 Clouds 30 1009 66 10000 3.6 340 14:26 09.12.2020
1356 Clouds 30 1009 66 10000 3.6 330 13:19 09.12.2020
1357 Clouds 30 1009 66 10000 3.6 330 12:58 09.12.2020
1358 Clouds 30 1008 62 10000 3.6 50 12:24 09.12.2020
1359 Clouds 31 1008 62 10000 3.1 40 11:34 09.12.2020
1360 Clouds 33 1006 55 10000 3.6 10 09:51 09.12.2020
1361 Clouds 34 1006 49 10000 3.6 30 08:35 09.12.2020
1362 Clear 34 1006 46 10000 4.6 40 06:38 09.12.2020
1363 Clouds 34 1008 46 10000 5.1 50 05:28 09.12.2020
1364 Clouds 33 1010 62 10000 4.6 20 02:40 09.12.2020
1365 Clouds 31 1010 74 10000 3.6 360 00:34 09.12.2020
1366 Clouds 29 1010 88 10000 2.1 70 23:33 08.12.2020
1367 Clouds 27 1009 94 10000 1 130 21:56 08.12.2020
1368 Clouds 27 1008 88 10000 1.5 20 20:24 08.12.2020
1369 Clouds 27 1008 88 10000 2.1 40 19:30 08.12.2020
1370 Clouds 28 1008 83 10000 2.1 20 18:35 08.12.2020
1371 Clouds 29 1009 79 10000 3.6 360 16:39 08.12.2020
1372 Clouds 29 1009 79 10000 4.1 350 15:18 08.12.2020
1373 Clouds 28 1009 83 10000 1.5 360 13:49 08.12.2020
1374 Clouds 29 1008 74 10000 1.5 30 12:41 08.12.2020
1375 Clouds 29 1008 74 10000 2.6 360 11:53 08.12.2020
1376 Clouds 29 1008 66 10000 3.6 350 10:54 08.12.2020
1377 Clouds 29 1008 66 10000 3.6 350 10:34 08.12.2020
1378 Clouds 31 1008 66 10000 5.7 350 09:38 08.12.2020
1379 Rain 32 1008 62 10000 5.7 330 07:38 08.12.2020
1380 Rain 34 1008 52 10000 4.6 350 05:35 08.12.2020
1381 Rain 31 1011 70 10000 3.6 360 02:29 08.12.2020
1382 Clouds 30 1011 74 10000 2.6 350 00:44 08.12.2020
1383 Clouds 29 1010 88 10000 1.5 360 23:25 07.12.2020
1384 Clouds 27 1009 94 10000 1.5 360 22:20 07.12.2020
1385 Clouds 27 1009 94 10000 2.1 340 21:26 07.12.2020
1386 Clouds 27 1008 94 10000 2.1 360 19:27 07.12.2020
1387 Clouds 27 1009 88 10000 2.1 10 17:57 07.12.2020
1388 Clouds 27 1010 94 10000 1 10 17:20 07.12.2020
1389 Clouds 27 1010 94 10000 2.1 340 16:38 07.12.2020
1390 Clear 26 1010 94 10000 1.5 10 15:24 07.12.2020
1391 Clear 27 1010 94 10000 1.5 90 14:31 07.12.2020
1392 Clear 27 1010 94 10000 3.06 342 13:36 07.12.2020
1393 Clear 27 1009 88 10000 1.5 20 12:28 07.12.2020
1394 Clear 27 1008 88 10000 0.5 130 11:42 07.12.2020
1395 Clouds 27 1008 83 10000 1.5 80 10:36 07.12.2020
1396 Rain 27 1008 88 10000 2.6 120 09:23 07.12.2020
1397 Rain 29 1009 79 10000 1.5 330 07:38 07.12.2020
1398 Rain 33 1009 55 10000 4.6 330 05:27 07.12.2020
1399 Rain 32 1010 62 10000 3.1 330 03:53 07.12.2020
1400 Clouds 31 1011 74 10000 1 280 00:49 07.12.2020
1401 Clouds 27 1009 94 10000 1 110 22:53 06.12.2020
1402 Clouds 26 1009 94 10000 1.5 110 21:45 06.12.2020
1403 Clouds 26 1008 94 10000 1.5 100 20:46 06.12.2020
1404 Clouds 26 1008 94 10000 0.5 360 20:26 06.12.2020
1405 Clouds 26 1008 94 10000 1.5 100 20:26 06.12.2020
1406 Clouds 26 1008 88 10000 1 10 19:30 06.12.2020
1407 Clouds 26 1009 88 10000 1 360 17:39 06.12.2020
1408 Clouds 25 1009 88 10000 1.11 292 16:34 06.12.2020
1409 Clouds 25 1011 88 10000 2.6 190 14:49 06.12.2020
1410 Rain 25 1010 88 10000 2.6 150 13:23 06.12.2020
1411 Rain 26 1010 88 10000 3.6 160 12:33 06.12.2020
1412 Rain 27 1010 83 10000 1.5 110 11:53 06.12.2020
1413 Rain 27 1009 83 10000 2.1 90 11:25 06.12.2020
1414 Rain 29 1009 74 10000 3.6 90 10:36 06.12.2020
1415 Rain 30 1008 74 10000 1.5 360 09:31 06.12.2020
1416 Rain 31 1007 70 10000 3.1 10 07:41 06.12.2020
1417 Rain 29 1009 79 10000 5.1 360 05:18 06.12.2020
1418 Clouds 30 1010 79 10000 1.5 70 00:46 06.12.2020
1419 Clouds 30 1010 79 10000 1.5 70 00:27 06.12.2020
1420 Clouds 29 1009 79 10000 1.5 70 23:57 05.12.2020
1421 Clouds 26 1008 94 10000 1.5 60 22:25 05.12.2020
1422 Clouds 26 1008 94 10000 1.5 70 21:55 05.12.2020
1423 Clouds 26 1008 94 10000 1.5 80 21:30 05.12.2020
1424 Clouds 25 1007 88 10000 1.5 40 19:54 05.12.2020
1425 Clouds 25 1007 88 10000 1.5 30 18:46 05.12.2020
1426 Clouds 25 1007 88 10000 1.5 40 17:55 05.12.2020
1427 Clouds 25 1008 88 10000 1 70 16:45 05.12.2020
1428 Clouds 25 1008 88 10000 1 70 16:26 05.12.2020
1429 Clear 25 1008 78 10000 1.5 90 15:21 05.12.2020
1430 Clear 25 1008 83 10000 2.1 90 13:25 05.12.2020
1431 Clouds 27 1009 83 10000 1 70 11:50 05.12.2020
1432 Rain 26 1008 83 10000 3.1 130 10:39 05.12.2020
1433 Rain 28 1008 79 10000 3.6 360 09:31 05.12.2020
1434 Rain 31 1008 66 10000 2.1 40 07:48 05.12.2020
1435 Rain 30 1007 70 10000 2.1 90 05:34 05.12.2020
1436 Rain 25 1010 94 10000 3.1 130 00:55 05.12.2020
1437 Rain 25 1010 94 10000 2.1 100 23:36 04.12.2020
1438 Rain 25 1007 94 10000 2.1 70 21:37 04.12.2020
1439 Rain 25 1007 83 10000 4.6 110 19:35 04.12.2020
1440 Clouds 26 1007 83 10000 3.6 110 18:40 04.12.2020
1441 Rain 26 1008 88 10000 4.6 120 17:47 04.12.2020
1442 Rain 25 1008 88 10000 4.6 110 16:52 04.12.2020
1443 Clouds 26 1009 83 10000 3.1 110 15:26 04.12.2020
1444 Rain 26 1008 94 10000 2.6 80 13:38 04.12.2020
1445 Clouds 26 1008 94 10000 2.6 60 13:20 04.12.2020
1446 Rain 26 1007 94 10000 1.5 90 12:41 04.12.2020
1447 Rain 26 1006 94 10000 4.6 50 10:38 04.12.2020
1448 Rain 26 1006 94 10000 6.2 50 09:30 04.12.2020
1449 Rain 34 1006 46 10000 7.7 60 06:40 04.12.2020
1450 Rain 33 1007 66 10000 7.2 30 04:54 04.12.2020
1451 Clouds 31 1009 70 10000 6.7 70 01:54 04.12.2020
1452 Clouds 26 1008 88 10000 2.6 120 22:51 03.12.2020
1453 Clear 24 1007 88 10000 2.1 130 21:38 03.12.2020
1454 Clouds 24 1007 88 10000 2.6 120 20:47 03.12.2020
1455 Clouds 24 1007 88 10000 2.6 150 19:25 03.12.2020
1456 Clouds 24 1007 88 10000 2.1 140 18:48 03.12.2020
1457 Clouds 24 1008 88 10000 2.6 150 17:21 03.12.2020
1458 Rain 24 1009 88 10000 2.1 160 16:45 03.12.2020
1459 Rain 24 1009 94 10000 0.5 120 15:34 03.12.2020
1460 Rain 24 1009 88 10000 1 60 14:50 03.12.2020
1461 Rain 24 1009 88 10000 1 60 14:25 03.12.2020
1462 Rain 24 1010 94 10000 5.1 70 12:55 03.12.2020
1463 Rain 23 1010 94 9000 8.2 100 12:25 03.12.2020
1464 Clouds 31 1007 62 10000 3.6 40 11:23 03.12.2020
1465 Rain 33 1006 49 10000 6.7 30 08:49 03.12.2020
1466 Clouds 34 1008 52 10000 4.1 80 04:44 03.12.2020
1467 Clouds 32 1009 66 10000 1.5 90 02:22 03.12.2020
1468 Clouds 30 1009 74 10000 2.6 140 00:42 03.12.2020
1469 Clouds 25 1008 88 10000 2.1 130 22:47 02.12.2020
1470 Clouds 25 1008 88 10000 2.1 130 22:47 02.12.2020
1471 Clouds 25 1008 88 10000 2.6 130 22:21 02.12.2020
1472 Clouds 25 1007 88 10000 2.6 130 20:55 02.12.2020
1473 Clouds 25 1007 88 10000 1.5 130 20:37 02.12.2020
1474 Clouds 25 1007 88 10000 2.6 130 20:18 02.12.2020
1475 Clouds 25 1008 88 10000 2.1 160 17:56 02.12.2020
1476 Clouds 25 1008 88 10000 2.1 160 17:37 02.12.2020
1477 Clouds 25 1008 94 10000 2.6 170 17:19 02.12.2020
1478 Clouds 26 1009 88 10000 3.17 27 14:49 02.12.2020
1479 Clouds 29 1007 70 10000 2.6 100 11:34 02.12.2020
1480 Clouds 29 1007 79 10000 1 80 10:28 02.12.2020
1481 Rain 31 1005 66 10000 3.1 270 08:40 02.12.2020
1482 Clouds 33 1008 55 10000 2.1 110 03:57 02.12.2020
1483 Clouds 25 1007 94 10000 2.6 100 22:21 01.12.2020
1484 Clouds 25 1007 94 10000 2.6 100 21:36 01.12.2020
1485 Clouds 26 1007 88 10000 3.74 354 19:35 01.12.2020
1486 Clouds 25 1007 94 10000 1.5 40 17:52 01.12.2020
1487 Clouds 26 1008 94 10000 0.5 60 16:35 01.12.2020
1488 Clear 26 1008 94 10000 5.04 356 13:38 01.12.2020
1489 Thunderstorm 25 1007 94 10000 2.1 260 12:25 01.12.2020
1490 Rain 24 1007 100 10000 1.5 310 11:27 01.12.2020
1491 Rain 25 1006 94 10000 9.3 60 10:39 01.12.2020
1492 Rain 33 1006 59 10000 2.6 220 08:21 01.12.2020
1493 Rain 32 1006 70 10000 4.1 200 06:48 01.12.2020
1494 Clouds 31 1010 70 10000 3.1 150 01:53 01.12.2020
1495 Clouds 30 1009 70 10000 0.5 350 00:56 01.12.2020
1496 Rain 28 1008 88 10000 2.6 70 23:21 30.11.2020
1497 Rain 26 1008 94 10000 3.1 80 22:45 30.11.2020
1498 Rain 26 1008 94 10000 3.1 80 22:25 30.11.2020
1499 Rain 27 1008 88 10000 2.1 80 21:22 30.11.2020
1500 Rain 29 1007 79 10000 1.5 290 19:42 30.11.2020
1501 Rain 29 1007 70 10000 2.6 320 18:24 30.11.2020
1502 Rain 29 1007 70 10000 2.6 310 17:51 30.11.2020
1503 Clouds 29 1007 70 10000 3.6 320 16:58 30.11.2020
1504 Clouds 29 1007 74 10000 4.1 310 16:38 30.11.2020
1505 Rain 28 1007 83 10000 2.1 240 14:47 30.11.2020
1506 Clouds 28 1007 83 10000 2.1 230 13:54 30.11.2020
1507 Clouds 29 1007 79 10000 3.6 300 12:34 30.11.2020
1508 Clouds 29 1006 79 10000 3.1 280 11:58 30.11.2020
1509 Clouds 29 1005 74 10000 6.2 300 10:30 30.11.2020
1510 Thunderstorm 30 1005 74 10000 5.1 320 09:51 30.11.2020
1511 Rain 32 1004 62 10000 4.6 330 07:44 30.11.2020
1512 Clouds 32 1008 70 10000 3.1 360 01:19 30.11.2020
1513 Clouds 26 1007 94 10000 2.1 350 22:20 29.11.2020
1514 Clouds 26 1006 94 10000 1.5 350 21:43 29.11.2020
1515 Clouds 26 1006 94 10000 1.5 350 21:25 29.11.2020
1516 Rain 29 1006 79 10000 2.6 340 17:48 29.11.2020
1517 Rain 29 1007 79 10000 3.1 350 16:59 29.11.2020
1518 Clear 29 1006 79 10000 3.6 340 13:35 29.11.2020
1519 Clear 28 1005 78 10000 2.6 310 12:34 29.11.2020
1520 Clouds 28 1005 74 10000 2.6 240 11:22 29.11.2020
1521 Rain 29 1003 62 10000 4.6 70 08:52 29.11.2020
1522 Thunderstorm 29 1005 70 10000 3.1 250 08:34 29.11.2020
1523 Clouds 33 1008 59 10000 1 310 02:31 29.11.2020
1524 Clear 25 1007 78 10000 2.6 80 22:58 28.11.2020
1525 Clouds 24 1006 83 10000 3.6 100 21:20 28.11.2020
1526 Clouds 24 1006 78 10000 2.6 120 19:54 28.11.2020
1527 Clouds 24 1006 83 10000 2.1 100 19:27 28.11.2020
1528 Clouds 23 1006 88 10000 2.6 150 18:52 28.11.2020
1529 Rain 24 1007 83 10000 2.6 150 17:52 28.11.2020
1530 Clouds 25 1007 83 10000 3.1 150 16:56 28.11.2020
1531 Clear 25 1007 78 10000 1.5 240 14:58 28.11.2020
1532 Clear 25 1007 78 10000 1 270 13:31 28.11.2020
1533 Clouds 25 1007 83 10000 5.1 180 11:24 28.11.2020
1534 Rain 28 1005 65 10000 1.5 150 08:47 28.11.2020
1535 Clouds 33 1009 66 10000 3.6 300 03:38 28.11.2020
1536 Clouds 32 1009 70 10000 3.1 340 01:52 28.11.2020
1537 Clouds 32 1009 70 10000 3.1 340 01:52 28.11.2020
1538 Clouds 30 1008 83 10000 3.1 340 23:19 27.11.2020
1539 Clouds 27 1008 83 10000 2.1 340 22:23 27.11.2020
1540 Clouds 28 1006 79 10000 3.6 350 20:39 27.11.2020
1541 Clouds 28 1006 79 10000 3.1 340 19:33 27.11.2020
1542 Clouds 29 1006 79 10000 3.6 340 18:57 27.11.2020
1543 Clouds 28 1007 88 10000 2.1 20 15:50 27.11.2020
1544 Clear 28 1007 88 10000 2.6 40 14:22 27.11.2020
1545 Clear 28 1006 79 10000 2.6 20 13:18 27.11.2020
1546 Clear 28 1006 83 10000 1.5 10 12:46 27.11.2020
1547 Clear 30 1005 66 10000 1.5 350 10:53 27.11.2020
1548 Clear 31 1005 66 10000 2.1 340 10:32 27.11.2020
1549 Clear 32 1004 59 10000 2.6 310 09:27 27.11.2020
1550 Clear 27 1006 78 10000 1.5 220 23:18 26.11.2020
1551 Clouds 28 1007 81 10000 3.37 302 22:24 26.11.2020
1552 Clouds 26 1006 94 10000 0.5 360 21:42 26.11.2020
1553 Clouds 26 1005 83 10000 1.5 360 20:43 26.11.2020
1554 Rain 22 1006 88 10000 3.6 20 18:36 26.11.2020
1555 Clouds 25 1009 73 10000 18.5 70 17:20 26.11.2020
1556 Clear 27 1006 69 10000 2.1 290 13:44 26.11.2020
1557 Clear 27 1006 65 10000 2.6 300 12:57 26.11.2020
1558 Clear 27 1006 65 10000 2.6 250 12:38 26.11.2020
1559 Clouds 29 1004 70 10000 2.6 190 10:46 26.11.2020
1560 Clouds 29 1003 66 10000 2.6 280 10:22 26.11.2020
1561 Clear 29 1004 70 10000 3.6 270 09:34 26.11.2020
1562 Clear 29 1004 66 10000 3.6 290 08:57 26.11.2020
1563 Clouds 28 1003 69 10000 5.1 290 08:33 26.11.2020
1564 Clouds 33 1007 70 10000 3.6 260 02:18 26.11.2020
1565 Clouds 29 1006 83 10000 2.6 260 22:18 25.11.2020
1566 Clouds 29 1005 83 10000 2.6 270 20:32 25.11.2020
1567 Clouds 28 1005 94 10000 2.6 280 18:59 25.11.2020
1568 Clouds 27 1006 88 10000 2.1 230 17:29 25.11.2020
1569 Clear 28 1007 83 10000 2.1 320 15:44 25.11.2020
1570 Clear 27 1007 88 10000 3.1 330 14:58 25.11.2020
1571 Rain 25 1007 88 10000 4.6 350 13:46 25.11.2020
1572 Thunderstorm 24 1007 94 9000 5.7 320 12:57 25.11.2020
1573 Thunderstorm 24 1007 94 9000 5.7 320 12:57 25.11.2020
1574 Clouds 30 1004 74 10000 4.6 290 11:24 25.11.2020
1575 Clouds 32 1003 66 10000 6.7 300 09:21 25.11.2020
1576 Clouds 33 1003 63 10000 7.2 300 08:50 25.11.2020
1577 Clouds 33 1004 63 10000 7.2 300 07:45 25.11.2020
1578 Clouds 33 1006 66 10000 4.1 300 03:52 25.11.2020
1579 Clouds 31 1007 70 10000 2.6 250 01:49 25.11.2020
1580 Clouds 29 1007 79 10000 3.6 210 00:21 25.11.2020
1581 Clouds 28 1007 70 10000 2.1 240 23:35 24.11.2020
1582 Clouds 28 1006 83 10000 3.1 230 22:41 24.11.2020
1583 Thunderstorm 27 1005 88 10000 2.6 170 21:50 24.11.2020
1584 Thunderstorm 27 1005 88 10000 2.6 170 21:27 24.11.2020
1585 Clouds 28 1005 83 10000 2.1 250 20:19 24.11.2020
1586 Rain 25 1005 88 10000 1.5 290 17:47 24.11.2020
1587 Rain 26 1005 88 10000 1.5 290 17:27 24.11.2020
1588 Rain 26 1006 88 10000 0.5 240 16:38 24.11.2020
1589 Rain 26 1006 88 10000 0.5 240 16:38 24.11.2020
1590 Clear 27 1007 83 10000 1.5 270 15:56 24.11.2020
1591 Clouds 27 1007 74 10000 1.5 240 15:20 24.11.2020
1592 Clouds 27 1007 74 10000 3.1 220 14:45 24.11.2020
1593 Clear 28 1007 78 10000 3.6 250 14:21 24.11.2020
1594 Clouds 28 1006 78 10000 2.1 250 12:42 24.11.2020
1595 Clouds 28 1007 78 10000 2.6 190 12:21 24.11.2020
1596 Clouds 28 1006 78 10000 2.6 190 11:34 24.11.2020
1597 Clouds 29 1006 79 10000 3.1 220 10:25 24.11.2020
1598 Clouds 29 1005 74 10000 3.6 240 09:42 24.11.2020
1599 Clouds 29 1004 74 10000 3.1 240 09:22 24.11.2020
1600 Clouds 29 1006 79 10000 3.1 260 06:50 24.11.2020
1601 Clouds 32 1008 62 10000 3.6 290 03:59 24.11.2020
1602 Clouds 26 1007 94 10000 1 20 22:27 23.11.2020
1603 Clear 26 1007 94 10000 1 60 21:34 23.11.2020
1604 Rain 26 1006 88 10000 1 30 20:50 23.11.2020
1605 Clouds 26 1006 88 10000 0.5 50 20:19 23.11.2020
1606 Clouds 26 1006 83 10000 1.5 90 18:20 23.11.2020
1607 Clouds 26 1007 83 10000 2.35 313 17:23 23.11.2020
1608 Rain 28 1007 74 10000 1.5 230 16:22 23.11.2020
1609 Clear 28 1008 78 10000 1 250 14:46 23.11.2020
1610 Clear 28 1008 78 10000 1 250 14:46 23.11.2020
1611 Clear 28 1008 78 10000 1 300 12:55 23.11.2020
1612 Clear 28 1008 78 10000 2.6 200 12:36 23.11.2020
1613 Clear 29 1007 70 10000 3.6 260 11:46 23.11.2020
1614 Clouds 31 1007 62 10000 4.6 290 10:50 23.11.2020
1615 Clouds 32 1006 59 10000 4.1 320 09:31 23.11.2020
1616 Clouds 33 1005 55 10000 3.1 340 08:40 23.11.2020
1617 Clouds 33 1006 55 10000 3.6 340 07:25 23.11.2020
1618 Clouds 25 1011 94 10000 1.5 150 00:34 23.11.2020
1619 Clouds 25 1011 88 10000 2.6 150 23:35 22.11.2020
1620 Rain 25 1009 94 10000 2.6 40 22:18 22.11.2020
1621 Clouds 27 1009 88 10000 2.1 200 20:54 22.11.2020
1622 Thunderstorm 27 1008 94 10000 1.42 332 19:55 22.11.2020
1623 Clouds 27 1008 94 10000 1 320 18:53 22.11.2020
1624 Rain 27 1009 88 10000 0.5 360 16:54 22.11.2020
1625 Clouds 27 1010 88 10000 2.1 290 15:51 22.11.2020
1626 Rain 26 1009 83 10000 2.6 270 14:39 22.11.2020
1627 Clouds 27 1008 83 10000 1.5 270 12:50 22.11.2020
1628 Clouds 28 1008 83 10000 0.5 240 11:57 22.11.2020
1629 Rain 28 1007 78 10000 1.5 280 11:21 22.11.2020
1630 Clouds 28 1007 78 10000 1.5 290 10:45 22.11.2020
1631 Clouds 27 1006 83 10000 2.69 349 09:32 22.11.2020
1632 Clouds 31 1011 66 10000 2.6 30 01:49 22.11.2020
1633 Clear 27 1011 83 10000 2.1 120 23:40 21.11.2020
1634 Clear 24 1009 88 10000 1.5 90 22:18 21.11.2020
1635 Clouds 23 1009 94 10000 2.1 30 21:30 21.11.2020
1636 Clouds 23 1009 94 10000 2.1 30 21:30 21.11.2020
1637 Thunderstorm 25 1009 83 10000 8.2 80 20:35 21.11.2020
1638 Clouds 25 1008 88 10000 1.5 100 19:57 21.11.2020
1639 Clear 25 1008 88 10000 0.5 130 19:36 21.11.2020
1640 Clouds 26 1008 83 10000 1.5 150 18:28 21.11.2020
1641 Clouds 26 1009 88 10000 2.1 160 17:26 21.11.2020
1642 Clouds 26 1009 83 10000 2.6 160 16:39 21.11.2020
1643 Clouds 27 1010 78 10000 4.08 323 15:22 21.11.2020
1644 Clouds 27 1010 78 10000 4.08 323 15:22 21.11.2020
1645 Clouds 27 1009 83 10000 1.5 350 14:43 21.11.2020
1646 Clouds 27 1009 83 10000 2.6 330 14:22 21.11.2020
1647 Clouds 27 1009 88 10000 0.5 60 12:36 21.11.2020
1648 Rain 27 1008 88 10000 1 240 12:18 21.11.2020
1649 Rain 30 1007 74 10000 5.7 330 10:51 21.11.2020
1650 Rain 30 1007 74 10000 5.7 330 10:26 21.11.2020
1651 Clouds 33 1006 52 10000 4.6 10 08:51 21.11.2020
1652 Thunderstorm 31 1007 62 10000 8.2 10 06:35 21.11.2020
1653 Clouds 33 1008 59 10000 1.5 280 04:39 21.11.2020
1654 Clouds 30 1011 74 10000 1 90 01:32 21.11.2020
1655 Clouds 26 1010 83 10000 2.1 180 23:59 20.11.2020
1656 Rain 24 1009 94 10000 2.1 300 22:26 20.11.2020
1657 Thunderstorm 24 1009 94 9000 2.1 160 21:42 20.11.2020
1658 Thunderstorm 24 1009 88 10000 5.7 160 21:21 20.11.2020
1659 Rain 26 1008 88 10000 4.1 50 19:46 20.11.2020
1660 Rain 28 1008 74 10000 3.1 330 18:50 20.11.2020
1661 Clouds 29 1008 74 10000 3.1 340 17:53 20.11.2020
1662 Clouds 30 1009 70 10000 3.1 330 17:27 20.11.2020
1663 Rain 30 1009 70 10000 3.6 330 16:39 20.11.2020
1664 Clouds 30 1009 70 10000 3.1 320 15:58 20.11.2020
1665 Clouds 30 1009 70 10000 3.6 330 15:26 20.11.2020
1666 Clouds 30 1009 70 10000 4.6 330 13:47 20.11.2020
1667 Clouds 30 1008 70 10000 5.7 310 13:18 20.11.2020
1668 Clouds 30 1008 70 10000 4.6 300 12:36 20.11.2020
1669 Clear 30 1007 66 10000 4.6 320 11:45 20.11.2020
1670 Clear 30 1007 66 10000 5.1 320 10:59 20.11.2020
1671 Clouds 32 1005 55 10000 4.6 360 08:54 20.11.2020
1672 Rain 31 1005 59 10000 5.7 10 08:25 20.11.2020
1673 Rain 32 1006 62 10000 6.2 350 07:33 20.11.2020
1674 Clouds 34 1009 62 10000 3.6 290 03:44 20.11.2020
1675 Clouds 28 1009 88 10000 2.1 80 22:42 19.11.2020
1676 Clouds 27 1008 88 10000 1 140 21:57 19.11.2020
1677 Clouds 27 1008 88 10000 0.5 160 21:38 19.11.2020
1678 Clear 27 1008 88 10000 1 50 20:33 19.11.2020
1679 Rain 28 1008 83 10000 1.5 350 19:53 19.11.2020
1680 Rain 28 1008 83 10000 1.5 20 19:24 19.11.2020
1681 Rain 29 1008 74 10000 3.1 350 17:40 19.11.2020
1682 Clouds 30 1008 70 10000 4.1 310 16:54 19.11.2020
1683 Clouds 30 1008 74 10000 3.6 330 15:40 19.11.2020
1684 Clouds 30 1008 74 10000 4.1 320 15:18 19.11.2020
1685 Clear 30 1008 70 10000 5.1 330 13:46 19.11.2020
1686 Clouds 30 1008 74 10000 5.1 320 13:20 19.11.2020
1687 Clouds 30 1007 74 10000 5.7 320 12:35 19.11.2020
1688 Clouds 31 1007 70 10000 5.7 330 11:50 19.11.2020
1689 Clouds 31 1007 70 10000 5.7 330 11:32 19.11.2020
1690 Clear 31 1007 62 10000 4.1 360 10:53 19.11.2020
1691 Clear 32 1005 52 10000 5.1 10 10:19 19.11.2020
1692 Clear 33 1005 49 10000 5.7 30 09:42 19.11.2020
1693 Clear 33 1005 49 10000 5.7 30 09:24 19.11.2020
1694 Rain 32 1005 79 10000 5.7 340 08:19 19.11.2020
1695 Clouds 33 1007 59 10000 3.6 330 05:41 19.11.2020
1696 Clouds 33 1010 59 10000 3.6 350 01:45 19.11.2020
1697 Clouds 30 1010 74 10000 2.1 60 23:52 18.11.2020
1698 Clouds 29 1010 79 10000 1.5 50 23:24 18.11.2020
1699 Clouds 27 1009 88 10000 1 70 22:36 18.11.2020
1700 Clouds 27 1009 88 10000 1.94 22 22:18 18.11.2020
1701 Clouds 27 1009 83 10000 1.94 22 21:38 18.11.2020
1702 Clouds 27 1009 88 10000 1.42 0 21:19 18.11.2020
1703 Clouds 28 1009 78 10000 1 350 19:47 18.11.2020
1704 Rain 28 1009 78 10000 1 350 19:27 18.11.2020
1705 Rain 29 1009 74 10000 1.5 350 18:49 18.11.2020
1706 Clouds 29 1009 74 10000 2.6 340 17:59 18.11.2020
1707 Clouds 29 1009 70 10000 2.1 340 17:35 18.11.2020
1708 Clouds 29 1009 70 10000 2.6 330 16:23 18.11.2020
1709 Clouds 30 1010 70 10000 3.6 320 15:22 18.11.2020
1710 Clouds 31 1009 66 10000 3.6 340 14:40 18.11.2020
1711 Clouds 31 1009 66 10000 4.6 340 13:43 18.11.2020
1712 Clouds 31 1009 62 10000 5.1 340 12:54 18.11.2020
1713 Clouds 31 1008 66 10000 4.6 350 12:27 18.11.2020
1714 Clear 31 1007 59 10000 3.6 310 11:28 18.11.2020
1715 Clear 32 1006 59 10000 2.6 290 10:31 18.11.2020
1716 Clear 33 1006 55 10000 3.1 320 09:52 18.11.2020
1717 Clouds 33 1005 55 10000 5.7 330 07:40 18.11.2020
1718 Clouds 35 1006 52 10000 6.2 310 06:30 18.11.2020
1719 Clouds 30 1010 66 10000 2.1 130 00:23 18.11.2020
1720 Clouds 29 1010 74 10000 2.6 130 23:31 17.11.2020
1721 Clouds 27 1009 78 10000 0.5 110 22:46 17.11.2020
1722 Clouds 27 1009 78 10000 0.5 110 22:28 17.11.2020
1723 Clouds 27 1009 83 10000 1.7 170 21:49 17.11.2020
1724 Clouds 27 1009 83 10000 1.18 181 21:29 17.11.2020
1725 Clouds 27 1008 78 10000 1 150 20:44 17.11.2020
1726 Clouds 28 1008 78 10000 1 150 20:24 17.11.2020
1727 Clouds 28 1009 83 10000 1.5 160 19:50 17.11.2020
1728 Clouds 28 1009 83 10000 1.5 160 18:24 17.11.2020
1729 Rain 28 1009 78 10000 1 180 17:33 17.11.2020
1730 Clouds 28 1009 66 10000 1.5 350 16:49 17.11.2020
1731 Clouds 29 1009 66 10000 2.6 350 16:18 17.11.2020
1732 Clouds 29 1009 70 10000 2.1 350 15:38 17.11.2020
1733 Clouds 29 1009 62 10000 2.1 350 15:20 17.11.2020
1734 Clouds 30 1009 62 10000 2.6 350 14:30 17.11.2020
1735 Clouds 30 1009 62 10000 2.1 350 13:45 17.11.2020
1736 Clouds 30 1009 62 10000 2.1 350 13:22 17.11.2020
1737 Clear 31 1008 62 10000 4.6 30 12:42 17.11.2020
1738 Clouds 31 1008 66 10000 4.1 40 11:45 17.11.2020
1739 Clouds 31 1008 66 10000 4.1 40 11:26 17.11.2020
1740 Clear 31 1007 55 10000 6.2 30 10:39 17.11.2020
1741 Clear 32 1007 55 10000 6.7 30 09:57 17.11.2020
1742 Clear 33 1006 49 10000 7.7 30 09:36 17.11.2020
1743 Clouds 34 1006 44 10000 9.8 30 08:43 17.11.2020
1744 Clear 35 1006 41 10000 8.7 20 07:59 17.11.2020
1745 Clear 35 1006 41 10000 8.7 30 07:28 17.11.2020
1746 Clear 36 1009 37 10000 5.1 80 04:31 17.11.2020
1747 Clouds 34 1010 44 10000 5.1 130 03:25 17.11.2020
1748 Clouds 33 1010 49 10000 3.6 140 02:29 17.11.2020
1749 Clouds 31 1011 66 10000 3.6 90 00:56 17.11.2020
1750 Clouds 31 1010 66 10000 3.1 90 23:54 16.11.2020
1751 Clouds 30 1010 70 10000 2.6 90 23:31 16.11.2020
1752 Clouds 28 1010 83 10000 2.1 100 22:58 16.11.2020
1753 Clouds 28 1010 83 10000 2.1 90 22:24 16.11.2020
1754 Clouds 27 1009 83 10000 1.5 70 21:56 16.11.2020
1755 Clouds 28 1009 83 10000 1.5 10 21:37 16.11.2020
1756 Clouds 28 1008 83 10000 1.5 30 21:19 16.11.2020
1757 Clouds 28 1008 83 10000 1.5 20 20:26 16.11.2020
1758 Clouds 28 1008 79 10000 1.5 360 19:51 16.11.2020
1759 Clear 29 1008 79 10000 1.5 10 19:29 16.11.2020
1760 Clouds 29 1008 70 10000 2.1 320 18:50 16.11.2020
1761 Thunderstorm 29 1009 74 10000 1 310 18:18 16.11.2020
1762 Clouds 29 1009 74 10000 2.1 320 17:28 16.11.2020
1763 Clouds 30 1009 74 10000 2.6 310 16:57 16.11.2020
1764 Clouds 30 1009 74 10000 3.1 300 16:39 16.11.2020
1765 Clouds 30 1010 74 10000 3.1 310 16:20 16.11.2020
1766 Clouds 30 1009 70 10000 4.1 320 15:43 16.11.2020
1767 Clouds 30 1009 70 10000 4.6 320 15:25 16.11.2020
1768 Clouds 30 1009 70 10000 5.7 320 14:47 16.11.2020
1769 Clouds 31 1009 62 10000 5.7 290 13:40 16.11.2020
1770 Clouds 31 1008 62 10000 3.1 320 12:45 16.11.2020
1771 Clouds 31 1008 62 10000 3.1 320 12:45 16.11.2020
1772 Clouds 31 1008 62 10000 3.1 320 12:45 16.11.2020
1773 Clouds 31 1008 62 10000 3.1 320 12:25 16.11.2020
1774 Clear 31 1007 55 10000 2.6 20 11:38 16.11.2020
1775 Clear 31 1007 55 10000 3.6 20 11:20 16.11.2020
1776 Clear 32 1007 52 10000 4.1 10 10:42 16.11.2020
1777 Clear 33 1007 44 10000 5.1 10 10:24 16.11.2020
1778 Clouds 34 1006 46 10000 5.1 10 09:43 16.11.2020
1779 Clouds 34 1006 44 10000 5.7 10 09:22 16.11.2020
1780 Clouds 34 1006 49 10000 5.7 360 08:40 16.11.2020
1781 Clouds 35 1007 47 10000 6.2 350 07:44 16.11.2020
1782 Clouds 35 1008 50 10000 5.7 360 06:50 16.11.2020
1783 Clouds 35 1008 50 10000 5.7 360 06:24 16.11.2020
1784 Clouds 34 1010 56 10000 4.6 340 04:43 16.11.2020
1785 Clouds 33 1011 52 10000 2.6 140 02:30 16.11.2020
1786 Clouds 33 1012 55 10000 1.5 150 01:44 16.11.2020
1787 Clouds 31 1011 70 10000 1.5 110 23:58 15.11.2020
1788 Clouds 30 1011 74 10000 2.1 140 23:22 15.11.2020
1789 Clouds 27 1010 83 10000 2.1 110 22:50 15.11.2020
1790 Clouds 27 1010 83 10000 2.1 110 22:22 15.11.2020
1791 Clear 28 1009 78 10000 1 140 21:45 15.11.2020
1792 Rain 27 1009 78 10000 1 140 21:24 15.11.2020
1793 Rain 27 1009 78 10000 1 210 20:44 15.11.2020
1794 Rain 26 1009 83 10000 1 220 20:21 15.11.2020
1795 Rain 26 1009 83 10000 1.73 150 19:48 15.11.2020
1796 Rain 26 1009 83 10000 1.51 135 19:22 15.11.2020
1797 Rain 27 1009 78 10000 0.5 130 18:58 15.11.2020
1798 Rain 27 1010 78 10000 1 230 18:40 15.11.2020
1799 Clouds 27 1010 78 10000 0.92 105 18:20 15.11.2020
1800 Rain 28 1010 74 10000 0.92 105 17:46 15.11.2020
1801 Rain 29 1010 74 10000 1 260 17:24 15.11.2020
1802 Rain 29 1010 70 10000 1.5 260 16:50 15.11.2020
1803 Clear 30 1010 70 10000 1.5 240 16:21 15.11.2020
1804 Clear 29 1010 70 10000 1.5 240 15:54 15.11.2020
1805 Clouds 29 1011 70 10000 2.6 240 15:29 15.11.2020
1806 Clouds 30 1010 70 10000 2.1 240 14:59 15.11.2020
1807 Clouds 30 1010 66 10000 3.1 240 14:31 15.11.2020
1808 Clouds 30 1010 66 10000 3.1 280 13:57 15.11.2020
1809 Clouds 30 1010 66 10000 3.1 240 13:37 15.11.2020
1810 Clouds 30 1010 62 10000 4.1 250 12:52 15.11.2020
1811 Clouds 30 1009 62 10000 3.1 290 12:25 15.11.2020
1812 Clouds 30 1009 66 10000 3.6 290 11:47 15.11.2020
1813 Clouds 31 1009 62 10000 3.6 270 11:21 15.11.2020
1814 Clouds 31 1009 62 10000 3.6 270 10:59 15.11.2020
1815 Clouds 31 1009 55 10000 3.6 260 10:41 15.11.2020
1816 Clouds 32 1008 52 10000 4.1 270 10:23 15.11.2020
1817 Clouds 33 1008 49 10000 5.7 290 09:41 15.11.2020
1818 Clear 34 1008 49 10000 5.1 300 09:19 15.11.2020
1819 Clear 35 1008 44 10000 4.1 290 08:51 15.11.2020
1820 Clear 37 1008 39 10000 4.1 310 08:22 15.11.2020
1821 Clouds 36 1008 44 10000 4.6 290 07:38 15.11.2020
1822 Clouds 35 1009 46 10000 4.6 320 04:58 15.11.2020
1823 Clear 35 1011 41 10000 3.1 350 02:55 15.11.2020
1824 Clouds 29 1013 62 10000 6.7 140 00:48 15.11.2020
1825 Clouds 29 1013 62 10000 6.7 140 00:27 15.11.2020
1826 Clouds 29 1013 62 10000 6.7 140 00:27 15.11.2020
1827 Clouds 28 1013 78 10000 6.2 150 23:37 14.11.2020
1828 Clouds 27 1012 88 10000 3.1 130 22:50 14.11.2020
1829 Clouds 27 1012 88 10000 3.1 130 22:30 14.11.2020
1830 Clouds 27 1010 88 10000 2.6 100 21:43 14.11.2020
1831 Clear 27 1010 88 10000 2.6 80 21:22 14.11.2020
1832 Clear 26 1010 88 10000 2.6 80 20:56 14.11.2020
1833 Clear 26 1010 83 10000 2.1 70 20:28 14.11.2020
1834 Clear 26 1009 88 10000 1 60 19:51 14.11.2020
1835 Clear 26 1010 83 10000 1.5 30 19:31 14.11.2020
1836 Clear 27 1010 78 10000 1.5 70 18:43 14.11.2020
1837 Clear 27 1010 78 10000 1 50 18:24 14.11.2020
1838 Clear 27 1010 78 10000 1 50 17:57 14.11.2020
1839 Clear 27 1010 78 10000 1 350 17:39 14.11.2020
1840 Clear 28 1009 74 10000 2.1 340 17:19 14.11.2020
1841 Clear 29 1010 70 10000 2.6 300 16:41 14.11.2020
1842 Clouds 29 1010 70 10000 2.6 300 16:20 14.11.2020
1843 Clouds 29 1010 70 10000 2.6 300 15:51 14.11.2020
1844 Clouds 29 1010 70 10000 3.6 310 15:26 14.11.2020
1845 Clouds 29 1010 70 10000 4.6 320 14:42 14.11.2020
1846 Clouds 29 1009 70 10000 4.1 320 14:23 14.11.2020
1847 Clouds 29 1009 70 10000 3.6 310 13:42 14.11.2020
1848 Clouds 29 1009 70 10000 3.6 310 13:23 14.11.2020
1849 Clouds 29 1009 70 10000 4.1 310 12:46 14.11.2020
1850 Clouds 29 1009 70 10000 4.1 310 12:28 14.11.2020
1851 Clouds 30 1008 70 10000 4.6 300 11:46 14.11.2020
1852 Clouds 30 1008 70 10000 4.6 300 11:25 14.11.2020
1853 Clouds 31 1007 66 10000 6.2 310 10:45 14.11.2020
1854 Clouds 31 1007 62 10000 6.2 300 10:25 14.11.2020
1855 Clouds 32 1007 59 10000 6.7 300 09:49 14.11.2020
1856 Clouds 32 1007 59 10000 6.7 300 09:28 14.11.2020
1857 Clear 35 1007 39 10000 5.7 300 08:50 14.11.2020
1858 Clear 35 1007 39 10000 5.7 300 08:29 14.11.2020
1859 Clear 35 1007 44 10000 5.7 290 07:50 14.11.2020
1860 Clear 35 1007 44 10000 5.7 290 07:28 14.11.2020
1861 Clear 34 1008 49 10000 5.1 300 06:32 14.11.2020
1862 Clouds 34 1009 52 10000 4.6 300 05:33 14.11.2020
1863 Clouds 34 1010 59 10000 3.6 310 04:18 14.11.2020
1864 Clouds 31 1010 70 10000 4.6 360 00:59 14.11.2020
1865 Clouds 30 1009 74 10000 4.1 360 23:47 13.11.2020
1866 Clouds 30 1009 74 10000 4.1 360 23:47 13.11.2020
1867 Clouds 30 1009 79 10000 1.5 360 23:25 13.11.2020
1868 Clouds 29 1009 79 10000 1.5 360 22:55 13.11.2020
1869 Clouds 28 1009 83 10000 1.5 350 22:28 13.11.2020
1870 Clouds 28 1008 83 10000 2.6 360 21:56 13.11.2020
1871 Clouds 28 1008 79 10000 1.5 350 21:37 13.11.2020
1872 Clouds 28 1008 79 10000 1.5 350 21:19 13.11.2020
1873 Clouds 29 1008 79 10000 2.6 350 20:42 13.11.2020
1874 Clouds 29 1007 79 10000 3.6 360 20:22 13.11.2020
1875 Clouds 29 1007 79 10000 3.6 360 20:22 13.11.2020
1876 Clouds 29 1007 79 10000 3.1 360 19:46 13.11.2020
1877 Clouds 29 1007 79 10000 3.1 360 19:23 13.11.2020
1878 Clouds 29 1007 79 10000 3.1 360 19:23 13.11.2020
1879 Clouds 29 1007 79 10000 2.6 350 18:56 13.11.2020
1880 Clear 29 1008 79 10000 2.1 340 18:23 13.11.2020
1881 Clear 29 1008 79 10000 2.6 330 17:41 13.11.2020
1882 Clear 29 1008 79 10000 2.6 340 17:19 13.11.2020
1883 Clear 29 1009 79 10000 3.1 360 16:49 13.11.2020
1884 Clear 29 1009 79 10000 3.1 360 16:24 13.11.2020
1885 Clouds 29 1009 70 10000 2.6 350 15:50 13.11.2020
1886 Clouds 29 1009 70 10000 2.6 350 15:27 13.11.2020
1887 Clouds 29 1009 70 10000 3.1 350 14:50 13.11.2020
1888 Clouds 29 1009 70 10000 2.6 340 14:25 13.11.2020
1889 Clouds 30 1009 70 10000 2.6 340 13:53 13.11.2020
1890 Clear 30 1008 70 10000 3.1 350 13:25 13.11.2020
1891 Clear 30 1008 66 10000 2.1 330 12:48 13.11.2020
1892 Clear 30 1008 66 10000 2.1 330 12:25 13.11.2020
1893 Clear 30 1007 66 10000 3.1 350 11:50 13.11.2020
1894 Clear 30 1007 66 10000 3.1 350 11:32 13.11.2020
1895 Clear 30 1007 66 10000 3.1 340 10:58 13.11.2020
1896 Clear 31 1006 62 10000 3.6 310 10:39 13.11.2020
1897 Clouds 31 1006 59 10000 4.1 310 10:21 13.11.2020
1898 Clouds 32 1006 52 10000 4.1 300 09:43 13.11.2020
1899 Clouds 32 1006 52 10000 4.1 300 09:23 13.11.2020
1900 Clouds 34 1006 52 10000 4.6 310 08:52 13.11.2020
1901 Clouds 34 1006 49 10000 5.7 310 08:21 13.11.2020
1902 Clouds 34 1006 52 10000 6.2 310 07:45 13.11.2020
1903 Clouds 34 1006 52 10000 6.2 310 07:26 13.11.2020
1904 Clouds 35 1007 49 10000 5.7 310 06:49 13.11.2020
1905 Clouds 33 1008 55 10000 4.6 320 06:19 13.11.2020
1906 Clouds 35 1008 56 10000 4.6 310 05:39 13.11.2020
1907 Clouds 32 1011 62 10000 3.6 290 02:22 13.11.2020
1908 Clouds 31 1011 66 10000 3.1 300 01:32 13.11.2020
1909 Clouds 30 1010 70 10000 4.6 300 00:33 13.11.2020
1910 Clouds 29 1009 70 10000 3.6 310 23:39 12.11.2020
1911 Clouds 29 1008 74 10000 4.6 290 23:20 12.11.2020
1912 Clear 28 1008 74 10000 6.2 290 22:52 12.11.2020
1913 Clear 28 1008 74 10000 6.2 290 22:33 12.11.2020
1914 Clear 28 1007 78 10000 3.6 320 21:56 12.11.2020
1915 Clear 27 1007 74 10000 2.1 340 21:38 12.11.2020
1916 Clouds 27 1007 74 10000 3.1 350 21:18 12.11.2020
1917 Clouds 27 1007 74 10000 3.6 40 20:40 12.11.2020
1918 Thunderstorm 27 1008 74 10000 3.6 40 20:21 12.11.2020
1919 Thunderstorm 27 1008 78 10000 4.1 30 19:50 12.11.2020
1920 Thunderstorm 26 1008 78 10000 4.1 30 19:32 12.11.2020
1921 Thunderstorm 25 1010 83 10000 6.2 50 18:52 12.11.2020
1922 Rain 25 1011 83 10000 9.8 70 18:24 12.11.2020
1923 Thunderstorm 25 1011 83 10000 9.8 70 17:59 12.11.2020
1924 Thunderstorm 25 1011 83 10000 11.3 70 17:38 12.11.2020
1925 Clouds 30 1011 74 10000 3.6 40 17:20 12.11.2020
1926 Clouds 29 1010 74 10000 2.6 360 16:44 12.11.2020
1927 Clouds 29 1010 74 10000 3.1 10 16:22 12.11.2020
1928 Clear 29 1011 74 10000 2.6 30 15:42 12.11.2020
1929 Clouds 29 1011 70 10000 2.1 30 15:23 12.11.2020
1930 Clouds 29 1011 70 10000 3.1 360 14:47 12.11.2020
1931 Clouds 28 1011 70 10000 3.1 360 14:26 12.11.2020
1932 Clouds 29 1010 70 10000 3.1 330 13:57 12.11.2020
1933 Clouds 29 1010 70 10000 3.6 330 13:37 12.11.2020
1934 Clouds 29 1010 70 10000 3.1 310 13:18 12.11.2020
1935 Clouds 29 1010 70 10000 3.1 290 12:43 12.11.2020
1936 Clouds 29 1010 70 10000 3.1 300 12:21 12.11.2020
1937 Clouds 29 1009 70 10000 4.6 310 11:50 12.11.2020
1938 Clouds 29 1009 70 10000 4.6 310 11:29 12.11.2020
1939 Clouds 29 1009 70 10000 4.6 290 10:44 12.11.2020
1940 Clouds 31 1009 70 10000 4.6 290 10:25 12.11.2020
1941 Clouds 31 1008 70 10000 5.1 290 09:49 12.11.2020
1942 Clouds 31 1008 66 10000 5.1 290 09:23 12.11.2020
1943 Clouds 30 1008 66 10000 5.1 290 08:57 12.11.2020
1944 Clouds 30 1008 66 10000 5.1 290 08:57 12.11.2020
1945 Clouds 29 1008 66 10000 5.7 300 08:39 12.11.2020
1946 Clouds 32 1008 66 10000 7.2 300 08:19 12.11.2020
1947 Clouds 33 1008 59 10000 7.2 290 07:50 12.11.2020
1948 Clouds 30 1008 59 10000 7.2 290 07:22 12.11.2020
1949 Clouds 33 1009 59 10000 6.7 310 06:50 12.11.2020
1950 Clouds 34 1010 59 10000 6.2 310 05:35 12.11.2020
1951 Clouds 32 1012 62 10000 4.1 340 03:23 12.11.2020
1952 Clouds 32 1012 62 10000 4.1 340 02:53 12.11.2020
1953 Clouds 30 1012 74 10000 3.1 350 00:22 12.11.2020
1954 Clouds 29 1011 79 10000 2.6 340 23:26 11.11.2020
1955 Clouds 29 1011 79 10000 2.6 340 22:59 11.11.2020
1956 Clouds 29 1011 79 10000 2.6 350 22:40 11.11.2020
1957 Clouds 28 1011 79 10000 3.1 350 22:21 11.11.2020
1958 Clouds 27 1011 79 10000 3.1 350 21:54 11.11.2020
1959 Clouds 28 1011 79 10000 2.1 350 21:36 11.11.2020
1960 Clouds 28 1010 79 10000 2.6 350 21:18 11.11.2020
1961 Clouds 28 1010 79 10000 2.1 360 20:41 11.11.2020
1962 Clouds 28 1010 79 10000 2.1 360 20:21 11.11.2020
1963 Rain 28 1010 79 10000 2.6 340 19:49 11.11.2020
1964 Rain 28 1010 79 10000 2.6 340 19:31 11.11.2020
1965 Clouds 28 1010 79 10000 2.6 340 18:55 11.11.2020
1966 Clouds 28 1010 79 10000 2.6 330 18:35 11.11.2020
1967 Clouds 28 1011 70 10000 2.1 240 17:44 11.11.2020
1968 Clouds 29 1011 74 10000 2.6 240 17:23 11.11.2020
1969 Clouds 29 1011 74 10000 2.6 240 16:57 11.11.2020
1970 Clouds 30 1011 74 10000 3.6 250 16:35 11.11.2020
1971 Clouds 30 1011 74 10000 3.1 270 15:56 11.11.2020
1972 Clouds 30 1012 74 10000 3.6 260 15:37 11.11.2020
1973 Clouds 30 1012 70 10000 3.6 280 15:18 11.11.2020
1974 Clouds 30 1012 70 10000 4.6 280 14:43 11.11.2020
1975 Clouds 30 1012 62 10000 2.6 280 14:23 11.11.2020
1976 Clouds 30 1011 62 10000 3.1 300 13:44 11.11.2020
1977 Clouds 30 1011 66 10000 2.6 330 12:59 11.11.2020
1978 Clear 31 1010 59 10000 2.6 350 12:21 11.11.2020
1979 Clear 31 1009 49 10000 3.1 300 11:51 11.11.2020
1980 Clear 31 1009 49 10000 3.1 300 11:33 11.11.2020
1981 Clear 31 1009 49 10000 3.1 300 11:33 11.11.2020
1982 Clouds 32 1009 43 10000 5.1 30 10:45 11.11.2020
1983 Clouds 32 1009 43 10000 5.1 30 10:27 11.11.2020
1984 Clear 33 1009 43 10000 5.1 30 09:55 11.11.2020
1985 Clear 34 1009 41 10000 4.6 30 09:37 11.11.2020
1986 Clear 34 1009 38 10000 4.6 30 09:19 11.11.2020
1987 Clear 35 1009 36 10000 5.1 10 08:43 11.11.2020
1988 Clear 35 1009 36 10000 5.1 10 08:24 11.11.2020
1989 Clear 35 1009 36 10000 5.1 10 07:43 11.11.2020
1990 Clear 36 1009 41 10000 5.1 360 06:32 11.11.2020
1991 Clear 35 1011 41 10000 6.7 340 05:44 11.11.2020
1992 Clouds 33 1013 62 10000 4.1 70 01:47 11.11.2020
1993 Clouds 32 1013 62 10000 3.6 80 00:57 11.11.2020
1994 Clouds 31 1013 66 10000 3.1 70 00:24 11.11.2020
1995 Clouds 29 1013 74 10000 2.6 100 23:38 10.11.2020
1996 Clouds 28 1012 78 10000 2.1 90 23:20 10.11.2020
1997 Clouds 27 1012 83 10000 1.5 80 22:45 10.11.2020
1998 Clouds 27 1012 83 10000 1.5 80 22:26 10.11.2020
1999 Clouds 27 1011 83 10000 1.5 60 21:41 10.11.2020
2000 Clouds 27 1011 83 10000 2.1 50 21:23 10.11.2020
2001 Clouds 27 1011 83 10000 2.1 50 20:56 10.11.2020
2002 Clouds 27 1010 83 10000 1.5 70 20:38 10.11.2020
2003 Clouds 27 1010 83 10000 1 40 20:19 10.11.2020
2004 Clouds 27 1010 83 10000 1.5 30 19:44 10.11.2020
2005 Rain 27 1010 83 10000 1.5 360 19:24 10.11.2020
2006 Rain 28 1010 83 10000 1.5 360 18:55 10.11.2020
2007 Rain 28 1010 79 10000 1.5 10 18:36 10.11.2020
2008 Clouds 28 1010 79 10000 2.6 10 18:18 10.11.2020
2009 Clouds 29 1010 79 10000 2.6 360 17:41 10.11.2020
2010 Rain 29 1010 74 10000 2.6 350 17:22 10.11.2020
2011 Clouds 29 1011 70 10000 2.6 360 16:41 10.11.2020
2012 Clouds 29 1011 74 10000 2.6 360 16:22 10.11.2020
2013 Clouds 29 1011 74 10000 2.6 360 15:54 10.11.2020
2014 Clouds 29 1011 74 10000 2.1 350 15:36 10.11.2020
2015 Clouds 29 1011 74 10000 2.6 310 15:18 10.11.2020
2016 Clouds 29 1011 74 10000 3.1 310 14:39 10.11.2020
2017 Clouds 29 1011 74 10000 3.6 310 14:18 10.11.2020
2018 Clouds 30 1010 70 10000 3.1 320 13:39 10.11.2020
2019 Clouds 30 1010 70 10000 1.5 10 13:20 10.11.2020
2020 Clouds 30 1010 70 10000 1.5 30 12:46 10.11.2020
2021 Clouds 30 1010 70 10000 1.5 30 12:28 10.11.2020
2022 Clouds 30 1009 66 10000 4.1 40 11:43 10.11.2020
2023 Clouds 31 1009 66 10000 4.6 30 11:22 10.11.2020
2024 Clouds 31 1009 66 10000 4.6 30 10:58 10.11.2020
2025 Clouds 31 1008 59 10000 5.1 30 10:39 10.11.2020
2026 Clouds 31 1008 59 10000 5.7 30 10:21 10.11.2020
2027 Clouds 32 1008 55 10000 5.1 20 09:46 10.11.2020
2028 Clouds 33 1008 55 10000 5.1 20 09:25 10.11.2020
2029 Clouds 34 1008 49 10000 6.2 10 08:55 10.11.2020
2030 Clouds 34 1008 49 10000 5.7 20 08:29 10.11.2020
2031 Clear 35 1008 47 10000 6.2 10 07:45 10.11.2020
2032 Clear 35 1008 47 10000 6.2 10 07:25 10.11.2020
2033 Clouds 35 1009 47 10000 5.1 50 06:41 10.11.2020
2034 Clouds 35 1010 47 10000 4.6 30 05:49 10.11.2020
2035 Clouds 35 1010 52 10000 5.1 360 05:24 10.11.2020
2036 Clouds 34 1012 52 10000 3.1 70 02:48 10.11.2020
2037 Clouds 32 1012 62 10000 2.6 70 01:32 10.11.2020
2038 Clouds 31 1011 66 10000 2.1 80 00:23 10.11.2020
2039 Clouds 31 1011 66 10000 2.1 80 00:23 10.11.2020
2040 Clouds 30 1011 74 10000 2.6 100 23:38 09.11.2020
2041 Clouds 27 1011 83 10000 1.5 110 22:54 09.11.2020
2042 Clouds 27 1011 88 10000 1.5 130 22:36 09.11.2020
2043 Clouds 26 1011 88 10000 1.5 140 22:18 09.11.2020
2044 Clouds 26 1010 83 10000 2.1 120 21:39 09.11.2020
2045 Clouds 27 1010 83 10000 2.1 110 21:19 09.11.2020
2046 Clouds 27 1010 83 10000 1.5 80 20:39 09.11.2020
2047 Clouds 27 1009 78 10000 1 60 20:21 09.11.2020
2048 Clouds 27 1009 78 10000 0.5 50 19:42 09.11.2020
2049 Clouds 27 1009 78 10000 0.5 50 19:22 09.11.2020
2050 Clouds 27 1009 78 10000 1.5 30 18:46 09.11.2020
2051 Clouds 27 1009 78 10000 1.5 30 18:46 09.11.2020
2052 Rain 27 1010 78 10000 1 360 18:21 09.11.2020
2053 Rain 27 1010 78 10000 1 360 17:58 09.11.2020
2054 Rain 28 1010 74 10000 1.25 11 17:39 09.11.2020
2055 Rain 28 1010 70 10000 0.5 310 17:21 09.11.2020
2056 Rain 28 1010 70 10000 1 320 16:38 09.11.2020
2057 Clouds 28 1011 70 10000 1.5 350 16:19 09.11.2020
2058 Rain 29 1011 66 10000 5.7 10 15:42 09.11.2020
2059 Clouds 29 1011 62 10000 3.6 320 15:23 09.11.2020
2060 Clouds 30 1011 62 10000 4.6 310 14:44 09.11.2020
2061 Clouds 30 1011 66 10000 4.6 310 14:26 09.11.2020
2062 Clouds 30 1011 66 10000 3.6 320 13:48 09.11.2020
2063 Clouds 30 1010 70 10000 4.6 320 13:21 09.11.2020
2064 Clouds 30 1010 62 10000 5.1 340 12:50 09.11.2020
2065 Clouds 30 1010 62 10000 5.1 340 12:26 09.11.2020
2066 Clouds 30 1010 62 10000 3.6 30 11:57 09.11.2020
2067 Clouds 30 1010 58 10000 4.6 40 11:39 09.11.2020
2068 Clouds 31 1009 55 10000 4.1 30 11:20 09.11.2020
2069 Clouds 31 1009 55 10000 5.1 20 10:42 09.11.2020
2070 Clouds 31 1008 55 10000 4.6 40 10:23 09.11.2020
2071 Clouds 33 1008 46 10000 5.7 30 09:45 09.11.2020
2072 Clear 32 1008 46 10000 5.7 30 09:24 09.11.2020
2073 Clear 34 1007 49 10000 6.7 20 08:41 09.11.2020
2074 Clear 34 1007 46 10000 6.7 20 08:20 09.11.2020
2075 Clear 35 1007 44 10000 6.7 30 07:40 09.11.2020
2076 Clear 35 1008 41 10000 6.2 50 07:19 09.11.2020
2077 Clouds 35 1008 56 10000 5.1 350 06:37 09.11.2020
2078 Clouds 34 1011 59 10000 3.6 240 03:31 09.11.2020
2079 Clouds 32 1011 62 10000 2.6 30 01:44 09.11.2020
2080 Clouds 31 1011 66 10000 2.6 90 00:59 09.11.2020
2081 Clouds 30 1011 70 10000 1 70 23:53 08.11.2020
2082 Clouds 29 1011 74 10000 1 90 23:30 08.11.2020
2083 Clouds 28 1011 78 10000 1.5 100 22:58 08.11.2020
2084 Clouds 27 1010 83 10000 1 80 22:40 08.11.2020
2085 Clouds 27 1010 78 10000 0.5 20 22:19 08.11.2020
2086 Clouds 28 1010 78 10000 1.5 30 21:39 08.11.2020
2087 Clouds 28 1009 78 10000 2.1 10 21:19 08.11.2020
2088 Clouds 28 1009 78 10000 2.1 10 20:54 08.11.2020
2089 Clouds 28 1009 78 10000 2.1 350 20:36 08.11.2020
2090 Clouds 28 1009 74 10000 2.1 10 20:18 08.11.2020
2091 Clouds 29 1009 74 10000 2.6 30 19:42 08.11.2020
2092 Clouds 29 1009 74 10000 1.5 10 19:21 08.11.2020
2093 Clouds 29 1009 70 10000 1.5 350 18:48 08.11.2020
2094 Clouds 29 1009 70 10000 3.1 350 18:22 08.11.2020
2095 Clouds 29 1009 70 10000 3.1 350 17:57 08.11.2020
2096 Clouds 29 1010 70 10000 2.6 60 17:38 08.11.2020
2097 Clouds 29 1010 74 10000 2.6 40 17:19 08.11.2020
2098 Clouds 29 1010 74 10000 3.1 20 16:48 08.11.2020
2099 Clouds 29 1010 74 10000 3.6 360 16:22 08.11.2020
2100 Clouds 29 1010 74 10000 3.6 360 15:58 08.11.2020
2101 Clouds 29 1010 74 10000 4.6 360 15:40 08.11.2020
2102 Clouds 29 1010 74 10000 4.6 360 15:21 08.11.2020
2103 Clouds 29 1010 70 10000 3.6 350 14:41 08.11.2020
2104 Clouds 29 1010 70 10000 3.6 340 14:21 08.11.2020
2105 Clouds 30 1010 70 10000 5.7 360 13:46 08.11.2020
2106 Clouds 30 1010 74 10000 4.6 350 13:23 08.11.2020
2107 Clouds 30 1010 74 10000 4.6 350 13:23 08.11.2020
2108 Clouds 30 1009 70 10000 4.1 330 12:44 08.11.2020
2109 Clouds 30 1009 70 10000 4.1 330 12:25 08.11.2020
2110 Clouds 30 1009 70 10000 5.1 320 11:58 08.11.2020
2111 Clear 30 1009 70 10000 4.1 340 11:40 08.11.2020
2112 Clear 30 1008 66 10000 3.6 360 11:20 08.11.2020
2113 Clear 31 1008 66 10000 3.6 360 10:50 08.11.2020
2114 Clear 31 1008 59 10000 4.1 10 10:19 08.11.2020
2115 Clear 32 1008 59 10000 4.1 10 09:55 08.11.2020
2116 Clear 32 1008 52 10000 4.1 360 09:37 08.11.2020
2117 Clear 32 1007 41 10000 5.1 50 09:18 08.11.2020
2118 Clear 34 1007 41 10000 6.2 20 08:39 08.11.2020
2119 Clear 35 1007 34 10000 6.2 50 08:18 08.11.2020
2120 Clear 36 1007 34 10000 6.2 50 07:52 08.11.2020
2121 Clear 36 1007 34 10000 6.2 50 07:24 08.11.2020
2122 Clouds 35 1007 53 10000 5.1 10 06:23 08.11.2020
2123 Clouds 35 1008 53 10000 5.1 360 05:52 08.11.2020
2124 Clouds 34 1009 52 10000 4.6 10 04:50 08.11.2020
2125 Clear 32 1010 59 10000 5.1 50 01:53 08.11.2020
2126 Clear 33 1011 59 10000 4.1 40 01:19 08.11.2020
2127 Clear 33 1011 59 10000 4.1 40 01:19 08.11.2020
2128 Clouds 31 1010 62 10000 3.1 60 00:28 08.11.2020
2129 Clear 29 1010 74 10000 3.1 80 23:47 07.11.2020
2130 Clear 28 1010 74 10000 3.1 80 23:29 07.11.2020
2131 Clear 27 1009 78 10000 2.1 150 22:46 07.11.2020
2132 Clear 27 1009 78 10000 2.1 150 22:26 07.11.2020
2133 Clear 27 1009 83 10000 1.5 140 21:55 07.11.2020
2134 Clear 27 1009 83 10000 1.5 70 21:36 07.11.2020
2135 Clouds 27 1008 83 10000 1.5 60 21:18 07.11.2020
2136 Clouds 28 1008 78 10000 0.5 10 20:40 07.11.2020
2137 Clouds 28 1008 78 10000 1.5 10 20:22 07.11.2020
2138 Clouds 28 1008 78 10000 2.6 20 19:44 07.11.2020
2139 Clouds 28 1008 78 10000 2.6 20 19:26 07.11.2020
2140 Clouds 28 1008 83 10000 3.6 60 18:40 07.11.2020
2141 Clouds 28 1008 70 10000 4.6 90 18:22 07.11.2020
2142 Clouds 29 1009 62 10000 2.6 130 17:46 07.11.2020
2143 Clouds 29 1009 74 10000 1 170 17:27 07.11.2020
2144 Clouds 29 1009 74 10000 1 170 17:27 07.11.2020
2145 Clouds 29 1009 74 10000 2.1 190 16:45 07.11.2020
2146 Clouds 30 1009 74 10000 2.1 190 16:25 07.11.2020
2147 Clouds 30 1009 74 10000 2.1 190 15:51 07.11.2020
2148 Clouds 30 1009 70 10000 1.5 200 15:25 07.11.2020
2149 Clouds 30 1009 70 10000 1.5 200 14:59 07.11.2020
2150 Clouds 30 1009 70 10000 1.5 240 14:41 07.11.2020
2151 Clouds 30 1009 70 10000 2.1 250 14:20 07.11.2020
2152 Clouds 30 1009 70 10000 2.1 270 13:43 07.11.2020
2153 Clear 30 1008 70 10000 2.6 270 13:23 07.11.2020
2154 Clouds 30 1008 70 10000 2.6 270 12:37 07.11.2020
2155 Clouds 31 1008 66 10000 2.6 270 11:54 07.11.2020
2156 Clouds 31 1008 62 10000 2.6 280 11:36 07.11.2020
2157 Clouds 32 1007 55 10000 2.6 290 11:18 07.11.2020
2158 Clouds 32 1007 59 10000 3.1 300 10:42 07.11.2020
2159 Clouds 32 1007 52 10000 4.6 310 10:23 07.11.2020
2160 Clouds 33 1007 47 10000 3.6 300 09:48 07.11.2020
2161 Clouds 35 1007 47 10000 3.6 300 09:23 07.11.2020
2162 Clear 35 1007 39 10000 3.6 240 08:49 07.11.2020
2163 Clear 35 1007 39 10000 3.6 240 08:30 07.11.2020
2164 Clear 35 1007 41 10000 4.1 210 07:48 07.11.2020
2165 Clear 35 1008 39 10000 4.1 210 06:55 07.11.2020
2166 Clouds 34 1009 46 10000 4.6 230 05:55 07.11.2020
2167 Clouds 33 1011 46 10000 7.2 230 04:22 07.11.2020
2168 Clouds 33 1012 49 10000 4.1 200 02:46 07.11.2020
2169 Clear 31 1013 58 10000 3.1 180 01:27 07.11.2020
2170 Clear 29 1012 69 10000 3.6 160 00:39 07.11.2020
2171 Clear 28 1012 78 10000 1.5 170 23:45 06.11.2020
2172 Clear 27 1012 83 10000 2.1 150 23:19 06.11.2020
2173 Clouds 26 1011 83 10000 3.1 180 22:40 06.11.2020
2174 Clear 26 1011 83 10000 4.1 180 22:19 06.11.2020
2175 Clear 26 1010 78 10000 4.1 200 21:43 06.11.2020
2176 Clear 26 1010 78 10000 2.6 210 21:21 06.11.2020
2177 Clear 26 1010 78 10000 3.6 210 20:51 06.11.2020
2178 Clear 26 1010 78 10000 3.1 220 20:20 06.11.2020
2179 Clear 26 1009 74 10000 3.6 240 19:47 06.11.2020
2180 Clouds 26 1009 74 10000 3.6 240 19:29 06.11.2020
2181 Clouds 26 1010 78 10000 3.6 240 18:59 06.11.2020
2182 Clouds 26 1010 78 10000 4.6 220 18:40 06.11.2020
2183 Clouds 26 1011 78 10000 3.6 220 18:22 06.11.2020
2184 Clouds 26 1011 83 10000 1.5 190 17:48 06.11.2020
2185 Clouds 25 1011 83 10000 2.6 150 17:25 06.11.2020
2186 Clouds 25 1012 83 10000 1.69 261 16:48 06.11.2020
2187 Clear 25 1012 83 10000 1 30 16:25 06.11.2020
2188 Clouds 26 1012 83 10000 1 360 15:47 06.11.2020
2189 Clouds 26 1012 83 10000 1 360 15:28 06.11.2020
2190 Clouds 26 1012 78 10000 1 340 14:53 06.11.2020
2191 Clouds 25 1012 88 10000 1.5 350 14:24 06.11.2020
2192 Thunderstorm 25 1011 83 10000 6.7 10 13:44 06.11.2020
2193 Thunderstorm 26 1010 83 8000 5.7 90 13:23 06.11.2020
2194 Thunderstorm 28 1010 70 10000 3.6 270 12:45 06.11.2020
2195 Clouds 28 1009 66 10000 3.6 280 12:23 06.11.2020
2196 Clouds 29 1009 66 10000 4.1 270 11:46 06.11.2020
2197 Clouds 30 1009 66 10000 4.1 270 11:27 06.11.2020
2198 Clouds 30 1009 62 10000 4.6 280 10:41 06.11.2020
2199 Clouds 31 1008 59 10000 5.1 280 10:23 06.11.2020
2200 Clouds 33 1008 55 10000 6.2 290 09:48 06.11.2020
2201 Clear 33 1008 52 10000 6.7 290 09:21 06.11.2020
2202 Clear 34 1008 44 10000 6.7 310 08:50 06.11.2020
2203 Clear 34 1008 44 10000 6.7 310 08:29 06.11.2020
2204 Clear 34 1009 44 10000 5.7 300 07:50 06.11.2020
2205 Clear 34 1009 44 10000 5.7 300 07:31 06.11.2020
2206 Clouds 34 1009 41 10000 5.1 310 06:57 06.11.2020
2207 Clear 36 1010 41 10000 4.1 320 06:22 06.11.2020
2208 Clouds 34 1012 49 10000 3.1 360 03:48 06.11.2020
2209 Clear 31 1012 55 10000 3.1 330 00:51 06.11.2020
2210 Clear 30 1012 62 10000 2.6 310 00:21 06.11.2020
2211 Clear 27 1012 69 10000 2.6 320 23:31 05.11.2020
2212 Clear 27 1011 83 10000 2.6 310 22:58 05.11.2020
2213 Clear 25 1011 94 10000 1 350 22:37 05.11.2020
2214 Clear 25 1011 94 10000 2.6 360 22:19 05.11.2020
2215 Clear 24 1011 94 10000 1.5 360 21:43 05.11.2020
2216 Clouds 24 1010 88 10000 4.1 350 21:21 05.11.2020
2217 Clouds 25 1010 88 10000 5.7 320 20:48 05.11.2020
2218 Clouds 27 1010 88 10000 5.7 320 20:29 05.11.2020
2219 Rain 27 1011 88 6000 3.6 50 20:00 05.11.2020
2220 Rain 27 1011 83 10000 1.5 350 19:41 05.11.2020
2221 Clouds 28 1011 79 10000 1.5 340 19:22 05.11.2020
2222 Clouds 28 1011 79 10000 3.1 330 18:45 05.11.2020
2223 Clouds 28 1011 74 10000 3.1 320 18:26 05.11.2020
2224 Clouds 28 1011 74 10000 2.6 330 17:52 05.11.2020
2225 Rain 28 1011 74 10000 2.6 330 17:29 05.11.2020
2226 Clouds 28 1011 74 10000 3.1 320 16:59 05.11.2020
2227 Clouds 28 1012 74 10000 2.6 330 16:40 05.11.2020
2228 Clouds 28 1012 79 10000 2.6 330 16:19 05.11.2020
2229 Clouds 29 1012 74 10000 3.1 330 15:44 05.11.2020
2230 Clouds 29 1012 70 10000 3.6 300 15:22 05.11.2020
2231 Clouds 29 1011 70 10000 3.1 290 14:46 05.11.2020
2232 Clouds 29 1011 70 10000 3.1 290 14:26 05.11.2020
2233 Clouds 29 1011 70 10000 3.6 280 13:45 05.11.2020
2234 Clouds 29 1011 70 10000 3.6 280 13:26 05.11.2020
2235 Clouds 29 1010 70 10000 4.1 280 12:53 05.11.2020
2236 Clouds 29 1010 70 10000 4.1 280 12:27 05.11.2020
2237 Clouds 29 1010 70 10000 4.1 260 11:55 05.11.2020
2238 Clouds 29 1010 70 10000 4.1 260 11:37 05.11.2020
2239 Clouds 29 1010 70 10000 4.1 270 11:18 05.11.2020
2240 Clouds 30 1009 62 10000 3.6 280 10:41 05.11.2020
2241 Clear 30 1009 62 10000 5.1 260 10:22 05.11.2020
2242 Clouds 31 1009 59 10000 3.6 270 09:45 05.11.2020
2243 Clouds 31 1009 55 10000 4.6 300 09:22 05.11.2020
2244 Clouds 32 1009 55 10000 3.6 290 08:44 05.11.2020
2245 Clouds 32 1009 55 10000 3.6 290 08:26 05.11.2020
2246 Clouds 32 1009 55 10000 5.7 290 07:40 05.11.2020
2247 Rain 33 1009 59 10000 6.2 300 07:20 05.11.2020
2248 Rain 33 1010 55 10000 5.7 300 06:41 05.11.2020
2249 Clouds 33 1010 55 10000 4.6 300 05:44 05.11.2020
2250 Clear 32 1013 55 10000 3.6 340 01:35 05.11.2020
2251 Clear 32 1012 58 10000 3.1 360 00:33 05.11.2020
2252 Clear 29 1012 78 10000 1 20 23:44 04.11.2020
2253 Clear 28 1012 78 10000 1 20 23:26 04.11.2020
2254 Clouds 28 1012 83 10000 1.5 110 22:52 04.11.2020
2255 Clouds 27 1012 83 10000 1.5 110 22:27 04.11.2020
2256 Rain 28 1011 78 10000 1 110 21:59 04.11.2020
2257 Rain 28 1011 74 10000 2.6 30 21:41 04.11.2020
2258 Clouds 28 1011 74 10000 3.1 20 21:22 04.11.2020
2259 Clouds 28 1011 74 10000 2.6 20 20:44 04.11.2020
2260 Clouds 28 1011 74 10000 2.6 20 20:26 04.11.2020
2261 Clouds 28 1011 74 10000 2.1 360 19:49 04.11.2020
2262 Clouds 29 1011 74 10000 2.1 360 19:30 04.11.2020
2263 Clouds 29 1011 74 10000 2.1 350 18:55 04.11.2020
2264 Rain 28 1011 74 10000 2.1 340 18:37 04.11.2020
2265 Clouds 28 1011 74 10000 2.6 350 18:18 04.11.2020
2266 Clouds 29 1011 74 10000 2.6 350 17:40 04.11.2020
2267 Clouds 29 1011 70 10000 3.1 320 17:22 04.11.2020
2268 Clouds 29 1011 70 10000 2.6 330 16:41 04.11.2020
2269 Clouds 29 1011 70 10000 3.1 330 16:23 04.11.2020
2270 Clouds 29 1012 70 10000 3.1 330 15:48 04.11.2020
2271 Clouds 29 1011 70 10000 3.6 300 15:25 04.11.2020
2272 Clouds 29 1011 70 10000 3.6 300 14:59 04.11.2020
2273 Clouds 29 1011 70 10000 3.6 300 14:41 04.11.2020
2274 Clouds 29 1011 66 10000 4.1 300 14:21 04.11.2020
2275 Clouds 29 1011 70 10000 3.6 300 13:45 04.11.2020
2276 Clouds 29 1011 70 10000 4.1 290 13:20 04.11.2020
2277 Clouds 29 1011 70 10000 4.1 290 12:53 04.11.2020
2278 Clear 29 1011 66 10000 3.1 280 12:27 04.11.2020
2279 Clear 29 1011 66 10000 3.1 280 11:56 04.11.2020
2280 Clouds 30 1010 62 10000 3.6 290 11:38 04.11.2020
2281 Clear 30 1010 55 10000 3.6 300 11:20 04.11.2020
2282 Clear 30 1010 48 10000 3.6 290 10:46 04.11.2020
2283 Clouds 31 1010 49 10000 3.6 300 10:22 04.11.2020
2284 Clouds 31 1010 49 10000 3.6 300 09:53 04.11.2020
2285 Clouds 31 1010 49 10000 3.6 290 09:23 04.11.2020
2286 Clouds 33 1010 49 10000 5.7 290 08:46 04.11.2020
2287 Clouds 33 1010 46 10000 5.7 300 08:20 04.11.2020
2288 Clear 33 1010 49 10000 5.1 300 07:50 04.11.2020
2289 Clear 33 1010 49 10000 5.1 300 07:27 04.11.2020
2290 Clouds 34 1011 49 10000 4.6 300 06:46 04.11.2020
2291 Clouds 34 1011 49 10000 4.6 300 06:27 04.11.2020
2292 Clouds 33 1012 49 10000 3.6 330 03:55 04.11.2020
2293 Clouds 31 1013 62 10000 2.1 300 02:24 04.11.2020
2294 Clouds 30 1013 70 10000 2.1 260 00:43 04.11.2020
2295 Clouds 28 1013 78 10000 1.5 330 23:44 03.11.2020
2296 Clouds 28 1013 83 10000 1 350 23:23 03.11.2020
2297 Clouds 26 1012 88 10000 1 10 22:41 03.11.2020
2298 Clouds 26 1012 88 10000 1 360 22:21 03.11.2020
2299 Clouds 26 1012 88 10000 1 360 21:56 03.11.2020
2300 Clouds 27 1012 83 10000 1.5 340 21:38 03.11.2020
2301 Clouds 27 1012 83 10000 1 340 21:20 03.11.2020
2302 Clouds 27 1011 83 10000 1.5 330 20:45 03.11.2020
2303 Clouds 27 1011 83 10000 1.5 330 20:26 03.11.2020
2304 Clouds 27 1011 83 10000 1.5 340 19:44 03.11.2020
2305 Clouds 27 1011 78 10000 2.1 350 19:23 03.11.2020
2306 Clouds 29 1012 74 10000 2.1 330 18:46 03.11.2020
2307 Clouds 28 1012 74 10000 2.1 330 18:24 03.11.2020
2308 Clouds 29 1012 74 10000 2.6 330 17:59 03.11.2020
2309 Clouds 29 1012 74 10000 2.6 350 17:41 03.11.2020
2310 Clouds 29 1012 74 10000 4.1 350 17:23 03.11.2020
2311 Clouds 29 1012 74 10000 3.6 350 16:45 03.11.2020
2312 Clouds 29 1012 74 10000 3.6 350 16:24 03.11.2020
2313 Clouds 29 1012 74 10000 3.1 350 15:46 03.11.2020
2314 Clouds 29 1012 74 10000 3.6 350 15:25 03.11.2020
2315 Clouds 29 1012 74 10000 4.6 360 14:52 03.11.2020
2316 Clouds 29 1012 74 10000 4.6 360 14:33 03.11.2020
2317 Clouds 29 1012 70 10000 4.6 350 13:47 03.11.2020
2318 Clouds 29 1012 70 10000 4.6 350 13:23 03.11.2020
2319 Clouds 30 1012 70 10000 5.1 340 12:59 03.11.2020
2320 Clouds 30 1011 62 10000 4.1 330 12:38 03.11.2020
2321 Clouds 30 1011 58 10000 5.1 320 12:19 03.11.2020
2322 Clouds 30 1011 66 10000 5.1 310 11:42 03.11.2020
2323 Clear 30 1011 66 10000 3.6 290 11:20 03.11.2020
2324 Clouds 30 1010 62 10000 5.1 290 10:40 03.11.2020
2325 Clouds 31 1010 59 10000 5.7 300 10:21 03.11.2020
2326 Clouds 32 1010 59 10000 5.7 300 09:59 03.11.2020
2327 Clouds 32 1010 59 10000 6.2 300 09:37 03.11.2020
2328 Clouds 32 1009 59 10000 6.2 310 09:18 03.11.2020
2329 Clouds 33 1009 55 10000 6.7 310 08:42 03.11.2020
2330 Clouds 33 1009 59 10000 7.2 300 08:23 03.11.2020
2331 Clouds 33 1009 52 10000 7.7 300 07:35 03.11.2020
2332 Clouds 33 1010 52 10000 7.7 310 06:52 03.11.2020
2333 Clouds 34 1011 52 10000 6.2 300 06:19 03.11.2020
2334 Clouds 33 1013 52 10000 3.6 260 03:34 03.11.2020
2335 Clouds 30 1013 70 10000 2.1 260 00:43 03.11.2020
2336 Clouds 30 1013 70 10000 0.5 260 23:59 02.11.2020
2337 Clouds 30 1013 70 10000 2.25 222 23:40 02.11.2020
2338 Clouds 28 1013 83 10000 2.21 212 22:56 02.11.2020
2339 Clouds 26 1012 88 10000 2.21 212 22:37 02.11.2020
2340 Clouds 26 1012 88 10000 0.5 310 22:19 02.11.2020
2341 Clouds 26 1011 88 10000 1 290 21:38 02.11.2020
2342 Clouds 26 1011 88 10000 2.17 258 21:20 02.11.2020
2343 Clouds 26 1011 88 10000 1 260 20:41 02.11.2020
2344 Clouds 26 1011 88 10000 1 260 20:20 02.11.2020
2345 Clouds 26 1011 88 10000 1 260 19:58 02.11.2020
2346 Clouds 26 1011 88 10000 1.5 270 19:40 02.11.2020
2347 Clouds 27 1011 83 10000 1.5 280 19:21 02.11.2020
2348 Clouds 27 1011 83 10000 1 280 18:39 02.11.2020
2349 Clouds 27 1011 78 10000 0.5 290 18:21 02.11.2020
2350 Clouds 27 1012 78 10000 1 290 17:56 02.11.2020
2351 Clouds 28 1012 78 10000 1 290 17:36 02.11.2020
2352 Clouds 28 1012 78 10000 1 290 17:18 02.11.2020
2353 Clouds 27 1012 74 10000 1 290 16:38 02.11.2020
2354 Clouds 28 1012 66 10000 1.5 300 16:20 02.11.2020
2355 Clouds 29 1012 70 10000 2.6 300 15:39 02.11.2020
2356 Clouds 29 1012 66 10000 2.6 290 15:20 02.11.2020
2357 Clouds 29 1012 66 10000 2.6 290 14:53 02.11.2020
2358 Clouds 29 1011 70 10000 3.6 300 14:20 02.11.2020
2359 Clouds 29 1011 70 10000 3.6 300 13:52 02.11.2020
2360 Clear 29 1011 70 10000 3.6 280 13:23 02.11.2020
2361 Clear 29 1011 70 10000 3.6 280 12:55 02.11.2020
2362 Clear 29 1010 70 10000 3.1 270 12:30 02.11.2020
2363 Clear 29 1010 70 10000 3.1 260 11:56 02.11.2020
2364 Clear 29 1009 70 10000 2.6 250 11:37 02.11.2020
2365 Clear 30 1009 62 10000 5.1 240 11:18 02.11.2020
2366 Clear 30 1009 62 10000 5.1 240 11:18 02.11.2020
2367 Clear 31 1009 62 10000 3.6 270 10:41 02.11.2020
2368 Clear 31 1009 62 10000 3.6 290 10:18 02.11.2020
2369 Clear 31 1009 62 10000 3.6 290 09:48 02.11.2020
2370 Clouds 31 1009 59 10000 5.1 300 09:23 02.11.2020
2371 Clouds 32 1009 62 10000 6.2 300 08:40 02.11.2020
2372 Clouds 33 1009 55 10000 6.2 310 08:20 02.11.2020
2373 Rain 33 1009 55 10000 6.2 310 08:20 02.11.2020
2374 Clouds 33 1009 52 10000 6.2 320 07:49 02.11.2020
2375 Clouds 35 1009 52 10000 5.7 330 06:49 02.11.2020
2376 Clouds 34 1009 52 10000 5.7 330 06:24 02.11.2020
2377 Clouds 34 1012 52 10000 2.1 130 03:23 02.11.2020
2378 Clouds 32 1013 62 10000 1 100 01:22 02.11.2020
2379 Clouds 32 1013 62 10000 1 20 00:33 02.11.2020
2380 Clouds 30 1012 70 10000 0.5 250 23:41 01.11.2020
2381 Clouds 29 1012 83 10000 1 230 23:23 01.11.2020
2382 Clouds 28 1012 83 10000 1 150 22:46 01.11.2020
2383 Clouds 26 1012 83 10000 1 150 22:25 01.11.2020
2384 Clouds 25 1012 88 10000 1.5 100 21:58 01.11.2020
2385 Clouds 25 1011 88 10000 0.67 306 21:38 01.11.2020
2386 Clear 26 1011 83 10000 1 270 21:20 01.11.2020
2387 Clear 27 1011 78 10000 1 250 20:40 01.11.2020
2388 Clouds 27 1011 78 10000 1.99 321 20:20 01.11.2020
2389 Clouds 27 1011 78 10000 1 100 19:41 01.11.2020
2390 Clouds 27 1011 78 10000 1 90 19:23 01.11.2020
2391 Clouds 27 1011 83 10000 1.5 70 18:43 01.11.2020
2392 Clouds 27 1011 78 10000 1.5 50 18:20 01.11.2020
2393 Clouds 27 1011 78 10000 1.5 50 17:58 01.11.2020
2394 Clouds 27 1011 83 10000 1 350 17:40 01.11.2020
2395 Clouds 27 1011 79 10000 1.5 350 17:21 01.11.2020
2396 Clear 29 1011 79 10000 2.6 350 16:41 01.11.2020
2397 Clouds 29 1011 74 10000 2.6 310 16:19 01.11.2020
2398 Clouds 29 1011 74 10000 3.6 330 15:42 01.11.2020
2399 Clouds 29 1011 74 10000 3.6 330 15:22 01.11.2020
2400 Clouds 29 1011 74 10000 4.6 320 14:59 01.11.2020
2401 Clear 29 1011 74 10000 4.1 320 14:41 01.11.2020
2402 Clear 29 1010 70 10000 4.6 330 14:21 01.11.2020
2403 Clouds 30 1010 62 10000 3.6 350 13:48 01.11.2020
2404 Clouds 30 1010 62 10000 3.6 350 13:30 01.11.2020
2405 Clear 30 1009 55 10000 3.6 30 12:44 01.11.2020
2406 Clear 31 1009 55 10000 3.6 30 12:23 01.11.2020
2407 Clear 31 1009 55 10000 3.1 30 11:52 01.11.2020
2408 Clear 31 1008 49 10000 4.1 30 11:19 01.11.2020
2409 Clear 31 1008 49 10000 4.1 30 10:55 01.11.2020
2410 Clear 31 1008 49 10000 5.7 30 10:37 01.11.2020
2411 Clear 32 1007 46 10000 6.2 30 10:19 01.11.2020
2412 Clear 34 1007 41 10000 6.2 20 09:43 01.11.2020
2413 Clear 36 1007 32 10000 4.6 20 08:47 01.11.2020
2414 Clouds 35 1007 39 10000 5.1 290 08:24 01.11.2020
2415 Clouds 36 1008 49 10000 7.2 290 07:43 01.11.2020
2416 Clear 36 1010 39 10000 2.1 70 04:31 01.11.2020
2417 Clouds 33 1012 49 10000 3.1 100 01:52 01.11.2020
2418 Clouds 31 1012 62 10000 2.6 80 00:43 01.11.2020
2419 Clouds 29 1011 78 10000 2.1 90 23:28 31.10.2020
2420 Clouds 27 1011 78 10000 2.1 80 22:58 31.10.2020
2421 Clouds 26 1010 83 10000 2.1 90 22:40 31.10.2020
2422 Clouds 26 1010 88 10000 2.1 90 22:21 31.10.2020
2423 Clouds 25 1009 88 10000 1.5 90 21:44 31.10.2020
2424 Clouds 25 1009 88 10000 1.5 70 21:20 31.10.2020
2425 Clouds 25 1009 83 10000 1.5 80 20:38 31.10.2020
2426 Clouds 25 1008 88 10000 1.5 70 20:18 31.10.2020
2427 Clouds 25 1008 83 10000 2.1 60 19:41 31.10.2020
2428 Clouds 26 1008 83 10000 2.1 60 19:23 31.10.2020
2429 Clouds 27 1009 78 10000 1.5 70 18:47 31.10.2020
2430 Clouds 27 1009 78 10000 1.5 70 18:28 31.10.2020
2431 Clouds 26 1009 78 10000 1.5 290 17:41 31.10.2020
2432 Clouds 28 1009 78 10000 1.5 290 17:22 31.10.2020
2433 Clouds 29 1009 66 10000 2.1 310 16:46 31.10.2020
2434 Clouds 29 1009 66 10000 2.1 310 16:27 31.10.2020
2435 Clouds 29 1009 70 10000 1.5 290 15:54 31.10.2020
2436 Clouds 29 1010 66 10000 2.6 310 15:25 31.10.2020
2437 Clouds 28 1010 66 10000 3.6 310 14:53 31.10.2020
2438 Clouds 28 1009 70 10000 3.1 310 14:31 31.10.2020
2439 Clouds 29 1009 66 10000 4.1 300 13:52 31.10.2020
2440 Clouds 29 1009 66 10000 4.1 300 13:28 31.10.2020
2441 Clear 29 1008 66 10000 2.6 270 12:48 31.10.2020
2442 Clear 29 1008 58 10000 3.1 250 12:21 31.10.2020
2443 Clear 30 1008 58 10000 2.6 260 11:40 31.10.2020
2444 Clouds 30 1007 58 10000 2.6 290 11:21 31.10.2020
2445 Clouds 31 1007 58 10000 3.6 290 10:40 31.10.2020
2446 Rain 31 1007 52 10000 2.6 260 09:56 31.10.2020
2447 Thunderstorm 31 1006 55 10000 5.1 300 09:37 31.10.2020
2448 Rain 32 1006 52 10000 4.1 330 09:18 31.10.2020
2449 Clouds 33 1006 52 10000 6.7 300 08:26 31.10.2020
2450 Clouds 34 1006 52 10000 6.7 310 07:30 31.10.2020
2451 Clouds 34 1006 52 10000 7.2 320 06:57 31.10.2020
2452 Clouds 34 1007 52 10000 6.7 320 06:36 31.10.2020
2453 Clouds 34 1010 52 10000 3.6 300 03:48 31.10.2020
2454 Clouds 33 1010 49 10000 2.6 260 02:39 31.10.2020
2455 Clouds 31 1011 62 10000 3.1 230 00:55 31.10.2020
2456 Clouds 30 1010 79 10000 2.1 210 23:56 30.10.2020
2457 Clouds 29 1010 83 10000 1.5 180 23:31 30.10.2020
2458 Clouds 27 1009 83 10000 1.5 160 22:59 30.10.2020
2459 Clouds 27 1009 83 10000 2.1 190 22:38 30.10.2020
2460 Clouds 26 1009 88 10000 1.5 180 22:20 30.10.2020
2461 Clear 26 1009 83 10000 1.5 220 21:49 30.10.2020
2462 Clear 27 1009 83 10000 1.5 220 21:26 30.10.2020
2463 Clear 27 1008 83 10000 1.5 230 20:46 30.10.2020
2464 Clear 27 1008 83 10000 1.5 230 20:27 30.10.2020
2465 Clear 27 1008 83 10000 1 250 19:59 30.10.2020
2466 Clear 28 1008 78 10000 2.1 240 19:40 30.10.2020
2467 Clouds 27 1008 83 10000 1.5 270 19:18 30.10.2020
2468 Rain 28 1008 74 10000 1.5 260 18:42 30.10.2020
2469 Clouds 28 1008 74 10000 1.5 260 18:23 30.10.2020
2470 Clouds 29 1009 70 10000 2.6 270 17:47 30.10.2020
2471 Clouds 29 1009 70 10000 3.1 270 17:22 30.10.2020
2472 Clouds 29 1009 70 10000 2.6 290 16:52 30.10.2020
2473 Clouds 29 1009 70 10000 2.6 290 16:25 30.10.2020
2474 Clouds 29 1009 70 10000 4.1 280 15:45 30.10.2020
2475 Clouds 29 1009 70 10000 4.1 280 15:27 30.10.2020
2476 Clouds 29 1009 70 10000 3.6 270 14:58 30.10.2020
2477 Clear 29 1010 70 10000 2.6 270 14:40 30.10.2020
2478 Clear 29 1010 70 10000 2.1 300 14:21 30.10.2020
2479 Clear 29 1009 70 10000 2.1 290 13:42 30.10.2020
2480 Clear 30 1009 62 10000 3.6 240 13:20 30.10.2020
2481 Clear 30 1009 58 10000 3.6 250 12:47 30.10.2020
2482 Clouds 30 1008 58 10000 3.6 260 12:22 30.10.2020
2483 Clouds 30 1008 58 10000 3.6 260 11:56 30.10.2020
2484 Clouds 30 1008 55 10000 3.1 270 11:21 30.10.2020
2485 Clouds 30 1008 55 10000 3.1 250 10:50 30.10.2020
2486 Clouds 31 1008 55 10000 3.1 250 10:25 30.10.2020
2487 Clouds 32 1007 46 10000 5.1 270 09:48 30.10.2020
2488 Clouds 33 1007 46 10000 5.1 270 09:25 30.10.2020
2489 Clouds 33 1007 49 10000 5.7 290 08:59 30.10.2020
2490 Clouds 33 1007 49 10000 6.2 290 08:31 30.10.2020
2491 Clouds 33 1007 46 10000 6.7 290 07:53 30.10.2020
2492 Clouds 33 1007 49 10000 6.2 290 07:35 30.10.2020
2493 Clouds 33 1007 49 10000 6.2 300 06:59 30.10.2020
2494 Clouds 33 1008 52 10000 6.2 300 05:53 30.10.2020
2495 Clouds 33 1012 55 10000 3.1 270 02:53 30.10.2020
2496 Clouds 31 1012 66 10000 1 100 01:20 30.10.2020
2497 Clouds 29 1012 74 10000 0.5 180 23:59 29.10.2020
2498 Clouds 28 1012 78 10000 0.5 170 23:41 29.10.2020
2499 Clouds 28 1012 88 10000 1 160 23:23 29.10.2020
2500 Clouds 27 1011 83 10000 1.5 180 22:44 29.10.2020
2501 Clouds 26 1011 83 10000 1.5 180 22:25 29.10.2020
2502 Clouds 25 1011 88 10000 2.13 336 21:44 29.10.2020
2503 Clouds 25 1011 88 10000 2.53 8 21:24 29.10.2020
2504 Clouds 26 1010 83 10000 0.5 360 20:43 29.10.2020
2505 Clouds 26 1010 83 10000 0.5 360 20:24 29.10.2020
2506 Clouds 26 1010 83 10000 1.5 290 19:56 29.10.2020
2507 Clouds 26 1010 83 10000 1 360 19:38 29.10.2020
2508 Clouds 27 1010 83 10000 1 10 19:18 29.10.2020
2509 Clouds 28 1010 78 10000 2.1 360 18:45 29.10.2020
2510 Clouds 27 1010 78 10000 2.1 360 18:25 29.10.2020
2511 Rain 28 1011 74 10000 3.6 360 17:42 29.10.2020
2512 Clouds 28 1011 78 10000 3.1 360 17:22 29.10.2020
2513 Clouds 28 1011 78 10000 3.1 360 17:22 29.10.2020
2514 Clouds 28 1011 74 10000 3.1 350 16:53 29.10.2020
2515 Clouds 28 1011 74 10000 3.6 350 16:23 29.10.2020
2516 Clouds 29 1011 74 10000 3.6 350 15:58 29.10.2020
2517 Clouds 29 1011 70 10000 3.6 330 15:40 29.10.2020
2518 Clouds 29 1011 66 10000 2.6 300 15:22 29.10.2020
2519 Clouds 29 1011 66 10000 2.6 300 14:58 29.10.2020
2520 Clouds 29 1011 66 10000 2.6 290 14:39 29.10.2020
2521 Clouds 29 1011 66 10000 2.6 290 14:39 29.10.2020
2522 Clouds 28 1011 74 10000 2.1 280 14:18 29.10.2020
2523 Clouds 28 1011 74 10000 2.1 280 13:40 29.10.2020
2524 Clear 28 1010 74 10000 2.6 280 13:22 29.10.2020
2525 Clouds 29 1010 66 10000 2.6 260 12:41 29.10.2020
2526 Clouds 29 1010 66 10000 2.6 250 12:19 29.10.2020
2527 Clouds 29 1010 62 10000 2.6 270 11:47 29.10.2020
2528 Clouds 29 1010 62 10000 2.6 270 11:26 29.10.2020
2529 Clouds 30 1009 62 10000 3.6 300 10:38 29.10.2020
2530 Clouds 30 1009 58 10000 3.6 300 10:20 29.10.2020
2531 Clouds 31 1009 58 10000 4.1 300 09:53 29.10.2020
2532 Clouds 31 1009 58 10000 4.1 300 09:28 29.10.2020
2533 Clouds 32 1008 55 10000 4.6 330 08:59 29.10.2020
2534 Clouds 32 1008 55 10000 5.1 320 08:40 29.10.2020
2535 Clouds 33 1008 49 10000 4.6 350 08:18 29.10.2020
2536 Rain 33 1009 55 10000 5.7 350 07:46 29.10.2020
2537 Rain 33 1009 49 10000 4.6 310 06:58 29.10.2020
2538 Clear 34 1010 44 10000 5.1 300 06:21 29.10.2020
2539 Clouds 33 1011 52 10000 4.6 200 04:46 29.10.2020
2540 Clouds 31 1014 62 10000 1.34 130 01:25 29.10.2020
2541 Clouds 29 1011 74 10000 1.79 110 00:31 29.10.2020
2542 Clouds 28 1013 74 10000 2.24 110 23:49 28.10.2020
2543 Clouds 27 1013 78 10000 2.68 100 23:22 28.10.2020
2544 Clear 24 1012 88 10000 2.1 100 22:45 28.10.2020
2545 Clear 24 1012 88 10000 2.1 100 22:27 28.10.2020
2546 Clear 24 1012 88 10000 2.1 100 22:27 28.10.2020
2547 Clear 24 1012 88 10000 2.1 100 21:59 28.10.2020
2548 Clear 24 1012 83 10000 3.6 70 21:40 28.10.2020
2549 Clouds 24 1012 83 10000 1 70 21:20 28.10.2020
2550 Clouds 24 1012 83 10000 2.6 80 20:42 28.10.2020
2551 Clouds 24 1011 83 10000 1.5 60 20:22 28.10.2020
2552 Clouds 24 1011 83 10000 1.5 60 19:51 28.10.2020
2553 Clear 24 1012 83 10000 2.1 80 19:29 28.10.2020
2554 Clear 24 1011 83 10000 3.1 80 18:49 28.10.2020
2555 Rain 24 1011 88 10000 2.6 70 18:22 28.10.2020
2556 Rain 24 1011 88 10000 2.6 70 17:57 28.10.2020
2557 Rain 24 1012 88 10000 3.1 110 17:39 28.10.2020
2558 Rain 24 1012 88 10000 1.5 60 17:18 28.10.2020
2559 Rain 24 1012 88 10000 1.5 60 17:18 28.10.2020
2560 Rain 24 1012 88 10000 2.1 150 16:44 28.10.2020
2561 Clear 24 1013 94 10000 4.1 140 16:22 28.10.2020
2562 Clear 25 1013 88 10000 3.1 130 15:38 28.10.2020
2563 Rain 29 1013 74 10000 2.96 263 15:19 28.10.2020
2564 Rain 27 1012 82 10000 0.45 207 14:43 28.10.2020
2565 Clouds 26 1012 78 10000 2.6 300 14:24 28.10.2020
2566 Clouds 29 1012 72 10000 2.99 262 12:49 28.10.2020
2567 Clouds 29 1011 71 10000 3.33 266 12:27 28.10.2020
2568 Clouds 29 1011 71 10000 3.33 266 11:59 28.10.2020
2569 Clouds 29 1011 71 10000 3.33 266 11:41 28.10.2020
2570 Rain 29 1011 70 10000 3.68 261 11:20 28.10.2020
2571 Rain 28 1009 65 10000 1.34 260 10:50 28.10.2020
2572 Clouds 28 1009 65 10000 1.5 260 10:32 28.10.2020
2573 Rain 28 1009 65 10000 1.5 260 09:45 28.10.2020
2574 Rain 28 1009 83 10000 4.1 300 09:24 28.10.2020
2575 Rain 26 1009 83 10000 4.1 300 08:51 28.10.2020
2576 Rain 25 1010 78 10000 5.1 270 08:32 28.10.2020
2577 Rain 28 1010 88 10000 6.7 240 07:54 28.10.2020
2578 Thunderstorm 29 1011 78 5000 11.8 200 07:31 28.10.2020
2579 Thunderstorm 32 1009 55 9000 4.6 340 06:57 28.10.2020
2580 Rain 33 1009 52 10000 4.6 350 06:38 28.10.2020
2581 Clouds 32 1011 59 10000 5.1 350 05:44 28.10.2020
2582 Clouds 32 1012 62 10000 3.1 300 04:51 28.10.2020
2583 Clouds 32 1013 62 10000 3.1 290 04:20 28.10.2020
2584 Clouds 31 1014 58 10000 1.5 220 01:56 28.10.2020
2585 Clouds 29 1014 66 10000 2.1 60 00:33 28.10.2020
2586 Clouds 28 1013 69 10000 1.5 110 23:50 27.10.2020
2587 Clouds 27 1012 78 10000 1.5 90 23:22 27.10.2020
2588 Clouds 25 1012 83 10000 2.1 150 22:45 27.10.2020
2589 Rain 25 1012 83 10000 2.6 150 22:22 27.10.2020
2590 Rain 25 1012 83 10000 2.6 150 21:57 27.10.2020
2591 Rain 26 1012 83 10000 2.1 150 21:38 27.10.2020
2592 Rain 26 1011 88 10000 2.6 160 21:20 27.10.2020
2593 Rain 26 1011 88 10000 2.6 160 20:51 27.10.2020
2594 Clouds 27 1011 83 10000 2.1 200 20:25 27.10.2020
2595 Clouds 26 1011 83 10000 2.1 200 19:59 27.10.2020
2596 Rain 26 1010 94 10000 1 10 19:38 27.10.2020
2597 Rain 26 1010 94 10000 1.9 301 19:20 27.10.2020
2598 Rain 26 1010 94 10000 1.9 301 19:20 27.10.2020
2599 Rain 26 1010 94 10000 1.9 301 18:54 27.10.2020
2600 Rain 26 1011 94 10000 1.63 282 18:36 27.10.2020
2601 Clouds 26 1011 94 10000 1.6 308 18:18 27.10.2020
2602 Clouds 26 1011 94 10000 1.6 308 17:40 27.10.2020
2603 Clouds 26 1011 94 10000 2.41 342 17:20 27.10.2020
2604 Clouds 26 1011 94 10000 1 10 16:46 27.10.2020
2605 Clouds 26 1011 94 10000 1 10 16:24 27.10.2020
2606 Clouds 27 1012 88 10000 0.5 50 15:43 27.10.2020
2607 Clouds 27 1012 88 10000 1.74 342 15:25 27.10.2020
2608 Clouds 27 1012 88 10000 1.74 342 14:55 27.10.2020
2609 Clouds 27 1012 88 10000 1.74 342 14:36 27.10.2020
2610 Clear 27 1011 88 10000 1.5 20 14:18 27.10.2020
2611 Clouds 27 1011 88 10000 1 360 13:32 27.10.2020
2612 Clouds 27 1011 88 10000 1 350 12:57 27.10.2020
2613 Clouds 28 1010 83 10000 1.5 360 12:37 27.10.2020
2614 Clouds 28 1010 78 10000 1.5 360 12:19 27.10.2020
2615 Clouds 29 1009 70 10000 2.1 340 11:42 27.10.2020
2616 Clouds 28 1009 66 10000 2.1 330 11:21 27.10.2020
2617 Clouds 29 1008 66 10000 3.1 290 10:46 27.10.2020
2618 Clouds 29 1008 66 10000 3.1 290 10:24 27.10.2020
2619 Clouds 31 1008 55 10000 2.6 300 09:44 27.10.2020
2620 Clouds 31 1008 52 10000 3.1 300 09:23 27.10.2020
2621 Clouds 31 1008 58 10000 2.1 260 08:36 27.10.2020
2622 Clouds 30 1008 70 10000 1.5 240 08:18 27.10.2020
2623 Clouds 29 1009 74 10000 3.1 210 07:42 27.10.2020
2624 Clouds 28 1009 69 10000 3.6 240 07:24 27.10.2020
2625 Rain 30 1010 66 10000 2.1 330 06:22 27.10.2020
2626 Rain 29 1010 74 10000 1.5 20 05:51 27.10.2020
2627 Rain 29 1010 74 10000 1.5 20 05:33 27.10.2020
2628 Thunderstorm 28 1011 94 7000 7.2 30 04:44 27.10.2020
2629 Clouds 31 1012 58 10000 5.1 120 02:29 27.10.2020
2630 Clouds 28 1012 78 10000 2.6 90 00:51 27.10.2020
2631 Clouds 27 1011 83 10000 3.6 110 23:43 26.10.2020
2632 Clouds 26 1010 88 10000 3.6 110 23:19 26.10.2020
2633 Clouds 26 1010 88 10000 2.1 110 22:46 26.10.2020
2634 Clouds 26 1009 88 10000 1.5 110 22:21 26.10.2020
2635 Clouds 26 1009 88 10000 2.1 60 21:45 26.10.2020
2636 Clouds 26 1008 88 10000 2.1 70 21:20 26.10.2020
2637 Clouds 26 1008 88 10000 2.1 70 20:58 26.10.2020
2638 Rain 26 1008 88 10000 3.1 90 20:39 26.10.2020
2639 Clouds 26 1008 88 10000 2.1 70 20:18 26.10.2020
2640 Clouds 26 1008 88 10000 1.5 80 19:47 26.10.2020
2641 Clouds 26 1008 88 10000 1.5 80 19:23 26.10.2020
2642 Clouds 27 1009 83 10000 2.1 80 18:44 26.10.2020
2643 Clouds 27 1009 83 10000 1.5 60 18:24 26.10.2020
2644 Clouds 27 1009 83 10000 1.5 60 17:56 26.10.2020
2645 Clouds 27 1009 83 10000 1.5 80 17:37 26.10.2020
2646 Clouds 27 1010 83 10000 2.1 60 17:19 26.10.2020
2647 Clouds 28 1010 78 10000 1.5 70 16:40 26.10.2020
2648 Clouds 28 1010 78 10000 2.6 30 16:21 26.10.2020
2649 Clouds 28 1011 78 10000 2.1 360 15:42 26.10.2020
2650 Clouds 29 1011 74 10000 3.6 360 15:20 26.10.2020
2651 Clouds 29 1011 70 10000 1.5 350 14:52 26.10.2020
2652 Clouds 29 1011 70 10000 1.5 350 14:31 26.10.2020
2653 Clouds 29 1010 74 10000 2.6 10 13:44 26.10.2020
2654 Clouds 29 1009 70 10000 3.6 360 13:24 26.10.2020
2655 Clouds 29 1009 70 10000 3.6 360 12:51 26.10.2020
2656 Clouds 29 1009 70 10000 2.6 350 12:29 26.10.2020
2657 Clouds 29 1009 74 10000 2.6 350 11:57 26.10.2020
2658 Clouds 29 1008 74 10000 2.6 350 11:37 26.10.2020
2659 Clouds 29 1008 70 10000 3.1 360 11:19 26.10.2020
2660 Rain 29 1007 70 10000 4.6 350 10:46 26.10.2020
2661 Clouds 30 1007 66 10000 5.1 350 10:25 26.10.2020
2662 Clouds 30 1007 62 10000 5.1 340 09:51 26.10.2020
2663 Clouds 31 1007 62 10000 5.1 340 09:26 26.10.2020
2664 Clouds 32 1007 52 10000 5.1 340 08:50 26.10.2020
2665 Clouds 33 1007 49 10000 4.1 360 08:22 26.10.2020
2666 Clouds 33 1007 46 10000 5.1 10 07:38 26.10.2020
2667 Clouds 33 1007 46 10000 5.7 360 07:18 26.10.2020
2668 Rain 30 1009 58 10000 6.2 360 05:31 26.10.2020
2669 Rain 33 1009 55 10000 4.6 310 04:19 26.10.2020
2670 Clouds 33 1010 59 10000 3.6 310 03:20 26.10.2020
2671 Clouds 33 1010 59 10000 3.6 310 03:20 26.10.2020
2672 Clouds 33 1010 59 10000 3.6 310 03:20 26.10.2020
2673 Clouds 33 1010 59 10000 3.6 310 03:20 26.10.2020
2674 Clouds 31 1011 62 10000 2.6 290 01:34 26.10.2020
2675 Clouds 31 1010 66 10000 1.5 360 00:35 26.10.2020
2676 Clouds 30 1010 74 10000 2.1 340 23:46 25.10.2020
2677 Clouds 29 1010 74 10000 2.1 340 23:25 25.10.2020
2678 Clouds 28 1008 83 10000 1.5 340 22:45 25.10.2020
2679 Clouds 27 1008 83 10000 1.5 340 22:27 25.10.2020
2680 Clouds 27 1008 83 10000 2.1 330 21:50 25.10.2020
2681 Clouds 28 1007 78 10000 2.1 340 21:31 25.10.2020
2682 Clouds 28 1007 78 10000 2.1 340 21:31 25.10.2020
2683 Clouds 28 1007 74 10000 2.6 330 20:59 25.10.2020
2684 Clouds 28 1007 78 10000 3.1 320 20:40 25.10.2020
2685 Clouds 28 1007 74 10000 3.1 330 20:22 25.10.2020
2686 Clouds 28 1007 74 10000 2.6 310 19:50 25.10.2020
2687 Clouds 29 1007 74 10000 2.6 310 19:27 25.10.2020
2688 Clouds 29 1007 74 10000 2.6 310 18:59 25.10.2020
2689 Clouds 29 1007 74 10000 2.6 300 18:41 25.10.2020
2690 Clouds 29 1007 74 10000 2.6 300 18:41 25.10.2020
2691 Clouds 29 1007 74 10000 2.6 290 18:22 25.10.2020
2692 Clouds 29 1008 74 10000 2.6 300 17:55 25.10.2020
2693 Clouds 29 1008 74 10000 2.6 300 17:37 25.10.2020
2694 Clouds 29 1008 74 10000 2.1 290 17:18 25.10.2020
2695 Clouds 29 1008 74 10000 2.1 290 17:18 25.10.2020
2696 Clouds 29 1008 74 10000 1.5 290 16:43 25.10.2020
2697 Clouds 29 1008 74 10000 1.5 290 16:23 25.10.2020
2698 Clouds 29 1009 66 10000 1.5 310 15:47 25.10.2020
2699 Clouds 29 1009 66 10000 1.5 310 15:47 25.10.2020
2700 Clouds 29 1009 66 10000 1.5 310 15:47 25.10.2020
2701 Clouds 29 1009 66 10000 1.5 310 15:27 25.10.2020
2702 Clouds 29 1010 66 10000 1.5 280 14:53 25.10.2020
2703 Clouds 29 1010 70 10000 2.6 280 14:29 25.10.2020
2704 Clouds 29 1009 74 10000 2.6 270 13:45 25.10.2020
2705 Clouds 29 1009 70 10000 2.6 290 13:24 25.10.2020
2706 Clouds 29 1009 70 10000 2.6 290 12:56 25.10.2020
2707 Clouds 30 1009 70 10000 2.1 280 12:38 25.10.2020
2708 Clouds 29 1008 70 10000 3.6 270 12:18 25.10.2020
2709 Clouds 29 1008 70 10000 3.6 260 11:42 25.10.2020
2710 Clear 30 1008 62 10000 3.6 280 11:19 25.10.2020
2711 Clear 30 1007 58 10000 5.1 290 10:46 25.10.2020
2712 Clear 31 1007 58 10000 5.1 290 10:26 25.10.2020
2713 Clouds 31 1007 59 10000 5.7 290 09:52 25.10.2020
2714 Clouds 32 1007 59 10000 5.7 290 09:23 25.10.2020
2715 Clouds 32 1006 55 10000 6.7 290 08:59 25.10.2020
2716 Clouds 33 1006 49 10000 6.2 290 08:40 25.10.2020
2717 Clouds 33 1007 49 10000 7.2 290 08:22 25.10.2020
2718 Clouds 33 1007 52 10000 7.7 300 07:44 25.10.2020
2719 Clouds 33 1007 52 10000 8.2 300 06:57 25.10.2020
2720 Clear 33 1008 49 10000 7.7 310 06:30 25.10.2020
2721 Clouds 33 1009 46 10000 6.2 310 05:22 25.10.2020
2722 Clouds 33 1010 55 10000 6.2 310 04:50 25.10.2020
2723 Clouds 32 1012 59 10000 4.6 310 02:38 25.10.2020
2724 Clouds 30 1011 70 10000 4.1 310 01:32 25.10.2020
2725 Clouds 30 1010 74 10000 2.6 290 00:48 25.10.2020
2726 Clouds 29 1010 74 10000 2.6 280 00:19 25.10.2020
2727 Clouds 29 1010 74 10000 2.6 280 23:52 24.10.2020
2728 Clouds 29 1010 74 10000 2.6 290 23:25 24.10.2020
2729 Clouds 28 1009 78 10000 2.6 330 22:43 24.10.2020
2730 Clouds 28 1009 78 10000 2.6 330 22:24 24.10.2020
2731 Clouds 28 1008 74 10000 2.6 320 21:59 24.10.2020
2732 Clouds 28 1008 78 10000 3.6 330 21:39 24.10.2020
2733 Clouds 28 1008 74 10000 2.6 310 21:20 24.10.2020
2734 Clouds 28 1008 78 10000 2.6 310 20:47 24.10.2020
2735 Clouds 27 1008 83 10000 2.6 310 20:22 24.10.2020
2736 Clouds 27 1008 83 10000 1.5 310 19:48 24.10.2020
2737 Clouds 27 1008 83 10000 1.5 310 19:28 24.10.2020
2738 Clouds 27 1009 83 10000 1 320 18:57 24.10.2020
2739 Clouds 27 1009 83 10000 0.5 310 18:39 24.10.2020
2740 Clear 27 1009 83 10000 1 310 18:20 24.10.2020
2741 Clear 28 1009 74 10000 1.5 280 17:38 24.10.2020
2742 Clouds 29 1010 74 10000 1 250 17:20 24.10.2020
2743 Clouds 29 1010 74 10000 1.5 270 16:44 24.10.2020
2744 Clouds 28 1010 74 10000 2.1 270 16:21 24.10.2020
2745 Clouds 29 1010 74 10000 2.6 260 15:39 24.10.2020
2746 Clouds 29 1010 74 10000 2.1 260 15:19 24.10.2020
2747 Clouds 29 1010 74 10000 2.1 260 15:19 24.10.2020
2748 Clouds 29 1010 74 10000 2.6 280 14:50 24.10.2020
2749 Clouds 29 1010 74 10000 2.6 280 14:28 24.10.2020
2750 Clear 29 1009 66 10000 3.1 280 13:46 24.10.2020
2751 Clear 29 1009 66 10000 3.1 280 13:24 24.10.2020
2752 Clouds 29 1009 66 10000 3.1 230 12:48 24.10.2020
2753 Clouds 30 1008 66 10000 4.1 280 12:21 24.10.2020
2754 Clouds 30 1008 66 10000 4.1 280 11:53 24.10.2020
2755 Clouds 30 1008 58 10000 4.6 290 11:35 24.10.2020
2756 Clouds 31 1007 55 10000 5.7 280 10:54 24.10.2020
2757 Clouds 32 1007 55 10000 5.7 280 10:34 24.10.2020
2758 Clouds 33 1007 52 10000 5.7 290 09:56 24.10.2020
2759 Clear 33 1007 52 10000 6.7 290 09:38 24.10.2020
2760 Clear 34 1007 44 10000 6.2 300 09:19 24.10.2020
2761 Clear 34 1008 38 10000 5.7 300 08:20 24.10.2020
2762 Clear 34 1008 38 10000 5.7 300 07:55 24.10.2020
2763 Clear 33 1008 38 10000 5.1 300 07:37 24.10.2020
2764 Clouds 33 1009 43 10000 4.6 290 07:18 24.10.2020
2765 Clouds 32 1010 55 10000 4.6 320 06:23 24.10.2020
2766 Clouds 31 1012 58 10000 4.1 300 03:37 24.10.2020
2767 Clouds 31 1012 62 10000 3.1 360 02:18 24.10.2020
2768 Clouds 29 1010 74 10000 3.1 340 00:42 24.10.2020
2769 Clouds 29 1010 78 10000 2.6 350 00:22 24.10.2020
2770 Clouds 28 1010 83 10000 2.1 350 23:50 23.10.2020
2771 Clouds 27 1010 83 10000 2.1 350 23:27 23.10.2020
2772 Clouds 26 1010 88 10000 2.1 340 22:59 23.10.2020
2773 Clouds 27 1009 83 10000 2.1 340 22:40 23.10.2020
2774 Clouds 26 1009 88 10000 1.5 330 22:20 23.10.2020
2775 Clouds 27 1009 88 10000 1.5 330 21:51 23.10.2020
2776 Clouds 27 1009 83 10000 2.1 340 21:25 23.10.2020
2777 Clouds 27 1009 88 10000 1.5 330 20:43 23.10.2020
2778 Clear 27 1009 88 10000 1.5 330 20:25 23.10.2020
2779 Clouds 27 1009 83 10000 1 290 19:59 23.10.2020
2780 Clouds 28 1009 78 10000 1.5 270 19:34 23.10.2020
2781 Clouds 28 1009 78 10000 2.1 270 18:58 23.10.2020
2782 Clouds 28 1009 74 10000 1.5 280 18:39 23.10.2020
2783 Clouds 29 1010 74 10000 1.5 270 18:19 23.10.2020
2784 Clouds 29 1010 74 10000 2.1 250 17:43 23.10.2020
2785 Clouds 28 1010 74 10000 2.1 250 17:20 23.10.2020
2786 Clouds 29 1010 74 10000 2.1 260 16:46 23.10.2020
2787 Clouds 29 1010 74 10000 2.1 260 16:26 23.10.2020
2788 Clear 29 1010 66 10000 2.1 300 15:47 23.10.2020
2789 Clouds 29 1010 70 10000 2.1 270 15:24 23.10.2020
2790 Clouds 29 1010 70 10000 2.1 270 14:57 23.10.2020
2791 Clouds 29 1009 66 10000 2.1 280 14:39 23.10.2020
2792 Clear 30 1009 66 10000 2.6 280 14:20 23.10.2020
2793 Clouds 30 1009 66 10000 2.6 270 13:38 23.10.2020
2794 Clouds 30 1009 62 10000 2.6 280 13:19 23.10.2020
2795 Clouds 30 1008 58 10000 2.6 300 12:47 23.10.2020
2796 Clouds 30 1008 58 10000 2.6 300 12:27 23.10.2020
2797 Clouds 30 1008 49 10000 3.1 290 11:47 23.10.2020
2798 Clouds 31 1008 49 10000 3.1 290 11:22 23.10.2020
2799 Clouds 33 1007 46 10000 4.1 280 10:46 23.10.2020
2800 Clouds 33 1007 43 10000 4.6 290 10:25 23.10.2020
2801 Clouds 33 1007 46 10000 5.7 290 09:46 23.10.2020
2802 Clouds 34 1007 46 10000 5.7 290 09:27 23.10.2020
2803 Clouds 34 1007 46 10000 5.7 290 08:53 23.10.2020
2804 Clouds 34 1007 41 10000 5.1 310 08:33 23.10.2020
2805 Clouds 33 1008 49 10000 5.1 310 07:46 23.10.2020
2806 Clouds 33 1008 49 10000 4.1 290 07:22 23.10.2020
2807 Clouds 33 1009 49 10000 3.6 300 06:31 23.10.2020
2808 Clouds 33 1010 49 10000 2.6 310 05:44 23.10.2020
2809 Clouds 30 1011 66 10000 2.1 350 02:33 23.10.2020
2810 Clouds 29 1011 70 10000 3.6 350 01:52 23.10.2020
2811 Clouds 29 1010 83 10000 1 350 00:48 23.10.2020
2812 Clouds 25 1009 94 10000 1.5 10 23:48 22.10.2020
2813 Clouds 25 1009 94 10000 1.5 10 23:30 22.10.2020
2814 Clouds 25 1009 94 10000 1 20 22:54 22.10.2020
2815 Clouds 25 1009 94 10000 2.15 343 22:36 22.10.2020
2816 Clouds 25 1009 94 10000 1 60 22:18 22.10.2020
2817 Clouds 26 1008 88 10000 1 60 21:42 22.10.2020
2818 Clouds 25 1008 94 10000 1 30 21:23 22.10.2020
2819 Clouds 25 1008 94 10000 1 30 20:56 22.10.2020
2820 Clouds 26 1008 88 10000 0.5 270 20:37 22.10.2020
2821 Clouds 26 1008 88 10000 0.5 270 20:18 22.10.2020
2822 Clouds 26 1008 88 10000 0.5 270 19:40 22.10.2020
2823 Clouds 26 1008 83 10000 1 250 19:19 22.10.2020
2824 Clouds 27 1009 83 10000 0.5 280 18:43 22.10.2020
2825 Clouds 27 1009 78 10000 1.5 270 18:20 22.10.2020
2826 Clouds 28 1009 78 10000 1.5 290 17:46 22.10.2020
2827 Clear 28 1010 74 10000 2.1 280 17:22 22.10.2020
2828 Clear 29 1010 74 10000 2.1 280 16:54 22.10.2020
2829 Clear 29 1010 74 10000 2.6 290 16:36 22.10.2020
2830 Clear 29 1010 74 10000 3.1 290 16:18 22.10.2020
2831 Clear 29 1010 74 10000 3.1 300 15:40 22.10.2020
2832 Clear 29 1010 66 10000 3.1 300 15:22 22.10.2020
2833 Clouds 30 1009 66 10000 3.1 290 14:45 22.10.2020
2834 Clouds 30 1009 66 10000 3.1 290 14:24 22.10.2020
2835 Clouds 30 1009 66 10000 3.1 300 13:48 22.10.2020
2836 Clouds 30 1009 66 10000 3.1 290 13:24 22.10.2020
2837 Clouds 30 1008 62 10000 3.1 290 12:47 22.10.2020
2838 Clouds 30 1008 55 10000 2.6 300 12:23 22.10.2020
2839 Clouds 30 1008 55 10000 3.6 290 11:50 22.10.2020
2840 Clouds 31 1007 52 10000 4.1 290 11:20 22.10.2020
2841 Clouds 32 1007 52 10000 5.1 300 10:51 22.10.2020
2842 Clouds 32 1007 52 10000 5.1 300 10:28 22.10.2020
2843 Clouds 32 1007 52 10000 5.7 290 09:52 22.10.2020
2844 Clouds 32 1007 52 10000 5.7 290 09:33 22.10.2020
2845 Clouds 33 1008 46 10000 6.7 310 08:51 22.10.2020
2846 Clouds 32 1008 46 10000 6.7 310 08:30 22.10.2020
2847 Clouds 32 1008 46 10000 6.2 310 07:57 22.10.2020
2848 Clouds 32 1008 55 10000 5.7 310 07:34 22.10.2020
2849 Clouds 32 1008 59 10000 5.1 310 06:58 22.10.2020
2850 Clouds 33 1009 59 10000 3.6 320 06:27 22.10.2020
2851 Clouds 32 1009 55 10000 3.6 300 05:41 22.10.2020
2852 Clouds 32 1010 55 10000 3.1 310 05:18 22.10.2020
2853 Clouds 29 1010 70 10000 2.1 280 01:46 22.10.2020
2854 Clouds 27 1010 83 10000 1.5 330 00:26 22.10.2020
2855 Clouds 25 1009 94 10000 1.1 273 23:51 21.10.2020
2856 Clouds 25 1009 94 10000 1.1 273 23:32 21.10.2020
2857 Clouds 25 1009 94 10000 1 320 22:43 21.10.2020
2858 Clouds 26 1008 88 10000 1.5 330 22:19 21.10.2020
2859 Clouds 26 1008 88 10000 1.5 330 21:56 21.10.2020
2860 Clouds 26 1008 88 10000 1.5 320 21:37 21.10.2020
2861 Clouds 26 1008 83 10000 2.1 330 21:18 21.10.2020
2862 Clouds 27 1008 83 10000 2.1 340 20:47 21.10.2020
2863 Clouds 27 1008 83 10000 2.6 340 20:19 21.10.2020
2864 Clouds 27 1008 78 10000 3.1 350 19:47 21.10.2020
2865 Clouds 27 1008 78 10000 3.1 350 19:26 21.10.2020
2866 Clouds 27 1008 78 10000 3.1 350 19:26 21.10.2020
2867 Clear 27 1008 78 10000 3.1 340 18:54 21.10.2020
2868 Clear 28 1008 78 10000 4.1 340 18:33 21.10.2020
2869 Clear 27 1009 78 10000 3.1 350 17:57 21.10.2020
2870 Clouds 28 1009 78 10000 3.1 340 17:39 21.10.2020
2871 Clouds 28 1009 74 10000 4.1 340 17:19 21.10.2020
2872 Clouds 28 1009 70 10000 4.1 340 16:40 21.10.2020
2873 Clouds 29 1009 70 10000 4.1 350 16:21 21.10.2020
2874 Clouds 29 1009 70 10000 4.1 350 15:55 21.10.2020
2875 Clouds 29 1009 70 10000 3.6 330 15:36 21.10.2020
2876 Clouds 29 1009 74 10000 3.6 320 15:18 21.10.2020
2877 Clouds 29 1009 74 10000 3.6 300 14:42 21.10.2020
2878 Clouds 29 1009 74 10000 3.6 300 14:23 21.10.2020
2879 Clouds 29 1009 79 10000 4.1 300 13:42 21.10.2020
2880 Clouds 29 1009 79 10000 4.1 300 13:23 21.10.2020
2881 Clouds 29 1008 74 10000 5.7 340 12:46 21.10.2020
2882 Clouds 29 1008 74 10000 4.1 290 12:24 21.10.2020
2883 Clouds 30 1008 74 10000 4.1 290 11:59 21.10.2020
2884 Clouds 30 1008 70 10000 4.6 310 11:39 21.10.2020
2885 Clouds 30 1008 70 10000 4.6 310 11:19 21.10.2020
2886 Rain 31 1007 49 10000 3.6 320 10:41 21.10.2020
2887 Rain 32 1007 49 10000 3.6 320 10:21 21.10.2020
2888 Rain 33 1007 49 10000 2.6 280 09:51 21.10.2020
2889 Clouds 31 1006 52 10000 2.1 260 09:28 21.10.2020
2890 Thunderstorm 30 1008 62 10000 4.1 270 08:42 21.10.2020
2891 Thunderstorm 31 1008 62 10000 4.1 270 08:24 21.10.2020
2892 Thunderstorm 32 1008 59 10000 6.2 300 07:58 21.10.2020
2893 Thunderstorm 32 1008 59 10000 5.1 300 07:31 21.10.2020
2894 Rain 32 1009 55 10000 6.2 300 06:50 21.10.2020
2895 Rain 32 1009 55 10000 6.2 300 06:26 21.10.2020
2896 Clouds 32 1011 59 10000 4.6 310 04:46 21.10.2020
2897 Clouds 30 1010 70 10000 2.6 320 00:51 21.10.2020
2898 Clouds 27 1009 94 10000 1.5 350 23:49 20.10.2020
2899 Clouds 27 1009 83 10000 1.5 10 22:53 20.10.2020
2900 Clouds 27 1009 83 10000 1.5 10 22:28 20.10.2020
2901 Clear 26 1008 88 10000 1.5 360 21:50 20.10.2020
2902 Clear 26 1008 88 10000 1 10 21:20 20.10.2020
2903 Clear 26 1008 88 10000 0.5 20 20:45 20.10.2020
2904 Clear 26 1008 88 10000 0.5 20 20:26 20.10.2020
2905 Clear 26 1008 88 10000 1 10 19:59 20.10.2020
2906 Clear 26 1008 83 10000 0.5 40 19:41 20.10.2020
2907 Clear 26 1009 83 10000 1 50 19:21 20.10.2020
2908 Clear 27 1009 78 10000 1.5 60 18:47 20.10.2020
2909 Clear 27 1009 78 10000 1.5 60 18:29 20.10.2020
2910 Clouds 27 1009 78 10000 2.66 298 17:47 20.10.2020
2911 Clouds 27 1009 78 10000 2.84 310 17:29 20.10.2020
2912 Rain 27 1010 78 10000 2.84 310 16:48 20.10.2020
2913 Clear 27 1010 78 10000 2.77 327 16:28 20.10.2020
2914 Clear 28 1010 74 10000 0.5 320 15:56 20.10.2020
2915 Clear 28 1010 69 10000 0.5 230 15:38 20.10.2020
2916 Rain 28 1009 74 10000 2.1 280 15:19 20.10.2020
2917 Rain 28 1009 70 10000 2.6 240 14:41 20.10.2020
2918 Rain 28 1009 70 10000 2.6 240 14:22 20.10.2020
2919 Rain 28 1008 66 10000 2.6 230 13:44 20.10.2020
2920 Clear 29 1008 66 10000 2.6 230 13:23 20.10.2020
2921 Clear 29 1008 70 10000 2.6 250 12:58 20.10.2020
2922 Clear 29 1008 70 10000 3.6 280 12:40 20.10.2020
2923 Clouds 29 1008 70 10000 3.1 270 12:21 20.10.2020
2924 Clouds 29 1007 66 10000 5.1 290 11:40 20.10.2020
2925 Clouds 30 1007 66 10000 5.1 290 11:20 20.10.2020
2926 Clouds 31 1007 58 10000 6.7 300 10:37 20.10.2020
2927 Clouds 31 1007 62 10000 7.2 310 10:19 20.10.2020
2928 Clouds 31 1007 58 10000 7.2 310 09:38 20.10.2020
2929 Clouds 31 1007 58 10000 7.2 310 09:18 20.10.2020
2930 Clouds 32 1007 59 10000 7.2 300 08:37 20.10.2020
2931 Clouds 32 1008 59 10000 7.2 300 07:53 20.10.2020
2932 Clouds 33 1008 55 10000 7.2 310 07:26 20.10.2020
2933 Clouds 32 1009 59 10000 6.2 310 06:31 20.10.2020
2934 Clouds 32 1010 52 10000 5.1 300 05:43 20.10.2020
2935 Clouds 31 1011 58 10000 3.1 300 03:56 20.10.2020
2936 Clouds 30 1012 62 10000 2.1 320 02:19 20.10.2020
2937 Clouds 29 1011 70 10000 1.5 330 00:59 20.10.2020
2938 Clouds 29 1011 70 10000 1.5 330 00:41 20.10.2020
2939 Clouds 28 1011 83 10000 1.5 340 00:20 20.10.2020
2940 Clouds 26 1010 88 10000 1.5 350 23:47 19.10.2020
2941 Clouds 26 1010 88 10000 1 20 23:23 19.10.2020
2942 Rain 26 1010 88 10000 1 350 22:44 19.10.2020
2943 Clouds 26 1010 88 10000 1.5 330 22:22 19.10.2020
2944 Clouds 26 1010 83 10000 1.5 330 21:45 19.10.2020
2945 Clear 26 1009 83 10000 2.6 340 21:22 19.10.2020
2946 Clear 27 1009 78 10000 2.1 340 20:48 19.10.2020
2947 Clouds 27 1009 78 10000 2.1 340 20:29 19.10.2020
2948 Clouds 27 1009 78 10000 2.1 340 19:51 19.10.2020
2949 Clouds 28 1009 78 10000 2.6 330 19:24 19.10.2020
2950 Clouds 28 1009 78 10000 2.6 330 19:24 19.10.2020
2951 Clouds 27 1009 78 10000 2.6 330 18:55 19.10.2020
2952 Clouds 27 1009 78 10000 3.1 320 18:37 19.10.2020
2953 Clouds 27 1009 78 10000 3.1 320 18:18 19.10.2020
2954 Clouds 27 1010 78 10000 3.1 320 17:44 19.10.2020
2955 Clouds 28 1010 79 10000 4.1 310 17:23 19.10.2020
2956 Clouds 28 1010 79 10000 4.1 330 16:43 19.10.2020
2957 Clouds 28 1010 79 10000 4.1 330 16:25 19.10.2020
2958 Clouds 28 1011 87 10000 1.34 317 15:43 19.10.2020
2959 Clouds 28 1010 80 10000 2.79 315 15:24 19.10.2020
2960 Clouds 28 1010 81 10000 2.79 315 14:51 19.10.2020
2961 Clouds 28 1011 84 10000 1.34 293 14:26 19.10.2020
2962 Clouds 28 1011 83 10000 1.34 290 13:54 19.10.2020
2963 Clouds 28 1009 81 10000 3 264 13:33 19.10.2020
2964 Clouds 28 1009 80 10000 3 264 12:56 19.10.2020
2965 Clouds 29 1010 82 10000 2.68 276 12:38 19.10.2020
2966 Clear 29 1008 77 10000 4.34 255 12:19 19.10.2020
2967 Clouds 29 1007 48 10000 4.6 300 11:39 19.10.2020
2968 Clouds 30 1007 48 10000 4.6 300 11:18 19.10.2020
2969 Clouds 31 1007 48 10000 4.6 300 10:40 19.10.2020
2970 Clouds 31 1007 49 10000 4.1 290 10:20 19.10.2020
2971 Clouds 31 1007 58 10000 5.1 290 09:48 19.10.2020
2972 Clouds 32 1007 52 10000 5.7 300 09:19 19.10.2020
2973 Clouds 32 1007 52 10000 5.7 310 08:48 19.10.2020
2974 Clouds 33 1007 52 10000 5.1 310 08:23 19.10.2020
2975 Clouds 32 1008 52 10000 4.6 300 07:44 19.10.2020
2976 Clouds 32 1008 52 10000 4.1 330 07:19 19.10.2020
2977 Clouds 31 1010 55 10000 4.6 310 06:19 19.10.2020
2978 Clouds 30 1012 66 10000 4.1 350 03:50 19.10.2020
2979 Clouds 30 1012 66 10000 4.1 350 03:32 19.10.2020
2980 Clouds 29 1012 70 10000 3.1 350 00:57 19.10.2020
2981 Clouds 27 1011 78 10000 2.6 360 00:24 19.10.2020
2982 Clouds 26 1011 83 10000 2.1 360 23:47 18.10.2020
2983 Clouds 26 1010 83 10000 1.5 350 23:25 18.10.2020
2984 Clouds 26 1010 83 10000 1.5 350 22:52 18.10.2020
2985 Clear 27 1009 78 10000 2.1 360 22:22 18.10.2020
2986 Clear 26 1009 78 10000 2.1 360 21:55 18.10.2020
2987 Clouds 26 1009 78 10000 1.5 360 21:36 18.10.2020
2988 Clouds 27 1010 78 10000 2.6 360 21:18 18.10.2020
2989 Clouds 27 1010 74 10000 2.6 350 20:40 18.10.2020
2990 Clouds 27 1010 74 10000 3.1 330 20:19 18.10.2020
2991 Clouds 28 1010 78 10000 3.1 340 19:43 18.10.2020
2992 Clouds 28 1010 78 10000 3.1 340 19:25 18.10.2020
2993 Clouds 27 1010 78 10000 3.1 320 18:48 18.10.2020
2994 Clear 27 1010 78 10000 3.1 320 18:27 18.10.2020
2995 Clouds 28 1010 78 10000 3.1 300 17:44 18.10.2020
2996 Clouds 28 1010 78 10000 3.1 300 17:25 18.10.2020
2997 Clouds 28 1011 70 10000 3.6 320 16:55 18.10.2020
2998 Clouds 28 1011 74 10000 3.6 310 16:37 18.10.2020
2999 Clouds 28 1011 70 10000 4.1 300 16:18 18.10.2020
3000 Clouds 29 1010 66 10000 4.6 310 15:41 18.10.2020
3001 Clouds 29 1010 66 10000 3.1 290 15:19 18.10.2020
3002 Clouds 29 1010 66 10000 3.1 290 14:54 18.10.2020
3003 Clear 29 1009 66 10000 3.6 280 14:29 18.10.2020
3004 Clear 29 1009 66 10000 3.1 270 13:56 18.10.2020
3005 Clear 29 1009 66 10000 3.1 270 13:38 18.10.2020
3006 Clear 29 1009 62 10000 3.1 250 13:19 18.10.2020
3007 Clear 30 1008 51 10000 2.6 260 12:42 18.10.2020
3008 Clear 30 1008 45 10000 2.6 290 12:21 18.10.2020
3009 Clouds 30 1008 52 10000 3.1 330 11:42 18.10.2020
3010 Clouds 30 1008 52 10000 3.1 330 11:23 18.10.2020
3011 Clouds 31 1007 43 10000 4.6 350 10:41 18.10.2020
3012 Clouds 31 1007 49 10000 5.1 360 10:21 18.10.2020
3013 Clouds 32 1007 55 10000 4.6 350 09:52 18.10.2020
3014 Clouds 32 1007 55 10000 4.6 350 09:25 18.10.2020
3015 Rain 32 1007 55 10000 4.1 350 08:58 18.10.2020
3016 Rain 32 1007 55 10000 5.7 10 08:39 18.10.2020
3017 Rain 32 1007 55 10000 5.7 10 08:39 18.10.2020
3018 Rain 32 1008 52 10000 4.6 350 08:20 18.10.2020
3019 Rain 33 1008 52 10000 5.1 340 07:32 18.10.2020
3020 Clouds 31 1010 62 10000 4.6 300 05:33 18.10.2020
3021 Clouds 31 1012 58 10000 2.1 30 03:20 18.10.2020
3022 Clouds 29 1012 70 10000 3.1 30 01:43 18.10.2020
3023 Clouds 28 1012 70 10000 1 20 00:55 18.10.2020
3024 Clouds 27 1011 78 10000 1.5 40 00:35 18.10.2020
3025 Clouds 27 1011 78 10000 0.5 20 23:56 17.10.2020
3026 Clouds 26 1010 83 10000 1.5 20 23:38 17.10.2020
3027 Clouds 26 1010 78 10000 1.5 20 23:19 17.10.2020
3028 Clouds 26 1010 83 10000 1.5 20 22:43 17.10.2020
3029 Clouds 26 1009 83 10000 2.1 30 22:20 17.10.2020
3030 Clouds 26 1009 83 10000 2.1 30 21:56 17.10.2020
3031 Clouds 26 1009 83 10000 2.6 30 21:38 17.10.2020
3032 Clouds 26 1009 88 10000 2.1 10 21:19 17.10.2020
3033 Clouds 26 1009 88 10000 2.1 10 20:42 17.10.2020
3034 Clouds 26 1009 83 10000 2.1 20 20:18 17.10.2020
3035 Clouds 26 1009 83 10000 2.1 30 19:42 17.10.2020
3036 Clouds 27 1009 83 10000 1.5 10 19:18 17.10.2020
3037 Rain 26 1009 83 10000 1.5 360 18:43 17.10.2020
3038 Clouds 26 1009 78 10000 1.5 360 18:25 17.10.2020
3039 Clouds 27 1010 78 10000 2.1 360 17:50 17.10.2020
3040 Clouds 27 1010 78 10000 2.1 360 17:23 17.10.2020
3041 Clouds 27 1010 83 10000 2.1 350 16:50 17.10.2020
3042 Rain 26 1010 78 10000 2.1 360 16:24 17.10.2020
3043 Rain 27 1010 78 10000 2.1 360 15:57 17.10.2020
3044 Rain 27 1010 78 10000 3.6 350 15:39 17.10.2020
3045 Rain 29 1010 70 9000 2.6 320 15:20 17.10.2020
3046 Rain 28 1010 70 9000 2.6 320 14:53 17.10.2020
3047 Clouds 28 1010 70 10000 3.1 310 14:28 17.10.2020
3048 Clouds 28 1009 70 10000 3.6 320 13:58 17.10.2020
3049 Clouds 28 1009 74 10000 3.1 300 13:39 17.10.2020
3050 Clouds 28 1009 70 10000 3.6 300 13:20 17.10.2020
3051 Clouds 27 1009 74 10000 3.6 300 12:41 17.10.2020
3052 Clouds 27 1008 69 10000 4.6 310 12:20 17.10.2020
3053 Clouds 28 1008 69 10000 4.6 310 11:55 17.10.2020
3054 Clouds 28 1008 78 10000 5.7 320 11:29 17.10.2020
3055 Rain 29 1007 58 10000 3.6 340 10:44 17.10.2020
3056 Rain 30 1007 58 10000 3.6 340 10:25 17.10.2020
3057 Clouds 31 1007 58 10000 3.1 350 09:41 17.10.2020
3058 Clouds 31 1007 66 10000 3.6 360 09:22 17.10.2020
3059 Clouds 31 1007 66 10000 4.1 360 08:42 17.10.2020
3060 Clouds 30 1007 66 10000 2.6 340 08:18 17.10.2020
3061 Clouds 28 1008 74 10000 3.6 10 07:43 17.10.2020
3062 Rain 30 1009 70 10000 5.1 360 06:44 17.10.2020
3063 Clouds 30 1010 66 10000 3.1 20 04:52 17.10.2020
3064 Clouds 29 1011 74 10000 1.5 100 02:29 17.10.2020
3065 Clouds 26 1010 88 10000 2.6 110 00:57 17.10.2020
3066 Clouds 26 1010 88 10000 1.5 110 00:34 17.10.2020
3067 Clouds 26 1009 88 10000 1.5 30 23:38 16.10.2020
3068 Clouds 26 1008 88 10000 2.1 30 23:20 16.10.2020
3069 Clouds 26 1008 83 10000 2.1 30 22:42 16.10.2020
3070 Clouds 26 1008 83 10000 2.6 20 22:23 16.10.2020
3071 Clouds 26 1007 83 10000 2.6 30 21:47 16.10.2020
3072 Clouds 26 1007 83 10000 2.6 30 21:26 16.10.2020
3073 Clouds 26 1008 83 10000 2.6 40 20:46 16.10.2020
3074 Clouds 26 1008 83 10000 2.6 40 20:46 16.10.2020
3075 Clouds 26 1008 83 10000 2.6 40 20:46 16.10.2020
3076 Clouds 26 1008 83 10000 2.6 40 20:46 16.10.2020
3077 Clouds 26 1008 83 10000 2.6 40 20:26 16.10.2020
3078 Clouds 25 1008 94 10000 2.1 30 19:54 16.10.2020
3079 Clouds 25 1008 94 10000 2.1 30 19:29 16.10.2020
3080 Clouds 25 1008 94 10000 1.5 50 18:58 16.10.2020
3081 Clouds 25 1008 94 10000 2.1 30 18:40 16.10.2020
3082 Clouds 25 1009 94 10000 2.1 50 18:21 16.10.2020
3083 Clouds 25 1009 94 10000 1 60 17:43 16.10.2020
3084 Clouds 25 1009 94 10000 1 60 17:24 16.10.2020
3085 Clouds 25 1010 100 10000 1.5 90 16:45 16.10.2020
3086 Clouds 25 1010 100 10000 1.5 90 16:27 16.10.2020
3087 Clouds 26 1010 94 10000 1.79 340 15:25 16.10.2020
3088 Clouds 25 1009 100 10000 1.79 340 14:59 16.10.2020
3089 Clouds 26 1009 94 10000 1.79 340 14:40 16.10.2020
3090 Clouds 26 1009 88 10000 2.1 50 14:19 16.10.2020
3091 Clouds 26 1009 88 10000 1.5 50 13:47 16.10.2020
3092 Clouds 26 1008 94 10000 0.89 295 13:25 16.10.2020
3093 Clouds 26 1008 94 10000 0.89 295 12:59 16.10.2020
3094 Clouds 27 1008 83 10000 1.5 240 12:28 16.10.2020
3095 Clouds 27 1008 83 10000 1.53 278 11:59 16.10.2020
3096 Clouds 27 1008 83 10000 1.5 10 11:41 16.10.2020
3097 Clouds 27 1007 83 10000 2.14 305 11:20 16.10.2020
3098 Clouds 27 1007 78 10000 2.14 305 10:48 16.10.2020
3099 Clouds 27 1007 78 10000 2.21 305 10:28 16.10.2020
3100 Clouds 26 1007 83 10000 1.5 180 09:41 16.10.2020
3101 Rain 25 1007 88 10000 2.6 100 09:22 16.10.2020
3102 Rain 25 1008 88 10000 3.6 110 08:50 16.10.2020
3103 Rain 25 1008 88 10000 3.6 110 08:29 16.10.2020
3104 Rain 25 1009 94 3000 6.7 190 07:47 16.10.2020
3105 Rain 25 1009 94 3000 6.7 190 07:28 16.10.2020
3106 Rain 30 1009 66 10000 4.1 340 06:37 16.10.2020
3107 Clouds 29 1011 74 10000 4.1 330 04:31 16.10.2020
3108 Clouds 30 1011 62 10000 3.1 300 02:18 16.10.2020
3109 Clouds 29 1010 70 10000 2.1 340 00:54 16.10.2020
3110 Clouds 27 1009 78 10000 1.5 340 00:22 16.10.2020
3111 Clouds 26 1009 83 10000 1.5 340 23:40 15.10.2020
3112 Clouds 26 1009 88 10000 1.5 20 23:19 15.10.2020
3113 Clouds 26 1009 83 10000 2.6 30 22:49 15.10.2020
3114 Clouds 26 1009 83 10000 2.6 30 22:23 15.10.2020
3115 Clouds 27 1008 78 10000 1.5 50 21:55 15.10.2020
3116 Clouds 27 1008 78 10000 1.5 50 21:36 15.10.2020
3117 Clouds 27 1008 78 10000 1.5 10 21:18 15.10.2020
3118 Clouds 27 1008 78 10000 1.5 10 20:43 15.10.2020
3119 Clouds 27 1008 74 10000 2.6 360 20:20 15.10.2020
3120 Clouds 28 1008 74 10000 3.6 350 19:43 15.10.2020
3121 Clouds 28 1008 74 10000 3.6 350 19:22 15.10.2020
3122 Clouds 27 1008 69 10000 3.6 350 18:44 15.10.2020
3123 Clouds 28 1009 69 10000 3.6 350 18:25 15.10.2020
3124 Clouds 28 1009 69 10000 3.6 350 17:58 15.10.2020
3125 Clouds 28 1009 69 10000 3.1 350 17:38 15.10.2020
3126 Clouds 28 1009 69 10000 3.6 360 17:20 15.10.2020
3127 Clouds 28 1010 66 10000 4.1 360 16:44 15.10.2020
3128 Clouds 28 1010 62 10000 3.6 350 16:21 15.10.2020
3129 Clouds 29 1009 66 10000 5.1 350 15:44 15.10.2020
3130 Clouds 29 1009 70 10000 3.6 350 15:23 15.10.2020
3131 Clouds 29 1009 70 10000 5.1 310 14:50 15.10.2020
3132 Clouds 28 1009 74 10000 4.6 320 14:24 15.10.2020
3133 Clouds 28 1009 74 10000 2.6 330 13:48 15.10.2020
3134 Clouds 28 1008 74 10000 4.1 320 13:26 15.10.2020
3135 Clouds 29 1008 74 10000 4.1 320 12:57 15.10.2020
3136 Clouds 29 1008 66 10000 4.6 310 12:37 15.10.2020
3137 Clouds 29 1008 62 10000 4.6 300 12:18 15.10.2020
3138 Clouds 29 1007 62 10000 5.1 300 11:43 15.10.2020
3139 Clouds 30 1007 58 10000 4.6 330 11:20 15.10.2020
3140 Clouds 30 1006 58 10000 5.7 320 10:45 15.10.2020
3141 Clouds 31 1006 58 10000 5.1 320 10:26 15.10.2020
3142 Clouds 31 1006 58 10000 4.1 310 09:40 15.10.2020
3143 Clouds 32 1006 58 10000 4.1 300 09:21 15.10.2020
3144 Clouds 31 1006 58 10000 4.1 300 08:54 15.10.2020
3145 Clouds 32 1006 55 10000 3.1 330 08:33 15.10.2020
3146 Clouds 32 1007 55 10000 4.1 340 07:41 15.10.2020
3147 Rain 32 1008 55 10000 4.1 330 06:33 15.10.2020
3148 Clouds 31 1010 62 10000 3.1 360 04:19 15.10.2020
3149 Clouds 30 1011 66 10000 3.1 350 02:24 15.10.2020
3150 Clouds 30 1011 70 10000 3.1 360 01:37 15.10.2020
3151 Clouds 28 1010 74 10000 2.6 10 00:27 15.10.2020
3152 Clouds 27 1010 88 10000 1.5 350 23:55 14.10.2020
3153 Clouds 26 1010 88 10000 1.5 350 23:36 14.10.2020
3154 Clouds 26 1009 88 10000 2.6 350 23:18 14.10.2020
3155 Clouds 26 1009 88 10000 2.78 337 22:42 14.10.2020
3156 Clouds 26 1009 88 10000 3.03 336 22:24 14.10.2020
3157 Clouds 26 1009 83 10000 1 350 21:44 14.10.2020
3158 Rain 26 1008 83 10000 1.5 350 21:23 14.10.2020
3159 Clouds 27 1008 83 10000 2.1 360 20:46 14.10.2020
3160 Clouds 27 1008 83 10000 2.1 350 20:20 14.10.2020
3161 Rain 27 1009 78 10000 2.1 340 19:52 14.10.2020
3162 Clouds 27 1009 78 10000 2.1 340 19:29 14.10.2020
3163 Clouds 27 1009 78 10000 2.1 330 18:57 14.10.2020
3164 Clouds 27 1009 78 10000 2.1 320 18:39 14.10.2020
3165 Clouds 27 1009 78 10000 2.6 330 18:20 14.10.2020
3166 Clouds 28 1010 74 10000 3.6 320 17:44 14.10.2020
3167 Clouds 28 1010 74 10000 3.6 320 17:21 14.10.2020
3168 Clouds 29 1010 74 10000 4.6 320 16:44 14.10.2020
3169 Clouds 29 1010 74 10000 4.6 310 16:23 14.10.2020
3170 Clouds 29 1010 70 10000 4.1 310 15:48 14.10.2020
3171 Clouds 29 1010 70 10000 4.1 310 15:29 14.10.2020
3172 Clouds 29 1010 70 10000 5.1 310 14:48 14.10.2020
3173 Clouds 29 1009 70 10000 3.1 320 14:22 14.10.2020
3174 Clouds 29 1009 70 10000 3.1 320 13:51 14.10.2020
3175 Clouds 29 1009 74 10000 3.6 280 13:28 14.10.2020
3176 Clouds 30 1008 66 10000 3.1 320 12:58 14.10.2020
3177 Clouds 30 1008 58 10000 1.5 290 12:40 14.10.2020
3178 Clouds 30 1008 58 10000 1.5 270 12:21 14.10.2020
3179 Clouds 29 1008 62 10000 3.1 270 11:46 14.10.2020
3180 Clouds 30 1008 62 10000 3.1 270 11:27 14.10.2020
3181 Clouds 30 1007 66 10000 4.1 300 10:57 14.10.2020
3182 Clouds 31 1008 58 10000 4.6 300 10:39 14.10.2020
3183 Clouds 32 1007 52 10000 4.1 320 10:19 14.10.2020
3184 Clouds 32 1007 52 10000 4.6 340 09:42 14.10.2020
3185 Clouds 32 1007 59 10000 5.7 340 08:50 14.10.2020
3186 Clouds 32 1007 59 10000 5.7 340 08:32 14.10.2020
3187 Clouds 32 1008 62 10000 5.1 330 07:45 14.10.2020
3188 Clouds 32 1009 59 10000 5.1 350 07:21 14.10.2020
3189 Clouds 32 1009 59 10000 5.1 350 06:54 14.10.2020
3190 Clouds 32 1009 62 10000 4.6 340 06:36 14.10.2020
3191 Clouds 32 1010 62 10000 4.1 330 05:29 14.10.2020
3192 Clouds 30 1012 66 10000 0.5 90 02:27 14.10.2020
3193 Clouds 30 1012 79 10000 1 240 01:35 14.10.2020
3194 Clouds 28 1011 83 10000 0.5 100 00:35 14.10.2020
3195 Clouds 26 1010 88 10000 0.5 130 23:54 13.10.2020
3196 Clouds 26 1010 88 10000 1.58 335 23:23 13.10.2020
3197 Clouds 26 1009 88 10000 1.58 335 22:48 13.10.2020
3198 Clouds 25 1009 88 10000 1.84 318 22:25 13.10.2020
3199 Clear 26 1009 88 10000 2.1 130 21:56 13.10.2020
3200 Clear 26 1009 88 10000 1.5 60 21:37 13.10.2020
3201 Clear 26 1009 83 10000 0.5 300 21:19 13.10.2020
3202 Clear 27 1009 83 10000 2.1 280 20:42 13.10.2020
3203 Rain 27 1009 83 10000 2.1 280 20:24 13.10.2020
3204 Rain 27 1009 78 10000 2.6 270 19:49 13.10.2020
3205 Rain 27 1009 78 10000 2.6 270 19:26 13.10.2020
3206 Rain 27 1009 78 10000 2.1 290 18:59 13.10.2020
3207 Rain 27 1010 78 10000 2.1 290 18:41 13.10.2020
3208 Rain 27 1010 78 10000 3.1 290 18:23 13.10.2020
3209 Rain 27 1010 78 10000 3.1 290 17:58 13.10.2020
3210 Rain 27 1010 78 10000 3.1 290 17:58 13.10.2020
3211 Rain 28 1010 74 10000 3.1 300 17:37 13.10.2020
3212 Clouds 28 1011 79 10000 5.7 320 16:48 13.10.2020
3213 Clouds 28 1011 79 10000 4.6 320 16:21 13.10.2020
3214 Clouds 29 1011 79 10000 4.6 320 15:56 13.10.2020
3215 Clouds 29 1011 74 10000 3.1 300 15:37 13.10.2020
3216 Clouds 29 1011 70 10000 2.6 290 15:18 13.10.2020
3217 Clear 28 1010 70 10000 5.16 317 14:41 13.10.2020
3218 Clouds 28 1010 70 10000 1.5 200 14:22 13.10.2020
3219 Clouds 29 1010 62 10000 2.1 210 13:47 13.10.2020
3220 Clouds 30 1010 62 10000 2.6 240 13:21 13.10.2020
3221 Clouds 29 1009 62 10000 2.1 260 12:45 13.10.2020
3222 Clouds 30 1009 55 10000 2.1 270 12:21 13.10.2020
3223 Clouds 30 1009 55 10000 2.6 330 11:43 13.10.2020
3224 Clouds 31 1009 55 10000 2.6 330 11:24 13.10.2020
3225 Clouds 31 1009 55 10000 2.6 310 10:59 13.10.2020
3226 Clouds 31 1008 52 10000 3.6 340 10:41 13.10.2020
3227 Clouds 32 1008 52 10000 5.1 360 10:21 13.10.2020
3228 Clouds 32 1008 52 10000 5.1 360 09:55 13.10.2020
3229 Clouds 32 1008 52 10000 5.1 360 09:36 13.10.2020
3230 Clouds 32 1008 49 10000 5.1 360 09:18 13.10.2020
3231 Clouds 32 1008 59 10000 6.7 360 08:41 13.10.2020
3232 Clouds 32 1008 59 10000 6.7 350 08:21 13.10.2020
3233 Clouds 33 1009 52 10000 5.7 350 07:35 13.10.2020
3234 Clouds 32 1009 55 10000 5.1 330 06:56 13.10.2020
3235 Clouds 32 1010 55 10000 4.6 330 06:32 13.10.2020
3236 Clouds 33 1012 49 10000 3.1 60 04:29 13.10.2020
3237 Clouds 32 1012 58 10000 2.6 130 03:41 13.10.2020
3238 Clouds 29 1012 78 10000 2.6 150 01:48 13.10.2020
3239 Clouds 28 1011 78 10000 2.14 104 00:44 13.10.2020
3240 Clouds 26 1011 88 10000 0.5 350 00:18 13.10.2020
3241 Clouds 25 1010 94 10000 2.5 79 23:34 12.10.2020
3242 Clouds 26 1010 88 10000 2.25 59 22:55 12.10.2020
3243 Clouds 25 1010 88 10000 0.5 360 22:36 12.10.2020
3244 Clouds 26 1010 83 10000 1 10 22:18 12.10.2020
3245 Clouds 25 1010 83 10000 1.5 350 21:43 12.10.2020
3246 Clouds 25 1010 83 10000 1.5 20 21:21 12.10.2020
3247 Clouds 25 1010 83 10000 1 60 20:45 12.10.2020
3248 Clouds 26 1010 83 10000 1 60 20:24 12.10.2020
3249 Clouds 26 1010 78 10000 1.5 30 19:54 12.10.2020
3250 Clouds 26 1010 74 10000 1.5 20 19:35 12.10.2020
3251 Clouds 26 1010 74 10000 2.1 10 18:59 12.10.2020
3252 Clouds 27 1010 74 10000 1.5 360 18:41 12.10.2020
3253 Clouds 27 1011 65 10000 2.1 360 18:21 12.10.2020
3254 Clouds 28 1011 69 10000 3.1 350 17:42 12.10.2020
3255 Clouds 28 1011 70 10000 3.1 350 17:19 12.10.2020
3256 Clouds 28 1011 70 10000 4.1 340 16:42 12.10.2020
3257 Clouds 28 1010 66 10000 4.1 350 16:22 12.10.2020
3258 Clouds 29 1010 66 10000 3.6 360 15:45 12.10.2020
3259 Clouds 29 1010 66 10000 3.6 360 15:27 12.10.2020
3260 Clouds 29 1010 70 10000 4.1 360 14:55 12.10.2020
3261 Clouds 28 1010 74 10000 2.6 30 14:30 12.10.2020
3262 Clouds 29 1009 66 10000 1.5 40 13:46 12.10.2020
3263 Clouds 29 1009 62 10000 2.1 30 13:23 12.10.2020
3264 Clouds 29 1008 58 10000 2.1 30 12:48 12.10.2020
3265 Clouds 29 1008 58 10000 2.1 30 12:27 12.10.2020
3266 Clouds 30 1008 52 10000 4.1 20 11:41 12.10.2020
3267 Clouds 30 1007 48 10000 4.1 360 11:21 12.10.2020
3268 Clouds 31 1007 48 10000 4.1 360 10:56 12.10.2020
3269 Clouds 31 1007 55 10000 4.6 360 10:36 12.10.2020
3270 Clouds 31 1007 55 10000 4.6 360 10:36 12.10.2020
3271 Clouds 31 1007 58 10000 5.7 360 10:18 12.10.2020
3272 Clouds 32 1007 55 10000 5.1 360 09:39 12.10.2020
3273 Clouds 32 1007 55 10000 5.7 360 09:21 12.10.2020
3274 Clouds 32 1007 49 10000 6.2 360 08:34 12.10.2020
3275 Clear 32 1007 55 10000 6.7 350 07:49 12.10.2020
3276 Clear 32 1008 55 10000 5.7 350 06:42 12.10.2020
3277 Clear 33 1009 38 10000 5.7 100 05:47 12.10.2020
3278 Clouds 29 1012 70 10000 3.1 70 02:19 12.10.2020
3279 Clouds 26 1011 83 10000 1.5 80 23:59 11.10.2020
3280 Clouds 25 1010 83 10000 1.5 80 23:40 11.10.2020
3281 Clouds 25 1010 88 10000 1.5 80 23:22 11.10.2020
3282 Clouds 25 1009 83 10000 2.1 90 22:40 11.10.2020
3283 Clear 25 1009 78 10000 2.1 60 22:21 11.10.2020
3284 Clear 26 1009 78 10000 2.6 50 21:38 11.10.2020
3285 Clear 26 1009 83 10000 2.1 60 21:19 11.10.2020
3286 Clear 26 1009 88 10000 2.6 30 20:41 11.10.2020
3287 Clear 26 1009 78 10000 2.6 40 20:19 11.10.2020
3288 Clouds 27 1009 78 10000 3.6 50 19:45 11.10.2020
3289 Clouds 27 1009 78 10000 3.6 50 19:25 11.10.2020
3290 Clouds 28 1009 78 10000 3.1 340 18:51 11.10.2020
3291 Clouds 28 1009 78 10000 3.1 340 18:32 11.10.2020
3292 Clouds 28 1009 74 10000 3.1 340 17:59 11.10.2020
3293 Clouds 28 1009 74 10000 3.6 330 17:39 11.10.2020
3294 Clouds 28 1010 70 10000 3.6 330 17:19 11.10.2020
3295 Clouds 28 1010 70 10000 3.6 330 16:43 11.10.2020
3296 Clouds 28 1010 74 10000 3.6 320 16:25 11.10.2020
3297 Clouds 28 1010 69 10000 3.1 340 15:50 11.10.2020
3298 Clouds 28 1010 69 10000 3.1 340 15:31 11.10.2020
3299 Clouds 28 1009 69 10000 2.1 90 14:44 11.10.2020
3300 Clouds 27 1009 69 10000 2.1 90 14:26 11.10.2020
3301 Clouds 28 1009 69 10000 1.5 80 13:45 11.10.2020
3302 Clouds 28 1009 69 10000 1.5 80 13:25 11.10.2020
3303 Clouds 29 1008 58 10000 2.1 20 12:51 11.10.2020
3304 Clouds 29 1008 58 10000 2.1 20 12:30 11.10.2020
3305 Clouds 30 1008 55 10000 2.1 30 11:53 11.10.2020
3306 Clouds 30 1007 52 10000 3.1 30 11:27 11.10.2020
3307 Clouds 30 1007 52 10000 3.1 30 11:27 11.10.2020
3308 Clouds 31 1007 55 10000 3.1 10 10:58 11.10.2020
3309 Clouds 31 1007 58 10000 4.1 360 10:40 11.10.2020
3310 Clouds 31 1007 58 10000 4.6 10 10:21 11.10.2020
3311 Clouds 31 1007 55 10000 6.2 360 09:42 11.10.2020
3312 Clouds 31 1007 55 10000 6.2 360 09:23 11.10.2020
3313 Clouds 32 1007 49 10000 6.7 350 08:50 11.10.2020
3314 Clouds 32 1007 49 10000 6.7 350 08:23 11.10.2020
3315 Clouds 31 1008 59 10000 5.7 340 07:45 11.10.2020
3316 Clouds 32 1010 62 10000 6.2 270 05:43 11.10.2020
3317 Clouds 30 1012 66 10000 1.5 90 02:49 11.10.2020
3318 Clouds 30 1012 66 10000 1.5 90 02:23 11.10.2020
3319 Clouds 29 1012 78 10000 1 110 00:59 11.10.2020
3320 Clouds 28 1011 78 10000 0.44 78 00:31 11.10.2020
3321 Clouds 26 1011 88 10000 0.67 26 23:42 10.10.2020
3322 Clouds 25 1010 94 10000 1.03 357 23:21 10.10.2020
3323 Clouds 25 1010 94 10000 0.5 360 22:40 10.10.2020
3324 Clouds 26 1010 88 10000 1 360 22:20 10.10.2020
3325 Clouds 26 1010 88 10000 1.5 10 21:48 10.10.2020
3326 Clouds 26 1010 88 10000 1.5 10 21:29 10.10.2020
3327 Clouds 26 1009 88 10000 2.6 10 20:55 10.10.2020
3328 Clouds 26 1009 83 10000 1.5 10 20:37 10.10.2020
3329 Clouds 26 1009 83 10000 1.5 10 20:37 10.10.2020
3330 Clouds 26 1010 83 10000 0.5 10 20:18 10.10.2020
3331 Clouds 26 1010 78 10000 1.5 10 19:42 10.10.2020
3332 Clouds 27 1010 78 10000 2.6 10 19:22 10.10.2020
3333 Clouds 27 1010 78 10000 2.6 10 19:22 10.10.2020
3334 Clouds 27 1010 78 10000 2.6 10 19:22 10.10.2020
3335 Clouds 27 1010 78 10000 2.1 360 18:49 10.10.2020
3336 Clouds 27 1010 78 10000 2.1 360 18:30 10.10.2020
3337 Clouds 27 1010 83 10000 2.6 350 17:48 10.10.2020
3338 Clouds 27 1010 83 10000 2.6 350 17:26 10.10.2020
3339 Clouds 27 1011 78 10000 1 10 16:51 10.10.2020
3340 Clouds 27 1011 78 10000 0.5 20 16:26 10.10.2020
3341 Clouds 27 1010 78 10000 2.1 350 15:44 10.10.2020
3342 Clouds 27 1010 74 10000 3.52 309 15:21 10.10.2020
3343 Clouds 28 1010 74 10000 3.52 309 14:59 10.10.2020
3344 Clouds 28 1010 70 10000 1.5 190 14:40 10.10.2020
3345 Clouds 29 1009 70 10000 2.6 200 13:59 10.10.2020
3346 Clouds 29 1009 66 10000 2.1 190 13:41 10.10.2020
3347 Clouds 29 1009 66 10000 2.1 210 13:21 10.10.2020
3348 Clouds 29 1009 66 10000 2.1 210 12:55 10.10.2020
3349 Clouds 30 1008 58 10000 2.1 260 12:34 10.10.2020
3350 Clouds 29 1007 62 10000 2.1 320 11:51 10.10.2020
3351 Clouds 30 1007 62 10000 2.1 320 11:24 10.10.2020
3352 Clouds 31 1007 58 10000 3.1 330 10:59 10.10.2020
3353 Clouds 31 1007 62 10000 3.1 340 10:40 10.10.2020
3354 Clouds 31 1007 58 10000 4.1 360 10:22 10.10.2020
3355 Clouds 32 1007 52 10000 4.6 350 09:47 10.10.2020
3356 Clouds 32 1007 55 10000 5.1 360 09:19 10.10.2020
3357 Clouds 32 1007 52 10000 5.7 360 08:48 10.10.2020
3358 Clouds 32 1007 52 10000 5.7 360 08:25 10.10.2020
3359 Clouds 32 1008 62 10000 5.1 340 07:40 10.10.2020
3360 Clouds 31 1008 62 10000 6.2 340 06:56 10.10.2020
3361 Clouds 32 1012 58 10000 4.1 120 03:44 10.10.2020
3362 Clouds 30 1012 62 10000 3.1 100 01:54 10.10.2020
3363 Clouds 27 1012 83 10000 2.1 130 00:26 10.10.2020
3364 Clouds 25 1011 94 10000 1.5 120 23:48 09.10.2020
3365 Clouds 25 1011 94 10000 1.5 120 23:29 09.10.2020
3366 Clouds 25 1011 94 10000 0.5 360 22:51 09.10.2020
3367 Clouds 25 1010 94 10000 2.18 100 22:26 09.10.2020
3368 Clear 25 1010 94 10000 2.18 100 21:56 09.10.2020
3369 Clear 25 1010 94 10000 2.18 100 21:36 09.10.2020
3370 Clear 25 1010 88 10000 1 360 21:18 09.10.2020
3371 Clear 25 1010 94 10000 0.5 360 20:42 09.10.2020
3372 Clouds 25 1010 94 10000 2.12 29 20:18 09.10.2020
3373 Clouds 26 1010 88 10000 2.44 29 19:37 09.10.2020
3374 Clouds 26 1010 88 10000 2.44 29 19:37 09.10.2020
3375 Clouds 26 1010 88 10000 1 20 19:19 09.10.2020
3376 Clouds 26 1010 88 10000 1 20 18:57 09.10.2020
3377 Clouds 27 1011 83 10000 1.5 330 18:25 09.10.2020
3378 Clouds 27 1011 83 10000 1.5 330 17:56 09.10.2020
3379 Rain 27 1011 83 10000 2.1 330 17:20 09.10.2020
3380 Rain 28 1011 83 10000 2.1 320 16:48 09.10.2020
3381 Rain 28 1011 83 10000 2.1 320 16:29 09.10.2020
3382 Clouds 28 1011 79 10000 3.6 330 15:47 09.10.2020
3383 Clouds 28 1011 79 10000 3.6 330 15:28 09.10.2020
3384 Clouds 28 1011 74 10000 2.1 340 14:59 09.10.2020
3385 Clouds 28 1011 74 10000 3.1 40 14:35 09.10.2020
3386 Clouds 29 1010 70 10000 3.1 30 13:45 09.10.2020
3387 Clouds 28 1010 70 10000 3.1 30 13:27 09.10.2020
3388 Clouds 29 1009 66 10000 3.1 270 12:42 09.10.2020
3389 Rain 29 1009 62 10000 3.1 270 12:23 09.10.2020
3390 Rain 30 1009 62 10000 3.1 270 11:59 09.10.2020
3391 Rain 30 1008 62 10000 3.6 10 11:41 09.10.2020
3392 Rain 30 1008 58 10000 4.1 340 11:20 09.10.2020
3393 Clouds 31 1007 58 10000 4.1 350 10:45 09.10.2020
3394 Clouds 31 1007 58 10000 4.1 350 10:25 09.10.2020
3395 Clouds 31 1007 58 10000 5.1 360 09:44 09.10.2020
3396 Clouds 31 1007 62 10000 5.1 350 09:21 09.10.2020
3397 Clouds 30 1008 66 10000 3.6 360 08:47 09.10.2020
3398 Rain 30 1008 74 10000 6.2 350 08:20 09.10.2020
3399 Thunderstorm 32 1008 62 10000 6.2 350 07:43 09.10.2020
3400 Rain 30 1009 66 10000 6.2 340 07:19 09.10.2020
3401 Rain 30 1009 66 10000 6.2 340 07:19 09.10.2020
3402 Clouds 30 1009 70 10000 5.7 340 06:38 09.10.2020
3403 Clouds 31 1010 66 10000 5.7 320 06:19 09.10.2020
3404 Clouds 30 1012 66 10000 3.1 50 02:55 09.10.2020
3405 Clouds 27 1012 83 10000 2.1 110 00:56 09.10.2020
3406 Clouds 27 1011 88 10000 2.6 140 00:37 09.10.2020
3407 Clouds 26 1011 88 10000 2.1 150 23:55 08.10.2020
3408 Clouds 25 1011 94 10000 1 120 23:37 08.10.2020
3409 Clouds 25 1011 94 10000 1.5 120 23:18 08.10.2020
3410 Clouds 25 1010 88 10000 1.5 110 22:37 08.10.2020
3411 Clouds 25 1010 88 10000 1 80 22:19 08.10.2020
3412 Clouds 25 1010 94 10000 0.5 80 21:49 08.10.2020
3413 Clouds 25 1010 94 10000 2.1 70 21:23 08.10.2020
3414 Clouds 25 1010 94 10000 2.1 70 20:57 08.10.2020
3415 Clouds 25 1010 94 10000 1.5 20 20:38 08.10.2020
3416 Clouds 25 1010 94 10000 1 10 20:20 08.10.2020
3417 Clouds 26 1010 88 10000 3.67 55 19:41 08.10.2020
3418 Rain 25 1010 88 10000 1 10 19:22 08.10.2020
3419 Clouds 26 1010 78 10000 2.6 10 18:46 08.10.2020
3420 Clouds 27 1011 78 10000 2.1 360 18:21 08.10.2020
3421 Rain 27 1011 78 10000 2.6 360 17:48 08.10.2020
3422 Clouds 27 1011 78 10000 2.1 360 17:19 08.10.2020
3423 Clouds 27 1011 78 10000 3.1 10 16:42 08.10.2020
3424 Clouds 27 1011 78 10000 3.6 10 16:23 08.10.2020
3425 Clouds 27 1011 78 10000 3.6 10 15:59 08.10.2020
3426 Clouds 27 1011 74 10000 3.1 360 15:38 08.10.2020
3427 Clouds 27 1011 74 10000 3.6 10 15:18 08.10.2020
3428 Clouds 28 1010 78 10000 5.1 10 14:39 08.10.2020
3429 Clouds 27 1010 83 10000 3.1 40 14:18 08.10.2020
3430 Clouds 27 1010 74 10000 2.6 50 13:46 08.10.2020
3431 Clouds 28 1009 69 10000 3.6 40 13:22 08.10.2020
3432 Clouds 29 1009 62 10000 3.1 30 12:50 08.10.2020
3433 Clouds 29 1009 62 10000 3.1 30 12:32 08.10.2020
3434 Clouds 29 1009 62 10000 2.1 30 11:54 08.10.2020
3435 Clouds 29 1009 58 10000 2.6 40 11:35 08.10.2020
3436 Clouds 30 1009 58 10000 3.1 30 10:58 08.10.2020
3437 Clouds 30 1008 55 10000 3.6 30 10:40 08.10.2020
3438 Clouds 31 1008 55 10000 4.6 30 10:21 08.10.2020
3439 Clouds 31 1008 55 10000 4.1 30 09:48 08.10.2020
3440 Clouds 31 1008 55 10000 4.1 30 09:30 08.10.2020
3441 Clouds 31 1008 55 10000 4.1 30 09:30 08.10.2020
3442 Clouds 31 1008 55 10000 4.1 30 09:30 08.10.2020
3443 Clouds 31 1008 52 10000 4.6 30 08:44 08.10.2020
3444 Clouds 31 1008 52 10000 4.6 40 08:22 08.10.2020
3445 Clouds 31 1008 52 10000 4.6 40 07:52 08.10.2020
3446 Clouds 31 1008 55 10000 4.1 20 07:29 08.10.2020
3447 Clouds 31 1008 62 10000 5.1 330 06:53 08.10.2020
3448 Clouds 31 1011 70 10000 5.1 330 05:20 08.10.2020
3449 Clouds 27 1012 94 10000 2.6 110 02:59 08.10.2020
3450 Clouds 25 1013 88 10000 1.5 140 02:26 08.10.2020
3451 Rain 24 1012 100 8000 1 250 00:27 08.10.2020
3452 Rain 24 1011 100 3500 0.5 360 23:37 07.10.2020
3453 Thunderstorm 24 1011 100 8000 3.1 360 23:19 07.10.2020
3454 Rain 24 1010 100 500 3.6 60 22:44 07.10.2020
3455 Rain 24 1010 100 500 3.6 60 22:25 07.10.2020
3456 Rain 24 1010 100 500 3.6 60 22:25 07.10.2020
3457 Rain 25 1010 94 6000 3.6 320 21:50 07.10.2020
3458 Rain 25 1009 94 10000 0.5 150 21:25 07.10.2020
3459 Rain 25 1009 94 10000 1 170 20:47 07.10.2020
3460 Rain 24 1009 94 10000 1 170 20:27 07.10.2020
3461 Rain 24 1010 100 4200 3.06 35 19:57 07.10.2020
3462 Rain 24 1010 100 800 2.1 150 19:38 07.10.2020
3463 Rain 24 1010 100 6000 1.5 70 19:18 07.10.2020
3464 Rain 24 1010 94 10000 2.1 70 18:41 07.10.2020
3465 Rain 24 1010 94 6000 2.1 40 18:20 07.10.2020
3466 Clouds 25 1011 88 10000 3.1 50 17:51 07.10.2020
3467 Clouds 25 1011 88 10000 3.1 50 17:32 07.10.2020
3468 Rain 26 1011 94 10000 2.6 350 16:52 07.10.2020
3469 Rain 26 1011 88 10000 2.1 340 16:24 07.10.2020
3470 Rain 25 1011 88 10000 1.5 260 15:59 07.10.2020
3471 Rain 26 1011 88 10000 2.1 220 15:39 07.10.2020
3472 Thunderstorm 26 1011 88 10000 2.6 240 15:19 07.10.2020
3473 Rain 26 1010 94 10000 2.6 210 14:43 07.10.2020
3474 Rain 26 1010 94 10000 2.6 210 14:24 07.10.2020
3475 Rain 26 1010 88 10000 2.6 190 13:51 07.10.2020
3476 Rain 26 1010 88 10000 2.6 180 13:26 07.10.2020
3477 Rain 27 1010 83 10000 1.5 190 12:51 07.10.2020
3478 Rain 28 1009 78 10000 1.5 230 12:25 07.10.2020
3479 Rain 27 1009 78 10000 1.5 230 11:56 07.10.2020
3480 Clouds 28 1009 78 10000 1.5 250 11:37 07.10.2020
3481 Clouds 28 1008 78 10000 1.5 290 11:18 07.10.2020
3482 Clouds 28 1008 83 10000 2.6 280 10:34 07.10.2020
3483 Rain 28 1007 88 10000 0.5 290 09:49 07.10.2020
3484 Rain 28 1008 83 10000 1.5 300 09:23 07.10.2020
3485 Rain 25 1008 94 2000 3.1 300 08:48 07.10.2020
3486 Rain 25 1008 94 2000 3.1 300 08:24 07.10.2020
3487 Thunderstorm 24 1009 100 1000 4.6 20 07:31 07.10.2020
3488 Rain 31 1009 55 10000 4.6 320 06:22 07.10.2020
3489 Rain 31 1009 55 10000 4.1 330 05:37 07.10.2020
3490 Clouds 30 1011 62 10000 3.6 90 02:59 07.10.2020
3491 Clouds 28 1011 74 10000 4.1 60 01:37 07.10.2020
3492 Clouds 26 1011 83 10000 3.1 50 00:30 07.10.2020
3493 Clouds 25 1010 88 10000 3.1 50 23:51 06.10.2020
3494 Clouds 25 1010 88 10000 2.6 70 23:21 06.10.2020
3495 Rain 25 1010 88 10000 3.1 60 22:41 06.10.2020
3496 Clouds 25 1009 88 10000 2.6 70 22:22 06.10.2020
3497 Clouds 25 1009 88 10000 2.6 70 22:22 06.10.2020
3498 Clouds 25 1009 88 10000 3.1 90 21:46 06.10.2020
3499 Clouds 25 1009 88 10000 3.1 90 21:26 06.10.2020
3500 Clouds 25 1009 88 10000 3.1 80 20:47 06.10.2020
3501 Clouds 25 1009 88 10000 3.1 80 20:47 06.10.2020
3502 Clouds 25 1009 88 10000 3.1 80 20:26 06.10.2020
3503 Clouds 25 1009 88 10000 4.1 80 19:56 06.10.2020
3504 Clouds 25 1009 88 10000 4.6 70 19:27 06.10.2020
3505 Clouds 25 1010 88 10000 3.6 70 18:59 06.10.2020
3506 Clouds 25 1009 88 10000 3.6 80 18:40 06.10.2020
3507 Clouds 26 1010 83 10000 3.1 80 18:21 06.10.2020
3508 Clouds 26 1010 78 10000 2.6 100 17:42 06.10.2020
3509 Clouds 26 1010 78 10000 1.5 130 17:21 06.10.2020
3510 Clouds 26 1010 83 10000 0.5 130 16:44 06.10.2020
3511 Clouds 26 1010 83 10000 2.6 140 16:21 06.10.2020
3512 Clouds 26 1010 83 10000 2.6 140 16:21 06.10.2020
3513 Clouds 26 1010 83 10000 2.6 140 16:21 06.10.2020
3514 Clouds 26 1011 83 10000 2.6 180 15:49 06.10.2020
3515 Clouds 26 1011 83 10000 2.6 180 15:29 06.10.2020
3516 Clouds 26 1011 83 10000 3.1 170 14:56 06.10.2020
3517 Clouds 26 1011 83 10000 3.6 170 14:38 06.10.2020
3518 Clouds 25 1011 88 10000 4.6 180 14:18 06.10.2020
3519 Clouds 26 1011 83 10000 5.1 190 13:41 06.10.2020
3520 Clouds 26 1010 83 10000 6.2 180 13:19 06.10.2020
3521 Clouds 28 1010 74 10000 3.6 250 12:47 06.10.2020
3522 Clouds 28 1010 74 10000 3.6 250 12:47 06.10.2020
3523 Clouds 28 1010 74 10000 3.6 250 12:27 06.10.2020
3524 Clouds 29 1009 66 10000 4.6 290 11:43 06.10.2020
3525 Clouds 29 1009 66 10000 4.6 290 11:25 06.10.2020
3526 Clouds 31 1008 59 10000 6.2 290 10:45 06.10.2020
3527 Clouds 32 1008 59 10000 6.2 290 10:26 06.10.2020
3528 Clouds 33 1007 38 10000 3.6 20 09:48 06.10.2020
3529 Clouds 33 1007 41 10000 4.1 30 09:20 06.10.2020
3530 Clouds 33 1007 43 10000 5.1 30 08:48 06.10.2020
3531 Clouds 33 1007 43 10000 5.1 30 08:29 06.10.2020
3532 Clouds 33 1007 59 10000 5.7 360 07:39 06.10.2020
3533 Clouds 33 1008 59 10000 5.7 10 07:21 06.10.2020
3534 Clouds 32 1009 58 10000 3.6 360 05:56 06.10.2020
3535 Rain 27 1011 83 10000 2.6 330 02:36 06.10.2020
3536 Rain 27 1010 83 10000 1 70 00:46 06.10.2020
3537 Rain 26 1010 83 10000 1 70 00:25 06.10.2020
3538 Rain 26 1010 88 10000 2.1 360 23:58 05.10.2020
3539 Rain 26 1010 88 10000 1 30 23:31 05.10.2020
3540 Rain 25 1009 94 10000 1.5 360 22:58 05.10.2020
3541 Rain 25 1009 88 10000 1.5 10 22:25 05.10.2020
3542 Clouds 26 1009 94 10000 2.1 10 21:49 05.10.2020
3543 Clouds 26 1009 94 10000 2.1 10 21:29 05.10.2020
3544 Clouds 26 1009 94 10000 2.1 360 20:49 05.10.2020
3545 Clouds 26 1009 94 10000 2.1 360 20:30 05.10.2020
3546 Rain 26 1009 94 10000 1.5 360 19:56 05.10.2020
3547 Rain 26 1009 94 10000 1.5 330 19:37 05.10.2020
3548 Rain 26 1009 94 10000 1 310 19:19 05.10.2020
3549 Rain 25 1009 88 10000 1 270 18:42 05.10.2020
3550 Rain 26 1010 94 6000 2.1 270 18:20 05.10.2020
3551 Rain 26 1010 94 10000 2.1 310 17:42 05.10.2020
3552 Rain 26 1010 88 10000 5.1 10 17:23 05.10.2020
3553 Rain 27 1010 78 10000 4.6 310 16:47 05.10.2020
3554 Clouds 27 1010 78 10000 4.6 310 16:29 05.10.2020
3555 Clouds 28 1010 74 10000 5.1 310 15:49 05.10.2020
3556 Clouds 28 1010 74 10000 5.1 310 15:25 05.10.2020
3557 Clouds 28 1010 74 10000 4.1 300 14:57 05.10.2020
3558 Clouds 28 1009 74 10000 4.6 310 14:37 05.10.2020
3559 Clouds 28 1009 78 10000 5.7 320 14:19 05.10.2020
3560 Clouds 28 1009 78 10000 5.7 310 13:43 05.10.2020
3561 Clouds 28 1008 74 10000 6.7 320 13:21 05.10.2020
3562 Clouds 28 1008 83 10000 4.1 340 12:45 05.10.2020
3563 Clouds 28 1008 83 10000 4.1 340 12:24 05.10.2020
3564 Clouds 29 1007 74 10000 4.6 350 11:55 05.10.2020
3565 Clouds 29 1007 62 10000 4.1 360 11:32 05.10.2020
3566 Clouds 30 1007 62 10000 5.7 10 10:57 05.10.2020
3567 Clouds 31 1006 58 10000 5.7 360 10:37 05.10.2020
3568 Rain 31 1006 52 10000 5.7 360 10:19 05.10.2020
3569 Clouds 32 1006 52 10000 5.7 360 09:50 05.10.2020
3570 Clouds 33 1006 55 10000 6.2 340 09:18 05.10.2020
3571 Clouds 33 1007 55 10000 5.7 360 08:38 05.10.2020
3572 Clouds 32 1007 62 10000 4.6 350 08:20 05.10.2020
3573 Rain 32 1007 66 10000 5.1 340 07:26 05.10.2020
3574 Rain 29 1009 83 10000 3.1 280 05:26 05.10.2020
3575 Rain 29 1011 69 10000 1.5 20 02:23 05.10.2020
3576 Clouds 28 1010 78 10000 1.5 360 00:35 05.10.2020
3577 Clouds 27 1010 78 10000 1.5 360 23:43 04.10.2020
3578 Clouds 26 1009 83 10000 1.5 350 23:19 04.10.2020
3579 Clouds 26 1009 78 10000 1.5 360 22:42 04.10.2020
3580 Clouds 26 1009 83 10000 1 10 22:20 04.10.2020
3581 Clouds 26 1009 83 10000 1 340 21:47 04.10.2020
3582 Clear 26 1008 78 10000 2.1 340 21:21 04.10.2020
3583 Clear 26 1008 78 10000 2.1 340 20:57 04.10.2020
3584 Clear 26 1008 78 10000 2.6 360 20:38 04.10.2020
3585 Clear 26 1009 83 10000 2.6 360 20:19 04.10.2020
3586 Clear 26 1009 74 10000 3.1 10 19:47 04.10.2020
3587 Clear 26 1009 74 10000 3.1 10 19:29 04.10.2020
3588 Clear 27 1010 78 10000 3.1 360 18:48 04.10.2020
3589 Clear 27 1010 74 10000 3.1 360 18:24 04.10.2020
3590 Clouds 27 1010 74 10000 3.6 340 17:44 04.10.2020
3591 Clouds 27 1010 69 10000 3.1 340 17:25 04.10.2020
3592 Clouds 27 1010 69 10000 3.1 340 16:58 04.10.2020
3593 Clouds 27 1011 74 10000 3.6 320 16:39 04.10.2020
3594 Clouds 27 1011 69 10000 4.6 320 16:19 04.10.2020
3595 Clouds 27 1011 69 10000 4.6 310 15:48 04.10.2020
3596 Clouds 27 1011 69 10000 4.6 310 15:48 04.10.2020
3597 Clouds 28 1011 74 10000 5.1 290 15:19 04.10.2020
3598 Clouds 28 1011 74 10000 5.1 290 14:52 04.10.2020
3599 Clouds 28 1011 74 10000 5.7 300 14:29 04.10.2020
3600 Clouds 28 1010 66 10000 6.2 300 13:59 04.10.2020
3601 Clouds 28 1010 70 10000 6.7 310 13:40 04.10.2020
3602 Clouds 29 1009 62 10000 7.2 300 13:20 04.10.2020
3603 Clouds 29 1009 62 10000 7.2 300 13:20 04.10.2020
3604 Clouds 29 1009 55 10000 3.1 10 12:41 04.10.2020
3605 Clouds 29 1009 55 10000 4.1 20 12:23 04.10.2020
3606 Clouds 30 1008 48 10000 4.6 20 11:42 04.10.2020
3607 Clouds 30 1008 48 10000 4.6 20 11:24 04.10.2020
3608 Clouds 31 1008 48 10000 2.6 300 10:51 04.10.2020
3609 Clouds 31 1007 43 10000 4.6 10 10:33 04.10.2020
3610 Clouds 32 1007 43 10000 5.7 350 09:49 04.10.2020
3611 Clouds 32 1007 43 10000 5.7 350 09:26 04.10.2020
3612 Clouds 33 1007 46 10000 5.7 350 08:58 04.10.2020
3613 Clouds 33 1008 49 10000 5.1 360 08:36 04.10.2020
3614 Clouds 32 1008 49 10000 5.7 330 08:18 04.10.2020
3615 Clouds 31 1009 55 10000 5.7 330 07:42 04.10.2020
3616 Clouds 34 1009 55 10000 5.7 320 07:21 04.10.2020
3617 Clouds 34 1009 55 10000 5.7 320 07:21 04.10.2020
3618 Clouds 33 1010 52 10000 5.1 350 06:40 04.10.2020
3619 Clouds 32 1010 58 10000 5.7 340 06:22 04.10.2020
3620 Clouds 30 1013 58 10000 7.2 350 02:53 04.10.2020
3621 Clouds 28 1013 65 10000 2.6 70 01:29 04.10.2020
3622 Clouds 27 1012 78 10000 2.6 100 00:49 04.10.2020
3623 Clouds 25 1012 83 10000 2.1 130 23:41 03.10.2020
3624 Clouds 25 1012 83 10000 2.1 130 23:22 03.10.2020
3625 Clouds 25 1011 83 10000 2.1 80 22:41 03.10.2020
3626 Clouds 25 1011 83 10000 2.1 80 22:41 03.10.2020
3627 Clouds 25 1011 83 10000 3.1 80 22:21 03.10.2020
3628 Clouds 25 1011 83 10000 1.5 70 21:49 03.10.2020
3629 Clouds 25 1011 83 10000 1.5 70 21:28 03.10.2020
3630 Clouds 24 1011 88 10000 1 80 20:58 03.10.2020
3631 Clouds 25 1011 83 10000 2.54 99 20:38 03.10.2020
3632 Clouds 25 1011 83 10000 2.27 86 20:19 03.10.2020
3633 Clouds 25 1011 83 10000 2.24 67 19:39 03.10.2020
3634 Rain 25 1011 78 10000 1.5 20 19:20 03.10.2020
3635 Rain 26 1011 78 10000 1.5 360 18:49 03.10.2020
3636 Rain 26 1011 74 10000 1.5 360 18:25 03.10.2020
3637 Rain 27 1011 69 10000 2.1 360 17:50 03.10.2020
3638 Clouds 27 1011 69 10000 2.1 360 17:30 03.10.2020
3639 Clouds 27 1011 69 10000 1.5 350 16:59 03.10.2020
3640 Clouds 28 1011 65 10000 2.1 350 16:40 03.10.2020
3641 Clouds 28 1011 65 10000 2.1 350 16:40 03.10.2020
3642 Clouds 27 1011 65 10000 3.1 350 16:22 03.10.2020
3643 Clouds 28 1011 62 10000 3.6 320 15:45 03.10.2020
3644 Clouds 28 1011 62 10000 2.6 330 15:20 03.10.2020
3645 Clouds 28 1011 62 10000 2.6 330 14:57 03.10.2020
3646 Clouds 28 1011 58 10000 1.5 350 14:38 03.10.2020
3647 Clouds 28 1011 58 10000 2.6 20 14:19 03.10.2020
3648 Clouds 28 1010 54 10000 3.1 30 13:42 03.10.2020
3649 Clouds 28 1010 54 10000 2.6 20 13:23 03.10.2020
3650 Clouds 29 1009 54 10000 3.6 20 12:49 03.10.2020
3651 Clouds 29 1009 51 10000 5.1 30 12:22 03.10.2020
3652 Clouds 29 1009 51 10000 5.1 30 11:52 03.10.2020
3653 Clouds 29 1009 48 10000 5.1 20 11:23 03.10.2020
3654 Clouds 30 1008 48 10000 6.7 10 10:59 03.10.2020
3655 Clouds 30 1008 43 10000 6.2 10 10:39 03.10.2020
3656 Rain 31 1008 48 10000 7.2 10 10:20 03.10.2020
3657 Clouds 31 1008 38 10000 7.2 10 09:43 03.10.2020
3658 Clouds 31 1008 43 10000 7.2 10 09:20 03.10.2020
3659 Clouds 32 1008 43 10000 7.7 20 08:45 03.10.2020
3660 Clouds 32 1008 43 10000 7.7 20 08:27 03.10.2020
3661 Clouds 33 1009 36 10000 6.7 30 07:44 03.10.2020
3662 Clouds 33 1010 36 10000 7.2 350 07:22 03.10.2020
3663 Clouds 33 1010 33 10000 5.7 90 06:24 03.10.2020
3664 Clouds 32 1011 36 10000 5.1 60 05:41 03.10.2020
3665 Clouds 31 1013 38 10000 7.7 110 03:48 03.10.2020
3666 Clouds 31 1013 38 10000 7.7 110 03:23 03.10.2020
3667 Clouds 27 1012 78 10000 2.6 110 00:38 03.10.2020
3668 Clouds 25 1012 94 10000 6.2 90 00:19 03.10.2020
3669 Clouds 24 1011 94 10000 1.5 120 23:42 02.10.2020
3670 Clouds 24 1011 94 10000 1 110 23:21 02.10.2020
3671 Clouds 24 1011 94 10000 4.28 88 22:48 02.10.2020
3672 Clouds 23 1011 94 10000 4.15 79 22:26 02.10.2020
3673 Clouds 24 1010 88 10000 4.15 79 21:51 02.10.2020
3674 Clouds 24 1010 88 10000 3.74 80 21:29 02.10.2020
3675 Clouds 24 1010 88 10000 3.74 80 20:56 02.10.2020
3676 Clouds 25 1011 83 10000 1 110 20:33 02.10.2020
3677 Clouds 26 1011 83 10000 1.5 110 19:56 02.10.2020
3678 Clouds 26 1011 83 10000 1.5 90 19:38 02.10.2020
3679 Clouds 26 1011 83 10000 1 60 19:18 02.10.2020
3680 Clouds 26 1011 78 10000 2.1 60 18:43 02.10.2020
3681 Clouds 26 1012 78 10000 1.5 40 18:23 02.10.2020
3682 Clouds 27 1012 78 10000 3.6 50 17:51 02.10.2020
3683 Clouds 27 1012 78 10000 3.6 50 17:32 02.10.2020
3684 Rain 28 1012 69 10000 3.6 40 16:56 02.10.2020
3685 Rain 28 1012 74 10000 4.1 30 16:30 02.10.2020
3686 Clouds 28 1012 74 10000 4.1 20 15:53 02.10.2020
3687 Clouds 28 1011 69 10000 2.6 10 15:33 02.10.2020
3688 Clear 29 1011 62 10000 0.5 60 14:47 02.10.2020
3689 Clouds 28 1011 62 10000 0.5 60 14:27 02.10.2020
3690 Clouds 29 1010 62 10000 2.1 190 13:57 02.10.2020
3691 Clouds 29 1009 62 10000 5.1 40 13:38 02.10.2020
3692 Clouds 29 1009 55 10000 5.1 30 13:18 02.10.2020
3693 Clouds 30 1009 51 10000 5.7 40 12:41 02.10.2020
3694 Clouds 30 1008 48 10000 6.2 40 12:21 02.10.2020
3695 Clouds 30 1008 45 10000 5.7 30 11:46 02.10.2020
3696 Clouds 30 1008 45 10000 5.7 30 11:23 02.10.2020
3697 Clouds 31 1008 43 10000 6.7 30 10:47 02.10.2020
3698 Clouds 32 1008 43 10000 6.7 30 10:27 02.10.2020
3699 Clouds 32 1008 43 10000 7.7 30 09:46 02.10.2020
3700 Clouds 32 1008 43 10000 7.7 30 09:26 02.10.2020
3701 Clouds 33 1008 38 10000 7.7 20 08:49 02.10.2020
3702 Clouds 34 1008 38 10000 7.7 20 08:29 02.10.2020
3703 Clouds 34 1008 38 10000 7.7 20 07:51 02.10.2020
3704 Clouds 34 1009 38 10000 6.2 10 07:20 02.10.2020
3705 Clouds 33 1011 38 10000 7.2 20 05:40 02.10.2020
3706 Clouds 30 1013 58 10000 2.6 80 02:25 02.10.2020
3707 Clouds 27 1012 78 10000 2.1 130 00:56 02.10.2020
3708 Clouds 26 1012 88 10000 1.5 140 00:22 02.10.2020
3709 Clouds 25 1012 88 10000 1.5 140 23:57 01.10.2020
3710 Clouds 25 1011 88 10000 1 90 23:38 01.10.2020
3711 Clouds 25 1011 88 10000 1 90 23:38 01.10.2020
3712 Clouds 24 1011 94 10000 2.61 118 23:20 01.10.2020
3713 Clouds 24 1011 94 10000 0.5 90 22:40 01.10.2020
3714 Clear 25 1011 88 10000 0.5 90 22:20 01.10.2020
3715 Clear 25 1011 88 10000 2.56 105 21:44 01.10.2020
3716 Clear 25 1011 83 10000 1 90 21:21 01.10.2020
3717 Clear 26 1011 83 10000 1 90 20:57 01.10.2020
3718 Clouds 25 1011 83 10000 1.5 90 20:37 01.10.2020
3719 Clouds 25 1011 83 10000 1.5 90 20:18 01.10.2020
3720 Clouds 25 1012 83 10000 1 90 19:42 01.10.2020
3721 Clouds 25 1012 78 10000 1.5 80 19:22 01.10.2020
3722 Clouds 26 1012 83 10000 2.1 50 18:41 01.10.2020
3723 Rain 26 1012 78 10000 2.1 60 18:21 01.10.2020
3724 Clouds 27 1012 78 10000 2.6 80 17:41 01.10.2020
3725 Clouds 27 1012 78 10000 2.6 80 17:23 01.10.2020
3726 Clouds 28 1013 78 10000 1 290 16:44 01.10.2020
3727 Clouds 28 1012 74 10000 2.6 300 16:20 01.10.2020
3728 Clouds 28 1012 74 10000 2.6 300 15:53 01.10.2020
3729 Clouds 28 1012 74 10000 4.1 320 15:22 01.10.2020
3730 Clouds 29 1011 74 10000 5.1 300 14:46 01.10.2020
3731 Clouds 29 1011 74 10000 5.1 300 14:27 01.10.2020
3732 Clouds 29 1010 66 10000 3.6 20 13:42 01.10.2020
3733 Clouds 29 1010 62 10000 3.6 40 12:58 01.10.2020
3734 Clouds 29 1010 58 10000 4.6 30 12:39 01.10.2020
3735 Clouds 29 1009 58 10000 5.1 40 12:19 01.10.2020
3736 Clouds 30 1009 58 10000 5.1 30 11:37 01.10.2020
3737 Clouds 30 1009 52 10000 5.1 30 11:18 01.10.2020
3738 Clouds 30 1008 52 10000 5.7 10 10:44 01.10.2020
3739 Clouds 31 1008 52 10000 5.7 10 10:22 01.10.2020
3740 Clouds 32 1008 43 10000 6.2 20 09:45 01.10.2020
3741 Clouds 32 1009 43 10000 5.7 20 09:26 01.10.2020
3742 Clouds 32 1009 43 10000 5.7 20 08:53 01.10.2020
3743 Clouds 32 1009 46 10000 6.2 30 08:33 01.10.2020
3744 Clouds 31 1009 58 10000 6.2 350 07:56 01.10.2020
3745 Clouds 32 1010 55 10000 5.7 340 07:26 01.10.2020
3746 Clouds 32 1011 59 10000 5.1 340 06:34 01.10.2020
3747 Clouds 31 1013 58 10000 3.1 110 03:38 01.10.2020
3748 Clouds 26 1012 88 10000 2.6 70 00:33 01.10.2020
3749 Clouds 25 1011 88 10000 1.5 90 23:39 30.09.2020
3750 Clouds 24 1010 94 10000 1.5 80 22:46 30.09.2020
3751 Rain 24 1010 94 10000 1.5 80 22:25 30.09.2020
3752 Rain 25 1010 94 10000 1.5 90 21:56 30.09.2020
3753 Rain 25 1010 94 10000 1.5 70 21:36 30.09.2020
3754 Clouds 25 1010 100 10000 1 110 21:18 30.09.2020
3755 Rain 25 1010 94 10000 2.1 100 20:41 30.09.2020
3756 Rain 25 1010 94 10000 2.1 100 20:41 30.09.2020
3757 Rain 25 1010 88 8000 2.6 90 20:23 30.09.2020
3758 Rain 26 1010 88 5000 2.6 70 19:41 30.09.2020
3759 Clouds 27 1011 78 10000 0.5 70 19:20 30.09.2020
3760 Clouds 27 1011 78 10000 0.5 70 18:51 30.09.2020
3761 Clouds 27 1011 74 10000 2.1 30 18:23 30.09.2020
3762 Clouds 28 1011 74 10000 2.1 240 17:49 30.09.2020
3763 Clouds 28 1011 74 10000 2.1 240 17:26 30.09.2020
3764 Rain 28 1011 74 10000 2.6 250 16:54 30.09.2020
3765 Rain 28 1011 74 10000 3.1 280 16:29 30.09.2020
3766 Clouds 28 1011 78 10000 4.1 290 15:59 30.09.2020
3767 Clouds 28 1011 74 10000 4.6 290 15:40 30.09.2020
3768 Clouds 29 1011 74 10000 4.6 290 15:18 30.09.2020
3769 Clouds 28 1010 70 10000 5.1 290 14:40 30.09.2020
3770 Clouds 29 1010 66 10000 3.6 320 14:19 30.09.2020
3771 Clouds 29 1010 62 10000 3.1 360 13:44 30.09.2020
3772 Clouds 29 1010 62 10000 3.1 360 13:24 30.09.2020
3773 Clouds 29 1009 55 10000 2.1 40 12:42 30.09.2020
3774 Clouds 29 1009 55 10000 2.1 40 12:24 30.09.2020
3775 Clouds 30 1008 48 10000 4.1 30 11:45 30.09.2020
3776 Clouds 30 1008 45 10000 4.6 20 11:23 30.09.2020
3777 Clouds 31 1008 45 10000 4.6 20 10:51 30.09.2020
3778 Clouds 31 1007 43 10000 5.7 30 10:33 30.09.2020
3779 Clouds 32 1007 46 10000 6.2 30 09:54 30.09.2020
3780 Clouds 32 1007 43 10000 6.7 40 09:30 30.09.2020
3781 Clouds 33 1007 43 10000 7.2 20 08:56 30.09.2020
3782 Clouds 32 1008 49 10000 7.2 20 08:37 30.09.2020
3783 Clouds 32 1008 46 10000 7.7 20 07:44 30.09.2020
3784 Clouds 32 1009 49 10000 7.7 360 07:21 30.09.2020
3785 Clouds 32 1009 52 10000 6.7 10 06:32 30.09.2020
3786 Clouds 33 1010 49 10000 5.1 20 05:40 30.09.2020
3787 Clouds 31 1012 58 10000 4.6 70 03:38 30.09.2020
3788 Clouds 30 1012 66 10000 5.1 60 02:42 30.09.2020
3789 Clouds 27 1011 78 10000 2.1 60 00:28 30.09.2020
3790 Clouds 26 1011 83 10000 2.1 70 23:52 29.09.2020
3791 Clouds 26 1010 83 10000 2.1 60 23:32 29.09.2020
3792 Clouds 26 1010 88 10000 2.1 60 22:52 29.09.2020
3793 Clouds 26 1010 88 10000 3.1 60 22:28 29.09.2020
3794 Clouds 26 1010 88 10000 2.6 40 21:59 29.09.2020
3795 Clouds 26 1010 88 10000 2.6 50 21:39 29.09.2020
3796 Clouds 26 1010 88 10000 2.6 40 21:21 29.09.2020
3797 Clouds 26 1009 83 10000 2.6 50 20:44 29.09.2020
3798 Rain 26 1009 83 10000 2.6 50 20:24 29.09.2020
3799 Rain 26 1009 83 10000 2.6 50 20:24 29.09.2020
3800 Clouds 26 1010 88 10000 3.6 70 19:56 29.09.2020
3801 Clear 26 1010 88 10000 2.6 70 19:35 29.09.2020
3802 Clear 26 1010 88 10000 2.1 50 18:55 29.09.2020
3803 Clear 26 1010 88 10000 1 70 18:37 29.09.2020
3804 Clear 26 1010 88 10000 1.27 126 18:18 29.09.2020
3805 Clear 27 1011 88 10000 1 220 17:25 29.09.2020
3806 Clear 27 1011 78 10000 1 240 16:59 29.09.2020
3807 Clouds 27 1011 78 10000 1.5 220 16:40 29.09.2020
3808 Clouds 27 1011 78 10000 2.6 210 16:22 29.09.2020
3809 Clouds 28 1011 78 10000 2.1 210 15:46 29.09.2020
3810 Clouds 28 1011 78 10000 2.1 210 15:27 29.09.2020
3811 Clouds 28 1010 70 10000 2.6 220 14:42 29.09.2020
3812 Clouds 28 1010 70 10000 2.1 240 14:20 29.09.2020
3813 Clouds 29 1010 70 10000 2.1 240 13:54 29.09.2020
3814 Clouds 29 1010 66 10000 3.6 250 13:26 29.09.2020
3815 Clouds 29 1010 66 10000 3.6 250 12:52 29.09.2020
3816 Clouds 29 1009 58 10000 3.1 270 12:33 29.09.2020
3817 Clouds 30 1009 55 10000 2.1 320 11:58 29.09.2020
3818 Clouds 30 1009 48 10000 0.81 338 11:32 29.09.2020
3819 Clouds 31 1008 46 10000 2.79 14 10:53 29.09.2020
3820 Clouds 32 1008 43 10000 4.48 7 10:29 29.09.2020
3821 Clouds 32 1008 38 10000 4.48 7 09:45 29.09.2020
3822 Clouds 33 1008 38 10000 4.94 2 09:27 29.09.2020
3823 Clouds 33 1008 52 10000 5.1 30 08:53 29.09.2020
3824 Clouds 33 1008 49 10000 4.6 340 08:30 29.09.2020
3825 Clouds 33 1008 49 10000 5.1 350 07:53 29.09.2020
3826 Clouds 33 1009 52 10000 5.1 310 07:33 29.09.2020
3827 Clouds 32 1011 62 10000 4.6 300 05:49 29.09.2020
3828 Clouds 32 1012 62 10000 4.6 270 04:52 29.09.2020
3829 Clouds 30 1013 74 10000 2.1 30 02:22 29.09.2020
3830 Clouds 29 1013 74 10000 1.5 360 01:43 29.09.2020
3831 Clouds 25 1011 94 10000 0.5 60 23:45 28.09.2020
3832 Clouds 25 1011 94 10000 0.5 60 23:26 28.09.2020
3833 Clouds 25 1011 94 10000 0.5 320 22:41 28.09.2020
3834 Clouds 26 1011 88 10000 1 320 22:21 28.09.2020
3835 Clouds 26 1011 88 10000 1 320 21:56 28.09.2020
3836 Clouds 26 1010 88 10000 0.5 330 21:38 28.09.2020
3837 Clouds 26 1010 88 10000 0.5 330 21:19 28.09.2020
3838 Clouds 26 1011 88 10000 2.38 9 20:42 28.09.2020
3839 Clouds 26 1011 88 10000 2.58 20 20:21 28.09.2020
3840 Clouds 26 1011 88 10000 3.26 11 19:59 28.09.2020
3841 Rain 26 1011 88 10000 3.26 11 19:36 28.09.2020
3842 Rain 26 1011 88 10000 2.45 338 19:18 28.09.2020
3843 Clouds 27 1012 78 10000 2.45 338 18:43 28.09.2020
3844 Clouds 27 1012 78 10000 3.31 305 18:25 28.09.2020
3845 Clouds 27 1012 74 10000 3.31 305 17:46 28.09.2020
3846 Clouds 27 1012 74 10000 3.02 311 17:27 28.09.2020
3847 Clouds 28 1012 74 10000 3.02 311 16:52 28.09.2020
3848 Clouds 28 1012 66 10000 3.6 330 16:28 28.09.2020
3849 Clouds 28 1012 70 10000 3.6 310 15:59 28.09.2020
3850 Clouds 28 1012 74 10000 3.6 300 15:36 28.09.2020
3851 Clouds 28 1012 74 10000 4.1 300 15:18 28.09.2020
3852 Clouds 28 1012 74 10000 4.1 300 14:37 28.09.2020
3853 Clouds 28 1011 70 10000 2.6 300 14:18 28.09.2020
3854 Clouds 29 1011 66 10000 3.6 290 13:44 28.09.2020
3855 Clouds 29 1011 66 10000 3.6 290 13:23 28.09.2020
3856 Clouds 29 1010 62 10000 2.6 350 12:42 28.09.2020
3857 Clouds 29 1010 62 10000 2.6 350 12:24 28.09.2020
3858 Clouds 30 1010 58 10000 3.6 360 11:42 28.09.2020
3859 Clouds 30 1009 55 10000 3.6 360 11:22 28.09.2020
3860 Clouds 30 1009 52 10000 4.6 360 10:45 28.09.2020
3861 Clouds 30 1009 52 10000 4.6 360 10:45 28.09.2020
3862 Clouds 31 1009 52 10000 4.6 360 10:27 28.09.2020
3863 Clouds 31 1009 55 10000 6.2 10 09:52 28.09.2020
3864 Clouds 32 1009 46 10000 5.1 350 09:26 28.09.2020
3865 Rain 32 1010 52 10000 4.6 340 08:49 28.09.2020
3866 Rain 32 1010 62 10000 5.7 350 08:23 28.09.2020
3867 Clouds 32 1010 66 10000 5.7 330 07:44 28.09.2020
3868 Clouds 32 1011 66 10000 5.1 340 06:54 28.09.2020
3869 Clouds 31 1012 62 10000 4.1 340 05:32 28.09.2020
3870 Clouds 31 1013 59 10000 5.1 340 03:28 28.09.2020
3871 Clouds 27 1012 83 10000 1.83 78 00:46 28.09.2020
3872 Clouds 25 1012 94 10000 1.3 53 00:18 28.09.2020
3873 Clouds 25 1012 94 10000 0.5 60 23:41 27.09.2020
3874 Clouds 24 1011 94 10000 1.71 8 23:18 27.09.2020
3875 Clouds 25 1011 94 10000 0.5 60 22:43 27.09.2020
3876 Clouds 25 1011 94 10000 0.5 60 22:23 27.09.2020
3877 Clouds 25 1011 88 10000 1 60 21:43 27.09.2020
3878 Clouds 26 1011 88 10000 1.5 30 21:24 27.09.2020
3879 Clouds 25 1011 83 10000 1.5 30 20:45 27.09.2020
3880 Clouds 26 1011 83 10000 2.1 50 20:25 27.09.2020
3881 Clouds 26 1011 78 10000 2.6 50 19:49 27.09.2020
3882 Rain 26 1012 83 10000 2.1 40 19:19 27.09.2020
3883 Rain 26 1012 83 10000 2.1 60 18:47 27.09.2020
3884 Rain 26 1012 83 10000 2.1 60 18:26 27.09.2020
3885 Rain 26 1012 83 10000 2.6 40 17:59 27.09.2020
3886 Rain 26 1013 83 10000 2.1 50 17:40 27.09.2020
3887 Clouds 26 1013 83 10000 2.6 50 17:21 27.09.2020
3888 Clouds 26 1013 83 10000 0.5 100 16:45 27.09.2020
3889 Clouds 26 1013 83 10000 0.5 100 16:26 27.09.2020
3890 Clouds 26 1013 78 10000 2.6 180 15:40 27.09.2020
3891 Clouds 27 1013 74 10000 2.1 180 15:22 27.09.2020
3892 Clouds 26 1013 78 10000 3.64 321 14:41 27.09.2020
3893 Clouds 27 1012 78 10000 1.5 210 14:23 27.09.2020
3894 Clouds 27 1012 78 10000 4.1 190 13:49 27.09.2020
3895 Clouds 26 1012 78 10000 4.1 190 13:30 27.09.2020
3896 Clouds 27 1012 78 10000 4.1 200 12:57 27.09.2020
3897 Clouds 27 1012 78 10000 6.2 200 12:38 27.09.2020
3898 Clouds 27 1012 78 10000 2.6 300 12:20 27.09.2020
3899 Clouds 28 1011 69 10000 4.1 220 11:42 27.09.2020
3900 Clouds 30 1011 55 10000 2.6 290 11:22 27.09.2020
3901 Clouds 30 1010 52 10000 2.6 340 10:38 27.09.2020
3902 Clouds 30 1010 55 10000 3.6 360 10:19 27.09.2020
3903 Clouds 30 1010 62 10000 1.5 10 09:40 27.09.2020
3904 Rain 31 1010 45 10000 5.1 340 09:21 27.09.2020
3905 Rain 31 1010 48 10000 4.6 20 08:43 27.09.2020
3906 Rain 31 1010 48 10000 4.6 20 08:25 27.09.2020
3907 Clouds 32 1010 55 10000 5.1 340 07:40 27.09.2020
3908 Rain 32 1011 59 10000 4.1 320 06:48 27.09.2020
3909 Clouds 31 1012 62 10000 3.6 300 05:44 27.09.2020
3910 Clouds 31 1014 62 10000 1.5 180 03:24 27.09.2020
3911 Clouds 28 1014 83 10000 1.5 60 01:42 27.09.2020
3912 Clouds 27 1014 83 10000 1 50 00:56 27.09.2020
3913 Clouds 26 1013 88 10000 1 70 00:33 27.09.2020
3914 Clouds 25 1012 88 10000 1.5 70 23:42 26.09.2020
3915 Clouds 25 1012 88 10000 1.5 70 23:23 26.09.2020
3916 Clouds 26 1012 88 10000 1.5 70 22:42 26.09.2020
3917 Rain 26 1011 88 10000 1.5 50 22:22 26.09.2020
3918 Rain 26 1011 88 10000 1.5 50 21:50 26.09.2020
3919 Rain 26 1011 88 10000 1.5 20 21:27 26.09.2020
3920 Rain 26 1011 88 10000 0.5 350 20:58 26.09.2020
3921 Rain 26 1011 88 10000 1.5 360 20:40 26.09.2020
3922 Rain 26 1011 88 10000 1.5 360 20:21 26.09.2020
3923 Clouds 26 1011 88 10000 1.5 360 19:55 26.09.2020
3924 Clouds 26 1011 88 10000 1 330 19:37 26.09.2020
3925 Rain 27 1011 83 10000 1.5 340 19:18 26.09.2020
3926 Rain 27 1011 83 10000 1.5 320 18:37 26.09.2020
3927 Rain 27 1011 78 10000 2.1 330 18:18 26.09.2020
3928 Rain 27 1011 78 10000 2.1 330 17:35 26.09.2020
3929 Rain 27 1012 78 10000 2.6 340 16:57 26.09.2020
3930 Rain 27 1012 78 10000 2.6 340 16:57 26.09.2020
3931 Clouds 27 1012 78 10000 2.6 330 16:36 26.09.2020
3932 Clouds 27 1012 78 10000 3.6 330 16:18 26.09.2020
3933 Clouds 27 1012 78 10000 3.1 330 15:42 26.09.2020
3934 Clouds 27 1011 78 10000 3.6 330 15:19 26.09.2020
3935 Clouds 29 1011 74 10000 3.6 330 14:43 26.09.2020
3936 Clouds 28 1011 74 10000 2.1 330 14:18 26.09.2020
3937 Clouds 28 1011 70 10000 2.6 310 13:45 26.09.2020
3938 Clouds 29 1011 70 10000 2.6 310 13:24 26.09.2020
3939 Clouds 29 1010 70 10000 2.1 280 12:44 26.09.2020
3940 Clouds 29 1010 70 10000 2.6 290 12:21 26.09.2020
3941 Clouds 29 1010 66 10000 3.1 330 11:53 26.09.2020
3942 Clouds 30 1010 66 10000 3.1 330 11:23 26.09.2020
3943 Clouds 31 1009 58 10000 4.1 340 10:51 26.09.2020
3944 Clouds 31 1009 58 10000 4.1 340 10:29 26.09.2020
3945 Clouds 30 1009 58 10000 4.6 340 09:56 26.09.2020
3946 Clouds 31 1009 58 10000 4.6 340 09:38 26.09.2020
3947 Rain 32 1009 55 10000 6.2 310 09:20 26.09.2020
3948 Rain 32 1009 55 10000 4.1 330 08:33 26.09.2020
3949 Rain 32 1010 58 10000 3.6 300 07:31 26.09.2020
3950 Clouds 31 1012 62 10000 3.6 310 05:28 26.09.2020
3951 Clouds 29 1013 74 10000 1.5 80 02:18 26.09.2020
3952 Clouds 26 1012 78 10000 1.5 120 00:53 26.09.2020
3953 Clear 25 1011 88 10000 2.1 100 23:43 25.09.2020
3954 Clear 25 1011 88 10000 1 70 23:20 25.09.2020
3955 Clear 25 1011 88 10000 1 70 22:59 25.09.2020
3956 Clear 25 1011 83 10000 2.1 50 22:41 25.09.2020
3957 Clouds 25 1011 83 10000 2.6 50 22:18 25.09.2020
3958 Clear 25 1010 78 10000 2.6 30 21:44 25.09.2020
3959 Clear 25 1011 73 10000 2.6 50 21:22 25.09.2020
3960 Clouds 25 1011 83 10000 2.1 50 20:38 25.09.2020
3961 Rain 26 1011 88 10000 3.1 100 19:57 25.09.2020
3962 Rain 26 1010 74 10000 5.7 140 19:28 25.09.2020
3963 Clouds 27 1011 83 10000 1.5 150 18:52 25.09.2020
3964 Clouds 27 1011 83 10000 2.1 290 18:24 25.09.2020
3965 Clouds 27 1011 83 10000 2.1 280 17:43 25.09.2020
3966 Clouds 27 1011 83 10000 2.1 270 17:22 25.09.2020
3967 Clouds 27 1011 83 10000 2.1 270 16:52 25.09.2020
3968 Clouds 27 1011 83 10000 3.6 280 16:27 25.09.2020
3969 Clouds 27 1011 78 10000 2.6 270 15:34 25.09.2020
3970 Clouds 28 1011 78 10000 4.1 260 14:55 25.09.2020
3971 Clouds 28 1011 78 10000 3.6 270 14:23 25.09.2020
3972 Clouds 28 1011 78 10000 4.6 270 14:23 25.09.2020
3973 Clouds 28 1011 78 10000 4.6 270 13:54 25.09.2020
3974 Clouds 28 1010 78 10000 4.1 280 13:23 25.09.2020
3975 Clouds 27 1010 61 10000 2.6 320 12:49 25.09.2020
3976 Clouds 27 1010 69 10000 5.11 275 12:24 25.09.2020
3977 Clouds 27 1010 65 10000 3.6 130 11:47 25.09.2020
3978 Rain 28 1010 61 10000 3.1 270 10:56 25.09.2020
3979 Clouds 30 1009 58 10000 3.1 300 10:36 25.09.2020
3980 Clouds 31 1009 55 10000 4.1 290 10:18 25.09.2020
3981 Clouds 31 1007 58 10000 5.7 290 09:44 25.09.2020
3982 Clouds 31 1008 58 10000 5.7 310 08:57 25.09.2020
3983 Clouds 31 1008 58 10000 6.2 310 08:29 25.09.2020
3984 Clouds 32 1009 58 10000 6.2 310 07:54 25.09.2020
3985 Clouds 32 1009 62 10000 4.6 300 07:24 25.09.2020
3986 Clouds 30 1011 70 10000 3.1 300 04:30 25.09.2020
3987 Clouds 30 1013 74 10000 7.2 300 02:53 25.09.2020
3988 Rain 24 1013 94 7000 1.71 191 23:57 24.09.2020
3989 Rain 24 1012 94 10000 1.65 212 23:29 24.09.2020
3990 Rain 24 1012 88 8000 1.65 212 22:55 24.09.2020
3991 Rain 25 1011 88 10000 1.71 224 22:21 24.09.2020
3992 Clouds 25 1011 83 10000 1.71 224 21:49 24.09.2020
3993 Clouds 26 1011 83 10000 1.89 234 21:26 24.09.2020
3994 Clouds 26 1011 78 10000 1.89 234 20:56 24.09.2020
3995 Clouds 26 1011 78 10000 1.89 234 20:38 24.09.2020
3996 Clouds 26 1011 78 10000 3 257 20:20 24.09.2020
3997 Clouds 26 1011 78 10000 2.96 253 19:30 24.09.2020
3998 Clouds 26 1011 78 10000 2.96 253 19:30 24.09.2020
3999 Clouds 26 1012 78 10000 3.2 279 18:54 24.09.2020
4000 Clouds 26 1012 74 10000 3.67 277 18:24 24.09.2020
4001 Clouds 27 1012 74 10000 3.67 277 17:53 24.09.2020
4002 Clouds 27 1013 69 10000 2.1 190 17:32 24.09.2020
4003 Clear 27 1012 69 10000 2.1 240 16:37 24.09.2020
4004 Rain 27 1012 69 10000 1 300 15:57 24.09.2020
4005 Rain 27 1012 69 10000 0.5 270 15:20 24.09.2020
4006 Rain 27 1012 69 10000 0.5 270 14:51 24.09.2020
4007 Rain 27 1012 69 10000 2.1 190 14:33 24.09.2020
4008 Rain 27 1011 74 10000 3.6 190 13:42 24.09.2020
4009 Rain 27 1011 74 10000 3.6 190 13:42 24.09.2020
4010 Clear 27 1010 74 10000 3.6 210 13:19 24.09.2020
4011 Clear 28 1010 66 10000 3.1 240 12:45 24.09.2020
4012 Clouds 29 1010 70 10000 4.1 260 12:20 24.09.2020
4013 Clouds 29 1010 66 10000 5.1 280 11:20 24.09.2020
4014 Rain 30 1010 66 10000 6.2 320 10:51 24.09.2020
4015 Rain 30 1010 66 10000 6.2 320 10:51 24.09.2020
4016 Rain 30 1010 66 10000 6.2 320 10:31 24.09.2020
4017 Rain 30 1010 62 10000 6.2 320 09:59 24.09.2020
4018 Clouds 31 1010 55 10000 5.7 290 09:23 24.09.2020
4019 Clouds 31 1010 58 10000 6.2 340 08:51 24.09.2020
4020 Clouds 32 1010 55 10000 6.2 340 08:29 24.09.2020
4021 Clouds 32 1010 62 10000 6.2 350 06:53 24.09.2020
4022 Clouds 32 1011 52 10000 4.6 350 06:35 24.09.2020
4023 Clouds 30 1014 70 10000 2.6 130 02:23 24.09.2020
4024 Clouds 26 1012 88 10000 1.5 70 00:21 24.09.2020
4025 Clouds 26 1012 88 10000 1.5 90 23:46 23.09.2020
4026 Clouds 26 1011 88 10000 1.5 150 23:21 23.09.2020
4027 Clouds 26 1011 88 10000 2.68 71 22:47 23.09.2020
4028 Clouds 26 1011 83 10000 1.5 210 22:22 23.09.2020
4029 Clouds 26 1011 83 10000 1.5 220 21:43 23.09.2020
4030 Clouds 26 1011 83 10000 1.5 220 21:22 23.09.2020
4031 Clear 26 1011 88 10000 1 330 20:52 23.09.2020
4032 Clouds 26 1011 88 10000 1 330 20:23 23.09.2020
4033 Clouds 26 1011 83 10000 0.5 330 19:32 23.09.2020
4034 Clouds 26 1011 88 10000 1 330 18:59 23.09.2020
4035 Clouds 27 1011 83 10000 1.5 350 18:27 23.09.2020
4036 Clouds 27 1011 78 10000 2.6 290 17:51 23.09.2020
4037 Clouds 27 1011 78 10000 2.6 290 17:28 23.09.2020
4038 Clouds 27 1012 78 10000 3.6 290 16:30 23.09.2020
4039 Clouds 27 1012 74 10000 3.6 290 15:58 23.09.2020
4040 Clouds 28 1012 74 10000 6.2 310 15:23 23.09.2020
4041 Clouds 28 1012 74 10000 6.2 310 14:54 23.09.2020
4042 Clouds 29 1012 74 10000 6.2 310 14:36 23.09.2020
4043 Clouds 29 1011 70 10000 2.6 350 13:43 23.09.2020
4044 Clouds 29 1011 70 10000 2.6 350 13:43 23.09.2020
4045 Clouds 29 1011 70 10000 2.6 350 13:24 23.09.2020
4046 Clouds 29 1010 66 10000 2.1 30 12:42 23.09.2020
4047 Clouds 29 1010 62 10000 4.1 30 12:19 23.09.2020
4048 Clouds 30 1010 58 10000 5.1 30 11:28 23.09.2020
4049 Clouds 30 1009 58 10000 5.1 20 10:58 23.09.2020
4050 Clouds 31 1009 46 10000 7.2 30 10:38 23.09.2020
4051 Clouds 32 1009 46 10000 6.2 20 09:55 23.09.2020
4052 Clouds 32 1009 46 10000 7.2 10 09:27 23.09.2020
4053 Clouds 33 1009 49 10000 5.7 360 08:37 23.09.2020
4054 Clouds 33 1010 49 10000 5.1 340 08:18 23.09.2020
4055 Clouds 33 1010 52 10000 6.2 360 07:20 23.09.2020
4056 Clouds 34 1012 49 10000 5.1 10 05:46 23.09.2020
4057 Clouds 30 1015 74 10000 1.5 100 02:19 23.09.2020
4058 Clouds 28 1014 74 10000 1.5 80 01:19 23.09.2020
4059 Clouds 25 1013 94 10000 1 150 23:46 22.09.2020
4060 Clouds 25 1013 94 10000 1 150 23:23 22.09.2020
4061 Clouds 26 1012 94 10000 1.87 77 22:34 22.09.2020
4062 Clouds 25 1012 94 10000 1.29 71 21:55 22.09.2020
4063 Clear 25 1012 94 10000 1.29 71 21:36 22.09.2020
4064 Clear 26 1012 94 10000 2.15 35 21:18 22.09.2020
4065 Clear 26 1011 88 10000 1 30 20:44 22.09.2020
4066 Clear 26 1011 88 10000 1 30 20:25 22.09.2020
4067 Clouds 26 1011 83 10000 2.6 30 19:47 22.09.2020
4068 Clouds 26 1011 83 10000 2.6 30 19:27 22.09.2020
4069 Clouds 27 1011 78 10000 2.6 10 18:53 22.09.2020
4070 Clouds 26 1011 83 10000 3.1 10 18:33 22.09.2020
4071 Clouds 26 1012 88 10000 2.1 360 17:33 22.09.2020
4072 Rain 27 1012 83 9000 2.6 350 16:48 22.09.2020
4073 Rain 27 1012 83 9000 2.6 350 16:26 22.09.2020
4074 Clouds 27 1012 83 10000 3.1 300 15:43 22.09.2020
4075 Clouds 28 1012 69 10000 2.6 360 14:51 22.09.2020
4076 Clouds 27 1012 69 10000 1.5 50 14:28 22.09.2020
4077 Clouds 28 1012 69 10000 3.1 180 13:53 22.09.2020
4078 Clouds 28 1011 66 10000 3.6 30 13:18 22.09.2020
4079 Clouds 29 1010 66 10000 4.6 20 12:42 22.09.2020
4080 Clouds 29 1009 55 10000 4.6 10 12:22 22.09.2020
4081 Clouds 31 1009 48 10000 4.1 30 11:25 22.09.2020
4082 Clouds 31 1009 49 10000 5.7 30 10:58 22.09.2020
4083 Clouds 32 1009 46 10000 7.7 20 10:33 22.09.2020
4084 Clouds 32 1008 52 10000 6.2 10 09:48 22.09.2020
4085 Clouds 32 1008 52 10000 6.2 10 09:30 22.09.2020
4086 Clouds 33 1008 52 10000 6.2 10 08:52 22.09.2020
4087 Clouds 33 1009 55 10000 7.2 360 07:56 22.09.2020
4088 Clouds 33 1009 59 10000 6.7 350 07:38 22.09.2020
4089 Clouds 33 1009 55 10000 5.7 350 06:58 22.09.2020
4090 Clouds 34 1010 52 10000 4.6 350 06:28 22.09.2020
4091 Clouds 33 1012 52 10000 2.6 100 04:52 22.09.2020
4092 Clouds 29 1013 70 10000 3.6 50 01:57 22.09.2020
4093 Clouds 27 1013 78 10000 2.6 70 00:56 22.09.2020
4094 Clouds 25 1012 88 10000 2.1 60 23:58 21.09.2020
4095 Clouds 25 1011 88 10000 1.5 50 23:21 21.09.2020
4096 Clouds 25 1011 94 10000 1.5 60 22:41 21.09.2020
4097 Clouds 25 1010 88 10000 1.5 60 22:22 21.09.2020
4098 Clouds 25 1010 88 10000 1.5 40 21:39 21.09.2020
4099 Clouds 25 1010 94 10000 1 20 21:20 21.09.2020
4100 Clouds 26 1010 88 10000 1 360 20:45 21.09.2020
4101 Clouds 26 1010 88 10000 1 360 20:26 21.09.2020
4102 Clouds 26 1010 94 10000 2.13 13 19:44 21.09.2020
4103 Clouds 26 1010 94 10000 2.13 13 19:44 21.09.2020
4104 Clouds 26 1010 83 10000 2.17 355 19:21 21.09.2020
4105 Clouds 26 1010 83 10000 1 280 18:49 21.09.2020
4106 Clouds 27 1010 83 10000 1 280 18:23 21.09.2020
4107 Clouds 27 1010 78 10000 3.1 330 17:41 21.09.2020
4108 Clouds 27 1010 78 10000 3.1 330 17:23 21.09.2020
4109 Clouds 27 1010 83 10000 4.1 320 16:29 21.09.2020
4110 Clouds 27 1011 83 10000 5.1 310 15:37 21.09.2020
4111 Clouds 27 1010 78 10000 5.7 310 15:18 21.09.2020
4112 Clear 27 1010 74 10000 2.1 360 14:24 21.09.2020
4113 Clear 28 1009 74 10000 1.5 20 13:44 21.09.2020
4114 Clear 28 1009 70 10000 1 350 12:53 21.09.2020
4115 Clear 28 1009 70 10000 1.5 340 12:30 21.09.2020
4116 Clear 29 1008 66 10000 1.5 330 11:58 21.09.2020
4117 Clouds 30 1008 62 10000 4.1 360 11:22 21.09.2020
4118 Clouds 30 1008 62 10000 4.1 360 10:54 21.09.2020
4119 Clouds 31 1008 58 10000 5.7 360 10:25 21.09.2020
4120 Clouds 31 1008 58 10000 5.7 360 09:54 21.09.2020
4121 Clouds 31 1008 62 10000 5.7 350 09:34 21.09.2020
4122 Clouds 31 1008 62 10000 5.1 350 08:22 21.09.2020
4123 Clouds 32 1009 66 10000 4.6 350 07:44 21.09.2020
4124 Clouds 31 1010 66 10000 3.6 330 06:48 21.09.2020
4125 Clouds 30 1013 74 10000 3.6 50 03:32 21.09.2020
4126 Clouds 29 1013 78 10000 3.6 60 02:52 21.09.2020
4127 Clouds 27 1012 88 10000 1 360 00:20 21.09.2020
4128 Clouds 26 1011 88 10000 0.5 360 22:51 20.09.2020
4129 Clouds 26 1010 88 10000 0.5 360 22:22 20.09.2020
4130 Clouds 26 1010 88 10000 1.5 360 21:50 20.09.2020
4131 Clouds 26 1010 94 10000 1.5 360 21:22 20.09.2020
4132 Clouds 26 1010 88 10000 1 10 20:25 20.09.2020
4133 Clouds 26 1010 94 10000 1 350 19:56 20.09.2020
4134 Clouds 26 1010 88 10000 1.5 350 19:38 20.09.2020
4135 Clouds 27 1010 83 10000 2.1 350 19:18 20.09.2020
4136 Clouds 27 1011 88 10000 2.6 350 18:42 20.09.2020
4137 Clouds 27 1011 88 10000 1.5 350 18:22 20.09.2020
4138 Rain 27 1011 88 10000 2.1 360 17:38 20.09.2020
4139 Rain 27 1011 88 10000 4.6 300 17:18 20.09.2020
4140 Clouds 26 1011 88 10000 5.1 300 16:28 20.09.2020
4141 Clouds 26 1011 88 10000 2.6 340 15:37 20.09.2020
4142 Clouds 26 1011 94 10000 1.5 340 14:44 20.09.2020
4143 Rain 26 1011 94 10000 3.6 360 14:20 20.09.2020
4144 Thunderstorm 26 1012 88 5000 4.6 160 13:30 20.09.2020
4145 Clouds 29 1010 79 10000 3.6 280 12:51 20.09.2020
4146 Clouds 29 1010 70 10000 3.6 320 12:51 20.09.2020
4147 Clouds 30 1010 70 10000 3.6 320 12:28 20.09.2020
4148 Clouds 30 1009 58 10000 2.1 350 11:41 20.09.2020
4149 Clouds 30 1008 58 10000 4.1 360 11:22 20.09.2020
4150 Clouds 31 1008 58 10000 4.1 360 10:53 20.09.2020
4151 Clouds 31 1008 58 10000 4.6 360 10:29 20.09.2020
4152 Clouds 31 1008 58 10000 4.6 10 09:52 20.09.2020
4153 Clouds 30 1009 70 10000 5.7 330 08:46 20.09.2020
4154 Clouds 31 1009 66 10000 5.7 330 07:36 20.09.2020
4155 Clouds 30 1012 74 10000 3.6 30 04:59 20.09.2020
4156 Clouds 26 1013 100 10000 1.5 90 00:52 20.09.2020
4157 Clouds 25 1012 94 10000 0.5 100 00:29 20.09.2020
4158 Rain 25 1011 100 10000 1 120 23:26 19.09.2020
4159 Thunderstorm 25 1011 100 2000 4.6 30 22:30 19.09.2020
4160 Rain 25 1011 100 1000 3.1 360 21:59 19.09.2020
4161 Rain 26 1010 94 2400 2.6 340 21:37 19.09.2020
4162 Clouds 26 1010 94 10000 3.1 290 20:54 19.09.2020
4163 Rain 26 1010 83 10000 2.1 290 19:51 19.09.2020
4164 Rain 27 1010 83 10000 2.1 290 19:24 19.09.2020
4165 Clouds 27 1011 83 10000 3.1 300 18:30 19.09.2020
4166 Clouds 27 1011 78 10000 4.1 310 17:46 19.09.2020
4167 Clouds 27 1011 78 10000 4.1 310 17:27 19.09.2020
4168 Rain 27 1011 83 10000 3.6 290 16:55 19.09.2020
4169 Rain 27 1011 83 10000 2.1 280 16:24 19.09.2020
4170 Clouds 28 1011 83 10000 2.6 260 15:44 19.09.2020
4171 Clouds 28 1010 70 10000 3.6 350 13:37 19.09.2020
4172 Clouds 29 1009 66 10000 2.1 10 12:43 19.09.2020
4173 Clouds 30 1009 58 10000 4.6 20 11:37 19.09.2020
4174 Clouds 31 1008 55 10000 3.6 340 10:43 19.09.2020
4175 Rain 32 1008 55 10000 5.1 360 10:18 19.09.2020
4176 Clouds 32 1008 55 10000 4.6 340 09:31 19.09.2020
4177 Clouds 32 1009 55 10000 4.1 350 08:57 19.09.2020
4178 Clouds 31 1009 62 10000 4.1 10 07:54 19.09.2020
4179 Clouds 31 1010 66 10000 4.1 10 07:19 19.09.2020
4180 Clouds 30 1011 70 10000 3.1 20 05:53 19.09.2020
4181 Rain 29 1013 74 10000 3.1 40 04:21 19.09.2020
4182 Rain 26 1014 88 1600 3.6 90 01:30 19.09.2020
4183 Rain 26 1013 94 10000 1 150 00:42 19.09.2020
4184 Rain 25 1011 88 10000 2.6 100 23:19 18.09.2020
4185 Rain 25 1011 94 9000 2.1 80 22:39 18.09.2020
4186 Rain 26 1011 94 10000 0.5 200 21:47 18.09.2020
4187 Rain 26 1011 94 10000 0.5 200 21:28 18.09.2020
4188 Clouds 25 1011 94 10000 1.5 250 20:49 18.09.2020
4189 Rain 25 1011 94 10000 3.1 360 19:48 18.09.2020
4190 Rain 26 1011 94 10000 3.1 360 19:25 18.09.2020
4191 Clouds 27 1012 74 10000 2.6 280 18:47 18.09.2020
4192 Clouds 28 1012 78 10000 2.6 260 17:32 18.09.2020
4193 Clouds 28 1012 74 10000 2.6 270 16:54 18.09.2020
4194 Clouds 28 1012 78 10000 2.6 290 16:31 18.09.2020
4195 Clouds 28 1012 74 10000 3.1 280 15:53 18.09.2020
4196 Clouds 28 1012 78 10000 4.1 280 15:31 18.09.2020
4197 Clouds 28 1011 70 10000 3.6 290 14:24 18.09.2020
4198 Clouds 28 1011 70 10000 3.6 290 13:51 18.09.2020
4199 Clouds 29 1010 62 10000 3.1 30 12:41 18.09.2020
4200 Clouds 30 1009 55 10000 4.1 10 11:43 18.09.2020
4201 Clouds 31 1009 49 10000 5.7 20 10:45 18.09.2020
4202 Clouds 32 1009 49 10000 5.7 20 10:25 18.09.2020
4203 Clouds 32 1009 49 10000 5.1 10 09:29 18.09.2020
4204 Clouds 32 1010 46 10000 5.7 20 08:48 18.09.2020
4205 Clouds 32 1010 52 10000 6.2 360 07:47 18.09.2020
4206 Clouds 31 1011 55 10000 5.1 330 06:48 18.09.2020
4207 Clouds 30 1014 58 10000 2.6 120 02:27 18.09.2020
4208 Clouds 29 1014 74 10000 2.6 90 01:43 18.09.2020
4209 Rain 26 1013 83 10000 3.6 100 23:58 17.09.2020
4210 Rain 25 1013 83 10000 2.6 90 23:40 17.09.2020
4211 Clouds 25 1012 83 10000 1.55 133 22:45 17.09.2020
4212 Clouds 25 1011 88 10000 0.99 128 21:58 17.09.2020
4213 Clouds 25 1011 88 10000 0.54 114 21:27 17.09.2020
4214 Clouds 25 1011 83 10000 0.54 114 20:55 17.09.2020
4215 Clouds 25 1011 83 10000 0.5 260 20:27 17.09.2020
4216 Clouds 26 1012 78 10000 1.5 270 19:21 17.09.2020
4217 Clouds 27 1012 78 10000 1.5 280 18:50 17.09.2020
4218 Clouds 27 1012 69 10000 2.6 270 17:52 17.09.2020
4219 Clouds 27 1013 74 10000 2.6 280 17:28 17.09.2020
4220 Clouds 27 1013 74 10000 3.1 280 16:46 17.09.2020
4221 Clear 27 1013 74 10000 3.1 280 15:48 17.09.2020
4222 Clear 27 1012 69 10000 3.6 280 14:55 17.09.2020
4223 Clear 28 1012 69 10000 4.1 290 14:34 17.09.2020
4224 Clouds 28 1012 69 10000 4.6 300 13:55 17.09.2020
4225 Clear 28 1011 58 10000 2.1 20 13:23 17.09.2020
4226 Clear 29 1011 58 10000 2.6 10 12:32 17.09.2020
4227 Clouds 29 1010 54 10000 2.6 0 11:44 17.09.2020
4228 Clouds 30 1010 48 10000 2.6 0 10:58 17.09.2020
4229 Clear 30 1010 40 10000 5.7 10 10:33 17.09.2020
4230 Clear 30 1010 40 10000 5.1 10 09:53 17.09.2020
4231 Clear 31 1009 38 10000 6.2 10 09:24 17.09.2020
4232 Clouds 32 1010 43 10000 6.7 10 08:41 17.09.2020
4233 Clouds 32 1010 49 10000 6.2 340 08:22 17.09.2020
4234 Clouds 32 1010 49 10000 6.7 330 07:29 17.09.2020
4235 Clouds 33 1012 55 10000 6.2 340 06:50 17.09.2020
4236 Clouds 32 1013 55 10000 3.6 10 05:23 17.09.2020
4237 Clouds 27 1014 69 10000 1.5 70 01:48 17.09.2020
4238 Clouds 26 1014 69 10000 1.5 70 01:29 17.09.2020
4239 Clouds 26 1014 69 10000 1.5 70 01:29 17.09.2020
4240 Clouds 25 1013 83 10000 2.6 90 00:37 17.09.2020
4241 Clouds 25 1012 83 10000 2.1 80 23:33 16.09.2020
4242 Clouds 25 1012 83 10000 1.5 80 22:45 16.09.2020
4243 Clouds 25 1012 83 10000 2.6 80 22:21 16.09.2020
4244 Clouds 25 1012 83 10000 2.6 90 21:43 16.09.2020
4245 Clouds 25 1011 83 10000 3.1 70 20:59 16.09.2020
4246 Clouds 25 1012 83 10000 3.6 60 20:32 16.09.2020
4247 Clouds 25 1012 83 10000 1.5 20 19:44 16.09.2020
4248 Clouds 27 1013 78 10000 2.1 290 17:30 16.09.2020
4249 Rain 27 1013 78 10000 2.6 250 16:52 16.09.2020
4250 Clouds 27 1013 78 10000 2.6 260 15:55 16.09.2020
4251 Clouds 27 1013 78 10000 3.1 270 15:25 16.09.2020
4252 Clouds 27 1013 65 10000 2.1 60 14:49 16.09.2020
4253 Clouds 27 1012 58 10000 1 130 14:20 16.09.2020
4254 Clouds 27 1011 58 10000 3.1 40 13:20 16.09.2020
4255 Clouds 28 1010 54 10000 2.6 0 11:53 16.09.2020
4256 Clouds 29 1010 45 10000 5.7 10 11:21 16.09.2020
4257 Clouds 30 1009 45 10000 7.2 10 09:58 16.09.2020
4258 Clouds 31 1009 40 10000 7.2 10 09:37 16.09.2020
4259 Clear 32 1010 38 10000 7.2 20 09:19 16.09.2020
4260 Clouds 33 1010 38 10000 7.7 20 07:56 16.09.2020
4261 Clouds 35 1011 28 10000 2.1 130 06:42 16.09.2020
4262 Clouds 25 1014 78 10000 1.5 130 00:41 16.09.2020
4263 Clouds 24 1013 83 10000 1.5 70 23:41 15.09.2020
4264 Clouds 23 1012 88 10000 3.51 101 22:52 15.09.2020
4265 Clouds 23 1012 88 10000 3.86 116 22:29 15.09.2020
4266 Clouds 24 1012 83 10000 3.86 116 21:43 15.09.2020
4267 Clouds 24 1012 78 10000 2.38 112 21:22 15.09.2020
4268 Clouds 25 1012 78 10000 1 70 20:46 15.09.2020
4269 Clouds 25 1012 78 10000 1.5 70 20:22 15.09.2020
4270 Clouds 25 1012 78 10000 1.5 70 20:22 15.09.2020
4271 Clouds 25 1012 78 10000 1 30 19:31 15.09.2020
4272 Clouds 26 1013 74 10000 1.5 350 17:50 15.09.2020
4273 Clouds 26 1013 74 10000 1.5 350 17:27 15.09.2020
4274 Clouds 26 1014 69 10000 3.6 360 16:38 15.09.2020
4275 Rain 26 1013 69 10000 3.1 10 15:42 15.09.2020
4276 Rain 26 1013 65 10000 2.1 10 14:55 15.09.2020
4277 Clouds 27 1012 65 10000 0.5 70 13:54 15.09.2020
4278 Clouds 29 1010 45 10000 6.7 30 11:40 15.09.2020
4279 Clouds 33 1009 38 10000 8.7 20 09:24 15.09.2020
4280 Clouds 33 1009 33 10000 7.7 30 08:58 15.09.2020
4281 Clouds 33 1009 36 10000 7.7 10 08:24 15.09.2020
4282 Clear 34 1010 21 10000 7.2 340 07:24 15.09.2020
4283 Clear 31 1014 33 10000 7.7 110 03:43 15.09.2020
4284 Clouds 22 1013 78 10000 3.53 121 23:32 14.09.2020
4285 Clouds 22 1012 78 10000 3.53 121 22:31 14.09.2020
4286 Clouds 23 1012 78 10000 2.03 100 20:58 14.09.2020
4287 Clouds 23 1012 73 10000 1.71 75 19:56 14.09.2020
4288 Rain 24 1013 64 10000 1 20 18:31 14.09.2020
4289 Clouds 25 1013 61 10000 1.5 10 16:24 14.09.2020
4290 Clouds 25 1013 61 10000 1.5 10 15:53 14.09.2020
4291 Clear 26 1012 54 10000 3.66 18 14:43 14.09.2020
4292 Clouds 25 1012 50 10000 1 80 14:18 14.09.2020
4293 Clouds 28 1009 35 10000 7.2 40 11:50 14.09.2020
4294 Clouds 29 1009 35 10000 7.2 40 11:27 14.09.2020
4295 Clouds 35 1009 15 10000 6.7 300 08:45 14.09.2020
4296 Clouds 30 1014 45 10000 5.7 120 03:22 14.09.2020
4297 Clouds 24 1012 78 10000 1.5 70 21:56 13.09.2020
4298 Clouds 25 1013 73 10000 2.6 70 20:25 13.09.2020
4299 Clouds 27 1014 69 10000 3.1 330 16:52 13.09.2020
4300 Clouds 27 1012 57 10000 2.6 60 13:36 13.09.2020
4301 Clouds 30 1009 43 10000 6.2 20 10:45 13.09.2020
4302 Clouds 30 1009 43 10000 6.2 20 10:19 13.09.2020
4303 Clouds 31 1011 48 10000 5.7 330 07:18 13.09.2020
4304 Clouds 32 1011 45 10000 5.1 330 06:48 13.09.2020
4305 Clear 22 1013 78 10000 2.6 80 21:21 12.09.2020
4306 Clouds 24 1013 69 10000 1 280 19:44 12.09.2020
4307 Clouds 24 1013 73 10000 1 280 18:53 12.09.2020
4308 Clouds 25 1013 65 10000 2.1 300 17:50 12.09.2020
4309 Clouds 25 1013 69 10000 2.1 290 17:19 12.09.2020
4310 Clouds 25 1013 69 10000 2.1 290 16:52 12.09.2020
4311 Clouds 25 1013 47 10000 2.6 90 14:34 12.09.2020
4312 Clouds 27 1011 45 10000 1 360 12:35 12.09.2020
4313 Clouds 30 1009 33 10000 6.7 10 10:41 12.09.2020
4314 Clouds 33 1013 22 10000 5.1 80 05:27 12.09.2020
4315 Clouds 33 1013 22 10000 5.1 80 04:59 12.09.2020
4316 Clouds 24 1014 83 10000 1.5 120 00:24 12.09.2020
4317 Clouds 23 1013 78 10000 1.5 90 21:45 11.09.2020
4318 Clouds 24 1016 82 10000 2.22 87 20:47 11.09.2020
4319 Clouds 24 1016 80 10000 2.09 55 19:23 11.09.2020
4320 Rain 25 1017 84 10000 1.93 81 17:46 11.09.2020
4321 Clouds 26 1013 74 10000 5.7 310 16:31 11.09.2020
4322 Clouds 27 1012 61 10000 5.7 10 13:59 11.09.2020
4323 Clear 29 1009 35 10000 4.6 30 11:45 11.09.2020
4324 Clear 31 1009 35 10000 5.7 10 10:29 11.09.2020
4325 Clouds 32 1010 49 10000 6.2 330 07:32 11.09.2020
4326 Clear 23 1011 69 10000 1.5 50 21:35 10.09.2020
4327 Clouds 23 1011 83 10000 0.5 340 19:33 10.09.2020
4328 Clear 25 1011 73 10000 3.6 350 17:50 10.09.2020
4329 Clear 25 1011 65 10000 1.5 350 15:54 10.09.2020
4330 Clouds 24 1015 71 10000 1.12 67 14:21 10.09.2020
4331 Clouds 28 1009 42 10000 3.6 330 11:35 10.09.2020
4332 Clouds 31 1007 43 10000 5.7 360 08:57 10.09.2020
4333 Clouds 31 1008 48 10000 5.7 330 07:46 10.09.2020
4334 Clouds 31 1009 48 10000 5.7 340 07:20 10.09.2020
4335 Clear 23 1014 91 10000 2.97 94 21:49 09.09.2020
4336 Clouds 25 1014 90 10000 0.34 134 18:18 09.09.2020
4337 Clouds 25 1011 83 10000 2.1 270 17:22 09.09.2020
4338 Clouds 25 1011 83 10000 2.1 270 17:22 09.09.2020
4339 Clear 26 1010 74 10000 2.6 210 14:42 09.09.2020
4340 Clouds 31 1008 45 10000 4.6 290 10:42 09.09.2020
4341 Clouds 32 1008 38 10000 4.1 330 09:54 09.09.2020
4342 Clouds 32 1008 40 10000 5.7 350 08:59 09.09.2020
4343 Dust 35 1010 23 10000 4.6 90 06:31 09.09.2020
4344 Clear 33 1012 31 10000 6.2 110 04:41 09.09.2020
4345 Clear 33 1012 31 10000 6.2 110 04:41 09.09.2020
4346 Clear 33 1012 31 10000 6.2 110 04:41 09.09.2020
4347 Clouds 27 1013 78 10000 4.3 112 00:49 09.09.2020
4348 Clouds 23 1013 88 10000 3.67 103 23:36 08.09.2020
4349 Clouds 25 1012 78 10000 2.27 105 21:41 08.09.2020
4350 Clouds 25 1012 78 10000 1.23 102 21:21 08.09.2020
4351 Rain 25 1013 78 10000 1.5 20 18:31 08.09.2020
4352 Clouds 26 1014 69 10000 0.5 40 15:27 08.09.2020
4353 Clouds 29 1011 51 10000 6.2 30 11:55 08.09.2020
4354 Clouds 30 1011 48 10000 7.7 30 11:18 08.09.2020
4355 Clouds 31 1010 48 10000 7.7 30 10:18 08.09.2020
4356 Clouds 34 1010 41 10000 8.2 20 09:40 08.09.2020
4357 Clouds 36 1011 12 10000 7.2 20 07:39 08.09.2020
4358 Clouds 24 1015 83 10000 1.5 130 00:19 08.09.2020
4359 Clouds 24 1014 88 10000 1 80 22:44 07.09.2020
4360 Clouds 24 1014 88 10000 1 110 20:38 07.09.2020
4361 Clouds 26 1015 78 10000 2.1 300 17:49 07.09.2020
4362 Clouds 27 1013 58 10000 3.1 30 13:32 07.09.2020
4363 Clouds 28 1012 58 10000 3.1 30 12:52 07.09.2020
4364 Clouds 28 1011 51 10000 4.1 20 11:59 07.09.2020
4365 Clouds 29 1011 45 10000 5.1 20 11:35 07.09.2020
4366 Clouds 30 1011 40 10000 7.2 20 10:48 07.09.2020
4367 Clouds 34 1012 16 10000 7.7 20 06:27 07.09.2020
4368 Clear 22 1012 88 10000 0.5 170 22:27 06.09.2020
4369 Clear 23 1012 83 10000 3.32 124 21:34 06.09.2020
4370 Clouds 23 1012 83 10000 2.3 115 20:36 06.09.2020
4371 Clouds 24 1012 83 10000 0.5 80 19:24 06.09.2020
4372 Clouds 26 1012 69 10000 1.5 360 15:59 06.09.2020
4373 Clear 26 1012 65 10000 2.6 360 15:27 06.09.2020
4374 Clouds 28 1010 61 10000 4.6 30 13:55 06.09.2020
4375 Clouds 29 1009 45 10000 6.7 40 11:59 06.09.2020
4376 Clouds 32 1008 38 10000 8.7 20 08:58 06.09.2020
4377 Clouds 33 1011 26 10000 7.2 100 04:28 06.09.2020
4378 Clouds 22 1010 88 10000 1.5 120 22:39 05.09.2020
4379 Clouds 23 1010 88 10000 0.68 349 20:23 05.09.2020
4380 Clouds 26 1011 78 10000 2.6 300 16:18 05.09.2020
4381 Clear 27 1010 65 10000 2.6 90 14:20 05.09.2020
4382 Clear 28 1009 58 10000 4.1 40 12:43 05.09.2020
4383 Clear 29 1009 51 10000 4.6 30 11:59 05.09.2020
4384 Clear 30 1008 43 10000 6.2 30 10:44 05.09.2020
4385 Clouds 31 1008 40 10000 6.7 30 09:35 05.09.2020
4386 Clouds 31 1009 52 10000 6.7 350 07:46 05.09.2020
4387 Clouds 22 1011 94 10000 1.52 95 23:59 04.09.2020
4388 Clear 23 1010 94 10000 2.29 73 19:58 04.09.2020
4389 Clear 24 1010 88 10000 0.5 40 19:28 04.09.2020
4390 Clear 24 1011 88 10000 0.5 40 18:32 04.09.2020
4391 Clear 25 1011 83 10000 1.5 250 16:18 04.09.2020
4392 Clear 26 1011 74 10000 2.6 180 15:22 04.09.2020
4393 Clear 30 1008 38 10000 3.6 360 11:21 04.09.2020
4394 Clear 34 1009 38 10000 5.7 340 08:49 04.09.2020
4395 Clouds 33 1012 52 10000 6.2 310 05:58 04.09.2020
4396 Clear 24 1012 94 10000 1.5 60 22:51 03.09.2020
4397 Clouds 24 1012 88 10000 1 140 22:33 03.09.2020
4398 Clouds 25 1013 83 10000 1 140 21:18 03.09.2020
4399 Clouds 26 1013 83 10000 1 60 20:28 03.09.2020
4400 Clouds 26 1014 78 10000 2.6 30 18:24 03.09.2020
4401 Clouds 27 1014 83 10000 4.6 320 16:42 03.09.2020
4402 Clouds 27 1013 83 10000 4.1 310 15:30 03.09.2020
4403 Clouds 28 1011 54 10000 2.1 10 12:32 03.09.2020
4404 Clouds 30 1010 48 10000 4.6 10 10:57 03.09.2020
4405 Clouds 30 1010 51 10000 6.2 10 10:37 03.09.2020
4406 Clouds 26 1013 88 10000 2.1 90 00:33 03.09.2020
4407 Clouds 25 1013 88 10000 1.5 70 22:50 02.09.2020
4408 Clouds 25 1013 88 10000 1 180 20:34 02.09.2020
4409 Clouds 26 1013 78 10000 2.6 260 18:41 02.09.2020
4410 Clouds 26 1013 78 10000 2.1 250 17:57 02.09.2020
4411 Clouds 27 1012 61 10000 2.1 90 13:33 02.09.2020
4412 Clouds 31 1009 48 10000 6.7 20 08:54 02.09.2020
4413 Clouds 32 1009 48 10000 6.7 360 08:26 02.09.2020
4414 Clouds 27 1013 74 10000 3.6 50 01:36 02.09.2020
4415 Clouds 24 1012 88 10000 2.6 50 23:40 01.09.2020
4416 Clouds 26 1011 78 10000 3.6 50 20:37 01.09.2020
4417 Rain 25 1011 74 10000 2.6 80 18:50 01.09.2020
4418 Clouds 25 1012 69 10000 2.6 110 18:22 01.09.2020
4419 Clouds 26 1012 69 10000 2.6 70 17:30 01.09.2020
4420 Clouds 25 1011 65 10000 2.1 80 15:58 01.09.2020
4421 Clouds 26 1011 61 10000 2.75 301 14:58 01.09.2020
4422 Clouds 29 1008 51 10000 5.7 40 12:25 01.09.2020
4423 Clouds 31 1007 45 10000 6.7 30 10:33 01.09.2020
4424 Clouds 31 1007 46 10000 7.7 20 09:25 01.09.2020
4425 Clouds 34 1009 38 10000 7.2 30 07:22 01.09.2020
4426 Clear 24 1011 94 10000 1.5 60 21:57 31.08.2020
4427 Clouds 26 1012 78 10000 1.5 340 18:39 31.08.2020
4428 Clouds 26 1012 78 10000 1.5 350 17:32 31.08.2020
4429 Clouds 26 1012 74 10000 1.5 40 16:22 31.08.2020
4430 Clouds 28 1010 62 10000 5.7 40 12:52 31.08.2020
4431 Clouds 29 1009 55 10000 6.7 40 11:33 31.08.2020
4432 Clouds 34 1009 38 10000 5.1 30 07:40 31.08.2020
4433 Clouds 33 1010 38 10000 5.7 100 06:50 31.08.2020
4434 Clouds 25 1012 78 10000 7.7 100 00:44 31.08.2020
4435 Clouds 22 1011 88 10000 4.32 112 22:45 30.08.2020
4436 Clouds 24 1012 83 10000 2.43 145 20:58 30.08.2020
4437 Clouds 24 1012 83 10000 2.1 50 18:54 30.08.2020
4438 Clouds 25 1012 83 10000 2.6 40 18:36 30.08.2020
4439 Clouds 26 1013 74 10000 2.6 220 15:40 30.08.2020
4440 Clouds 26 1013 69 10000 3.6 220 15:20 30.08.2020
4441 Clouds 26 1013 74 10000 3.6 220 14:42 30.08.2020
4442 Clear 28 1010 42 10000 3.1 310 11:41 30.08.2020
4443 Clear 31 1009 38 10000 4.6 350 10:26 30.08.2020
4444 Clear 32 1009 33 10000 2.6 0 09:20 30.08.2020
4445 Clouds 28 1014 48 10000 4.6 130 02:42 30.08.2020
4446 Clouds 23 1012 78 10000 1 120 22:38 29.08.2020
4447 Clouds 22 1012 83 10000 1.5 90 20:28 29.08.2020
4448 Clouds 22 1012 73 10000 0.5 10 19:22 29.08.2020
4449 Clouds 22 1013 68 10000 0.5 310 17:56 29.08.2020
4450 Clouds 22 1013 60 10000 0.5 30 16:57 29.08.2020
4451 Clouds 24 1013 57 10000 0.5 30 15:56 29.08.2020
4452 Clear 24 1012 57 10000 1 50 14:25 29.08.2020
4453 Clear 31 1009 38 10000 5.7 360 09:47 29.08.2020
4454 Clouds 32 1009 22 10000 2.6 20 08:20 29.08.2020
4455 Clear 22 1013 38 10000 4.6 100 23:35 28.08.2020
4456 Clear 20 1012 88 10000 2.1 90 21:48 28.08.2020
4457 Clear 21 1012 68 10000 1 70 19:42 28.08.2020
4458 Clear 21 1012 64 10000 1.5 50 19:19 28.08.2020
4459 Clear 23 1012 47 10000 2.6 110 17:39 28.08.2020
4460 Clear 21 1013 60 10000 1.5 140 16:25 28.08.2020
4461 Clear 22 1012 60 10000 3.33 102 14:48 28.08.2020
4462 Clouds 22 1012 60 10000 3.01 96 14:26 28.08.2020
4463 Clouds 24 1012 47 10000 1.5 180 13:52 28.08.2020
4464 Clouds 29 1009 35 10000 3.1 10 11:33 28.08.2020
4465 Clouds 35 1008 6 10000 5.1 310 09:30 28.08.2020
4466 Clouds 35 1009 8 10000 5.1 40 08:45 28.08.2020
4467 Clouds 33 1011 15 10000 5.1 40 06:24 28.08.2020
4468 Clouds 33 1012 16 10000 8.7 110 05:38 28.08.2020
4469 Clear 22 1012 60 10000 3.6 110 23:41 27.08.2020
4470 Clear 21 1012 94 10000 2.6 90 22:46 27.08.2020
4471 Clear 20 1011 88 10000 1.5 90 20:55 27.08.2020
4472 Clouds 21 1012 83 10000 3.1 50 19:47 27.08.2020
4473 Clouds 23 1012 73 10000 2.6 70 18:49 27.08.2020
4474 Clouds 22 1012 56 10000 1.5 70 17:24 27.08.2020
4475 Clouds 23 1012 53 10000 2.1 70 16:44 27.08.2020
4476 Clear 25 1012 44 10000 2.1 60 13:57 27.08.2020
4477 Clear 25 1012 47 10000 1.5 60 13:23 27.08.2020
4478 Clear 30 1010 29 10000 5.1 30 11:19 27.08.2020
4479 Clear 33 1009 26 10000 6.2 10 09:28 27.08.2020
4480 Clear 36 1010 6 10000 3.1 50 08:31 27.08.2020
4481 Clear 29 1015 26 10000 8.2 110 02:42 27.08.2020
4482 Clouds 23 1014 29 10000 4.1 110 23:44 26.08.2020
4483 Clouds 22 1013 44 10000 3.6 100 22:29 26.08.2020
4484 Clear 21 1013 73 10000 6.65 107 20:35 26.08.2020
4485 Clouds 20 1013 73 10000 6.29 103 19:56 26.08.2020
4486 Clouds 23 1015 69 10000 1.5 150 17:29 26.08.2020
4487 Clouds 25 1014 50 10000 2.6 180 14:59 26.08.2020
4488 Clouds 26 1014 47 10000 2.6 60 14:21 26.08.2020
4489 Clouds 29 1012 35 10000 5.1 30 11:24 26.08.2020
4490 Clouds 33 1012 24 10000 5.1 30 08:26 26.08.2020
4491 Clouds 19 1016 52 10000 1.5 140 23:51 25.08.2020
4492 Clear 19 1014 68 6000 2.6 80 21:40 25.08.2020
4493 Clear 19 1015 72 10000 2.1 100 21:20 25.08.2020
4494 Clear 18 1015 82 8000 5.01 123 20:25 25.08.2020
4495 Clear 19 1014 77 9000 1.5 170 19:55 25.08.2020
4496 Clear 19 1015 68 10000 1.5 140 19:21 25.08.2020
4497 Clear 22 1015 60 10000 2.6 140 18:22 25.08.2020
4498 Clear 23 1015 57 10000 1.5 90 16:58 25.08.2020
4499 Clear 24 1015 53 10000 2.6 80 15:47 25.08.2020
4500 Clear 24 1015 53 10000 2.6 80 15:47 25.08.2020
4501 Clear 25 1014 53 10000 2.6 50 14:41 25.08.2020
4502 Clear 26 1013 42 10000 4.6 30 12:43 25.08.2020
4503 Clear 28 1012 32 10000 5.7 30 11:36 25.08.2020
4504 Clouds 35 1012 6 10000 6.7 100 08:56 25.08.2020
4505 Clear 34 1013 7 10000 6.2 130 07:36 25.08.2020
4506 Clear 34 1013 7 10000 4.6 120 06:59 25.08.2020
4507 Clear 34 1014 7 10000 7.2 140 06:32 25.08.2020
4508 Clear 33 1015 8 10000 7.7 100 05:52 25.08.2020
4509 Clear 33 1015 9 10000 8.7 110 05:29 25.08.2020
4510 Clear 31 1017 23 10000 5.1 130 03:49 25.08.2020
4511 Clear 29 1017 23 10000 5.1 130 03:31 25.08.2020
4512 Clear 27 1017 26 10000 5.7 100 02:45 25.08.2020
4513 Clouds 18 1015 82 10000 1.5 120 23:20 24.08.2020
4514 Clouds 20 1015 77 10000 0.5 160 21:50 24.08.2020
4515 Clouds 20 1015 77 10000 1 110 21:18 24.08.2020
4516 Clouds 19 1015 77 9000 1 110 20:20 24.08.2020
4517 Clouds 20 1015 73 10000 1.5 110 18:53 24.08.2020
4518 Clear 22 1015 69 10000 2.1 150 17:34 24.08.2020
4519 Clear 22 1015 64 10000 2.1 150 16:35 24.08.2020
4520 Clear 22 1015 43 10000 2.1 140 15:24 24.08.2020
4521 Clear 23 1015 46 10000 1.5 130 14:31 24.08.2020
4522 Clear 23 1015 46 10000 1.5 130 14:31 24.08.2020
4523 Clear 22 1015 41 10000 2.26 75 13:55 24.08.2020
4524 Clear 28 1013 32 10000 3.1 50 12:20 24.08.2020
4525 Clear 28 1013 32 10000 3.1 50 12:20 24.08.2020
4526 Clear 28 1013 32 10000 3.1 50 12:20 24.08.2020
4527 Clear 27 1013 32 10000 3.1 50 11:54 24.08.2020
4528 Clear 28 1013 30 10000 4.1 30 11:33 24.08.2020
4529 Clear 30 1012 25 10000 4.6 360 10:39 24.08.2020
4530 Clear 30 1012 27 10000 4.6 350 09:55 24.08.2020
4531 Clear 31 1012 27 10000 5.7 330 08:23 24.08.2020
4532 Clear 33 1014 9 10000 4.6 120 05:26 24.08.2020
4533 Clear 21 1015 83 10000 1.5 130 00:30 24.08.2020
4534 Clear 20 1014 83 10000 2.1 150 23:52 23.08.2020
4535 Clear 21 1014 83 10000 2.1 150 23:34 23.08.2020
4536 Clear 21 1014 83 5000 4.05 122 20:42 23.08.2020
4537 Clear 21 1014 78 10000 1.5 80 19:18 23.08.2020
4538 Clear 22 1014 73 10000 1.5 220 18:19 23.08.2020
4539 Clear 22 1014 73 10000 2.6 130 17:23 23.08.2020
4540 Clear 23 1014 73 10000 1.5 110 16:20 23.08.2020
4541 Clear 23 1014 69 10000 1 150 14:51 23.08.2020
4542 Clear 24 1013 50 10000 1 250 13:34 23.08.2020
4543 Clear 27 1012 44 10000 2.95 266 12:29 23.08.2020
4544 Clear 30 1011 29 10000 4.6 10 10:38 23.08.2020
4545 Clear 31 1011 35 10000 7.2 360 09:24 23.08.2020
4546 Clear 33 1013 21 10000 6.2 290 06:42 23.08.2020
4547 Clouds 25 1015 88 10000 1 70 00:48 23.08.2020
4548 Clouds 23 1015 88 10000 1 70 00:30 23.08.2020
4549 Fog 22 1015 94 10000 1.5 70 23:56 22.08.2020
4550 Fog 21 1014 88 10000 1.53 96 23:19 22.08.2020
4551 Clear 22 1013 88 10000 1.31 48 21:23 22.08.2020
4552 Clear 23 1014 88 10000 1.5 130 19:44 22.08.2020
4553 Clear 24 1014 83 10000 1.5 70 17:55 22.08.2020
4554 Clear 25 1015 83 10000 1 120 17:37 22.08.2020
4555 Clear 26 1015 78 10000 2.6 180 16:21 22.08.2020
4556 Clear 26 1014 65 10000 2.1 250 13:41 22.08.2020
4557 Clear 27 1013 54 10000 2.6 270 11:58 22.08.2020
4558 Clouds 28 1013 51 10000 3.1 340 11:22 22.08.2020
4559 Clear 30 1013 48 10000 4.1 310 10:27 22.08.2020
4560 Clear 31 1013 48 10000 5.1 330 07:39 22.08.2020
4561 Clouds 28 1016 65 10000 1 20 01:33 22.08.2020
4562 Clouds 23 1014 94 10000 1.22 27 22:27 21.08.2020
4563 Clear 23 1014 94 10000 1 20 21:26 21.08.2020
4564 Clouds 25 1014 83 10000 2.1 340 18:27 21.08.2020
4565 Clear 25 1014 73 10000 0.5 20 15:36 21.08.2020
4566 Clear 26 1014 69 10000 1 200 14:37 21.08.2020
4567 Clear 28 1012 51 10000 2.6 340 12:23 21.08.2020
4568 Clear 29 1012 48 10000 3.6 330 11:21 21.08.2020
4569 Clouds 31 1011 55 10000 4.6 330 08:29 21.08.2020
4570 Clouds 29 1015 66 10000 0.5 240 02:28 21.08.2020
4571 Clouds 23 1013 94 10000 1.5 120 23:30 20.08.2020
4572 Clouds 24 1013 94 10000 1.5 70 20:42 20.08.2020
4573 Clouds 24 1013 94 10000 1 330 18:55 20.08.2020
4574 Clouds 25 1013 83 10000 1.5 300 18:18 20.08.2020
4575 Clouds 25 1012 83 10000 1.5 290 16:38 20.08.2020
4576 Clouds 25 1013 83 10000 2.1 280 14:56 20.08.2020
4577 Clear 27 1010 78 10000 3.1 300 12:20 20.08.2020
4578 Clear 27 1010 74 10000 3.1 300 11:43 20.08.2020
4579 Clouds 29 1010 58 10000 6.2 290 10:22 20.08.2020
4580 Clouds 30 1009 51 10000 7.2 300 09:22 20.08.2020
4581 Clouds 31 1010 52 10000 5.7 290 07:45 20.08.2020
4582 Clouds 31 1011 52 10000 5.1 300 07:21 20.08.2020
4583 Clouds 31 1013 51 10000 5.1 310 04:36 20.08.2020
4584 Clouds 24 1012 94 10000 1.38 127 00:45 20.08.2020
4585 Clouds 23 1012 94 10000 1 340 00:19 20.08.2020
4586 Clouds 24 1010 88 10000 1.5 340 21:47 19.08.2020
4587 Clouds 25 1010 83 10000 2.1 330 19:58 19.08.2020
4588 Clouds 25 1011 83 10000 3.6 270 17:57 19.08.2020
4589 Clouds 25 1011 83 10000 2.6 270 17:33 19.08.2020
4590 Clouds 25 1011 83 10000 2.1 270 15:39 19.08.2020
4591 Clouds 26 1011 83 10000 2.6 250 14:36 19.08.2020
4592 Clouds 26 1010 78 10000 3.6 270 13:22 19.08.2020
4593 Clouds 28 1008 62 10000 6.7 290 10:50 19.08.2020
4594 Clouds 28 1008 62 10000 6.7 290 10:25 19.08.2020
4595 Clouds 30 1008 62 10000 7.2 280 09:44 19.08.2020
4596 Clouds 31 1009 58 10000 6.2 300 06:56 19.08.2020
4597 Clouds 23 1009 88 10000 0.5 100 22:21 18.08.2020
4598 Clouds 23 1009 88 10000 1.74 41 21:48 18.08.2020
4599 Clouds 24 1009 88 10000 1 310 20:59 18.08.2020
4600 Clouds 24 1009 83 10000 2.1 290 20:41 18.08.2020
4601 Clear 24 1009 83 10000 2.1 290 20:23 18.08.2020
4602 Clear 26 1010 78 10000 4.1 270 18:21 18.08.2020
4603 Clear 26 1010 78 10000 2.6 270 17:42 18.08.2020
4604 Clouds 25 1011 78 10000 2.6 270 15:59 18.08.2020
4605 Clouds 25 1010 78 10000 2.6 290 14:38 18.08.2020
4606 Clouds 26 1009 78 10000 3.6 250 13:22 18.08.2020
4607 Clouds 26 1009 74 10000 4.1 260 12:32 18.08.2020
4608 Clouds 29 1008 65 10000 6.7 300 10:34 18.08.2020
4609 Clouds 30 1008 51 10000 5.7 310 08:19 18.08.2020
4610 Clouds 30 1009 54 10000 5.7 310 07:41 18.08.2020
4611 Clouds 28 1013 74 10000 2.6 10 02:33 18.08.2020
4612 Clouds 22 1011 88 10000 1 70 23:46 17.08.2020
4613 Clouds 22 1011 88 10000 1.5 80 23:24 17.08.2020
4614 Clear 22 1010 83 10000 1.5 100 21:49 17.08.2020
4615 Clouds 23 1011 88 10000 1 250 20:28 17.08.2020
4616 Clouds 23 1011 88 10000 1 250 19:46 17.08.2020
4617 Clear 23 1012 83 10000 0.5 270 17:30 17.08.2020
4618 Clear 25 1012 69 10000 2.1 250 15:38 17.08.2020
4619 Clear 26 1011 65 10000 2.1 230 14:58 17.08.2020
4620 Clear 25 1010 57 10000 1 30 13:47 17.08.2020
4621 Clouds 28 1010 48 10000 1.5 350 11:59 17.08.2020
4622 Clouds 28 1010 45 10000 3.1 360 11:39 17.08.2020
4623 Clear 28 1009 42 10000 4.6 10 11:20 17.08.2020
4624 Clear 29 1009 42 10000 5.7 360 10:19 17.08.2020
4625 Clear 31 1010 52 10000 5.7 340 07:50 17.08.2020
4626 Clear 31 1012 52 10000 6.2 320 06:46 17.08.2020
4627 Rain 24 1013 88 10000 1 300 23:34 16.08.2020
4628 Clouds 25 1012 83 10000 0.89 45 22:18 16.08.2020
4629 Clouds 25 1012 78 10000 2.1 290 20:19 16.08.2020
4630 Clear 25 1003 85 10000 0.5 260 18:38 16.08.2020
4631 Clear 25 1003 83 10000 1.58 277 17:42 16.08.2020
4632 Clear 26 1003 83 10000 1.9 278 16:34 16.08.2020
4633 Clear 26 1003 79 10000 1.8 302 15:42 16.08.2020
4634 Clear 26 1003 80 10000 1.87 341 15:18 16.08.2020
4635 Clear 27 1001 60 10000 0.86 309 12:36 16.08.2020
4636 Clear 28 1001 55 10000 0.76 345 11:59 16.08.2020
4637 Clear 29 1000 53 10000 2.38 5 11:25 16.08.2020
4638 Clear 30 1000 46 10000 2.38 5 10:51 16.08.2020
4639 Clear 31 1009 40 10000 4.92 300 09:46 16.08.2020
4640 Clouds 32 1010 43 10000 5.7 360 08:31 16.08.2020
4641 Clouds 33 1011 46 10000 5.7 310 07:21 16.08.2020
4642 Clouds 31 1014 58 10000 2.1 30 04:39 16.08.2020
4643 Clouds 24 1013 88 10000 1 110 22:48 15.08.2020
4644 Clouds 24 1012 94 10000 2.1 160 20:38 15.08.2020
4645 Clouds 24 1012 88 10000 0.5 230 19:56 15.08.2020
4646 Clouds 24 1012 94 10000 1 77 18:59 15.08.2020
4647 Clear 24 1013 88 10000 1 250 16:49 15.08.2020
4648 Clear 25 1013 83 10000 1.5 270 16:20 15.08.2020
4649 Clear 25 1013 78 10000 1.5 240 14:51 15.08.2020
4650 Clear 27 1012 74 10000 2.1 270 12:49 15.08.2020
4651 Clouds 27 1011 65 10000 3.1 280 11:58 15.08.2020
4652 Clouds 27 1011 61 10000 3.6 280 11:31 15.08.2020
4653 Clouds 27 1011 61 10000 3.6 280 11:31 15.08.2020
4654 Clouds 27 1011 61 10000 3.6 280 11:31 15.08.2020
4655 Clouds 27 1011 61 10000 3.6 280 11:31 15.08.2020
4656 Clouds 29 1010 62 10000 4.6 290 10:43 15.08.2020
4657 Clouds 29 1010 62 10000 4.6 290 10:19 15.08.2020
4658 Clouds 30 1010 58 10000 4.6 310 09:32 15.08.2020
4659 Clouds 31 1010 58 10000 5.7 300 08:28 15.08.2020
4660 Clouds 31 1012 62 10000 4.6 320 05:55 15.08.2020
4661 Clouds 28 1014 74 10000 5.1 290 01:57 15.08.2020
4662 Clouds 25 1012 88 10000 1.5 360 23:37 14.08.2020
4663 Clouds 24 1011 88 10000 0.4 58 21:55 14.08.2020
4664 Clouds 24 1011 88 10000 1 300 20:35 14.08.2020
4665 Clear 25 1012 88 10000 2.6 310 18:35 14.08.2020
4666 Clear 25 1013 78 10000 2.6 280 15:30 14.08.2020
4667 Clear 25 1012 78 10000 2.1 270 14:52 14.08.2020
4668 Clear 25 1012 74 10000 1.5 270 13:56 14.08.2020
4669 Clear 26 1010 69 10000 2.6 280 12:19 14.08.2020
4670 Clouds 28 1010 62 10000 4.1 340 10:33 14.08.2020
4671 Clouds 30 1009 62 10000 6.2 300 08:49 14.08.2020
4672 Clouds 24 1013 94 10000 2.1 50 01:26 14.08.2020
4673 Clouds 23 1012 94 10000 1.5 60 00:46 14.08.2020
4674 Fog 22 1011 94 10000 0.5 280 23:35 13.08.2020
4675 Clouds 22 1011 100 10000 1 280 22:25 13.08.2020
4676 Clouds 23 1010 94 10000 1.93 33 21:21 13.08.2020
4677 Clear 23 1010 94 10000 1.93 33 20:59 13.08.2020
4678 Clouds 23 1010 88 10000 1.5 280 19:51 13.08.2020
4679 Clear 24 1011 88 10000 2.1 280 17:58 13.08.2020
4680 Clouds 24 1012 83 10000 1.5 280 16:56 13.08.2020
4681 Clouds 25 1012 78 10000 2.6 280 14:36 13.08.2020
4682 Clouds 26 1011 78 10000 3.6 280 12:51 13.08.2020
4683 Clear 26 1011 74 10000 4.6 300 12:27 13.08.2020
4684 Clouds 31 1010 51 10000 5.1 300 09:20 13.08.2020
4685 Clear 31 1010 48 10000 5.1 310 07:47 13.08.2020
4686 Clouds 31 1011 48 10000 5.1 310 07:29 13.08.2020
4687 Clouds 23 1013 94 10000 1.5 60 22:48 12.08.2020
4688 Clouds 23 1012 94 10000 2.61 56 22:21 12.08.2020
4689 Clear 23 1012 94 10000 2.61 56 21:57 12.08.2020
4690 Clouds 23 1012 94 10000 1 300 20:59 12.08.2020
4691 Clouds 23 1012 94 10000 2.38 56 20:40 12.08.2020
4692 Clouds 23 1012 94 10000 2.23 67 20:21 12.08.2020
4693 Clouds 23 1012 94 10000 0.5 300 19:48 12.08.2020
4694 Clear 24 1013 88 10000 2.1 270 17:55 12.08.2020
4695 Clouds 25 1013 88 10000 2.1 280 16:35 12.08.2020
4696 Clear 25 1013 78 10000 2.6 270 14:55 12.08.2020
4697 Clear 25 1013 83 10000 2.6 270 14:22 12.08.2020
4698 Clear 25 1012 78 10000 3.1 280 13:22 12.08.2020
4699 Clear 26 1012 78 10000 3.1 300 12:22 12.08.2020
4700 Clouds 27 1011 74 10000 5.1 310 10:46 12.08.2020
4701 Clouds 31 1011 58 10000 4.6 310 07:48 12.08.2020
4702 Clouds 25 1015 83 10000 1.5 60 01:55 12.08.2020
4703 Clouds 23 1012 88 10000 2.6 230 22:24 11.08.2020
4704 Clouds 24 1012 88 10000 2.1 230 21:53 11.08.2020
4705 Clear 23 1012 88 10000 1 260 21:22 11.08.2020
4706 Clear 24 1012 83 10000 2.6 260 20:39 11.08.2020
4707 Clouds 24 1012 83 10000 2.1 270 19:30 11.08.2020
4708 Clouds 24 1013 88 10000 2.1 270 18:37 11.08.2020
4709 Clouds 25 1014 83 10000 3.1 280 16:51 11.08.2020
4710 Clear 25 1014 88 10000 3.1 280 15:53 11.08.2020
4711 Clear 25 1014 83 10000 2.6 280 14:51 11.08.2020
4712 Clouds 25 1014 83 10000 2.6 280 14:27 11.08.2020
4713 Clouds 25 1013 74 10000 2.6 280 12:51 11.08.2020
4714 Clouds 26 1013 78 10000 4.1 320 12:30 11.08.2020
4715 Clouds 27 1012 65 10000 3.6 300 11:29 11.08.2020
4716 Clouds 28 1012 61 10000 4.1 290 10:31 11.08.2020
4717 Clouds 29 1012 58 10000 4.6 330 07:55 11.08.2020
4718 Clouds 30 1012 58 10000 5.1 350 07:22 11.08.2020
4719 Clouds 31 1014 58 10000 3.6 330 05:43 11.08.2020
4720 Clouds 28 1016 69 10000 5.1 330 03:18 11.08.2020
4721 Clouds 27 1016 69 10000 1.5 30 02:39 11.08.2020
4722 Clouds 27 1016 69 10000 1.5 30 02:18 11.08.2020
4723 Clouds 23 1015 88 10000 2.1 70 00:33 11.08.2020
4724 Clouds 22 1013 94 10000 1.67 106 22:43 10.08.2020
4725 Clouds 23 1013 94 10000 1 270 21:21 10.08.2020
4726 Clouds 23 1013 94 10000 1 260 20:47 10.08.2020
4727 Clouds 24 1013 88 10000 2.1 270 19:38 10.08.2020
4728 Clouds 24 1013 88 10000 2.6 260 19:18 10.08.2020
4729 Clouds 25 1014 83 10000 3.1 270 17:50 10.08.2020
4730 Clouds 24 1014 78 10000 2.6 270 15:53 10.08.2020
4731 Clouds 24 1013 53 10000 1 10 13:47 10.08.2020
4732 Clouds 26 1012 47 10000 2.6 10 12:27 10.08.2020
4733 Clouds 28 1011 39 10000 4.6 10 10:54 10.08.2020
4734 Clouds 30 1011 33 10000 5.7 360 09:52 10.08.2020
4735 Clouds 30 1011 42 10000 4.6 350 08:52 10.08.2020
4736 Clouds 22 1014 94 10000 1.5 80 23:49 09.08.2020
4737 Clouds 22 1013 94 10000 1 80 22:26 09.08.2020
4738 Clouds 24 1013 83 10000 2.75 67 19:53 09.08.2020
4739 Clouds 23 1013 88 10000 2.75 67 19:35 09.08.2020
4740 Clouds 23 1013 88 10000 2.75 67 19:35 09.08.2020
4741 Clouds 23 1013 83 10000 1.5 350 18:46 09.08.2020
4742 Clouds 24 1013 78 10000 1.5 350 17:55 09.08.2020
4743 Clouds 23 1013 83 10000 1.98 8 17:22 09.08.2020
4744 Clear 23 1013 78 10000 3.75 15 16:23 09.08.2020
4745 Clear 24 1013 78 10000 0.5 10 14:49 09.08.2020
4746 Clouds 25 1013 74 10000 1.5 10 14:24 09.08.2020
4747 Clouds 26 1012 74 10000 2.6 20 12:57 09.08.2020
4748 Clouds 26 1012 65 10000 3.1 10 12:33 09.08.2020
4749 Clouds 28 1011 54 10000 3.6 10 10:57 09.08.2020
4750 Clouds 29 1011 54 10000 4.6 360 09:52 09.08.2020
4751 Clouds 31 1011 52 10000 4.6 350 08:48 09.08.2020
4752 Clouds 31 1011 52 10000 5.7 360 07:29 09.08.2020
4753 Clouds 27 1015 44 10000 1.5 80 01:54 09.08.2020
4754 Clouds 18 1013 88 10000 2.44 130 21:45 08.08.2020
4755 Clouds 21 1013 83 10000 2.11 217 18:28 08.08.2020
4756 Clouds 21 1013 73 10000 2.1 190 17:55 08.08.2020
4757 Clouds 22 1013 69 10000 1.5 190 16:57 08.08.2020
4758 Clouds 23 1013 73 10000 1.5 210 15:51 08.08.2020
4759 Clouds 23 1013 64 10000 2.1 210 14:49 08.08.2020
4760 Clouds 23 1012 65 10000 1.5 220 14:26 08.08.2020
4761 Clouds 24 1012 50 10000 1 10 12:52 08.08.2020
4762 Clouds 27 1011 30 10000 3.6 10 11:49 08.08.2020
4763 Clouds 33 1010 14 10000 5.7 310 07:52 08.08.2020
4764 Clouds 34 1010 39 10000 4.1 340 07:34 08.08.2020
4765 Clouds 27 1014 19 10000 5.7 130 02:38 08.08.2020
4766 Clear 20 1012 37 10000 3.6 150 22:38 07.08.2020
4767 Clear 20 1012 43 10000 3.6 150 21:35 07.08.2020
4768 Clear 21 1012 49 10000 3.1 170 20:48 07.08.2020
4769 Clouds 22 1012 68 10000 3.6 200 18:58 07.08.2020
4770 Clear 23 1013 64 10000 4.6 200 17:21 07.08.2020
4771 Clear 24 1013 53 10000 3.6 220 14:55 07.08.2020
4772 Clouds 25 1012 47 10000 3.6 250 13:28 07.08.2020
4773 Clouds 25 1011 50 10000 4.1 250 12:43 07.08.2020
4774 Clouds 29 1010 51 10000 5.1 280 10:30 07.08.2020
4775 Clouds 30 1010 40 10000 5.1 290 09:45 07.08.2020
4776 Clouds 32 1010 23 10000 5.1 290 06:59 07.08.2020
4777 Clouds 25 1014 78 10000 4.6 190 02:25 07.08.2020
4778 Fog 21 1013 100 1900 3.6 180 00:46 07.08.2020
4779 Clouds 20 1011 88 10000 2.1 280 22:59 06.08.2020
4780 Clouds 20 1010 94 10000 1.5 300 21:37 06.08.2020
4781 Clouds 20 1011 88 10000 1.5 340 20:41 06.08.2020
4782 Clouds 20 1011 88 10000 1.5 310 19:43 06.08.2020
4783 Clouds 20 1011 88 10000 1.5 270 18:53 06.08.2020
4784 Clouds 21 1011 88 10000 1 240 18:25 06.08.2020
4785 Clouds 22 1011 78 10000 2.6 220 17:35 06.08.2020
4786 Clouds 22 1012 78 10000 2.6 230 16:43 06.08.2020
4787 Clouds 23 1012 78 10000 2.1 240 14:55 06.08.2020
4788 Clear 24 1011 69 10000 2.6 240 14:24 06.08.2020
4789 Clear 25 1011 73 10000 3.1 240 13:29 06.08.2020
4790 Clear 25 1010 69 10000 5.7 240 11:57 06.08.2020
4791 Clear 26 1010 65 10000 5.1 260 11:32 06.08.2020
4792 Clouds 29 1009 54 10000 5.7 270 09:33 06.08.2020
4793 Clouds 30 1009 51 10000 6.7 270 08:51 06.08.2020
4794 Clouds 29 1009 54 10000 7.2 290 08:33 06.08.2020
4795 Clouds 25 1013 83 10000 2.6 230 02:34 06.08.2020
4796 Clouds 25 1012 83 10000 1.5 210 01:52 06.08.2020
4797 Clouds 22 1010 100 10000 1.5 190 23:21 05.08.2020
4798 Clouds 22 1010 100 10000 1 200 22:53 05.08.2020
4799 Clouds 22 1010 100 10000 1 210 22:18 05.08.2020
4800 Clouds 23 1009 94 10000 1.5 250 20:56 05.08.2020
4801 Clouds 23 1010 94 10000 1.5 250 20:37 05.08.2020
4802 Clouds 23 1010 83 10000 2.1 250 19:33 05.08.2020
4803 Clouds 24 1010 88 10000 2.6 260 17:51 05.08.2020
4804 Clouds 24 1010 88 10000 2.1 270 16:48 05.08.2020
4805 Clouds 24 1010 88 10000 2.1 280 15:45 05.08.2020
4806 Clouds 23 1010 83 10000 1.5 260 15:23 05.08.2020
4807 Clouds 24 1010 83 10000 2.6 270 14:48 05.08.2020
4808 Clouds 24 1009 73 10000 2.1 270 13:46 05.08.2020
4809 Clouds 24 1009 73 10000 3.6 280 13:18 05.08.2020
4810 Clouds 26 1008 65 10000 3.6 300 11:48 05.08.2020
4811 Clouds 27 1008 58 10000 3.6 310 10:54 05.08.2020
4812 Clouds 28 1008 48 10000 3.1 340 10:21 05.08.2020
4813 Clouds 28 1008 48 10000 3.1 340 10:21 05.08.2020
4814 Clouds 29 1008 51 10000 4.6 340 09:28 05.08.2020
4815 Clouds 29 1009 54 10000 4.1 340 07:41 05.08.2020
4816 Clouds 29 1011 58 10000 1.5 90 04:48 05.08.2020
4817 Clouds 25 1012 78 10000 1.5 90 01:24 05.08.2020
4818 Clouds 21 1011 94 10000 1.5 80 23:56 04.08.2020
4819 Clouds 21 1011 94 10000 2.6 70 23:33 04.08.2020
4820 Clouds 21 1011 94 10000 1.5 90 22:52 04.08.2020
4821 Clouds 21 1010 94 10000 1.5 170 22:27 04.08.2020
4822 Clouds 22 1010 94 10000 1.5 190 21:32 04.08.2020
4823 Clouds 23 1011 94 10000 2.1 230 19:42 04.08.2020
4824 Clouds 23 1011 88 10000 1.5 240 18:58 04.08.2020
4825 Clouds 23 1011 83 10000 2.1 230 17:40 04.08.2020
4826 Clouds 23 1011 83 10000 2.6 240 16:57 04.08.2020
4827 Clouds 24 1011 88 10000 2.6 250 15:57 04.08.2020
4828 Clear 24 1011 83 10000 1.5 300 15:29 04.08.2020
4829 Clouds 24 1010 69 10000 1.5 360 14:18 04.08.2020
4830 Clouds 25 1009 65 10000 3.1 10 12:34 04.08.2020
4831 Clouds 26 1009 57 10000 4.1 10 11:32 04.08.2020
4832 Clouds 27 1009 51 10000 4.6 360 10:53 04.08.2020
4833 Clouds 28 1008 48 10000 5.7 360 10:34 04.08.2020
4834 Clouds 29 1008 45 10000 5.1 360 09:18 04.08.2020
4835 Clouds 29 1010 51 10000 5.7 340 06:57 04.08.2020
4836 Clouds 20 1011 83 10000 1.5 120 23:40 03.08.2020
4837 Clouds 21 1011 83 10000 2.6 120 22:34 03.08.2020
4838 Clouds 21 1011 83 10000 2.1 140 21:53 03.08.2020
4839 Clouds 21 1011 88 10000 2.1 150 21:26 03.08.2020
4840 Clouds 21 1011 88 10000 2.1 160 20:51 03.08.2020
4841 Clouds 21 1011 83 10000 1.5 190 19:45 03.08.2020
4842 Clouds 22 1011 83 10000 0.5 160 18:44 03.08.2020
4843 Clouds 21 1011 83 10000 0.5 160 18:26 03.08.2020
4844 Clouds 22 1012 78 10000 1.5 80 17:45 03.08.2020
4845 Clouds 22 1012 78 10000 2.47 337 16:25 03.08.2020
4846 Clouds 23 1012 73 10000 1 170 14:57 03.08.2020
4847 Clouds 24 1011 69 10000 1 200 14:27 03.08.2020
4848 Clouds 23 1010 73 10000 1.5 360 13:23 03.08.2020
4849 Clouds 24 1010 65 10000 3.1 20 11:59 03.08.2020
4850 Clouds 26 1009 54 10000 4.1 20 10:46 03.08.2020
4851 Clouds 28 1009 51 10000 5.1 360 09:29 03.08.2020
4852 Clouds 28 1009 54 10000 5.7 350 08:26 03.08.2020
4853 Clouds 25 1014 61 10000 2.6 160 02:26 03.08.2020
4854 Clouds 25 1014 53 10000 2.1 150 01:53 03.08.2020
4855 Clouds 21 1013 68 10000 2.6 150 00:53 03.08.2020
4856 Clouds 18 1012 93 10000 5.1 90 22:54 02.08.2020
4857 Clear 20 1012 88 10000 3.1 180 21:23 02.08.2020
4858 Clear 20 1012 88 10000 2.6 190 20:59 02.08.2020
4859 Clear 20 1012 88 10000 2.1 190 20:35 02.08.2020
4860 Clouds 18 1012 88 10000 1 350 19:50 02.08.2020
4861 Clouds 19 1012 77 10000 1.95 122 19:22 02.08.2020
4862 Clouds 18 1012 88 10000 1.95 122 18:41 02.08.2020
4863 Clouds 18 1013 82 10000 0.28 265 17:24 02.08.2020
4864 Clouds 18 1013 77 10000 0.96 22 15:48 02.08.2020
4865 Clear 19 1012 72 10000 2.07 49 14:54 02.08.2020
4866 Clear 22 1012 64 10000 1 350 14:33 02.08.2020
4867 Clouds 23 1012 64 10000 0.5 350 13:50 02.08.2020
4868 Clouds 23 1011 60 10000 3.1 20 12:52 02.08.2020
4869 Clouds 23 1011 57 10000 3.6 20 12:26 02.08.2020
4870 Clouds 25 1010 47 10000 4.6 360 10:57 02.08.2020
4871 Clouds 26 1010 44 10000 4.6 10 10:36 02.08.2020
4872 Clouds 28 1010 42 10000 5.7 10 09:44 02.08.2020
4873 Clouds 28 1010 44 10000 6.2 360 08:47 02.08.2020
4874 Clouds 29 1010 39 10000 6.7 350 08:20 02.08.2020
4875 Clear 28 1013 28 10000 4.6 90 04:56 02.08.2020
4876 Clear 25 1015 50 10000 6.2 90 02:48 02.08.2020
4877 Clear 19 1014 93 10000 2.1 140 00:30 02.08.2020
4878 Clouds 17 1013 93 10000 1 120 23:29 01.08.2020
4879 Clear 17 1013 93 10000 1 100 22:20 01.08.2020
4880 Clear 18 1014 93 10000 1.5 100 20:26 01.08.2020
4881 Clear 18 1014 88 10000 1 170 19:34 01.08.2020
4882 Clear 19 1014 88 10000 0.5 200 18:45 01.08.2020
4883 Clear 19 1014 88 10000 2.17 108 17:59 01.08.2020
4884 Clear 19 1014 88 10000 1.99 132 17:22 01.08.2020
4885 Clear 21 1014 83 10000 1 200 16:21 01.08.2020
4886 Clear 21 1014 73 10000 1.5 190 15:23 01.08.2020
4887 Clear 22 1014 73 10000 3.1 190 14:55 01.08.2020
4888 Clear 23 1013 64 10000 2.65 51 13:26 01.08.2020
4889 Clear 25 1012 50 10000 3.6 30 11:50 01.08.2020
4890 Clouds 27 1011 39 10000 4.1 20 10:59 01.08.2020
4891 Clear 31 1011 16 10000 2.6 100 07:43 01.08.2020
4892 Clear 30 1013 20 10000 6.7 80 05:51 01.08.2020
4893 Clouds 23 1015 69 10000 4.6 90 01:55 01.08.2020
4894 Clouds 22 1015 78 10000 7.7 90 01:35 01.08.2020
4895 Clouds 20 1014 93 10000 7.7 90 00:37 01.08.2020
4896 Clouds 18 1013 82 10000 1.5 140 22:53 31.07.2020
4897 Clouds 19 1013 77 10000 1.5 150 20:58 31.07.2020
4898 Clouds 19 1013 72 10000 1.5 140 20:31 31.07.2020
4899 Clouds 19 1013 77 10000 1.5 130 19:58 31.07.2020
4900 Clouds 19 1013 72 10000 1.5 110 18:42 31.07.2020
4901 Clouds 20 1013 77 10000 1.5 150 17:33 31.07.2020
4902 Clouds 23 1013 64 10000 2.1 170 16:42 31.07.2020
4903 Clouds 22 1013 68 10000 1.5 170 15:31 31.07.2020
4904 Clouds 23 1012 57 10000 3.1 50 13:42 31.07.2020
4905 Clouds 24 1012 57 10000 3.1 50 13:22 31.07.2020
4906 Clouds 24 1012 57 10000 3.1 50 13:22 31.07.2020
4907 Clouds 24 1012 53 10000 4.6 50 12:19 31.07.2020
4908 Clouds 25 1011 47 10000 5.7 30 11:38 31.07.2020
4909 Clear 26 1011 39 10000 6.7 30 10:49 31.07.2020
4910 Clear 27 1010 34 10000 6.7 20 10:18 31.07.2020
4911 Clear 29 1010 22 9000 6.2 40 09:30 31.07.2020
4912 Clear 31 1010 11 10000 5.7 70 08:49 31.07.2020
4913 Clear 31 1011 11 10000 5.7 60 07:25 31.07.2020
4914 Clear 27 1014 31 10000 7.7 100 03:34 31.07.2020
4915 Clear 23 1015 31 10000 9.3 100 01:52 31.07.2020
4916 Clear 18 1014 39 10000 4.6 100 00:36 31.07.2020
4917 Clear 15 1014 39 10000 4.1 110 23:47 30.07.2020
4918 Clear 17 1013 58 10000 4.6 100 22:46 30.07.2020
4919 Clear 18 1013 54 10000 4.1 100 22:21 30.07.2020
4920 Clear 19 1013 22 10000 4.1 110 21:18 30.07.2020
4921 Clear 19 1013 24 10000 4.1 120 20:54 30.07.2020
4922 Clear 19 1013 43 10000 3.6 130 19:41 30.07.2020
4923 Clear 20 1013 28 10000 3.6 150 18:54 30.07.2020
4924 Clear 16 1014 63 10000 2.1 180 17:38 30.07.2020
4925 Clear 17 1014 52 10000 2.1 170 16:55 30.07.2020
4926 Clear 17 1014 63 10000 1 80 16:34 30.07.2020
4927 Clear 16 1014 72 10000 0.5 60 15:55 30.07.2020
4928 Clear 16 1014 77 10000 2.6 153 15:36 30.07.2020
4929 Clear 18 1014 72 10000 2.53 178 14:56 30.07.2020
4930 Clear 19 1014 68 10000 0.5 360 14:37 30.07.2020
4931 Clear 19 1014 68 10000 0.5 360 14:19 30.07.2020
4932 Clouds 20 1013 64 10000 0.5 360 13:20 30.07.2020
4933 Clouds 21 1013 60 10000 1 340 12:59 30.07.2020
4934 Clouds 23 1012 53 10000 1.5 340 12:30 30.07.2020
4935 Clouds 23 1012 53 10000 1.5 340 12:30 30.07.2020
4936 Clear 26 1011 34 10000 4.1 350 10:49 30.07.2020
4937 Clear 27 1011 30 10000 4.6 340 10:24 30.07.2020
4938 Clear 30 1010 7 10000 3.6 90 09:22 30.07.2020
4939 Clear 31 1010 6 10000 4.1 330 08:57 30.07.2020
4940 Clear 31 1011 7 10000 4.1 100 08:27 30.07.2020
4941 Clear 28 1014 8 10000 8.7 130 05:19 30.07.2020
4942 Clear 21 1016 22 10000 3.6 130 01:50 30.07.2020
4943 Clear 14 1014 39 10000 2.6 90 23:59 29.07.2020
4944 Clear 16 1014 29 10000 4.6 110 22:55 29.07.2020
4945 Clear 19 1013 42 10000 5.1 100 22:21 29.07.2020
4946 Clear 20 1013 42 10000 4.6 100 21:40 29.07.2020
4947 Clear 20 1013 42 10000 4.1 110 20:51 29.07.2020
4948 Clear 19 1013 34 10000 3.1 120 20:31 29.07.2020
4949 Clear 18 1013 52 10000 3.6 130 19:49 29.07.2020
4950 Clear 20 1013 52 10000 2.6 150 19:26 29.07.2020
4951 Clear 18 1013 72 10000 3.1 150 18:55 29.07.2020
4952 Clear 20 1013 82 10000 2.6 170 18:31 29.07.2020
4953 Clear 20 1013 82 10000 2.6 180 17:54 29.07.2020
4954 Clear 21 1013 77 10000 2.1 190 16:51 29.07.2020
4955 Clear 21 1013 77 10000 2.6 200 16:22 29.07.2020
4956 Clear 19 1013 72 10000 1.5 200 15:42 29.07.2020
4957 Clear 19 1013 72 10000 1.5 200 15:19 29.07.2020
4958 Clouds 20 1013 72 10000 0.5 20 14:22 29.07.2020
4959 Clouds 21 1013 68 10000 0.5 350 13:45 29.07.2020
4960 Clouds 22 1012 68 10000 1.5 350 13:18 29.07.2020
4961 Clouds 24 1012 57 10000 3.1 340 12:24 29.07.2020
4962 Clouds 24 1011 53 10000 2.1 310 11:51 29.07.2020
4963 Clouds 25 1011 41 10000 2.6 340 11:32 29.07.2020
4964 Clouds 28 1011 26 10000 3.1 320 10:39 29.07.2020
4965 Clouds 31 1010 8 10000 4.6 320 09:44 29.07.2020
4966 Clouds 31 1010 5 10000 2.6 100 08:42 29.07.2020
4967 Clouds 31 1010 6 10000 5.1 90 08:18 29.07.2020
4968 Clouds 29 1011 9 10000 3.6 110 06:38 29.07.2020
4969 Clear 24 1014 17 10000 6.7 130 02:47 29.07.2020
4970 Clouds 18 1013 33 10000 3.6 150 00:38 29.07.2020
4971 Clouds 18 1012 27 10000 3.6 140 23:20 28.07.2020
4972 Clouds 19 1012 25 10000 3.6 120 22:24 28.07.2020
4973 Clouds 19 1012 25 10000 3.6 120 21:53 28.07.2020
4974 Clouds 17 1012 25 10000 3.6 120 21:24 28.07.2020
4975 Clouds 17 1012 29 10000 3.6 120 20:49 28.07.2020
4976 Clouds 17 1012 37 10000 3.1 120 20:21 28.07.2020
4977 Clouds 17 1012 52 10000 2.6 130 19:50 28.07.2020
4978 Clouds 17 1012 72 10000 2.6 150 19:22 28.07.2020
4979 Clouds 16 1013 88 10000 2.6 150 18:51 28.07.2020
4980 Clouds 17 1013 88 10000 2.1 140 18:25 28.07.2020
4981 Clouds 18 1013 82 10000 4.45 105 17:25 28.07.2020
4982 Clouds 18 1013 77 10000 1.5 230 16:47 28.07.2020
4983 Clouds 19 1013 72 10000 1.5 220 15:44 28.07.2020
4984 Clouds 19 1013 72 10000 1.5 220 15:21 28.07.2020
4985 Clouds 19 1013 68 10000 0.5 310 14:42 28.07.2020
4986 Clouds 20 1013 64 10000 1 310 13:56 28.07.2020
4987 Clouds 21 1012 64 10000 0.5 340 13:23 28.07.2020
4988 Clouds 23 1011 50 10000 1.5 310 12:26 28.07.2020
4989 Clouds 23 1011 50 10000 1.5 340 11:58 28.07.2020
4990 Clouds 24 1011 47 10000 3.1 10 11:38 28.07.2020
4991 Clouds 26 1010 41 10000 3.6 360 10:45 28.07.2020
4992 Clouds 27 1010 39 10000 3.1 350 10:23 28.07.2020
4993 Clouds 28 1010 34 10000 3.6 350 09:45 28.07.2020
4994 Clouds 29 1010 30 10000 4.6 340 09:27 28.07.2020
4995 Clouds 31 1009 11 10000 4.1 340 08:48 28.07.2020
4996 Clouds 31 1010 11 10000 4.1 340 08:28 28.07.2020
4997 Clouds 31 1010 11 10000 4.1 340 07:49 28.07.2020
4998 Clouds 29 1012 14 10000 5.1 110 05:43 28.07.2020
4999 Clouds 24 1014 22 10000 4.6 120 02:20 28.07.2020
5000 Clouds 23 1014 25 10000 4.6 130 01:48 28.07.2020
5001 Clouds 20 1013 32 10000 5.1 140 00:29 28.07.2020
5002 Clouds 19 1012 34 10000 5.7 150 23:27 27.07.2020
5003 Clouds 19 1012 37 10000 5.1 150 22:57 27.07.2020
5004 Clouds 20 1012 34 10000 5.1 140 22:23 27.07.2020
5005 Clouds 19 1011 37 10000 3.6 140 21:50 27.07.2020
5006 Clouds 19 1011 52 10000 3.6 150 21:30 27.07.2020
5007 Clear 19 1011 52 10000 2.6 170 20:45 27.07.2020
5008 Clouds 19 1011 52 10000 2.6 170 20:21 27.07.2020
5009 Clouds 20 1011 52 10000 2.6 170 19:50 27.07.2020
5010 Clouds 20 1011 52 10000 2.6 170 19:29 27.07.2020
5011 Clouds 19 1012 68 10000 2.1 170 18:37 27.07.2020
5012 Clouds 19 1012 68 10000 2.1 170 18:37 27.07.2020
5013 Clouds 19 1012 73 10000 2.6 200 17:47 27.07.2020
5014 Clouds 19 1012 82 10000 1 240 17:27 27.07.2020
5015 Clouds 20 1013 77 10000 1 240 16:36 27.07.2020
5016 Clouds 20 1013 77 10000 1 240 16:18 27.07.2020
5017 Clouds 20 1013 73 10000 2.1 250 15:40 27.07.2020
5018 Clouds 21 1013 73 10000 2.1 250 15:21 27.07.2020
5019 Clouds 22 1012 60 10000 2.6 250 14:43 27.07.2020
5020 Clouds 23 1012 60 10000 2.6 250 14:20 27.07.2020
5021 Clouds 23 1012 60 10000 3.1 240 13:31 27.07.2020
5022 Clouds 23 1011 64 10000 2.6 280 12:54 27.07.2020
5023 Clouds 24 1011 61 10000 2.6 280 12:35 27.07.2020
5024 Clouds 25 1011 57 10000 2.6 300 11:51 27.07.2020
5025 Clouds 26 1010 47 10000 1.5 290 11:21 27.07.2020
5026 Clouds 28 1010 37 10000 3.6 330 10:36 27.07.2020
5027 Clouds 32 1010 15 10000 4.1 150 09:43 27.07.2020
5028 Clouds 32 1010 15 10000 4.1 150 09:20 27.07.2020
5029 Clouds 31 1010 18 10000 2.1 140 08:59 27.07.2020
5030 Clouds 31 1010 16 10000 5.1 150 08:40 27.07.2020
5031 Clouds 31 1010 16 10000 4.1 30 07:49 27.07.2020
5032 Clouds 31 1012 16 10000 4.1 30 06:46 27.07.2020
5033 Clouds 31 1012 16 10000 4.1 30 06:24 27.07.2020
5034 Clouds 24 1015 31 10000 4.6 130 02:19 27.07.2020
5035 Clouds 20 1014 39 10000 4.1 140 00:41 27.07.2020
5036 Clouds 19 1014 42 10000 3.6 140 23:34 26.07.2020
5037 Clouds 19 1013 45 10000 3.6 140 22:59 26.07.2020
5038 Clouds 19 1013 48 10000 3.6 130 22:38 26.07.2020
5039 Clear 20 1013 45 10000 3.6 140 21:58 26.07.2020
5040 Clear 20 1013 43 10000 4.1 150 21:40 26.07.2020
5041 Clouds 21 1013 43 10000 4.1 150 21:20 26.07.2020
5042 Clouds 21 1013 46 10000 4.1 140 20:49 26.07.2020
5043 Clear 21 1013 53 10000 3.6 150 20:23 26.07.2020
5044 Clear 19 1013 88 10000 2.1 160 19:44 26.07.2020
5045 Clear 19 1013 88 10000 2.1 160 19:22 26.07.2020
5046 Clear 19 1013 82 10000 0.5 200 18:46 26.07.2020
5047 Clear 20 1013 82 10000 0.5 200 18:27 26.07.2020
5048 Clear 20 1013 77 10000 1.5 210 17:49 26.07.2020
5049 Clear 21 1014 73 10000 2.1 210 17:25 26.07.2020
5050 Clear 22 1013 69 10000 1.5 230 16:53 26.07.2020
5051 Clear 22 1014 69 10000 1 210 16:27 26.07.2020
5052 Clear 22 1014 69 10000 2.1 210 15:43 26.07.2020
5053 Clear 22 1014 69 10000 2.1 210 15:25 26.07.2020
5054 Clear 22 1014 69 10000 2.1 250 14:57 26.07.2020
5055 Clear 23 1014 64 10000 1.5 240 14:34 26.07.2020
5056 Clouds 24 1013 61 10000 2.6 240 13:53 26.07.2020
5057 Clouds 24 1013 61 10000 2.6 250 13:18 26.07.2020
5058 Clouds 25 1012 57 10000 3.1 260 12:44 26.07.2020
5059 Clouds 25 1012 57 10000 3.1 260 12:44 26.07.2020
5060 Clouds 25 1012 57 10000 3.1 260 12:23 26.07.2020
5061 Clouds 25 1011 47 10000 2.6 330 11:42 26.07.2020
5062 Clouds 26 1011 47 10000 2.6 330 11:23 26.07.2020
5063 Clouds 27 1011 42 10000 5.1 350 10:44 26.07.2020
5064 Clouds 29 1010 42 10000 4.6 350 09:59 26.07.2020
5065 Clouds 29 1010 39 10000 5.7 350 09:38 26.07.2020
5066 Clear 30 1010 37 10000 5.7 350 08:56 26.07.2020
5067 Clear 32 1010 21 10000 3.1 310 08:18 26.07.2020
5068 Clear 31 1012 20 10000 4.1 100 06:30 26.07.2020
5069 Clear 29 1014 23 10000 9.3 110 03:52 26.07.2020
5070 Clear 24 1015 38 10000 4.6 120 01:23 26.07.2020
5071 Clear 21 1014 49 10000 4.6 120 00:19 26.07.2020
5072 Clear 20 1014 60 10000 4.6 130 23:32 25.07.2020
5073 Clear 20 1014 68 10000 4.1 140 22:46 25.07.2020
5074 Clear 20 1013 68 10000 4.1 150 22:18 25.07.2020
5075 Clear 20 1013 88 9000 2.6 150 21:27 25.07.2020
5076 Clear 20 1013 94 10000 1.5 70 20:45 25.07.2020
5077 Clear 20 1013 94 10000 1.5 70 20:23 25.07.2020
5078 Clear 20 1013 88 10000 1 180 19:44 25.07.2020
5079 Clear 21 1013 83 10000 2.1 200 19:21 25.07.2020
5080 Clear 22 1013 83 10000 1.5 180 18:40 25.07.2020
5081 Clear 22 1013 88 10000 1 220 18:18 25.07.2020
5082 Clear 22 1014 88 10000 1.5 220 17:42 25.07.2020
5083 Clear 22 1014 88 10000 1.5 220 17:22 25.07.2020
5084 Clear 23 1014 88 10000 2.1 230 16:57 25.07.2020
5085 Clear 23 1014 83 10000 2.6 220 16:35 25.07.2020
5086 Clear 23 1014 78 10000 3.1 220 15:52 25.07.2020
5087 Clear 24 1014 78 10000 3.6 220 15:32 25.07.2020
5088 Clear 24 1013 78 10000 3.1 230 14:57 25.07.2020
5089 Clear 24 1013 78 10000 2.6 230 14:35 25.07.2020
5090 Clear 24 1012 61 10000 1.5 260 13:44 25.07.2020
5091 Clear 25 1012 61 10000 1.5 260 13:22 25.07.2020
5092 Clear 24 1012 57 10000 1 360 12:57 25.07.2020
5093 Clear 25 1012 57 10000 1.5 360 12:22 25.07.2020
5094 Clear 26 1011 54 10000 2.1 350 11:59 25.07.2020
5095 Clear 26 1011 57 10000 2.6 340 11:39 25.07.2020
5096 Clear 28 1011 48 10000 4.6 340 10:48 25.07.2020
5097 Clear 29 1011 48 10000 4.6 340 10:30 25.07.2020
5098 Clear 29 1010 45 10000 3.6 340 09:59 25.07.2020
5099 Clear 30 1010 42 10000 4.6 330 09:37 25.07.2020
5100 Clear 31 1010 35 10000 4.6 320 09:18 25.07.2020
5101 Clear 32 1010 22 10000 2.6 210 08:44 25.07.2020
5102 Clouds 32 1010 24 10000 4.1 340 08:21 25.07.2020
5103 Clouds 32 1011 25 10000 4.1 150 07:42 25.07.2020
5104 Clouds 31 1012 25 10000 5.1 90 06:56 25.07.2020
5105 Clouds 29 1014 48 10000 5.7 80 03:44 25.07.2020
5106 Clear 27 1014 54 10000 4.1 90 02:36 25.07.2020
5107 Clouds 25 1014 65 10000 3.1 80 01:47 25.07.2020
5108 Clouds 25 1014 61 10000 2.1 110 01:20 25.07.2020
5109 Clouds 21 1013 83 10000 2.1 150 00:46 25.07.2020
5110 Clouds 20 1013 88 10000 2.52 113 00:25 25.07.2020
5111 Clouds 20 1013 88 10000 2.52 113 23:57 24.07.2020
5112 Clouds 20 1013 88 10000 0.5 130 23:37 24.07.2020
5113 Clouds 20 1013 88 10000 0.5 130 23:19 24.07.2020
5114 Clouds 20 1013 94 10000 0.5 130 22:42 24.07.2020
5115 Clouds 20 1013 94 10000 0.5 130 22:22 24.07.2020
5116 Clear 20 1012 94 10000 1.5 150 21:49 24.07.2020
5117 Clear 20 1012 88 10000 0.5 120 21:27 24.07.2020
5118 Clear 20 1012 94 10000 2.1 180 20:48 24.07.2020
5119 Clear 21 1012 88 10000 2.1 180 20:29 24.07.2020
5120 Clear 22 1012 83 10000 2.1 190 19:47 24.07.2020
5121 Clear 21 1012 83 10000 2.1 190 19:27 24.07.2020
5122 Clear 21 1013 83 10000 2.6 180 18:46 24.07.2020
5123 Clear 22 1013 83 10000 2.6 180 18:25 24.07.2020
5124 Clear 21 1013 83 10000 2.1 190 17:47 24.07.2020
5125 Clear 21 1013 88 10000 1.5 150 17:18 24.07.2020
5126 Clear 21 1013 83 10000 1 210 16:43 24.07.2020
5127 Clear 21 1013 83 10000 1 210 16:24 24.07.2020
5128 Clear 23 1013 78 10000 1.5 200 15:44 24.07.2020
5129 Clear 24 1013 78 10000 1.5 200 15:23 24.07.2020
5130 Clear 23 1013 73 10000 0.5 10 14:42 24.07.2020
5131 Clouds 23 1013 73 10000 0.5 10 14:23 24.07.2020
5132 Clouds 23 1012 69 10000 2.1 20 13:42 24.07.2020
5133 Clouds 23 1012 69 10000 2.1 20 13:20 24.07.2020
5134 Clouds 25 1011 61 10000 2.6 10 12:44 24.07.2020
5135 Clouds 25 1011 61 10000 2.6 10 12:19 24.07.2020
5136 Clouds 26 1011 54 10000 3.6 360 11:38 24.07.2020
5137 Clouds 26 1011 54 10000 3.6 360 11:18 24.07.2020
5138 Clouds 29 1010 42 10000 4.6 350 10:44 24.07.2020
5139 Clouds 29 1010 42 10000 4.6 350 10:19 24.07.2020
5140 Clouds 29 1010 42 10000 4.6 350 10:19 24.07.2020
5141 Clouds 30 1010 40 10000 4.1 350 09:44 24.07.2020
5142 Clouds 30 1010 37 10000 4.6 320 09:26 24.07.2020
5143 Clouds 30 1010 33 10000 5.1 10 08:57 24.07.2020
5144 Clouds 31 1010 29 10000 4.6 320 08:37 24.07.2020
5145 Clear 31 1010 33 10000 4.6 320 07:58 24.07.2020
5146 Clear 31 1010 35 10000 3.1 50 07:37 24.07.2020
5147 Clear 31 1011 25 10000 3.1 70 07:18 24.07.2020
5148 Clear 31 1012 27 10000 2.6 80 05:57 24.07.2020
5149 Clear 30 1012 28 10000 4.6 70 05:32 24.07.2020
5150 Clear 30 1013 32 10000 4.6 100 04:41 24.07.2020
5151 Clear 25 1014 69 10000 1.5 70 01:59 24.07.2020
5152 Clear 20 1013 82 10000 1 70 00:53 24.07.2020
5153 Clear 18 1013 93 10000 1.5 70 00:26 24.07.2020
5154 Clear 17 1013 93 10000 1.5 70 23:45 23.07.2020
5155 Clear 17 1012 93 10000 1 70 23:26 23.07.2020
5156 Clear 17 1012 88 10000 1 70 22:45 23.07.2020
5157 Clear 17 1012 88 10000 1 70 22:23 23.07.2020
5158 Clear 17 1012 93 10000 2.67 106 21:56 23.07.2020
5159 Clear 18 1012 88 10000 2.67 106 21:37 23.07.2020
5160 Clear 18 1012 88 10000 2.06 80 21:19 23.07.2020
5161 Clear 18 1012 93 10000 1 230 20:54 23.07.2020
5162 Clear 18 1012 88 10000 1.5 250 20:36 23.07.2020
5163 Clouds 18 1012 88 10000 1.5 250 20:18 23.07.2020
5164 Clouds 19 1012 82 10000 1 260 19:39 23.07.2020
5165 Clouds 19 1012 82 10000 1 260 19:21 23.07.2020
5166 Clouds 21 1012 68 10000 2.6 240 18:43 23.07.2020
5167 Clouds 21 1012 68 10000 2.6 240 18:24 23.07.2020
5168 Clouds 20 1012 73 10000 2.6 260 17:58 23.07.2020
5169 Clouds 19 1012 77 10000 2.6 270 17:39 23.07.2020
5170 Clouds 20 1012 77 10000 2.6 270 17:18 23.07.2020
5171 Clouds 21 1012 64 10000 2.1 250 16:41 23.07.2020
5172 Clouds 21 1012 64 10000 2.1 250 16:21 23.07.2020
5173 Clouds 21 1012 64 10000 2.6 240 15:42 23.07.2020
5174 Clouds 21 1012 64 10000 2.6 240 15:22 23.07.2020
5175 Clouds 21 1012 68 10000 1.5 280 14:40 23.07.2020
5176 Clouds 21 1012 68 10000 1.5 280 14:20 23.07.2020
5177 Clouds 22 1012 68 10000 1.5 290 13:58 23.07.2020
5178 Clouds 23 1012 60 10000 2.1 290 13:40 23.07.2020
5179 Clouds 23 1012 60 10000 2.1 290 13:22 23.07.2020
5180 Clouds 24 1011 57 10000 1.5 320 12:44 23.07.2020
5181 Clouds 24 1011 57 10000 1.5 320 12:23 23.07.2020
5182 Clouds 24 1011 50 10000 1.5 340 11:50 23.07.2020
5183 Clouds 26 1010 47 10000 2.6 340 11:26 23.07.2020
5184 Clouds 27 1010 37 10000 3.6 360 10:58 23.07.2020
5185 Clouds 28 1010 30 10000 3.6 350 10:39 23.07.2020
5186 Clouds 28 1010 30 10000 3.6 350 10:19 23.07.2020
5187 Clouds 28 1010 30 10000 3.6 350 10:19 23.07.2020
5188 Clouds 29 1010 30 10000 3.6 330 09:48 23.07.2020
5189 Clear 31 1010 16 10000 3.6 310 09:28 23.07.2020
5190 Clear 31 1010 16 10000 2.1 100 08:52 23.07.2020
5191 Clear 31 1010 18 10000 3.6 120 08:32 23.07.2020
5192 Clear 31 1010 19 10000 2.1 120 07:54 23.07.2020
5193 Clouds 30 1011 19 10000 4.1 120 07:29 23.07.2020
5194 Clouds 30 1012 19 10000 5.7 90 06:38 23.07.2020
5195 Clouds 30 1012 17 10000 4.6 120 06:19 23.07.2020
5196 Clouds 29 1012 18 10000 6.7 110 05:43 23.07.2020
5197 Clear 29 1013 20 10000 4.6 120 04:38 23.07.2020
5198 Clear 27 1014 24 10000 3.6 140 03:44 23.07.2020
5199 Clear 24 1014 25 10000 4.6 130 02:29 23.07.2020
5200 Clear 19 1013 29 10000 5.1 150 00:29 23.07.2020
5201 Clear 19 1013 29 10000 3.6 140 23:56 22.07.2020
5202 Clear 19 1013 32 10000 3.6 140 23:37 22.07.2020
5203 Clear 19 1013 32 10000 3.6 140 23:18 22.07.2020
5204 Clear 19 1012 32 10000 5.1 150 22:39 22.07.2020
5205 Clear 19 1012 32 10000 5.1 150 22:20 22.07.2020
5206 Clear 20 1012 30 10000 5.1 140 21:44 22.07.2020
5207 Clear 19 1012 30 10000 5.1 140 21:20 22.07.2020
5208 Clear 20 1012 32 10000 4.6 150 20:59 22.07.2020
5209 Clear 20 1012 40 10000 3.1 160 20:38 22.07.2020
5210 Clouds 20 1012 40 10000 3.1 160 20:20 22.07.2020
5211 Clouds 20 1012 40 10000 3.1 160 20:20 22.07.2020
5212 Clouds 20 1012 37 10000 3.6 160 19:59 22.07.2020
5213 Clouds 20 1012 60 10000 2.6 150 19:40 22.07.2020
5214 Clouds 19 1012 82 10000 2.1 180 19:20 22.07.2020
5215 Clouds 18 1013 82 10000 1.5 180 18:45 22.07.2020
5216 Clouds 18 1013 82 10000 2.97 127 18:26 22.07.2020
5217 Clouds 18 1013 82 10000 2.97 127 17:44 22.07.2020
5218 Clouds 18 1013 82 10000 1.92 140 17:25 22.07.2020
5219 Clouds 19 1013 77 10000 0.5 210 16:56 22.07.2020
5220 Clouds 20 1013 73 10000 1.5 210 16:38 22.07.2020
5221 Clouds 20 1013 73 10000 1.5 210 16:20 22.07.2020
5222 Clouds 21 1013 68 10000 1.5 190 15:57 22.07.2020
5223 Clouds 21 1013 64 10000 2.1 240 15:38 22.07.2020
5224 Clouds 21 1013 64 10000 2.1 240 15:20 22.07.2020
5225 Clouds 22 1013 64 10000 2.1 250 14:40 22.07.2020
5226 Clouds 22 1013 64 10000 2.1 250 14:19 22.07.2020
5227 Clouds 22 1012 64 10000 2.6 270 13:45 22.07.2020
5228 Clouds 22 1012 64 10000 2.6 270 13:26 22.07.2020
5229 Clouds 22 1012 69 10000 0.5 340 12:59 22.07.2020
5230 Clouds 24 1012 61 10000 1.5 340 12:40 22.07.2020
5231 Clouds 24 1011 57 10000 2.1 350 12:20 22.07.2020
5232 Clouds 24 1011 57 10000 2.1 350 11:55 22.07.2020
5233 Clouds 25 1011 54 10000 3.6 340 11:36 22.07.2020
5234 Clouds 25 1011 54 10000 3.6 340 11:18 22.07.2020
5235 Clouds 28 1010 39 10000 4.6 330 10:40 22.07.2020
5236 Clouds 29 1010 39 10000 4.6 330 10:22 22.07.2020
5237 Clouds 32 1010 11 10000 3.1 120 09:45 22.07.2020
5238 Clouds 32 1010 11 10000 3.1 120 09:22 22.07.2020
5239 Clouds 32 1010 10 10000 5.7 110 08:47 22.07.2020
5240 Clouds 32 1010 10 10000 4.1 130 08:25 22.07.2020
5241 Clouds 32 1011 10 10000 3.6 90 07:53 22.07.2020
5242 Clouds 32 1011 11 10000 5.1 100 07:19 22.07.2020
5243 Clouds 30 1012 12 10000 6.2 130 06:24 22.07.2020
5244 Clouds 30 1013 12 10000 5.7 110 05:56 22.07.2020
5245 Clouds 30 1013 13 10000 6.2 120 05:35 22.07.2020
5246 Clouds 29 1014 17 10000 7.2 120 04:26 22.07.2020
5247 Clouds 26 1015 16 10000 7.7 120 02:57 22.07.2020
5248 Clouds 22 1014 25 10000 4.6 120 01:53 22.07.2020
5249 Clouds 19 1014 34 10000 4.1 140 00:50 22.07.2020
5250 Clouds 19 1013 34 10000 4.1 130 23:58 21.07.2020
5251 Clouds 19 1013 37 10000 4.1 140 23:39 21.07.2020
5252 Clouds 19 1013 37 10000 4.1 140 23:20 21.07.2020
5253 Clouds 19 1013 39 10000 3.6 140 22:57 21.07.2020
5254 Clouds 19 1013 39 10000 3.6 140 22:57 21.07.2020
5255 Clouds 19 1013 45 10000 3.6 150 22:38 21.07.2020
5256 Clouds 19 1013 45 10000 3.6 150 22:19 21.07.2020
5257 Clouds 19 1012 49 10000 4.1 140 21:56 21.07.2020
5258 Clouds 19 1012 64 10000 2.6 130 21:38 21.07.2020
5259 Clear 19 1012 64 10000 2.6 130 21:20 21.07.2020
5260 Clear 20 1012 82 10000 3.1 150 20:44 21.07.2020
5261 Clouds 20 1012 82 10000 3.1 150 20:26 21.07.2020
5262 Clouds 20 1013 94 10000 2.6 160 19:47 21.07.2020
5263 Clouds 20 1013 94 10000 1.5 170 19:23 21.07.2020
5264 Clouds 20 1013 94 10000 2.1 190 18:56 21.07.2020
5265 Clouds 20 1013 94 10000 2.1 190 18:38 21.07.2020
5266 Clouds 19 1014 93 10000 2.67 131 18:19 21.07.2020
5267 Clouds 19 1014 94 10000 0.5 240 17:40 21.07.2020
5268 Clouds 19 1014 94 10000 0.5 240 17:21 21.07.2020
5269 Clouds 21 1014 83 10000 1 250 16:44 21.07.2020
5270 Clouds 20 1014 83 10000 1 250 16:23 21.07.2020
5271 Clouds 20 1014 88 10000 1.5 250 15:56 21.07.2020
5272 Clouds 23 1014 83 10000 2.1 250 15:38 21.07.2020
5273 Clouds 23 1014 83 10000 2.1 250 15:19 21.07.2020
5274 Clouds 24 1013 73 10000 2.6 230 14:40 21.07.2020
5275 Clouds 24 1013 73 10000 2.6 230 14:19 21.07.2020
5276 Clouds 24 1013 73 10000 2.1 240 13:58 21.07.2020
5277 Clouds 24 1013 65 10000 2.1 250 13:37 21.07.2020
5278 Clouds 24 1013 61 10000 2.1 270 13:18 21.07.2020
5279 Clouds 24 1012 65 10000 2.6 280 12:42 21.07.2020
5280 Clouds 25 1012 57 10000 2.6 270 12:21 21.07.2020
5281 Clouds 25 1012 57 10000 2.6 270 11:57 21.07.2020
5282 Clouds 25 1012 47 10000 2.1 310 11:38 21.07.2020
5283 Clouds 25 1012 47 10000 2.1 310 11:38 21.07.2020
5284 Clouds 26 1012 47 10000 2.1 310 11:19 21.07.2020
5285 Clouds 28 1011 39 10000 3.6 350 10:44 21.07.2020
5286 Clouds 28 1011 39 10000 3.6 350 10:22 21.07.2020
5287 Clouds 28 1011 35 10000 3.6 340 09:47 21.07.2020
5288 Clouds 30 1011 35 10000 4.1 330 09:25 21.07.2020
5289 Clouds 30 1011 33 10000 4.1 320 08:56 21.07.2020
5290 Clouds 30 1011 33 10000 5.1 310 08:38 21.07.2020
5291 Clouds 31 1011 35 10000 5.7 310 08:19 21.07.2020
5292 Clouds 31 1011 22 10000 2.6 120 07:42 21.07.2020
5293 Clouds 31 1011 22 10000 2.6 120 07:24 21.07.2020
5294 Clouds 31 1011 22 10000 2.6 120 07:24 21.07.2020
5295 Clouds 31 1011 22 10000 2.6 120 07:24 21.07.2020
5296 Clouds 31 1012 25 10000 4.1 110 06:51 21.07.2020
5297 Clouds 29 1014 35 10000 2.6 110 04:33 21.07.2020
5298 Clouds 29 1014 37 10000 4.6 90 03:45 21.07.2020
5299 Clouds 26 1014 50 10000 3.6 80 02:27 21.07.2020
5300 Clouds 23 1014 73 10000 2.1 130 01:24 21.07.2020
5301 Clouds 20 1014 88 10000 2.1 140 00:42 21.07.2020
5302 Clouds 20 1014 88 10000 2.1 140 00:24 21.07.2020
5303 Clouds 20 1013 88 10000 1.5 120 23:54 20.07.2020
5304 Clouds 19 1013 88 10000 1 120 23:36 20.07.2020
5305 Clouds 19 1013 88 10000 1.5 160 23:18 20.07.2020
5306 Clouds 19 1013 82 10000 2.1 170 22:39 20.07.2020
5307 Clouds 19 1013 82 10000 2.1 170 22:18 20.07.2020
5308 Clouds 19 1012 82 10000 1.5 150 21:46 20.07.2020
5309 Clear 20 1012 82 10000 2.6 160 21:27 20.07.2020
5310 Clear 19 1012 82 10000 2.6 160 20:59 20.07.2020
5311 Clear 19 1012 88 10000 1 170 20:41 20.07.2020
5312 Clouds 19 1012 88 10000 1 170 20:20 20.07.2020
5313 Clouds 20 1012 82 10000 1.5 170 19:39 20.07.2020
5314 Clouds 20 1013 77 10000 2.1 180 19:19 20.07.2020
5315 Clouds 20 1013 77 10000 2.1 180 18:58 20.07.2020
5316 Clouds 20 1013 77 10000 2.6 160 18:40 20.07.2020
5317 Clouds 21 1013 83 10000 2.1 160 18:19 20.07.2020
5318 Clouds 21 1013 77 10000 2.6 170 17:44 20.07.2020
5319 Clouds 20 1013 77 10000 2.6 170 17:24 20.07.2020
5320 Clouds 21 1013 77 10000 2.1 170 16:50 20.07.2020
5321 Clear 20 1013 73 10000 1.5 180 16:21 20.07.2020
5322 Clear 20 1013 64 10000 1.5 150 15:47 20.07.2020
5323 Clear 21 1013 60 10000 2.1 160 15:21 20.07.2020
5324 Clear 21 1013 56 10000 1.5 160 14:58 20.07.2020
5325 Clear 21 1013 60 10000 1.5 180 14:39 20.07.2020
5326 Clear 21 1013 60 10000 1.5 180 14:19 20.07.2020
5327 Clear 22 1012 53 10000 0.5 90 13:57 20.07.2020
5328 Clear 22 1011 56 10000 1.5 50 13:39 20.07.2020
5329 Clear 23 1011 50 10000 2.6 40 13:19 20.07.2020
5330 Clear 23 1011 50 10000 2.6 40 12:54 20.07.2020
5331 Clear 24 1011 47 10000 2.6 30 12:36 20.07.2020
5332 Clear 25 1010 47 10000 3.1 20 12:18 20.07.2020
5333 Clear 26 1010 44 10000 3.6 10 11:42 20.07.2020
5334 Clear 26 1010 44 10000 3.6 10 11:23 20.07.2020
5335 Clear 26 1010 44 10000 3.6 10 11:23 20.07.2020
5336 Clear 27 1010 39 10000 4.6 10 10:58 20.07.2020
5337 Clear 28 1010 42 10000 4.6 360 10:40 20.07.2020
5338 Clear 28 1010 42 10000 4.6 360 10:20 20.07.2020
5339 Clear 28 1010 42 10000 4.6 360 10:20 20.07.2020
5340 Clear 29 1010 45 10000 5.1 360 09:41 20.07.2020
5341 Clouds 29 1010 45 10000 5.1 360 09:22 20.07.2020
5342 Clouds 30 1010 42 10000 5.7 360 08:49 20.07.2020
5343 Clouds 30 1010 39 10000 4.6 350 08:26 20.07.2020
5344 Clouds 31 1010 14 10000 5.1 350 07:44 20.07.2020
5345 Clouds 32 1011 20 10000 5.1 350 07:23 20.07.2020
5346 Clouds 31 1011 20 10000 5.1 350 06:52 20.07.2020
5347 Clouds 31 1011 16 10000 5.1 350 06:34 20.07.2020
5348 Clouds 28 1014 54 10000 5.1 60 03:42 20.07.2020
5349 Clouds 24 1014 73 10000 1.5 60 01:33 20.07.2020
5350 Clouds 21 1013 88 10000 1.5 80 00:39 20.07.2020
5351 Clouds 21 1013 88 10000 1.5 80 23:50 19.07.2020
5352 Clouds 21 1013 88 10000 1.5 90 23:29 19.07.2020
5353 Clouds 21 1012 88 10000 2.1 90 22:59 19.07.2020
5354 Clouds 21 1012 88 10000 2.1 90 22:40 19.07.2020
5355 Clouds 21 1012 88 10000 2.1 90 22:20 19.07.2020
5356 Clouds 21 1012 88 10000 1.5 120 21:55 19.07.2020
5357 Clear 20 1012 88 10000 1.5 110 21:37 19.07.2020
5358 Clear 20 1012 88 10000 1.5 110 21:18 19.07.2020
5359 Clear 20 1012 88 10000 1 110 20:43 19.07.2020
5360 Clear 20 1012 88 10000 1 110 20:25 19.07.2020
5361 Clear 20 1012 88 10000 1.5 110 19:59 19.07.2020
5362 Clouds 21 1013 88 10000 2.1 140 19:38 19.07.2020
5363 Clouds 21 1013 88 10000 1 110 19:19 19.07.2020
5364 Clouds 20 1013 88 10000 1.5 110 18:43 19.07.2020
5365 Clouds 21 1013 88 10000 1.5 110 18:24 19.07.2020
5366 Clear 21 1013 88 10000 1.5 140 17:57 19.07.2020
5367 Clear 22 1013 83 10000 1.5 140 17:39 19.07.2020
5368 Clear 22 1013 83 10000 1.5 140 17:20 19.07.2020
5369 Clear 22 1013 83 10000 0.5 130 16:41 19.07.2020
5370 Clear 21 1013 83 10000 0.5 130 16:21 19.07.2020
5371 Clear 21 1013 83 10000 1 110 15:58 19.07.2020
5372 Clear 23 1013 78 10000 1.5 180 15:37 19.07.2020
5373 Clear 23 1013 78 10000 1.5 180 15:18 19.07.2020
5374 Clear 23 1013 69 10000 1.5 20 14:42 19.07.2020
5375 Clear 23 1013 69 10000 1.5 20 14:24 19.07.2020
5376 Clear 23 1012 69 10000 1 30 13:44 19.07.2020
5377 Clear 23 1011 65 10000 0.5 30 13:23 19.07.2020
5378 Clear 24 1011 65 10000 0.5 30 12:57 19.07.2020
5379 Clear 25 1011 61 10000 1.5 10 12:37 19.07.2020
5380 Clear 25 1011 61 10000 2.6 10 12:19 19.07.2020
5381 Clear 26 1011 54 10000 4.1 20 11:40 19.07.2020
5382 Clouds 26 1011 54 10000 4.1 20 11:22 19.07.2020
5383 Clouds 27 1010 51 10000 5.7 20 10:42 19.07.2020
5384 Clouds 28 1010 51 10000 5.7 20 10:22 19.07.2020
5385 Clouds 28 1010 54 10000 4.6 10 09:47 19.07.2020
5386 Clouds 29 1010 51 10000 5.1 360 09:23 19.07.2020
5387 Clouds 30 1010 48 10000 5.1 360 08:59 19.07.2020
5388 Clouds 30 1010 45 10000 4.6 360 08:40 19.07.2020
5389 Clouds 30 1010 45 10000 4.6 360 08:21 19.07.2020
5390 Clouds 31 1010 48 10000 5.7 330 07:29 19.07.2020
5391 Clouds 31 1010 51 10000 4.6 330 06:55 19.07.2020
5392 Clouds 31 1011 40 10000 4.6 330 06:23 19.07.2020
5393 Clouds 31 1011 40 10000 4.6 330 05:52 19.07.2020
5394 Clouds 30 1012 37 10000 4.1 70 05:21 19.07.2020
5395 Clouds 26 1013 69 10000 4.1 80 02:48 19.07.2020
5396 Clear 25 1013 78 10000 5.1 70 02:29 19.07.2020
5397 Clear 24 1013 78 10000 3.1 70 01:56 19.07.2020
5398 Clear 23 1013 78 10000 2.1 100 01:25 19.07.2020
5399 Clouds 21 1012 83 10000 2.6 100 00:40 19.07.2020
5400 Clouds 21 1012 83 10000 2.6 100 00:21 19.07.2020
5401 Clouds 20 1012 88 10000 2.1 110 23:43 18.07.2020
5402 Clouds 20 1012 88 10000 2.1 110 23:23 18.07.2020
5403 Clear 19 1012 93 10000 2.1 110 22:45 18.07.2020
5404 Clear 19 1012 93 10000 2.1 110 22:21 18.07.2020
5405 Clear 19 1012 93 10000 1.5 90 21:55 18.07.2020
5406 Clear 19 1011 93 10000 1 90 21:36 18.07.2020
5407 Clear 19 1011 93 10000 1 90 21:18 18.07.2020
5408 Clear 20 1011 94 10000 1 350 20:42 18.07.2020
5409 Clear 20 1011 94 10000 1 350 20:21 18.07.2020
5410 Clear 20 1012 88 10000 0.8 95 19:50 18.07.2020
5411 Clear 20 1012 88 10000 0.8 95 19:31 18.07.2020
5412 Clear 21 1012 88 10000 0.32 355 18:58 18.07.2020
5413 Clear 21 1012 88 10000 0.32 355 18:39 18.07.2020
5414 Clear 22 1012 83 10000 1.5 350 18:18 18.07.2020
5415 Clear 22 1012 83 10000 2.6 350 17:41 18.07.2020
5416 Clear 22 1012 83 10000 2.6 350 17:20 18.07.2020
5417 Clouds 22 1012 83 10000 1.5 10 16:43 18.07.2020
5418 Clouds 21 1012 83 10000 1.5 10 16:23 18.07.2020
5419 Clear 21 1012 77 10000 0.5 10 15:59 18.07.2020
5420 Clear 21 1012 77 10000 1.5 10 15:40 18.07.2020
5421 Clear 21 1012 77 10000 1.5 10 15:21 18.07.2020
5422 Clear 21 1011 68 10000 1 10 14:42 18.07.2020
5423 Clear 21 1011 68 10000 1 10 14:22 18.07.2020
5424 Clear 22 1011 64 10000 1.5 20 13:56 18.07.2020
5425 Clear 23 1011 60 10000 1.5 10 13:38 18.07.2020
5426 Clear 23 1011 60 10000 1.5 10 13:20 18.07.2020
5427 Clear 24 1011 57 10000 2.1 10 12:54 18.07.2020
5428 Clear 25 1010 54 10000 2.1 10 12:36 18.07.2020
5429 Clear 25 1010 54 10000 2.6 10 12:18 18.07.2020
5430 Clear 26 1010 47 10000 4.1 10 11:41 18.07.2020
5431 Clear 26 1010 47 10000 4.1 10 11:19 18.07.2020
5432 Clear 27 1010 45 10000 4.1 10 10:48 18.07.2020
5433 Clear 28 1010 45 10000 4.6 360 10:29 18.07.2020
5434 Clear 28 1010 45 10000 5.1 360 09:59 18.07.2020
5435 Clear 29 1009 45 10000 5.1 340 09:40 18.07.2020
5436 Clear 29 1009 45 10000 5.1 340 09:20 18.07.2020
5437 Clear 30 1009 42 10000 4.6 350 08:49 18.07.2020
5438 Clear 30 1010 48 10000 5.1 330 08:30 18.07.2020
5439 Clear 29 1010 51 10000 5.1 330 07:48 18.07.2020
5440 Clear 29 1010 51 10000 5.1 330 07:25 18.07.2020
5441 Clear 29 1010 51 10000 5.7 330 06:56 18.07.2020
5442 Clear 30 1011 45 10000 5.7 350 06:37 18.07.2020
5443 Clear 29 1013 42 10000 4.1 20 04:29 18.07.2020
5444 Clear 29 1013 37 10000 2.1 70 03:32 18.07.2020
5445 Clear 22 1013 68 10000 1.5 120 01:28 18.07.2020
5446 Clear 20 1013 82 10000 1.5 140 00:55 18.07.2020
5447 Fog 18 1012 93 10000 2.1 140 00:34 18.07.2020
5448 Fog 18 1012 93 10000 2.1 140 23:55 17.07.2020
5449 Fog 19 1012 93 10000 2.1 150 23:36 17.07.2020
5450 Clear 19 1012 93 10000 3.6 160 23:18 17.07.2020
5451 Clear 19 1011 93 10000 2.1 170 22:40 17.07.2020
5452 Clear 19 1012 93 10000 1.5 150 22:19 17.07.2020
5453 Clear 19 1012 93 10000 1.5 150 21:57 17.07.2020
5454 Clear 20 1011 94 10000 3.6 180 21:39 17.07.2020
5455 Clear 20 1011 94 10000 3.6 180 21:19 17.07.2020
5456 Clear 20 1012 88 10000 3.6 190 20:43 17.07.2020
5457 Clear 20 1012 88 10000 3.6 190 20:25 17.07.2020
5458 Clear 21 1012 83 10000 3.6 190 19:55 17.07.2020
5459 Clear 20 1012 83 10000 2.6 180 19:37 17.07.2020
5460 Clear 20 1012 83 10000 2.6 180 19:18 17.07.2020
5461 Clear 20 1012 82 10000 1.5 170 18:43 17.07.2020
5462 Clear 20 1012 82 10000 1.5 170 18:24 17.07.2020
5463 Clear 20 1012 77 10000 1.5 170 17:44 17.07.2020
5464 Clear 20 1012 77 10000 1.5 170 17:25 17.07.2020
5465 Clear 19 1012 82 10000 1 170 16:45 17.07.2020
5466 Clear 20 1012 68 10000 1.5 170 16:23 17.07.2020
5467 Clear 21 1012 73 10000 1.5 170 15:56 17.07.2020
5468 Clear 22 1012 64 10000 1.5 170 15:37 17.07.2020
5469 Clear 22 1012 64 10000 1.5 170 15:18 17.07.2020
5470 Clear 22 1012 60 10000 1 30 14:40 17.07.2020
5471 Clear 21 1012 60 10000 1 30 14:21 17.07.2020
5472 Clear 22 1012 56 10000 0.5 30 13:55 17.07.2020
5473 Clear 23 1012 53 10000 1 10 13:36 17.07.2020
5474 Clear 24 1011 50 10000 2.1 20 13:18 17.07.2020
5475 Clear 24 1011 50 10000 3.1 20 12:39 17.07.2020
5476 Clear 25 1011 47 10000 2.6 20 12:20 17.07.2020
5477 Clear 26 1011 47 10000 2.6 20 11:54 17.07.2020
5478 Clear 26 1011 44 10000 3.1 10 11:36 17.07.2020
5479 Clear 27 1011 44 10000 3.1 10 11:18 17.07.2020
5480 Clear 28 1011 37 10000 4.6 10 10:41 17.07.2020
5481 Clear 28 1011 37 10000 4.6 10 10:23 17.07.2020
5482 Clear 29 1010 35 10000 4.6 10 09:58 17.07.2020
5483 Clear 30 1010 33 10000 4.1 350 09:40 17.07.2020
5484 Clear 30 1010 33 10000 4.1 350 09:20 17.07.2020
5485 Clear 30 1011 30 10000 4.6 340 08:48 17.07.2020
5486 Clear 30 1011 33 10000 4.1 290 08:29 17.07.2020
5487 Clear 31 1011 35 10000 5.1 290 07:56 17.07.2020
5488 Clear 31 1011 39 10000 5.7 290 07:36 17.07.2020
5489 Clear 31 1011 42 10000 3.6 330 07:18 17.07.2020
5490 Clear 32 1012 24 10000 3.6 90 06:38 17.07.2020
5491 Clear 30 1012 32 10000 3.6 110 05:40 17.07.2020
5492 Clear 28 1013 42 10000 3.6 100 03:41 17.07.2020
5493 Clear 25 1013 61 10000 2.6 80 02:22 17.07.2020
5494 Clear 22 1013 83 10000 1.5 140 00:57 17.07.2020
5495 Clear 20 1012 88 10000 1 140 00:37 17.07.2020
5496 Clear 20 1012 88 10000 1 140 00:19 17.07.2020
5497 Clear 19 1012 93 10000 1.5 160 23:42 16.07.2020
5498 Clear 19 1012 93 10000 1.5 160 23:19 16.07.2020
5499 Clear 19 1011 93 10000 1.5 140 22:46 16.07.2020
5500 Clear 19 1011 93 10000 1.5 140 22:25 16.07.2020
5501 Clear 19 1011 93 10000 3.64 131 21:57 16.07.2020
5502 Clear 19 1011 93 10000 3.64 131 21:38 16.07.2020
5503 Clear 19 1011 93 10000 3.19 130 21:20 16.07.2020
5504 Clear 19 1011 88 10000 0.5 140 20:58 16.07.2020
5505 Clear 20 1011 94 10000 1.5 140 20:40 16.07.2020
5506 Clear 20 1011 94 10000 1.5 140 20:21 16.07.2020
5507 Clear 20 1011 88 10000 1.5 160 19:48 16.07.2020
5508 Clear 20 1011 88 10000 1.5 160 19:48 16.07.2020
5509 Clear 20 1011 88 10000 1 160 19:30 16.07.2020
5510 Clear 21 1011 94 10000 2.1 160 18:58 16.07.2020
5511 Clear 21 1011 94 10000 1 180 18:39 16.07.2020
5512 Clear 21 1011 88 10000 3.1 190 18:20 16.07.2020
5513 Clear 22 1011 83 10000 3.1 190 17:40 16.07.2020
5514 Clear 22 1011 83 10000 3.1 190 17:20 16.07.2020
5515 Clear 22 1011 83 10000 3.1 190 16:58 16.07.2020
5516 Clear 22 1012 83 10000 2.1 180 16:40 16.07.2020
5517 Clear 22 1012 83 10000 2.1 180 16:40 16.07.2020
5518 Clear 21 1012 83 10000 2.1 180 16:22 16.07.2020
5519 Clear 21 1012 83 10000 2.6 190 15:55 16.07.2020
5520 Clear 22 1012 78 10000 2.1 180 15:37 16.07.2020
5521 Clear 22 1012 78 10000 2.1 180 15:18 16.07.2020
5522 Clear 23 1012 73 10000 1 60 14:38 16.07.2020
5523 Clouds 23 1012 73 10000 1 60 14:20 16.07.2020
5524 Clouds 23 1011 73 10000 1.5 50 13:59 16.07.2020
5525 Clouds 23 1011 73 10000 2.1 50 13:38 16.07.2020
5526 Clouds 23 1011 73 10000 2.1 50 13:20 16.07.2020
5527 Clouds 25 1011 65 10000 2.6 20 12:42 16.07.2020
5528 Clouds 25 1011 65 10000 2.6 20 12:22 16.07.2020
5529 Clouds 25 1010 57 10000 2.6 10 11:59 16.07.2020
5530 Clouds 26 1010 51 10000 3.1 10 11:36 16.07.2020
5531 Clouds 26 1010 51 10000 3.1 10 11:18 16.07.2020
5532 Clouds 27 1010 51 10000 3.6 340 10:55 16.07.2020
5533 Clouds 28 1009 45 10000 4.6 350 10:37 16.07.2020
5534 Clouds 28 1009 45 10000 4.6 350 10:18 16.07.2020
5535 Clouds 31 1009 42 10000 4.1 320 09:41 16.07.2020
5536 Clouds 30 1009 42 10000 4.1 320 09:23 16.07.2020
5537 Clouds 32 1009 24 10000 3.1 290 08:43 16.07.2020
5538 Clear 32 1009 24 10000 3.1 290 08:25 16.07.2020
5539 Clear 32 1009 24 10000 3.1 290 08:25 16.07.2020
5540 Clear 32 1009 27 10000 4.1 150 07:48 16.07.2020
5541 Clear 32 1010 29 10000 2.1 120 07:27 16.07.2020
5542 Clear 32 1010 27 10000 2.6 110 06:59 16.07.2020
5543 Clear 31 1011 29 10000 4.6 70 06:40 16.07.2020
5544 Clear 31 1011 27 10000 5.1 130 06:19 16.07.2020
5545 Clear 31 1012 30 10000 6.2 100 05:38 16.07.2020
5546 Clear 29 1013 35 10000 5.1 90 04:42 16.07.2020
5547 Clear 29 1013 39 10000 6.7 80 03:52 16.07.2020
5548 Clear 28 1013 45 10000 6.2 90 03:23 16.07.2020
5549 Clear 26 1014 65 10000 4.1 70 02:34 16.07.2020
5550 Clear 25 1014 69 10000 2.6 60 01:52 16.07.2020
5551 Clear 24 1013 60 10000 2.6 70 01:24 16.07.2020
5552 Clear 21 1013 68 10000 3.6 100 00:40 16.07.2020
5553 Clouds 21 1013 68 10000 3.6 100 00:20 16.07.2020
5554 Clouds 21 1013 64 10000 3.6 100 23:55 15.07.2020
5555 Clouds 21 1012 64 10000 2.6 100 23:36 15.07.2020
5556 Clouds 20 1012 64 10000 2.6 100 23:18 15.07.2020
5557 Clouds 18 1012 88 10000 1.5 90 22:39 15.07.2020
5558 Clear 18 1012 88 10000 1.5 90 22:19 15.07.2020
5559 Clear 19 1012 82 10000 1.5 70 21:56 15.07.2020
5560 Clear 19 1012 82 10000 1 70 21:38 15.07.2020
5561 Clear 19 1012 82 10000 1 70 21:20 15.07.2020
5562 Clear 20 1012 77 10000 5.65 105 20:57 15.07.2020
5563 Clear 20 1012 82 10000 1 70 20:38 15.07.2020
5564 Clouds 20 1012 82 10000 1 70 20:19 15.07.2020
5565 Clouds 20 1012 82 10000 1 70 20:19 15.07.2020
5566 Clouds 20 1012 82 10000 1.5 70 19:56 15.07.2020
5567 Clouds 21 1012 73 10000 1.5 100 19:38 15.07.2020
5568 Clouds 21 1012 64 10000 2.1 110 19:20 15.07.2020
5569 Clouds 22 1012 64 10000 3.1 180 18:45 15.07.2020
5570 Clouds 22 1012 64 10000 3.1 180 18:45 15.07.2020
5571 Clouds 22 1012 64 10000 3.1 180 18:26 15.07.2020
5572 Clouds 23 1012 69 10000 3.1 190 17:59 15.07.2020
5573 Clouds 23 1013 73 10000 2.6 200 17:40 15.07.2020
5574 Clouds 23 1013 73 10000 2.6 200 17:21 15.07.2020
5575 Clouds 23 1013 73 10000 2.6 190 16:58 15.07.2020
5576 Clouds 24 1013 73 10000 2.6 190 16:40 15.07.2020
5577 Clouds 24 1013 73 10000 2.6 190 16:21 15.07.2020
5578 Clouds 24 1013 78 10000 3.6 210 15:45 15.07.2020
5579 Clouds 24 1013 78 10000 3.6 210 15:24 15.07.2020
5580 Clouds 24 1013 78 10000 3.1 210 14:58 15.07.2020
5581 Clouds 24 1013 73 10000 2.1 230 14:40 15.07.2020
5582 Clouds 24 1013 73 10000 2.1 230 14:20 15.07.2020
5583 Clouds 24 1012 73 10000 2.6 230 13:59 15.07.2020
5584 Clouds 24 1012 65 10000 1.5 240 13:39 15.07.2020
5585 Clouds 25 1012 65 10000 1.5 240 13:21 15.07.2020
5586 Clouds 25 1011 65 10000 2.91 239 13:21 15.07.2020
5587 Clouds 25 1011 65 10000 2.91 239 13:21 15.07.2020
5588 Clouds 25 1011 65 10000 2.1 20 12:40 15.07.2020
5589 Clouds 25 1011 65 10000 2.1 20 12:21 15.07.2020
5590 Clouds 25 1011 65 10000 2.1 20 12:21 15.07.2020
5591 Clouds 26 1011 57 10000 3.1 20 11:57 15.07.2020
5592 Clouds 26 1010 57 10000 3.6 10 11:39 15.07.2020
5593 Clouds 27 1010 57 10000 3.6 10 11:20 15.07.2020
5594 Clouds 27 1010 51 10000 4.1 10 10:54 15.07.2020
5595 Clouds 28 1010 48 10000 5.1 10 10:36 15.07.2020
5596 Clouds 28 1010 48 10000 5.1 10 10:18 15.07.2020
5597 Clouds 31 1009 40 10000 4.1 60 09:42 15.07.2020
5598 Clouds 31 1009 40 10000 4.1 60 09:24 15.07.2020
5599 Clouds 31 1009 38 10000 6.2 50 08:46 15.07.2020
5600 Clouds 31 1009 40 10000 5.7 30 08:28 15.07.2020
5601 Clouds 31 1010 35 10000 1.5 140 07:49 15.07.2020
5602 Clouds 31 1010 35 10000 4.1 40 07:27 15.07.2020
5603 Clouds 31 1011 33 10000 5.7 90 06:45 15.07.2020
5604 Clouds 31 1011 35 10000 5.7 90 06:20 15.07.2020
5605 Clouds 30 1012 33 10000 4.1 90 05:41 15.07.2020
5606 Clouds 28 1013 34 10000 4.6 80 04:29 15.07.2020
5607 Clouds 27 1014 34 10000 5.7 90 03:41 15.07.2020
5608 Clouds 24 1014 31 10000 7.2 90 01:55 15.07.2020
5609 Clouds 23 1013 33 10000 5.1 100 01:35 15.07.2020
5610 Clouds 21 1013 37 10000 4.1 120 00:57 15.07.2020
5611 Clouds 20 1013 42 10000 3.6 130 00:30 15.07.2020
5612 Clear 19 1013 42 10000 3.6 140 23:52 14.07.2020
5613 Clear 19 1013 42 10000 3.1 140 23:30 14.07.2020
5614 Clear 19 1012 42 10000 3.1 150 22:56 14.07.2020
5615 Clear 19 1012 42 10000 3.6 140 22:38 14.07.2020
5616 Clear 20 1012 42 10000 3.6 140 22:19 14.07.2020
5617 Clear 20 1012 40 10000 3.6 140 21:55 14.07.2020
5618 Clear 20 1012 45 10000 3.1 150 21:37 14.07.2020
5619 Clear 20 1012 45 10000 3.1 150 21:19 14.07.2020
5620 Clear 20 1012 56 10000 3.6 160 20:42 14.07.2020
5621 Clear 21 1012 56 10000 3.6 160 20:21 14.07.2020
5622 Clear 20 1012 82 10000 3.1 170 19:56 14.07.2020
5623 Clear 20 1013 82 10000 3.1 160 19:38 14.07.2020
5624 Clear 19 1013 88 10000 2.1 160 19:20 14.07.2020
5625 Clear 20 1013 82 10000 2.6 190 18:44 14.07.2020
5626 Clear 20 1013 82 10000 1.5 200 18:20 14.07.2020
5627 Clear 20 1013 82 10000 1.5 200 17:58 14.07.2020
5628 Clear 20 1013 77 10000 1 220 17:40 14.07.2020
5629 Clear 20 1013 77 10000 1 220 17:21 14.07.2020
5630 Clear 20 1014 77 10000 1.5 200 16:55 14.07.2020
5631 Clear 20 1014 73 10000 0.5 170 16:37 14.07.2020
5632 Clear 20 1014 73 10000 0.5 170 16:18 14.07.2020
5633 Clear 21 1014 68 10000 1.5 180 15:42 14.07.2020
5634 Clear 21 1014 68 10000 1.5 180 15:22 14.07.2020
5635 Clear 21 1014 68 10000 1.5 180 15:22 14.07.2020
5636 Clear 21 1014 73 10000 1 310 14:57 14.07.2020
5637 Clear 20 1014 73 10000 1.5 310 14:39 14.07.2020
5638 Clear 21 1014 73 10000 1.5 310 14:18 14.07.2020
5639 Clear 22 1014 64 10000 1.5 310 13:41 14.07.2020
5640 Clear 22 1014 64 10000 1.5 310 13:23 14.07.2020
5641 Clear 23 1014 60 10000 2.1 260 12:56 14.07.2020
5642 Clear 23 1013 60 10000 1.5 340 12:36 14.07.2020
5643 Clear 23 1013 53 10000 2.1 350 12:18 14.07.2020
5644 Clear 24 1012 50 10000 2.6 350 11:42 14.07.2020
5645 Clear 25 1012 50 10000 2.6 350 11:19 14.07.2020
5646 Clear 26 1012 47 10000 4.1 350 10:54 14.07.2020
5647 Clear 27 1012 42 10000 6.2 360 10:36 14.07.2020
5648 Clear 27 1012 42 10000 6.2 360 10:18 14.07.2020
5649 Clear 30 1011 23 10000 4.1 310 09:38 14.07.2020
5650 Clear 30 1011 23 10000 4.1 310 09:19 14.07.2020
5651 Clear 31 1011 16 10000 2.1 60 08:43 14.07.2020
5652 Clear 31 1011 16 10000 2.1 60 08:23 14.07.2020
5653 Clear 31 1011 15 10000 3.1 40 07:57 14.07.2020
5654 Clear 30 1012 13 10000 4.6 50 07:37 14.07.2020
5655 Clear 30 1012 12 10000 4.6 50 07:18 14.07.2020
5656 Clear 30 1013 13 10000 4.6 50 06:41 14.07.2020
5657 Clear 30 1013 13 10000 4.1 120 06:21 14.07.2020
5658 Clear 28 1014 14 10000 4.6 130 05:26 14.07.2020
5659 Clear 27 1015 12 10000 6.2 120 04:36 14.07.2020
5660 Clear 25 1016 10 10000 7.7 120 03:36 14.07.2020
5661 Clear 23 1016 15 10000 6.2 130 02:45 14.07.2020
5662 Clear 23 1016 15 10000 6.2 130 02:24 14.07.2020
5663 Clear 21 1015 19 10000 6.7 130 01:36 14.07.2020
5664 Clear 19 1015 20 10000 5.7 140 00:52 14.07.2020
5665 Clear 18 1015 23 10000 5.1 140 00:33 14.07.2020
5666 Clear 18 1015 25 10000 4.6 140 23:59 13.07.2020
5667 Clear 19 1014 25 10000 4.6 140 23:37 13.07.2020
5668 Clear 19 1014 25 10000 4.6 140 23:18 13.07.2020
5669 Clear 19 1014 25 10000 4.6 140 22:41 13.07.2020
5670 Clear 19 1014 25 10000 4.6 140 22:21 13.07.2020
5671 Clear 19 1014 44 10000 4.6 150 21:57 13.07.2020
5672 Clear 20 1013 24 10000 3.6 150 21:39 13.07.2020
5673 Clear 20 1013 24 10000 3.6 150 21:20 13.07.2020
5674 Clear 20 1013 24 10000 4.1 140 20:58 13.07.2020
5675 Clear 20 1013 24 10000 4.1 140 20:39 13.07.2020
5676 Clear 21 1013 24 10000 4.1 140 20:21 13.07.2020
5677 Clear 21 1013 22 10000 4.6 130 19:45 13.07.2020
5678 Clear 21 1013 22 10000 4.6 130 19:26 13.07.2020
5679 Clear 21 1014 22 10000 5.1 130 18:59 13.07.2020
5680 Clear 21 1014 22 10000 4.1 140 18:40 13.07.2020
5681 Clear 21 1014 22 10000 4.1 140 18:22 13.07.2020
5682 Clear 21 1014 36 10000 4.1 140 17:57 13.07.2020
5683 Clear 22 1014 26 10000 4.1 150 17:39 13.07.2020
5684 Clear 22 1014 26 10000 4.1 150 17:20 13.07.2020
5685 Clear 22 1014 34 10000 3.6 150 16:55 13.07.2020
5686 Clear 22 1014 34 10000 3.6 160 16:37 13.07.2020
5687 Clear 23 1014 32 10000 3.6 160 16:19 13.07.2020
5688 Clear 22 1014 32 10000 3.1 150 15:56 13.07.2020
5689 Clear 24 1014 22 10000 2.6 160 15:37 13.07.2020
5690 Clear 23 1014 22 10000 2.6 160 15:18 13.07.2020
5691 Clear 23 1014 33 10000 3.1 150 14:56 13.07.2020
5692 Clear 24 1014 23 10000 2.6 140 14:37 13.07.2020
5693 Clear 24 1014 20 10000 2.6 130 14:19 13.07.2020
5694 Clear 25 1014 19 10000 3.6 130 13:42 13.07.2020
5695 Clear 25 1014 19 10000 3.6 130 13:21 13.07.2020
5696 Clear 25 1013 44 10000 3.6 130 12:55 13.07.2020
5697 Clear 26 1013 18 10000 2.6 130 12:36 13.07.2020
5698 Clear 26 1013 21 10000 2.6 140 12:18 13.07.2020
5699 Clear 27 1012 17 10000 2.6 140 11:41 13.07.2020
5700 Clear 27 1012 17 10000 2.6 140 11:22 13.07.2020
5701 Clear 30 1012 11 10000 4.6 140 10:44 13.07.2020
5702 Clear 30 1012 11 10000 4.6 140 10:21 13.07.2020
5703 Clear 31 1011 10 10000 5.7 120 09:57 13.07.2020
5704 Clear 31 1011 10 10000 5.7 120 09:38 13.07.2020
5705 Clouds 31 1011 10 10000 5.7 120 09:20 13.07.2020
5706 Clouds 32 1011 9 10000 6.2 140 08:47 13.07.2020
5707 Clouds 32 1011 9 10000 4.6 120 08:28 13.07.2020
5708 Clouds 32 1012 10 10000 5.7 120 07:25 13.07.2020
5709 Clouds 31 1012 11 10000 5.1 140 06:54 13.07.2020
5710 Clouds 31 1013 10 10000 6.7 130 06:36 13.07.2020
5711 Clouds 29 1014 13 10000 6.7 130 05:44 13.07.2020
5712 Clear 28 1015 15 10000 6.7 120 04:25 13.07.2020
5713 Clear 23 1016 35 10000 9.3 120 01:46 13.07.2020
5714 Clear 23 1016 35 10000 9.3 120 01:25 13.07.2020
5715 Clear 22 1015 35 10000 9.3 120 00:46 13.07.2020
5716 Clear 22 1015 37 10000 9.3 120 00:24 13.07.2020
5717 Clear 21 1014 40 10000 4.6 130 23:46 12.07.2020
5718 Clear 21 1014 40 10000 4.6 130 23:23 12.07.2020
5719 Clear 21 1014 40 10000 3.1 120 22:59 12.07.2020
5720 Clear 22 1014 43 10000 2.6 110 22:37 12.07.2020
5721 Clouds 22 1014 43 10000 2.6 110 22:19 12.07.2020
5722 Clouds 22 1013 46 10000 3.1 120 21:57 12.07.2020
5723 Clouds 22 1013 49 10000 3.6 120 21:39 12.07.2020
5724 Clouds 22 1013 49 10000 3.6 120 21:19 12.07.2020
5725 Clouds 23 1013 53 10000 3.6 130 20:58 12.07.2020
5726 Clouds 23 1013 56 10000 3.6 120 20:38 12.07.2020
5727 Clouds 23 1013 56 10000 3.6 120 20:19 12.07.2020
5728 Clouds 23 1013 69 10000 3.1 140 19:40 12.07.2020
5729 Clouds 24 1013 73 10000 3.1 150 19:22 12.07.2020
5730 Clouds 23 1013 73 10000 3.1 150 18:59 12.07.2020
5731 Clouds 23 1012 88 10000 2.6 160 18:40 12.07.2020
5732 Clouds 23 1012 88 10000 2.1 170 18:19 12.07.2020
5733 Clouds 23 1012 88 10000 2.6 180 17:40 12.07.2020
5734 Clouds 24 1012 88 10000 2.6 180 17:21 12.07.2020
5735 Clouds 24 1012 83 10000 2.6 190 16:58 12.07.2020
5736 Clouds 24 1012 83 10000 2.6 190 16:40 12.07.2020
5737 Clouds 24 1012 83 10000 2.6 190 16:18 12.07.2020
5738 Clouds 24 1012 78 10000 1.5 190 15:43 12.07.2020
5739 Clouds 25 1012 78 10000 1.5 190 15:23 12.07.2020
5740 Clouds 26 1012 74 10000 2.1 210 14:43 12.07.2020
5741 Clouds 26 1012 74 10000 2.1 210 14:23 12.07.2020
5742 Clouds 25 1012 74 10000 1.5 250 13:41 12.07.2020
5743 Clouds 26 1012 74 10000 1.5 250 13:22 12.07.2020
5744 Clouds 26 1012 74 10000 1.5 250 13:22 12.07.2020
5745 Clouds 26 1011 74 10000 1.5 290 12:59 12.07.2020
5746 Clouds 26 1011 65 10000 2.1 260 12:41 12.07.2020
5747 Clouds 27 1011 65 10000 2.1 260 12:20 12.07.2020
5748 Clouds 27 1011 58 10000 2.1 330 11:58 12.07.2020
5749 Clouds 27 1010 54 10000 3.6 360 11:40 12.07.2020
5750 Clouds 27 1010 54 10000 3.6 360 11:18 12.07.2020
5751 Clouds 29 1010 48 10000 4.6 360 10:41 12.07.2020
5752 Clouds 29 1010 48 10000 4.6 360 10:20 12.07.2020
5753 Clouds 30 1010 48 10000 5.1 350 09:43 12.07.2020
5754 Clear 31 1010 48 10000 5.1 350 09:22 12.07.2020
5755 Clear 31 1010 48 10000 5.1 350 09:22 12.07.2020
5756 Clear 31 1010 45 10000 4.6 320 08:58 12.07.2020
5757 Clear 32 1010 46 10000 4.6 310 08:40 12.07.2020
5758 Clouds 32 1010 46 10000 4.6 310 08:21 12.07.2020
5759 Clouds 32 1010 31 10000 3.6 290 07:50 12.07.2020
5760 Clouds 33 1010 31 10000 3.6 290 07:31 12.07.2020
5761 Clouds 33 1011 31 10000 5.1 60 06:57 12.07.2020
5762 Clouds 33 1011 31 10000 4.1 330 06:38 12.07.2020
5763 Clouds 32 1012 33 10000 6.7 80 06:19 12.07.2020
5764 Clouds 32 1013 33 10000 6.2 90 04:59 12.07.2020
5765 Clouds 31 1013 40 10000 6.7 130 04:29 12.07.2020
5766 Clouds 30 1014 48 10000 3.1 140 03:48 12.07.2020
5767 Clouds 29 1014 54 10000 3.6 130 03:28 12.07.2020
5768 Clouds 28 1014 65 10000 2.6 100 02:27 12.07.2020
5769 Clouds 26 1013 69 10000 2.6 100 01:31 12.07.2020
5770 Clouds 23 1013 83 10000 1.5 90 00:40 12.07.2020
5771 Clouds 23 1013 83 10000 1.5 90 00:22 12.07.2020
5772 Clouds 23 1012 73 10000 1.5 170 23:55 11.07.2020
5773 Clouds 23 1012 83 10000 4.07 131 23:36 11.07.2020
5774 Clouds 23 1012 83 10000 3.21 144 23:18 11.07.2020
5775 Clouds 23 1012 78 10000 2.6 160 22:43 11.07.2020
5776 Clouds 23 1012 78 10000 2.6 160 22:24 11.07.2020
5777 Clouds 23 1012 83 10000 1.5 170 21:57 11.07.2020
5778 Clouds 23 1012 78 10000 1.84 128 21:38 11.07.2020
5779 Clear 23 1012 78 10000 1.68 55 21:19 11.07.2020
5780 Clouds 23 1011 78 10000 1.68 55 20:55 11.07.2020
5781 Clouds 23 1011 83 10000 1.68 55 20:37 11.07.2020
5782 Clouds 23 1011 83 10000 2.19 28 20:18 11.07.2020
5783 Clouds 24 1012 83 10000 2.19 28 19:48 11.07.2020
5784 Clouds 24 1012 83 10000 1.62 62 19:30 11.07.2020
5785 Clouds 24 1012 83 10000 1.62 62 18:58 11.07.2020
5786 Clouds 24 1012 83 10000 1.62 62 18:39 11.07.2020
5787 Clouds 24 1012 83 10000 1.31 117 18:21 11.07.2020
5788 Clouds 24 1012 83 10000 0.5 190 17:57 11.07.2020
5789 Clouds 24 1012 78 10000 1.31 117 17:38 11.07.2020
5790 Clouds 24 1012 78 10000 0.92 178 17:19 11.07.2020
5791 Clouds 24 1012 78 10000 0.92 178 16:56 11.07.2020
5792 Clouds 25 1012 78 10000 1.5 190 16:36 11.07.2020
5793 Clouds 25 1012 78 10000 1.5 190 16:18 11.07.2020
5794 Clouds 26 1012 74 10000 2.1 200 15:41 11.07.2020
5795 Clouds 26 1012 74 10000 2.1 200 15:21 11.07.2020
5796 Clouds 25 1012 74 10000 1.5 230 14:58 11.07.2020
5797 Clouds 26 1012 65 10000 2.6 230 14:39 11.07.2020
5798 Clouds 26 1012 65 10000 2.6 230 14:20 11.07.2020
5799 Clear 26 1011 69 10000 1.5 290 13:43 11.07.2020
5800 Clear 26 1011 69 10000 1.5 290 13:22 11.07.2020
5801 Clear 26 1011 58 10000 1.5 280 12:59 11.07.2020
5802 Clear 26 1010 58 10000 1.5 250 12:40 11.07.2020
5803 Clear 27 1010 58 10000 2.6 30 12:21 11.07.2020
5804 Clear 27 1010 58 10000 2.6 30 11:56 11.07.2020
5805 Clear 28 1009 51 10000 3.6 20 11:38 11.07.2020
5806 Clouds 29 1009 51 10000 3.6 20 11:19 11.07.2020
5807 Clouds 30 1009 48 10000 4.6 10 10:43 11.07.2020
5808 Clear 30 1009 48 10000 4.6 10 10:25 11.07.2020
5809 Clear 30 1009 55 10000 5.7 350 09:45 11.07.2020
5810 Clear 31 1009 55 10000 5.7 350 09:21 11.07.2020
5811 Clear 31 1009 48 10000 5.1 330 08:59 11.07.2020
5812 Clear 32 1009 48 10000 5.1 320 08:37 11.07.2020
5813 Clouds 32 1009 48 10000 5.7 310 08:18 11.07.2020
5814 Clouds 33 1009 32 10000 6.2 310 07:41 11.07.2020
5815 Clouds 33 1010 31 10000 5.7 110 07:20 11.07.2020
5816 Clouds 33 1010 31 10000 4.1 60 06:55 11.07.2020
5817 Clouds 33 1010 31 10000 4.1 60 06:22 11.07.2020
5818 Clouds 32 1011 35 10000 6.7 110 05:22 11.07.2020
5819 Clouds 31 1012 35 10000 7.7 90 04:55 11.07.2020
5820 Clouds 31 1012 35 10000 5.7 90 04:32 11.07.2020
5821 Clouds 29 1013 42 10000 5.1 90 03:24 11.07.2020
5822 Clouds 27 1014 51 10000 2.6 130 02:38 11.07.2020
5823 Clouds 26 1013 57 10000 2.1 130 01:37 11.07.2020
5824 Clouds 26 1013 57 10000 2.1 130 01:18 11.07.2020
5825 Clouds 24 1013 69 10000 2.1 150 00:41 11.07.2020
5826 Clouds 24 1013 69 10000 2.1 150 00:22 11.07.2020
5827 Clouds 24 1013 69 10000 2.6 130 23:57 10.07.2020
5828 Clouds 24 1012 73 10000 2.1 140 23:39 10.07.2020
5829 Clouds 24 1012 73 10000 2.1 140 23:19 10.07.2020
5830 Clouds 24 1012 73 10000 2.1 140 22:45 10.07.2020
5831 Clouds 24 1012 73 10000 2.6 130 22:21 10.07.2020
5832 Clouds 23 1012 78 10000 2.6 150 21:56 10.07.2020
5833 Clouds 23 1012 78 10000 1.5 170 21:36 10.07.2020
5834 Clouds 23 1012 78 10000 1.5 170 21:18 10.07.2020
5835 Clouds 23 1012 73 10000 3.6 190 20:43 10.07.2020
5836 Clouds 23 1012 73 10000 3.6 190 20:23 10.07.2020
5837 Clouds 23 1012 73 10000 1.5 170 19:58 10.07.2020
5838 Clouds 23 1012 73 10000 2.1 180 19:40 10.07.2020
5839 Clouds 23 1013 73 10000 2.1 170 19:21 10.07.2020
5840 Clouds 24 1013 78 10000 3.1 180 18:42 10.07.2020
5841 Clouds 24 1013 78 10000 3.1 180 18:22 10.07.2020
5842 Clouds 24 1013 73 10000 2.6 180 17:59 10.07.2020
5843 Clouds 25 1013 78 10000 2.6 180 17:40 10.07.2020
5844 Clouds 25 1013 78 10000 2.6 180 17:22 10.07.2020
5845 Clouds 25 1013 78 10000 2.6 200 16:44 10.07.2020
5846 Clouds 25 1013 78 10000 2.6 200 16:21 10.07.2020
5847 Clouds 25 1013 83 10000 1.5 190 15:57 10.07.2020
5848 Clouds 25 1013 78 10000 2.6 210 15:39 10.07.2020
5849 Clouds 25 1013 78 10000 2.6 210 15:18 10.07.2020
5850 Clouds 25 1013 74 10000 2.1 240 14:41 10.07.2020
5851 Clouds 25 1013 74 10000 2.1 240 14:22 10.07.2020
5852 Clouds 25 1012 74 10000 1.5 250 13:58 10.07.2020
5853 Clouds 26 1012 74 10000 2.1 250 13:39 10.07.2020
5854 Clouds 25 1012 74 10000 2.6 260 13:21 10.07.2020
5855 Clouds 25 1012 74 10000 2.6 260 12:58 10.07.2020
5856 Clouds 25 1011 78 10000 2.1 270 12:40 10.07.2020
5857 Clouds 26 1011 78 10000 2.1 270 12:21 10.07.2020
5858 Clouds 26 1011 65 10000 2.6 310 11:42 10.07.2020
5859 Clouds 27 1011 61 10000 2.6 330 11:22 10.07.2020
5860 Clouds 27 1011 61 10000 2.6 330 10:58 10.07.2020
5861 Clouds 28 1010 62 10000 3.6 330 10:40 10.07.2020
5862 Clouds 28 1010 62 10000 3.6 330 10:21 10.07.2020
5863 Clouds 29 1010 55 10000 3.6 330 09:42 10.07.2020
5864 Clouds 30 1010 55 10000 3.6 330 09:23 10.07.2020
5865 Clouds 31 1010 55 10000 5.1 310 08:59 10.07.2020
5866 Clouds 32 1010 48 10000 4.6 310 08:41 10.07.2020
5867 Clouds 33 1010 38 10000 4.6 330 08:23 10.07.2020
5868 Clouds 33 1010 38 10000 4.6 330 07:58 10.07.2020
5869 Clouds 32 1011 40 10000 5.1 90 07:39 10.07.2020
5870 Clouds 33 1011 36 10000 4.1 350 07:19 10.07.2020
5871 Clouds 33 1011 38 10000 6.2 100 06:43 10.07.2020
5872 Clear 32 1012 38 10000 4.1 350 05:50 10.07.2020
5873 Clear 30 1013 40 10000 4.6 110 04:29 10.07.2020
5874 Clear 28 1014 48 10000 5.1 110 03:22 10.07.2020
5875 Clear 27 1014 61 10000 3.1 150 02:41 10.07.2020
5876 Clear 25 1013 64 10000 2.1 140 01:33 10.07.2020
5877 Clear 20 1013 82 10000 1.5 130 00:40 10.07.2020
5878 Clear 20 1012 82 10000 4.23 118 00:18 10.07.2020
5879 Clear 20 1012 82 10000 4.23 118 23:39 09.07.2020
5880 Clear 20 1012 82 10000 3.9 116 23:19 09.07.2020
5881 Clear 21 1012 73 10000 2.6 160 22:57 09.07.2020
5882 Clear 20 1012 88 10000 1.5 110 22:39 09.07.2020
5883 Clear 20 1012 88 10000 1.5 110 22:20 09.07.2020
5884 Clear 20 1012 88 10000 0.5 100 21:55 09.07.2020
5885 Clear 20 1012 88 10000 1.5 120 21:37 09.07.2020
5886 Clear 20 1012 88 10000 1.5 120 21:18 09.07.2020
5887 Clear 21 1012 78 10000 2.1 180 20:42 09.07.2020
5888 Clouds 21 1012 78 10000 2.1 180 20:24 09.07.2020
5889 Clouds 21 1012 88 10000 1.5 180 19:56 09.07.2020
5890 Clouds 21 1012 88 10000 0.5 60 19:38 09.07.2020
5891 Clouds 21 1013 88 10000 2.6 40 19:19 09.07.2020
5892 Clouds 22 1012 83 10000 2.1 190 18:41 09.07.2020
5893 Clouds 22 1012 83 10000 2.6 200 18:20 09.07.2020
5894 Clouds 22 1012 83 10000 2.6 200 17:55 09.07.2020
5895 Clouds 23 1012 83 10000 2.6 210 17:37 09.07.2020
5896 Clouds 23 1012 83 10000 2.6 210 17:18 09.07.2020
5897 Clouds 23 1012 88 10000 2.6 200 16:54 09.07.2020
5898 Clouds 23 1012 83 10000 2.1 200 16:36 09.07.2020
5899 Clouds 22 1012 83 10000 2.1 200 16:18 09.07.2020
5900 Clouds 23 1012 78 10000 2.1 200 15:45 09.07.2020
5901 Clouds 23 1012 78 10000 2.1 200 15:45 09.07.2020
5902 Clouds 23 1012 78 10000 2.1 200 15:27 09.07.2020
5903 Clouds 23 1012 69 10000 2.1 190 14:59 09.07.2020
5904 Clouds 23 1012 73 10000 1 50 14:40 09.07.2020
5905 Clouds 23 1012 73 10000 1 50 14:22 09.07.2020
5906 Clouds 23 1011 73 10000 1.5 50 13:58 09.07.2020
5907 Clouds 23 1011 73 10000 2.1 40 13:39 09.07.2020
5908 Clouds 23 1011 73 10000 2.1 40 13:20 09.07.2020
5909 Clouds 25 1011 69 10000 1.5 10 12:43 09.07.2020
5910 Clouds 25 1011 69 10000 1.5 10 12:24 09.07.2020
5911 Clouds 25 1010 61 10000 1.5 10 11:59 09.07.2020
5912 Clouds 26 1010 57 10000 3.1 10 11:41 09.07.2020
5913 Clouds 26 1010 57 10000 3.1 10 11:23 09.07.2020
5914 Clouds 27 1010 54 10000 4.1 360 10:58 09.07.2020
5915 Clouds 28 1009 45 10000 4.1 350 10:40 09.07.2020
5916 Clouds 29 1009 45 10000 4.1 350 10:21 09.07.2020
5917 Clouds 32 1009 29 10000 2.6 250 09:44 09.07.2020
5918 Clouds 32 1009 29 10000 2.6 250 09:24 09.07.2020
5919 Clouds 32 1009 27 10000 2.6 100 08:56 09.07.2020
5920 Clouds 32 1009 27 10000 3.6 50 08:37 09.07.2020
5921 Clouds 32 1009 27 10000 3.6 50 08:18 09.07.2020
5922 Clouds 32 1010 25 10000 4.1 130 07:45 09.07.2020
5923 Clouds 32 1010 25 10000 4.1 130 07:21 09.07.2020
5924 Clouds 31 1011 28 10000 5.1 90 06:40 09.07.2020
5925 Clouds 30 1012 28 10000 6.7 120 06:19 09.07.2020
5926 Clouds 29 1013 32 10000 7.2 100 04:29 09.07.2020
5927 Clouds 27 1014 42 10000 5.1 90 03:25 09.07.2020
5928 Clouds 25 1014 53 10000 6.2 90 02:18 09.07.2020
5929 Clouds 23 1014 53 10000 5.7 90 01:32 09.07.2020
5930 Clouds 21 1013 60 10000 4.1 90 00:46 09.07.2020
5931 Clouds 21 1013 60 10000 4.1 90 00:23 09.07.2020
5932 Clouds 21 1013 53 10000 4.6 100 23:46 08.07.2020
5933 Clear 21 1013 53 10000 4.6 100 23:27 08.07.2020
5934 Clear 21 1012 53 10000 3.6 90 22:58 08.07.2020
5935 Clear 21 1012 53 10000 4.1 100 22:39 08.07.2020
5936 Clouds 21 1012 53 10000 4.1 100 22:21 08.07.2020
5937 Clouds 21 1012 56 10000 3.1 130 21:58 08.07.2020
5938 Clouds 21 1012 56 10000 3.1 130 21:58 08.07.2020
5939 Clouds 21 1012 60 10000 3.1 150 21:38 08.07.2020
5940 Clear 20 1012 60 10000 3.1 150 21:20 08.07.2020
5941 Clear 21 1012 64 10000 3.1 160 20:54 08.07.2020
5942 Clear 21 1012 73 10000 2.6 160 20:36 08.07.2020
5943 Clear 20 1012 73 10000 2.6 160 20:18 08.07.2020
5944 Clear 21 1012 78 10000 2.1 170 19:42 08.07.2020
5945 Clear 21 1012 78 10000 2.1 170 19:22 08.07.2020
5946 Clear 22 1012 78 10000 3.1 180 18:57 08.07.2020
5947 Clear 22 1012 78 10000 2.6 180 18:38 08.07.2020
5948 Clear 22 1012 78 10000 2.6 180 18:19 08.07.2020
5949 Clear 22 1012 78 10000 2.6 180 18:19 08.07.2020
5950 Clear 22 1012 78 10000 3.6 190 17:55 08.07.2020
5951 Clear 22 1012 78 10000 3.6 180 17:37 08.07.2020
5952 Clear 22 1012 78 10000 3.6 180 17:18 08.07.2020
5953 Clear 22 1012 78 10000 3.1 190 16:39 08.07.2020
5954 Clear 23 1012 78 10000 3.1 190 16:20 08.07.2020
5955 Clear 23 1012 78 10000 2.6 180 15:58 08.07.2020
5956 Clear 23 1012 64 10000 2.6 180 15:40 08.07.2020
5957 Clear 23 1012 64 10000 2.6 180 15:19 08.07.2020
5958 Clear 23 1012 60 10000 1 70 14:48 08.07.2020
5959 Clouds 23 1012 60 10000 1 70 14:29 08.07.2020
5960 Clouds 23 1012 64 10000 1 50 13:59 08.07.2020
5961 Clouds 23 1012 64 10000 2.1 50 13:41 08.07.2020
5962 Clouds 24 1012 64 10000 2.1 50 13:22 08.07.2020
5963 Clouds 25 1011 54 10000 2.1 50 12:45 08.07.2020
5964 Clouds 26 1011 44 10000 2.6 30 12:21 08.07.2020
5965 Clouds 26 1011 44 10000 2.6 30 11:57 08.07.2020
5966 Clouds 27 1011 42 10000 3.1 50 11:38 08.07.2020
5967 Clouds 28 1011 42 10000 3.1 50 11:20 08.07.2020
5968 Clouds 29 1010 37 10000 3.6 60 10:45 08.07.2020
5969 Clouds 30 1010 35 10000 4.1 80 10:26 08.07.2020
5970 Clouds 31 1010 29 10000 4.1 80 09:59 08.07.2020
5971 Clouds 31 1010 27 10000 4.6 70 09:40 08.07.2020
5972 Clouds 32 1010 27 10000 4.6 70 09:20 08.07.2020
5973 Clouds 31 1010 29 10000 4.6 80 08:42 08.07.2020
5974 Clouds 31 1010 29 10000 4.6 80 08:24 08.07.2020
5975 Clouds 31 1010 27 10000 4.6 90 07:47 08.07.2020
5976 Clouds 31 1011 27 10000 5.7 110 07:23 08.07.2020
5977 Clouds 31 1011 27 10000 6.7 100 06:55 08.07.2020
5978 Clouds 31 1011 27 10000 5.7 90 06:35 08.07.2020
5979 Clouds 30 1012 27 10000 6.2 110 05:55 08.07.2020
5980 Clouds 29 1012 26 10000 6.2 110 05:20 08.07.2020
5981 Clouds 28 1013 30 10000 7.2 140 04:32 08.07.2020
5982 Clouds 24 1014 44 10000 4.6 120 02:22 08.07.2020
5983 Clouds 23 1014 49 10000 3.6 130 01:45 08.07.2020
5984 Clouds 22 1014 52 10000 3.6 120 01:19 08.07.2020
5985 Clouds 21 1014 49 10000 3.6 100 00:26 08.07.2020
5986 Clouds 21 1013 49 10000 3.6 110 23:56 07.07.2020
5987 Clouds 20 1013 60 10000 3.6 130 23:37 07.07.2020
5988 Clouds 20 1013 60 10000 3.6 130 23:19 07.07.2020
5989 Clouds 19 1013 72 10000 2.6 150 22:43 07.07.2020
5990 Clouds 20 1013 72 10000 2.6 150 22:23 07.07.2020
5991 Clouds 20 1013 77 10000 2.6 160 21:59 07.07.2020
5992 Clouds 19 1013 82 7000 2.6 160 21:40 07.07.2020
5993 Clouds 19 1013 82 7000 2.6 160 21:21 07.07.2020
5994 Clouds 19 1013 82 6000 2.6 160 20:57 07.07.2020
5995 Clouds 20 1013 82 9000 2.6 170 20:39 07.07.2020
5996 Clouds 19 1013 82 9000 2.6 170 20:20 07.07.2020
5997 Clouds 19 1013 93 3100 5.31 101 19:41 07.07.2020
5998 Clouds 19 1014 88 1500 5.04 105 19:21 07.07.2020
5999 Clouds 19 1014 88 1500 5.04 105 18:58 07.07.2020
6000 Clouds 19 1014 88 6000 5.04 105 18:40 07.07.2020
6001 Clouds 19 1014 88 6000 4.23 123 18:21 07.07.2020
6002 Clouds 19 1014 82 6000 4.23 123 17:58 07.07.2020
6003 Clouds 20 1014 82 10000 4.23 123 17:38 07.07.2020
6004 Clouds 20 1014 82 10000 2.96 147 17:20 07.07.2020
6005 Clouds 20 1014 77 10000 2.96 147 16:58 07.07.2020
6006 Clouds 21 1014 73 10000 2.96 147 16:38 07.07.2020
6007 Clouds 21 1014 73 10000 2.48 155 16:20 07.07.2020
6008 Clouds 22 1014 64 10000 2.48 155 15:42 07.07.2020
6009 Clouds 22 1014 64 10000 1.99 157 15:21 07.07.2020
6010 Clouds 22 1014 64 10000 0.5 30 14:47 07.07.2020
6011 Clear 22 1014 69 10000 1 30 14:27 07.07.2020
6012 Clear 22 1013 64 10000 1.5 30 13:59 07.07.2020
6013 Clear 22 1013 64 10000 1.5 30 13:38 07.07.2020
6014 Clear 22 1013 60 10000 1 30 13:18 07.07.2020
6015 Clear 23 1013 60 10000 2.6 30 12:41 07.07.2020
6016 Clear 24 1013 53 10000 2.6 30 12:22 07.07.2020
6017 Clear 24 1013 53 10000 2.6 30 11:56 07.07.2020
6018 Clear 25 1012 50 10000 3.6 10 11:38 07.07.2020
6019 Clear 25 1012 50 10000 3.6 10 11:20 07.07.2020
6020 Clear 26 1012 50 10000 4.1 10 10:55 07.07.2020
6021 Clear 26 1012 44 10000 4.1 360 10:37 07.07.2020
6022 Clear 27 1012 44 10000 4.1 360 10:18 07.07.2020
6023 Clear 29 1011 37 10000 3.6 330 09:40 07.07.2020
6024 Clear 28 1011 37 10000 3.6 330 09:20 07.07.2020
6025 Clear 30 1012 22 10000 5.1 280 08:42 07.07.2020
6026 Clear 31 1012 22 10000 5.1 280 08:23 07.07.2020
6027 Clear 31 1012 22 10000 2.6 130 07:47 07.07.2020
6028 Clear 30 1012 22 10000 2.6 130 07:24 07.07.2020
6029 Clear 30 1013 20 10000 4.6 110 06:49 07.07.2020
6030 Clear 30 1013 20 10000 4.6 110 06:31 07.07.2020
6031 Clear 29 1014 23 10000 4.6 110 05:54 07.07.2020
6032 Clear 28 1014 24 10000 6.2 130 05:23 07.07.2020
6033 Clear 27 1015 26 10000 7.7 100 04:42 07.07.2020
6034 Clear 26 1016 27 10000 9.3 110 03:41 07.07.2020
6035 Clear 24 1016 36 10000 6.7 110 02:28 07.07.2020
6036 Clear 21 1016 40 10000 4.6 120 01:25 07.07.2020
6037 Clear 21 1016 48 10000 4.1 130 00:54 07.07.2020
6038 Clear 20 1016 48 10000 4.1 130 00:36 07.07.2020
6039 Clear 20 1015 45 10000 3.6 140 00:18 07.07.2020
6040 Clear 20 1015 40 10000 4.6 130 23:41 06.07.2020
6041 Clear 20 1015 40 10000 4.6 130 23:22 06.07.2020
6042 Clear 21 1015 40 10000 4.6 120 22:55 06.07.2020
6043 Clear 21 1015 40 10000 5.1 120 22:37 06.07.2020
6044 Clear 21 1014 35 10000 5.7 120 22:18 06.07.2020
6045 Clear 21 1014 35 10000 5.7 120 21:54 06.07.2020
6046 Clear 22 1014 35 10000 6.7 110 21:36 06.07.2020
6047 Clear 22 1018 41 0 6.95 107 21:18 06.07.2020
6048 Clear 22 1014 31 10000 5.7 120 20:39 06.07.2020
6049 Clouds 22 1014 31 10000 5.7 120 20:20 06.07.2020
6050 Clouds 22 1014 31 10000 5.7 120 19:57 06.07.2020
6051 Clouds 23 1014 31 10000 6.2 120 19:39 06.07.2020
6052 Clouds 23 1014 31 10000 6.2 120 19:20 06.07.2020
6053 Clouds 23 1014 31 10000 5.1 130 18:56 06.07.2020
6054 Clouds 23 1014 31 10000 4.1 120 18:38 06.07.2020
6055 Clear 23 1014 31 10000 3.6 120 18:19 06.07.2020
6056 Clear 23 1014 33 10000 4.1 130 17:42 06.07.2020
6057 Clear 23 1014 33 10000 4.1 130 17:24 06.07.2020
6058 Clear 24 1014 36 10000 4.1 130 16:58 06.07.2020
6059 Clear 24 1014 38 10000 3.1 130 16:40 06.07.2020
6060 Clear 24 1014 38 10000 3.1 130 16:21 06.07.2020
6061 Clear 23 1015 60 10000 2.1 110 15:42 06.07.2020
6062 Clear 23 1015 60 10000 2.1 110 15:42 06.07.2020
6063 Clear 23 1015 60 10000 2.1 110 15:24 06.07.2020
6064 Clear 23 1015 60 10000 2.1 110 15:24 06.07.2020
6065 Clear 24 1015 57 10000 1.5 100 14:57 06.07.2020
6066 Clouds 24 1015 61 10000 1 70 14:38 06.07.2020
6067 Clouds 25 1015 61 10000 1 70 14:19 06.07.2020
6068 Clouds 26 1014 57 10000 1 60 13:55 06.07.2020
6069 Clouds 26 1014 57 10000 1.5 40 13:36 06.07.2020
6070 Clouds 26 1014 57 10000 1.5 40 13:36 06.07.2020
6071 Clouds 26 1014 57 10000 1.5 40 13:18 06.07.2020
6072 Clouds 26 1014 54 10000 1.5 350 12:42 06.07.2020
6073 Clouds 26 1013 54 10000 2.1 360 12:19 06.07.2020
6074 Clouds 27 1013 54 10000 2.1 360 11:57 06.07.2020
6075 Clouds 27 1013 51 10000 2.1 340 11:38 06.07.2020
6076 Clouds 27 1017 59 0 2.06 348 11:19 06.07.2020
6077 Clouds 27 1012 48 10000 4.6 350 10:43 06.07.2020
6078 Clouds 28 1012 48 10000 4.6 350 10:22 06.07.2020
6079 Clouds 28 1012 42 10000 4.6 350 09:59 06.07.2020
6080 Clouds 29 1012 37 10000 4.6 340 09:41 06.07.2020
6081 Clouds 29 1012 37 10000 4.6 340 09:21 06.07.2020
6082 Clouds 31 1012 23 10000 3.1 360 08:55 06.07.2020
6083 Clouds 31 1012 23 10000 2.6 90 08:36 06.07.2020
6084 Clear 31 1012 23 10000 2.6 90 08:18 06.07.2020
6085 Clear 31 1012 23 10000 5.1 120 07:43 06.07.2020
6086 Clear 31 1012 23 10000 5.1 120 07:23 06.07.2020
6087 Clear 30 1013 27 10000 5.7 110 06:39 06.07.2020
6088 Clear 30 1013 27 10000 6.2 120 06:21 06.07.2020
6089 Clear 29 1014 28 10000 6.7 110 05:38 06.07.2020
6090 Clear 29 1014 26 10000 5.7 140 04:52 06.07.2020
6091 Clear 26 1015 36 10000 7.7 130 03:40 06.07.2020
6092 Clear 24 1016 38 10000 7.7 120 02:22 06.07.2020
6093 Clear 22 1016 46 10000 6.7 130 01:34 06.07.2020
6094 Clear 21 1015 49 10000 5.1 140 00:38 06.07.2020
6095 Clear 21 1015 45 10000 4.6 140 00:19 06.07.2020
6096 Clear 20 1014 42 10000 3.6 140 23:42 05.07.2020
6097 Clear 20 1014 42 10000 3.6 140 23:23 05.07.2020
6098 Clear 21 1014 40 10000 4.1 130 22:59 05.07.2020
6099 Clear 20 1014 40 10000 5.1 120 22:40 05.07.2020
6100 Clear 21 1014 40 10000 5.1 120 22:20 05.07.2020
6101 Clear 21 1014 37 10000 4.6 120 21:57 05.07.2020
6102 Clear 21 1014 35 10000 3.6 120 21:38 05.07.2020
6103 Clear 21 1014 35 10000 3.6 120 21:18 05.07.2020
6104 Clear 21 1014 35 10000 3.6 120 21:18 05.07.2020
6105 Clear 21 1014 30 10000 3.6 130 20:57 05.07.2020
6106 Clear 21 1015 28 10000 4.1 130 20:39 05.07.2020
6107 Clear 21 1015 28 10000 4.6 130 20:20 05.07.2020
6108 Clear 21 1015 26 10000 4.6 130 19:43 05.07.2020
6109 Clear 21 1015 26 10000 4.6 130 19:21 05.07.2020
6110 Clear 21 1015 26 10000 4.6 140 18:56 05.07.2020
6111 Clear 22 1015 26 10000 6.2 140 18:38 05.07.2020
6112 Clear 22 1015 26 10000 6.2 140 18:20 05.07.2020
6113 Clear 22 1015 30 10000 4.1 140 17:43 05.07.2020
6114 Clear 22 1015 30 10000 4.1 140 17:20 05.07.2020
6115 Clear 22 1015 35 10000 4.1 140 16:59 05.07.2020
6116 Clear 22 1015 31 10000 3.6 140 16:41 05.07.2020
6117 Clouds 22 1015 31 10000 3.6 140 16:22 05.07.2020
6118 Clouds 23 1015 31 10000 4.1 150 15:41 05.07.2020
6119 Clouds 23 1015 31 10000 4.1 150 15:41 05.07.2020
6120 Clouds 24 1015 31 10000 4.1 150 15:20 05.07.2020
6121 Clouds 24 1015 31 10000 4.1 150 15:20 05.07.2020
6122 Clouds 24 1014 29 10000 5.1 150 14:59 05.07.2020
6123 Clouds 25 1014 29 10000 3.6 160 14:40 05.07.2020
6124 Clouds 25 1014 29 10000 3.6 160 14:20 05.07.2020
6125 Clouds 25 1014 26 10000 4.6 150 13:41 05.07.2020
6126 Clear 25 1014 26 10000 4.6 150 13:23 05.07.2020
6127 Clear 26 1013 31 10000 2.6 140 12:46 05.07.2020
6128 Clear 25 1013 31 10000 2.6 140 12:25 05.07.2020
6129 Clear 26 1013 34 10000 2.1 130 11:58 05.07.2020
6130 Clear 26 1013 28 10000 2.1 120 11:39 05.07.2020
6131 Clear 27 1013 28 10000 2.1 120 11:21 05.07.2020
6132 Clear 28 1012 26 10000 4.1 130 10:57 05.07.2020
6133 Clouds 29 1012 26 10000 3.1 130 10:38 05.07.2020
6134 Clouds 29 1012 26 10000 3.1 130 10:19 05.07.2020
6135 Clear 29 1011 30 10000 6.7 100 09:42 05.07.2020
6136 Clear 29 1011 30 10000 6.7 100 09:21 05.07.2020
6137 Clear 30 1011 27 10000 4.1 130 08:58 05.07.2020
6138 Clear 29 1012 28 10000 5.7 110 08:38 05.07.2020
6139 Clouds 29 1012 28 10000 5.7 110 08:20 05.07.2020
6140 Clouds 29 1012 28 10000 5.7 70 07:44 05.07.2020
6141 Clouds 30 1013 28 10000 6.2 120 07:26 05.07.2020
6142 Clouds 29 1013 32 10000 6.7 100 06:50 05.07.2020
6143 Clouds 28 1014 30 10000 6.7 130 05:18 05.07.2020
6144 Clouds 25 1016 33 10000 7.7 140 03:20 05.07.2020
6145 Clouds 24 1016 38 10000 9.3 100 02:41 05.07.2020
6146 Clouds 23 1016 43 10000 9.3 100 01:59 05.07.2020
6147 Clouds 22 1016 49 10000 9.3 100 01:32 05.07.2020
6148 Clouds 21 1015 52 10000 9.3 100 00:57 05.07.2020
6149 Clouds 21 1015 56 10000 3.1 130 00:38 05.07.2020
6150 Clouds 20 1015 49 10000 3.6 130 00:19 05.07.2020
6151 Clouds 20 1015 52 10000 3.6 120 23:41 04.07.2020
6152 Clouds 21 1015 52 10000 3.6 120 23:23 04.07.2020
6153 Clouds 21 1014 46 10000 4.6 120 22:54 04.07.2020
6154 Clouds 21 1014 49 10000 4.6 120 22:36 04.07.2020
6155 Clouds 22 1014 49 10000 4.6 120 22:18 04.07.2020
6156 Clouds 23 1013 43 10000 7.2 90 21:40 04.07.2020
6157 Clouds 22 1013 43 10000 7.2 90 21:22 04.07.2020
6158 Clouds 22 1014 46 10000 7.7 90 20:55 04.07.2020
6159 Clouds 23 1014 43 10000 7.7 90 20:36 04.07.2020
6160 Clouds 23 1014 43 10000 7.2 100 20:18 04.07.2020
6161 Clouds 23 1014 41 10000 6.7 100 19:42 04.07.2020
6162 Clouds 23 1015 38 10000 7.2 100 19:22 04.07.2020
6163 Clouds 24 1015 33 10000 6.7 100 18:55 04.07.2020
6164 Clouds 24 1015 33 10000 6.7 100 18:55 04.07.2020
6165 Clouds 24 1015 33 10000 6.7 100 18:37 04.07.2020
6166 Clouds 24 1015 31 10000 5.7 110 18:18 04.07.2020
6167 Clouds 25 1015 31 10000 5.7 120 17:42 04.07.2020
6168 Clouds 25 1015 31 10000 5.7 120 17:22 04.07.2020
6169 Clouds 25 1015 31 10000 4.6 120 16:57 04.07.2020
6170 Clouds 24 1015 36 10000 3.6 130 16:37 04.07.2020
6171 Clouds 25 1015 36 10000 3.6 130 16:19 04.07.2020
6172 Clouds 25 1015 31 10000 4.1 130 15:46 04.07.2020
6173 Clouds 25 1015 33 10000 3.6 130 15:27 04.07.2020
6174 Clouds 25 1015 31 10000 4.6 130 14:59 04.07.2020
6175 Clouds 25 1015 31 10000 4.6 130 14:59 04.07.2020
6176 Clouds 25 1015 31 10000 4.1 130 14:37 04.07.2020
6177 Clouds 25 1015 31 10000 4.1 130 14:19 04.07.2020
6178 Clouds 26 1015 34 10000 4.1 140 13:57 04.07.2020
6179 Clouds 26 1014 32 10000 3.1 140 13:39 04.07.2020
6180 Clouds 26 1014 30 10000 3.1 130 13:18 04.07.2020
6181 Clouds 27 1013 30 10000 3.6 120 12:42 04.07.2020
6182 Clear 27 1013 30 10000 3.6 120 12:20 04.07.2020
6183 Clear 28 1013 28 10000 3.1 120 11:46 04.07.2020
6184 Clouds 29 1013 28 10000 4.1 130 11:25 04.07.2020
6185 Clouds 30 1012 25 10000 4.6 120 11:00 04.07.2020
6186 Clouds 31 1012 25 10000 5.1 100 10:41 04.07.2020
6187 Clouds 31 1012 25 10000 5.1 100 10:21 04.07.2020
6188 Clouds 31 1012 24 10000 5.1 140 09:57 04.07.2020
6189 Clouds 31 1012 24 10000 5.1 140 09:57 04.07.2020
6190 Clear 31 1012 24 10000 6.7 110 09:37 04.07.2020
6191 Clear 32 1012 24 10000 6.7 110 09:18 04.07.2020
6192 Clear 32 1012 24 10000 7.7 100 08:46 04.07.2020
6193 Clouds 32 1013 25 10000 6.7 120 08:27 04.07.2020
6194 Clouds 32 1013 27 10000 8.7 90 07:46 04.07.2020
6195 Clouds 31 1013 27 10000 8.7 90 07:26 04.07.2020
6196 Clouds 31 1013 29 10000 7.2 120 06:53 04.07.2020
6197 Clouds 31 1014 29 10000 9.3 100 06:22 04.07.2020
6198 Clouds 30 1015 33 10000 9.3 110 05:34 04.07.2020
6199 Clouds 29 1016 37 10000 10.8 90 04:42 04.07.2020
6200 Clouds 28 1016 42 10000 9.3 110 02:51 04.07.2020
6201 Clear 27 1016 47 10000 7.7 110 02:19 04.07.2020
6202 Clear 26 1016 50 10000 5.1 100 01:26 04.07.2020
6203 Clear 24 1015 60 10000 4.6 100 00:41 04.07.2020
6204 Clear 24 1015 60 10000 4.6 100 00:22 04.07.2020
6205 Clear 23 1015 60 10000 4.1 100 23:40 03.07.2020
6206 Clear 23 1015 60 10000 4.1 100 23:19 03.07.2020
6207 Clear 23 1015 69 10000 3.6 100 22:58 03.07.2020
6208 Clear 23 1015 73 10000 3.6 120 22:39 03.07.2020
6209 Clear 23 1015 73 10000 3.6 120 22:20 03.07.2020
6210 Clear 23 1014 83 10000 2.6 110 21:41 03.07.2020
6211 Clear 23 1014 83 10000 2.6 110 21:20 03.07.2020
6212 Clear 23 1014 83 10000 2.6 140 20:56 03.07.2020
6213 Clear 23 1015 78 10000 2.6 140 20:38 03.07.2020
6214 Clouds 24 1015 78 10000 2.6 140 20:20 03.07.2020
6215 Clouds 24 1015 78 10000 1.5 150 19:41 03.07.2020
6216 Clouds 24 1015 78 10000 1.5 150 19:20 03.07.2020
6217 Clouds 24 1015 78 10000 1.5 150 18:57 03.07.2020
6218 Clouds 24 1015 73 10000 2.1 150 18:39 03.07.2020
6219 Clouds 24 1015 73 10000 1.5 140 18:20 03.07.2020
6220 Clouds 24 1015 78 10000 2.1 170 17:43 03.07.2020
6221 Clouds 24 1015 78 10000 2.1 170 17:22 03.07.2020
6222 Clouds 24 1016 78 10000 2.1 170 16:46 03.07.2020
6223 Clouds 24 1015 78 10000 1.5 160 16:28 03.07.2020
6224 Clouds 25 1015 74 10000 1.5 180 15:49 03.07.2020
6225 Clear 26 1015 69 10000 1.5 170 15:26 03.07.2020
6226 Clear 26 1015 69 10000 2.6 180 15:00 03.07.2020
6227 Clear 26 1015 74 10000 1.5 50 14:41 03.07.2020
6228 Clouds 25 1015 74 10000 1.5 50 14:22 03.07.2020
6229 Clouds 26 1014 74 10000 3.6 40 13:59 03.07.2020
6230 Clouds 26 1014 74 10000 2.6 30 13:40 03.07.2020
6231 Clouds 26 1014 74 10000 2.6 30 13:21 03.07.2020
6232 Clouds 27 1013 65 10000 3.1 30 12:40 03.07.2020
6233 Clear 27 1013 65 10000 3.1 30 12:21 03.07.2020
6234 Clear 28 1013 54 10000 2.6 30 11:44 03.07.2020
6235 Clear 28 1013 54 10000 2.6 30 11:25 03.07.2020
6236 Clouds 29 1013 54 10000 4.6 30 10:59 03.07.2020
6237 Clouds 29 1012 54 10000 4.6 30 10:41 03.07.2020
6238 Clouds 29 1012 54 10000 4.6 30 10:21 03.07.2020
6239 Clouds 30 1012 51 10000 5.1 20 09:58 03.07.2020
6240 Clouds 31 1012 43 10000 5.7 20 09:38 03.07.2020
6241 Clouds 32 1012 43 10000 5.7 20 09:19 03.07.2020
6242 Clear 32 1012 43 10000 6.7 10 08:55 03.07.2020
6243 Clear 33 1012 36 10000 5.1 70 08:37 03.07.2020
6244 Clear 33 1012 36 10000 5.1 70 08:18 03.07.2020
6245 Clear 33 1013 33 10000 5.1 60 07:43 03.07.2020
6246 Clear 33 1013 33 10000 5.1 60 07:21 03.07.2020
6247 Clear 32 1013 33 10000 5.7 90 06:30 03.07.2020
6248 Clear 31 1014 40 10000 6.2 90 05:42 03.07.2020
6249 Clear 29 1015 42 10000 5.7 80 03:59 03.07.2020
6250 Clear 27 1016 51 10000 6.7 110 02:55 03.07.2020
6251 Clouds 27 1016 54 10000 4.6 120 02:31 03.07.2020
6252 Clouds 24 1015 83 10000 3.1 130 01:41 03.07.2020
6253 Clear 23 1015 83 10000 3.1 130 01:20 03.07.2020
6254 Fog 21 1014 94 10000 1.5 130 00:41 03.07.2020
6255 Fog 20 1014 94 10000 1.5 130 23:56 02.07.2020
6256 Fog 20 1014 94 10000 1.5 130 23:37 02.07.2020
6257 Fog 21 1014 94 10000 1.5 130 23:18 02.07.2020
6258 Clear 21 1014 88 10000 2.1 130 22:54 02.07.2020
6259 Clear 21 1014 88 10000 2.6 130 22:36 02.07.2020
6260 Clear 21 1014 88 10000 2.6 130 22:18 02.07.2020
6261 Clear 21 1013 88 10000 2.1 150 21:42 02.07.2020
6262 Clear 21 1013 88 10000 2.1 150 21:20 02.07.2020
6263 Clear 22 1013 83 10000 2.6 140 20:58 02.07.2020
6264 Clear 22 1014 83 10000 2.1 140 20:40 02.07.2020
6265 Clear 22 1014 83 10000 2.1 140 20:20 02.07.2020
6266 Clear 22 1014 88 10000 1.5 120 19:43 02.07.2020
6267 Clear 22 1014 88 10000 1.5 120 19:24 02.07.2020
6268 Clear 21 1014 88 10000 1 120 18:59 02.07.2020
6269 Clear 22 1014 83 10000 1 90 18:41 02.07.2020
6270 Clear 22 1014 83 10000 1 90 18:22 02.07.2020
6271 Clear 22 1014 83 10000 1.5 80 17:58 02.07.2020
6272 Clouds 23 1014 78 10000 1.5 80 17:39 02.07.2020
6273 Clouds 23 1014 78 10000 1.5 80 17:18 02.07.2020
6274 Clouds 23 1014 78 10000 2.6 60 16:44 02.07.2020
6275 Clouds 24 1014 78 10000 2.6 60 16:22 02.07.2020
6276 Clear 23 1014 83 10000 2.1 80 15:59 02.07.2020
6277 Clear 23 1014 83 10000 1 180 15:38 02.07.2020
6278 Clear 23 1014 83 10000 1 180 15:20 02.07.2020
6279 Clear 23 1013 83 10000 1 180 14:46 02.07.2020
6280 Clear 23 1013 78 10000 1 190 14:25 02.07.2020
6281 Clear 24 1013 73 10000 1 240 13:57 02.07.2020
6282 Clear 24 1012 73 10000 1.5 250 13:39 02.07.2020
6283 Clear 24 1012 73 10000 1.5 250 13:20 02.07.2020
6284 Clear 25 1012 73 10000 0.5 270 12:58 02.07.2020
6285 Clear 25 1012 69 10000 1 290 12:38 02.07.2020
6286 Clear 25 1011 69 10000 2.1 360 12:20 02.07.2020
6287 Clear 25 1012 69 10000 1 290 12:20 02.07.2020
6288 Clear 26 1011 65 10000 3.6 10 11:43 02.07.2020
6289 Clear 26 1011 65 10000 3.6 10 11:25 02.07.2020
6290 Clear 27 1010 58 10000 4.6 360 10:48 02.07.2020
6291 Clear 28 1010 58 10000 4.1 360 10:27 02.07.2020
6292 Clear 28 1010 51 10000 4.1 350 09:59 02.07.2020
6293 Clear 29 1010 51 10000 4.6 350 09:40 02.07.2020
6294 Clear 29 1010 51 10000 4.6 350 09:20 02.07.2020
6295 Clear 30 1009 48 10000 4.6 350 08:55 02.07.2020
6296 Clear 30 1010 48 10000 4.6 340 08:37 02.07.2020
6297 Clear 30 1010 54 10000 4.6 310 08:18 02.07.2020
6298 Clear 30 1010 55 10000 4.6 310 07:40 02.07.2020
6299 Clear 30 1010 55 10000 4.6 310 07:19 02.07.2020
6300 Clear 31 1011 33 10000 4.6 120 06:40 02.07.2020
6301 Clear 31 1012 35 10000 5.1 300 06:20 02.07.2020
6302 Clouds 30 1012 45 10000 4.6 70 05:44 02.07.2020
6303 Clouds 28 1013 58 10000 4.1 70 03:57 02.07.2020
6304 Clouds 27 1014 61 10000 3.6 80 03:31 02.07.2020
6305 Clear 22 1013 78 10000 2.1 150 00:54 02.07.2020
6306 Clouds 21 1013 83 10000 3.1 120 00:25 02.07.2020
6307 Fog 20 1013 88 10000 1.5 140 23:48 01.07.2020
6308 Fog 20 1013 93 10000 1 120 23:30 01.07.2020
6309 Clouds 19 1012 88 10000 0.5 120 22:57 01.07.2020
6310 Clouds 20 1012 94 10000 1.5 140 22:38 01.07.2020
6311 Clouds 20 1012 94 10000 1.5 140 22:19 01.07.2020
6312 Clouds 21 1012 88 10000 1.5 150 21:58 01.07.2020
6313 Clouds 20 1012 88 10000 1.5 140 21:40 01.07.2020
6314 Clear 20 1012 88 10000 1.5 140 21:22 01.07.2020
6315 Clear 20 1012 94 10000 1 120 20:57 01.07.2020
6316 Clear 20 1012 88 10000 1 120 20:39 01.07.2020
6317 Clouds 20 1012 88 10000 1 120 20:20 01.07.2020
6318 Clouds 20 1013 88 10000 1.5 230 19:54 01.07.2020
6319 Clouds 20 1013 94 10000 1.5 230 19:36 01.07.2020
6320 Clouds 20 1013 88 10000 1.18 82 19:18 01.07.2020
6321 Clouds 20 1013 94 10000 1.18 82 18:42 01.07.2020
6322 Clouds 20 1013 94 10000 1.37 111 18:21 01.07.2020
6323 Clouds 20 1013 83 10000 1.37 111 17:57 01.07.2020
6324 Clouds 20 1013 83 10000 1.37 111 17:38 01.07.2020
6325 Clouds 21 1013 83 10000 1.64 128 17:19 01.07.2020
6326 Clouds 21 1013 83 10000 1.64 128 16:46 01.07.2020
6327 Clouds 20 1013 83 10000 1.6 108 16:26 01.07.2020
6328 Clouds 21 1013 83 10000 1.6 108 15:55 01.07.2020
6329 Clouds 21 1013 78 10000 1.5 230 15:37 01.07.2020
6330 Clouds 22 1013 78 10000 1.5 230 15:18 01.07.2020
6331 Clouds 22 1013 73 10000 1.5 250 14:42 01.07.2020
6332 Clouds 22 1013 73 10000 1.5 250 14:21 01.07.2020
6333 Clouds 22 1013 73 10000 1 250 13:57 01.07.2020
6334 Clouds 23 1012 73 10000 0.5 360 13:38 01.07.2020
6335 Clouds 23 1012 69 10000 1 360 13:20 01.07.2020
6336 Clouds 23 1012 69 10000 1 360 12:57 01.07.2020
6337 Clouds 24 1012 65 10000 1 330 12:38 01.07.2020
6338 Clouds 25 1011 57 10000 1.5 330 12:20 01.07.2020
6339 Clouds 25 1011 57 10000 2.1 330 11:40 01.07.2020
6340 Clear 25 1011 57 10000 2.1 330 11:22 01.07.2020
6341 Clear 26 1011 54 10000 3.1 350 10:58 01.07.2020
6342 Clear 27 1010 51 10000 4.1 350 10:39 01.07.2020
6343 Clear 27 1010 51 10000 4.1 350 10:21 01.07.2020
6344 Clear 29 1010 48 10000 4.1 350 09:40 01.07.2020
6345 Clear 29 1010 48 10000 4.1 350 09:20 01.07.2020
6346 Clear 29 1010 45 10000 4.1 350 08:59 01.07.2020
6347 Clear 29 1010 45 10000 4.6 350 08:40 01.07.2020
6348 Clouds 29 1010 45 10000 4.6 350 08:20 01.07.2020
6349 Clouds 29 1011 45 10000 4.6 320 07:43 01.07.2020
6350 Clouds 30 1011 45 10000 4.6 320 07:25 01.07.2020
6351 Clouds 29 1011 42 10000 3.6 320 06:59 01.07.2020
6352 Clouds 30 1011 42 10000 3.6 300 06:40 01.07.2020
6353 Clouds 30 1012 33 10000 3.6 260 06:20 01.07.2020
6354 Clear 29 1013 42 10000 2.6 50 04:30 01.07.2020
6355 Clear 28 1014 47 10000 4.1 70 03:44 01.07.2020
6356 Clear 27 1014 47 10000 4.1 70 03:22 01.07.2020
6357 Rain 26 1014 61 10000 4.1 90 02:19 01.07.2020
6358 Clear 23 1014 88 10000 1.5 130 01:23 01.07.2020
6359 Clouds 21 1013 88 10000 2.6 130 00:38 01.07.2020
6360 Clouds 21 1013 88 10000 2.6 130 00:19 01.07.2020
6361 Clouds 21 1013 88 10000 2.6 140 23:40 30.06.2020
6362 Clouds 21 1013 88 10000 2.6 140 23:20 30.06.2020
6363 Clear 20 1012 88 10000 1.5 150 22:42 30.06.2020
6364 Clear 19 1012 88 10000 1.5 150 22:19 30.06.2020
6365 Clear 19 1012 88 10000 0.5 130 21:55 30.06.2020
6366 Clear 19 1012 88 10000 1.5 150 21:37 30.06.2020
6367 Clear 19 1012 88 10000 1.5 150 21:18 30.06.2020
6368 Clear 19 1012 93 10000 1 130 20:42 30.06.2020
6369 Clear 19 1012 93 10000 1 130 20:21 30.06.2020
6370 Clear 19 1011 94 10000 1 140 19:44 30.06.2020
6371 Clear 20 1012 94 10000 1 40 19:21 30.06.2020
6372 Clear 20 1012 94 10000 1 40 18:58 30.06.2020
6373 Clear 20 1012 88 10000 2.01 150 18:40 30.06.2020
6374 Clear 20 1012 88 10000 1.77 131 18:20 30.06.2020
6375 Clear 20 1012 88 10000 1 40 17:40 30.06.2020
6376 Clear 20 1012 88 10000 1 40 17:21 30.06.2020
6377 Clear 21 1012 88 10000 1 40 16:58 30.06.2020
6378 Clear 21 1012 88 10000 1 40 16:58 30.06.2020
6379 Clear 21 1012 88 10000 0.5 200 16:40 30.06.2020
6380 Clear 21 1012 88 10000 0.5 200 16:21 30.06.2020
6381 Clear 22 1012 78 10000 2.1 210 15:56 30.06.2020
6382 Clear 22 1013 83 10000 2.1 210 15:38 30.06.2020
6383 Clear 22 1013 83 10000 2.1 210 15:19 30.06.2020
6384 Clear 23 1012 69 10000 2.1 210 14:43 30.06.2020
6385 Clear 23 1012 69 10000 2.1 210 14:22 30.06.2020
6386 Clear 23 1012 64 10000 0.5 240 13:58 30.06.2020
6387 Clear 23 1012 64 10000 0.5 10 13:37 30.06.2020
6388 Clear 23 1012 69 10000 1.5 360 13:19 30.06.2020
6389 Clear 23 1012 69 10000 1.5 360 13:19 30.06.2020
6390 Clear 23 1012 69 10000 1.5 360 12:56 30.06.2020
6391 Clear 24 1011 61 10000 2.1 360 12:38 30.06.2020
6392 Clear 24 1011 57 10000 2.1 360 12:19 30.06.2020
6393 Clear 24 1011 57 10000 2.1 360 12:19 30.06.2020
6394 Clear 25 1011 57 10000 2.1 360 11:56 30.06.2020
6395 Clear 25 1011 57 10000 3.6 350 11:38 30.06.2020
6396 Clouds 26 1011 57 10000 3.6 350 11:18 30.06.2020
6397 Clouds 27 1010 51 10000 3.6 360 10:54 30.06.2020
6398 Clouds 23 1013 83 10000 2.6 180 16:38 28.06.2020
6399 Clouds 23 1013 83 10000 2.6 180 16:18 28.06.2020
6400 Clouds 24 1013 73 10000 2.1 180 15:54 28.06.2020
6401 Clouds 23 1013 78 10000 1.5 170 15:36 28.06.2020
6402 Clouds 24 1013 69 10000 2.1 180 15:18 28.06.2020
6403 Clouds 23 1013 78 10000 1.47 151 14:41 28.06.2020
6404 Clouds 23 1013 78 10000 2.26 215 14:23 28.06.2020
6405 Clouds 24 1013 69 10000 1 20 13:40 28.06.2020
6406 Clouds 24 1012 65 10000 1.5 30 13:21 28.06.2020
6407 Clouds 25 1012 65 10000 1.5 30 12:58 28.06.2020
6408 Clouds 25 1012 65 10000 2.1 40 12:38 28.06.2020
6409 Clouds 25 1012 65 10000 2.1 40 12:38 28.06.2020
6410 Clouds 25 1012 65 10000 2.1 40 12:38 28.06.2020
6411 Clouds 26 1012 65 10000 2.1 40 12:19 28.06.2020
6412 Clouds 26 1011 61 10000 3.1 30 11:59 28.06.2020
6413 Clouds 26 1011 61 10000 3.1 30 11:59 28.06.2020
6414 Clouds 27 1011 54 10000 4.1 20 11:40 28.06.2020
6415 Clouds 27 1011 54 10000 4.1 20 11:20 28.06.2020
6416 Clouds 28 1011 51 10000 5.1 350 10:58 28.06.2020
6417 Clouds 28 1011 51 10000 3.6 350 10:40 28.06.2020
6418 Clouds 29 1011 51 10000 3.6 350 10:21 28.06.2020
6419 Clouds 30 1010 45 10000 5.1 350 09:42 28.06.2020
6420 Clouds 30 1010 45 10000 5.1 350 09:23 28.06.2020
6421 Clouds 31 1010 43 10000 3.6 360 08:57 28.06.2020
6422 Clouds 32 1011 25 10000 5.1 320 08:38 28.06.2020
6423 Clouds 32 1011 25 10000 5.1 320 08:20 28.06.2020
6424 Clouds 32 1011 27 10000 3.6 90 07:33 28.06.2020
6425 Clouds 32 1012 29 10000 4.1 60 06:56 28.06.2020
6426 Clouds 32 1012 29 10000 4.1 60 06:32 28.06.2020
6427 Clouds 31 1013 31 10000 5.1 330 05:50 28.06.2020
6428 Clouds 30 1014 40 10000 5.7 90 04:27 28.06.2020
6429 Clouds 28 1015 51 10000 3.6 90 02:58 28.06.2020
6430 Clouds 26 1015 65 10000 3.6 100 02:21 28.06.2020
6431 Clouds 24 1014 73 10000 2.6 120 01:45 28.06.2020
6432 Clouds 22 1014 83 10000 1.5 150 00:57 28.06.2020
6433 Clouds 21 1013 94 10000 1.5 110 00:30 28.06.2020
6434 Clouds 20 1013 94 10000 1 100 23:58 27.06.2020
6435 Clouds 20 1013 94 10000 1 130 23:39 27.06.2020
6436 Clouds 20 1013 94 10000 1 130 23:21 27.06.2020
6437 Clouds 20 1013 94 10000 1.5 140 22:42 27.06.2020
6438 Clouds 20 1013 94 10000 1.5 140 22:23 27.06.2020
6439 Clouds 20 1013 94 10000 1.5 140 22:23 27.06.2020
6440 Clouds 20 1013 88 10000 1.5 140 21:59 27.06.2020
6441 Clouds 20 1012 94 10000 1.5 110 21:41 27.06.2020
6442 Clouds 21 1012 94 10000 1.5 110 21:20 27.06.2020
6443 Clouds 21 1012 94 10000 1.5 80 20:55 27.06.2020
6444 Clouds 21 1012 94 10000 1.5 80 20:37 27.06.2020
6445 Clouds 21 1012 94 10000 1.5 80 20:18 27.06.2020
6446 Clouds 21 1012 100 10000 1 50 19:38 27.06.2020
6447 Clouds 21 1013 94 10000 1 50 19:19 27.06.2020
6448 Clouds 22 1013 94 10000 1 50 18:57 27.06.2020
6449 Clouds 22 1013 88 10000 1.5 70 18:38 27.06.2020
6450 Clouds 22 1013 88 10000 1.5 70 18:38 27.06.2020
6451 Clouds 23 1013 83 10000 2.6 190 18:19 27.06.2020
6452 Clouds 24 1013 83 10000 2.6 190 17:41 27.06.2020
6453 Clouds 24 1013 83 10000 2.6 190 17:41 27.06.2020
6454 Clouds 24 1013 83 10000 2.6 190 17:21 27.06.2020
6455 Clouds 24 1013 83 10000 2.6 200 16:57 27.06.2020
6456 Clouds 24 1013 88 10000 2.6 200 16:39 27.06.2020
6457 Clouds 24 1013 88 10000 2.6 200 16:20 27.06.2020
6458 Clouds 24 1013 83 10000 2.6 190 15:45 27.06.2020
6459 Clouds 25 1013 83 10000 2.6 210 15:24 27.06.2020
6460 Clouds 25 1013 83 10000 2.1 210 14:58 27.06.2020
6461 Clouds 25 1013 83 10000 2.6 210 14:39 27.06.2020
6462 Clouds 25 1013 83 10000 2.1 220 14:20 27.06.2020
6463 Clouds 25 1013 83 10000 2.1 220 13:54 27.06.2020
6464 Clouds 26 1012 74 10000 0.5 360 13:36 27.06.2020
6465 Clouds 26 1012 69 10000 1.5 360 13:18 27.06.2020
6466 Clouds 25 1011 69 10000 1.5 360 12:40 27.06.2020
6467 Clouds 26 1011 61 10000 2.1 350 12:22 27.06.2020
6468 Clouds 27 1011 61 10000 2.1 350 11:59 27.06.2020
6469 Clouds 27 1011 58 10000 2.6 340 11:40 27.06.2020
6470 Clouds 28 1011 58 10000 2.6 340 11:21 27.06.2020
6471 Clouds 29 1010 55 10000 3.6 340 10:41 27.06.2020
6472 Clouds 30 1010 55 10000 3.6 340 10:19 27.06.2020
6473 Clouds 30 1010 55 10000 4.6 340 09:58 27.06.2020
6474 Clouds 30 1010 55 10000 4.6 340 09:39 27.06.2020
6475 Clouds 31 1010 55 10000 4.6 340 09:20 27.06.2020
6476 Clouds 31 1010 45 10000 5.7 340 08:44 27.06.2020
6477 Clouds 31 1010 45 10000 5.7 340 08:23 27.06.2020
6478 Clouds 32 1010 35 10000 5.7 100 07:48 27.06.2020
6479 Clouds 32 1011 33 10000 5.1 130 07:26 27.06.2020
6480 Clouds 32 1011 35 10000 5.1 330 06:52 27.06.2020
6481 Clouds 32 1011 35 10000 5.1 330 06:33 27.06.2020
6482 Clouds 31 1013 37 10000 6.7 90 04:55 27.06.2020
6483 Clouds 29 1013 39 10000 6.2 100 04:18 27.06.2020
6484 Clouds 29 1013 37 10000 5.7 80 03:50 27.06.2020
6485 Clouds 26 1014 36 10000 4.1 130 02:43 27.06.2020
6486 Clouds 26 1014 36 10000 4.1 130 02:24 27.06.2020
6487 Clouds 23 1014 46 10000 3.6 130 01:34 27.06.2020
6488 Clouds 23 1013 49 10000 3.6 130 00:49 27.06.2020
6489 Clouds 21 1013 56 10000 3.1 150 23:56 26.06.2020
6490 Clouds 22 1012 53 10000 3.6 120 23:37 26.06.2020
6491 Clouds 22 1012 53 10000 3.6 120 23:19 26.06.2020
6492 Clouds 22 1012 60 10000 3.6 140 22:42 26.06.2020
6493 Clear 22 1012 60 10000 3.6 140 22:24 26.06.2020
6494 Clear 22 1012 60 10000 3.1 160 21:58 26.06.2020
6495 Clear 22 1012 60 10000 3.1 160 21:40 26.06.2020
6496 Clear 22 1012 60 10000 3.1 160 21:40 26.06.2020
6497 Clear 22 1012 60 10000 3.1 160 21:21 26.06.2020
6498 Clear 22 1012 68 10000 2.6 170 20:58 26.06.2020
6499 Clear 22 1012 60 10000 3.1 180 20:39 26.06.2020
6500 Clouds 22 1012 64 10000 3.1 190 20:18 26.06.2020
6501 Clouds 22 1013 69 10000 2.6 200 19:40 26.06.2020
6502 Clouds 22 1013 69 10000 3.1 200 19:20 26.06.2020
6503 Clouds 23 1013 64 10000 2.1 200 18:43 26.06.2020
6504 Clouds 23 1013 64 10000 2.1 200 18:25 26.06.2020
6505 Clouds 23 1013 69 10000 2.6 190 17:55 26.06.2020
6506 Clouds 24 1013 69 10000 2.1 200 17:37 26.06.2020
6507 Clouds 24 1013 69 10000 2.1 200 17:19 26.06.2020
6508 Clouds 24 1013 69 10000 2.6 200 16:42 26.06.2020
6509 Clouds 24 1013 69 10000 2.6 200 16:23 26.06.2020
6510 Clouds 24 1013 69 10000 2.6 200 15:41 26.06.2020
6511 Clouds 24 1013 69 10000 2.6 200 15:22 26.06.2020
6512 -273 0 0 0 0 0 14:59 26.06.2020
6513 Clouds 24 1012 69 10000 2.1 210 14:40 26.06.2020
6514 Clear 24 1012 69 10000 2.1 210 14:22 26.06.2020
6515 Clear 25 1012 73 10000 1 10 13:47 26.06.2020
6516 Clear 25 1012 69 10000 1.5 10 13:25 26.06.2020
6517 Clear 26 1011 61 10000 2.6 10 12:59 26.06.2020
6518 Clear 26 1011 61 10000 2.6 10 12:41 26.06.2020
6519 Clear 26 1011 61 10000 2.6 10 12:22 26.06.2020
6520 Clear 26 1011 61 10000 3.1 10 11:57 26.06.2020
6521 Clear 27 1010 54 10000 3.6 360 11:39 26.06.2020
6522 Clear 27 1010 54 10000 3.6 360 11:20 26.06.2020
6523 Clouds 28 1010 51 10000 4.6 10 10:57 26.06.2020
6524 Clear 29 1010 45 10000 5.1 10 10:38 26.06.2020
6525 Clear 30 1010 45 10000 5.1 10 10:18 26.06.2020
6526 Clear 31 1010 40 10000 6.2 50 09:43 26.06.2020
6527 Clouds 32 1010 40 10000 6.2 50 09:23 26.06.2020
6528 Clouds 32 1010 38 10000 5.7 40 08:55 26.06.2020
6529 Clouds 31 1010 38 10000 4.1 330 08:28 26.06.2020
6530 Clouds 32 1010 33 10000 4.6 80 07:53 26.06.2020
6531 Clouds 32 1010 35 10000 5.1 70 07:24 26.06.2020
6532 Clouds 32 1010 33 10000 4.1 330 06:58 26.06.2020
6533 Clouds 31 1011 33 10000 4.1 330 06:36 26.06.2020
6534 Clouds 30 1011 33 10000 4.6 90 05:59 26.06.2020
6535 Clouds 30 1012 30 10000 5.7 90 05:33 26.06.2020
6536 Clear 26 1014 34 10000 5.1 100 02:42 26.06.2020
6537 Clouds 25 1014 34 10000 5.1 100 02:22 26.06.2020
6538 Clouds 23 1013 43 10000 4.1 100 01:19 26.06.2020
6539 Clouds 21 1012 43 10000 4.6 100 00:39 26.06.2020
6540 Clouds 21 1012 40 10000 4.6 110 00:18 26.06.2020
6541 Clouds 21 1012 40 10000 4.6 100 23:39 25.06.2020
6542 Clouds 21 1012 40 10000 4.6 100 23:18 25.06.2020
6543 Clouds 21 1012 37 10000 4.1 100 22:54 25.06.2020
6544 Clouds 21 1012 37 10000 4.1 100 22:54 25.06.2020
6545 Clouds 20 1012 40 10000 3.6 120 22:36 25.06.2020
6546 Clouds 19 1012 40 10000 3.6 120 22:18 25.06.2020
6547 Clouds 18 1012 45 10000 3.1 130 21:54 25.06.2020
6548 Clouds 19 1012 45 10000 2.6 120 21:36 25.06.2020
6549 Clouds 19 1012 43 10000 2.6 120 21:18 25.06.2020
6550 Clouds 18 1012 56 10000 1.5 90 20:43 25.06.2020
6551 Clouds 20 1012 56 10000 1.5 90 20:23 25.06.2020
6552 Clouds 21 1012 60 10000 2.6 60 19:57 25.06.2020
6553 Clouds 20 1012 60 10000 2.6 60 19:38 25.06.2020
6554 Clouds 20 1012 53 6000 2.1 110 19:18 25.06.2020
6555 Clouds 19 1012 94 5000 1.5 170 18:55 25.06.2020
6556 Clouds 19 1012 94 5000 1.5 170 18:36 25.06.2020
6557 Clouds 19 1012 94 5000 1.5 170 18:36 25.06.2020
6558 Clouds 20 1012 94 7000 1 190 18:18 25.06.2020
6559 Clouds 20 1012 88 10000 1.5 200 17:39 25.06.2020
6560 Clouds 20 1012 88 10000 1.5 200 17:19 25.06.2020
6561 Clouds 20 1013 83 10000 2.83 136 16:41 25.06.2020
6562 Clouds 20 1013 83 10000 2.11 150 16:21 25.06.2020
6563 Clouds 20 1012 83 10000 2.11 150 15:46 25.06.2020
6564 Clouds 21 1013 78 10000 1.81 170 15:27 25.06.2020
6565 Clouds 22 1013 78 10000 1.81 170 14:58 25.06.2020
6566 Clouds 22 1013 78 10000 1.81 170 14:40 25.06.2020
6567 Clouds 22 1013 78 10000 1.65 204 14:22 25.06.2020
6568 Smoke 22 1013 73 10000 1.65 206 13:56 25.06.2020
6569 Smoke 22 1013 73 10000 1.65 206 13:37 25.06.2020
6570 Smoke 22 1013 73 10000 0.97 262 13:19 25.06.2020
6571 Smoke 22 1013 73 10000 0.97 262 13:19 25.06.2020
6572 Smoke 23 1012 69 10000 1 340 12:44 25.06.2020
6573 Smoke 24 1011 61 10000 4.1 160 12:20 25.06.2020
6574 Smoke 25 1011 57 10000 4.1 160 11:44 25.06.2020
6575 Smoke 25 1011 57 10000 4.1 160 11:25 25.06.2020
6576 Smoke 27 1011 54 10000 4.1 160 10:59 25.06.2020
6577 Clouds 27 1011 51 10000 4.1 350 10:40 25.06.2020
6578 Clouds 28 1011 51 10000 4.1 350 10:22 25.06.2020
6579 Smoke 29 1011 39 10000 4.1 330 09:41 25.06.2020
6580 Smoke 29 1011 39 10000 4.1 330 09:23 25.06.2020
6581 Clouds 31 1011 27 10000 2.1 110 08:47 25.06.2020
6582 Clear 32 1011 27 10000 2.1 110 08:20 25.06.2020
6583 Clear 31 1011 25 10000 2.6 330 07:56 25.06.2020
6584 Clear 30 1011 27 10000 4.6 140 07:38 25.06.2020
6585 Clear 31 1011 27 10000 3.6 120 07:19 25.06.2020
6586 Clear 30 1012 26 10000 5.7 120 06:28 25.06.2020
6587 Clear 29 1012 26 10000 5.7 120 05:53 25.06.2020
6588 Clear 28 1013 32 10000 5.1 110 04:56 25.06.2020
6589 Clear 27 1014 36 10000 4.6 120 03:35 25.06.2020
6590 Clear 25 1014 38 10000 4.6 130 02:44 25.06.2020
6591 Clear 24 1014 44 10000 5.1 130 02:18 25.06.2020
6592 Clouds 23 1014 46 10000 4.6 130 01:34 25.06.2020
6593 Clouds 21 1013 60 10000 3.6 150 00:47 25.06.2020
6594 Clouds 21 1013 60 10000 2.6 130 00:22 25.06.2020
6595 Clouds 21 1013 60 10000 2.6 130 23:58 24.06.2020
6596 Clouds 22 1013 56 10000 3.1 130 23:37 24.06.2020
6597 Clouds 21 1013 56 10000 3.1 130 23:18 24.06.2020
6598 Clouds 20 1013 83 10000 2.1 170 22:41 24.06.2020
6599 Clouds 20 1013 83 10000 2.1 170 22:20 24.06.2020
6600 Clouds 21 1012 78 10000 2.1 180 21:57 24.06.2020
6601 Clouds 21 1012 78 10000 2.1 130 21:37 24.06.2020
6602 Clear 21 1012 78 10000 2.1 130 21:19 24.06.2020
6603 Clear 21 1012 83 10000 2.1 150 20:58 24.06.2020
6604 Clear 21 1012 83 10000 2.1 150 20:39 24.06.2020
6605 Clear 21 1012 83 10000 2.1 150 20:20 24.06.2020
6606 Clear 21 1012 88 10000 1.5 150 19:57 24.06.2020
6607 Clear 21 1012 88 9000 1.5 140 19:38 24.06.2020
6608 Clear 21 1012 88 10000 1 110 19:19 24.06.2020
6609 Clear 22 1012 88 10000 1 110 18:58 24.06.2020
6610 Clear 22 1012 88 9000 1.5 120 18:39 24.06.2020
6611 Clear 22 1013 94 10000 1 90 18:20 24.06.2020
6612 Clear 22 1013 94 10000 1 90 17:54 24.06.2020
6613 Clear 22 1013 88 10000 1 90 17:36 24.06.2020
6614 Clear 22 1013 88 10000 1 90 17:18 24.06.2020
6615 Clear 23 1012 83 10000 3.1 190 16:54 24.06.2020
6616 Clear 23 1012 83 10000 2.1 180 16:36 24.06.2020
6617 Clear 23 1013 83 10000 1 190 16:18 24.06.2020
6618 Clear 24 1013 78 10000 1 180 15:39 24.06.2020
6619 Clear 23 1013 73 10000 1.5 180 15:20 24.06.2020
6620 Clear 23 1013 73 10000 1.5 180 14:59 24.06.2020
6621 Clear 23 1012 69 10000 2.1 190 14:40 24.06.2020
6622 Clear 24 1012 69 10000 2.1 190 14:21 24.06.2020
6623 Clear 24 1012 69 10000 0.5 40 13:42 24.06.2020
6624 Clear 24 1012 73 10000 2.6 30 13:21 24.06.2020
6625 Clear 25 1012 69 10000 2.1 10 12:44 24.06.2020
6626 Clear 25 1011 65 10000 2.6 10 12:21 24.06.2020
6627 Clear 26 1011 65 10000 2.6 10 11:58 24.06.2020
6628 Clear 26 1011 61 10000 2.6 10 11:40 24.06.2020
6629 Clear 26 1011 61 10000 2.6 10 11:22 24.06.2020
6630 Clear 28 1010 48 10000 2.6 340 10:48 24.06.2020
6631 Clear 29 1010 48 10000 2.6 340 10:20 24.06.2020
6632 Clear 29 1010 48 10000 3.1 330 09:57 24.06.2020
6633 Clear 30 1010 45 10000 3.6 340 09:39 24.06.2020
6634 Clear 30 1010 45 10000 3.6 340 09:20 24.06.2020
6635 Clear 31 1011 43 10000 4.6 310 08:40 24.06.2020
6636 Clear 32 1011 33 10000 2.1 310 08:19 24.06.2020
6637 Clear 31 1011 33 10000 3.1 110 07:50 24.06.2020
6638 Clear 31 1011 33 10000 3.1 330 07:26 24.06.2020
6639 Clear 31 1012 35 10000 4.1 120 06:46 24.06.2020
6640 Clear 30 1013 35 10000 3.6 90 06:24 24.06.2020
6641 Clear 30 1013 37 10000 5.7 110 05:46 24.06.2020
6642 Clear 29 1014 42 10000 6.2 80 04:40 24.06.2020
6643 Clear 27 1014 44 10000 7.2 90 03:40 24.06.2020
6644 Clear 27 1014 44 10000 7.2 90 03:19 24.06.2020
6645 Clear 25 1015 53 10000 6.2 90 02:41 24.06.2020
6646 Clear 22 1014 64 10000 3.6 90 00:58 24.06.2020
6647 Clear 22 1014 64 10000 3.6 90 00:39 24.06.2020
6648 Clouds 21 1014 64 10000 3.6 90 00:21 24.06.2020
6649 Clouds 22 1014 60 10000 4.6 90 23:40 23.06.2020
6650 Clear 22 1013 56 10000 4.1 100 23:18 23.06.2020
6651 Clear 23 1013 56 10000 4.6 100 22:41 23.06.2020
6652 Clouds 23 1013 53 10000 5.1 110 22:19 23.06.2020
6653 Clouds 23 1013 53 10000 5.1 110 21:59 23.06.2020
6654 Clouds 22 1013 49 10000 4.6 110 21:38 23.06.2020
6655 Clouds 22 1013 49 10000 4.6 110 21:19 23.06.2020
6656 Clouds 22 1013 46 10000 3.6 130 20:55 23.06.2020
6657 Clouds 22 1013 46 10000 3.6 140 20:37 23.06.2020
6658 Clouds 22 1013 46 10000 3.6 140 20:18 23.06.2020
6659 Clouds 23 1013 47 10000 3.1 160 19:44 23.06.2020
6660 Clouds 22 1013 50 10000 2.6 170 19:24 23.06.2020
6661 Clouds 23 1013 60 10000 2.6 170 18:40 23.06.2020
6662 Clear 22 1013 69 10000 2.1 170 18:19 23.06.2020
6663 Clear 22 1013 69 10000 2.1 170 17:56 23.06.2020
6664 Clear 22 1013 69 10000 2.1 170 17:56 23.06.2020
6665 Clouds 22 1013 78 10000 1.5 190 17:38 23.06.2020
6666 Clear 22 1013 83 10000 1.5 210 17:18 23.06.2020
6667 Cle